# Wetter Temperatur Luftdruck Luftfeuchtigkeit Sichtweite Windgeschwindigkeit Windrichtung Zeit
1 Clear 13 1019 51 10000 2.1 120 20:18 17.10.2019
2 Clear 14 1019 51 10000 1 0 19:42 17.10.2019
3 Clear 14 1019 51 10000 1 0 19:20 17.10.2019
4 Clear 14 1019 51 10000 1 0 19:20 17.10.2019
5 Clear 14 1019 51 10000 1 0 19:20 17.10.2019
6 Clear 14 1019 48 10000 1 0 18:59 17.10.2019
7 Clear 13 1018 45 10000 3.1 80 18:38 17.10.2019
8 Clear 17 1018 45 10000 3.1 80 18:20 17.10.2019
9 Clear 17 1018 45 10000 3.1 80 18:20 17.10.2019
10 Clouds 18 1018 25 10000 0.705 99 17:43 17.10.2019
11 Clouds 23 1018 25 10000 0.705 99 17:24 17.10.2019
12 Clouds 23 1018 24 10000 1 0 16:58 17.10.2019
13 Clouds 16 1018 25 10000 1.5 280 16:39 17.10.2019
14 Clouds 20 1018 25 10000 1.5 280 16:18 17.10.2019
15 Clouds 21 1018 25 10000 1 0 15:56 17.10.2019
16 Clouds 21 1018 25 10000 1 0 15:56 17.10.2019
17 Clouds 21 1018 25 10000 0.705 99 15:38 17.10.2019
18 Clear 25 1018 25 10000 1.322 60 15:19 17.10.2019
19 Clear 24 1018 27 10000 1.322 60 14:55 17.10.2019
20 Clouds 23 1018 31 10000 1.5 0 14:36 17.10.2019
21 Clouds 23 1018 31 10000 1.5 0 14:18 17.10.2019
22 Clouds 21 1019 37 10000 0.5 0 13:39 17.10.2019
23 Clouds 21 1020 42 10000 1.5 260 13:19 17.10.2019
24 Clouds 22 1020 45 10000 1 0 12:43 17.10.2019
25 Clouds 21 1020 48 10000 1 0 12:22 17.10.2019
26 Clouds 21 1020 48 10000 1 0 11:59 17.10.2019
27 Clouds 20 1021 51 10000 1.492 74 11:41 17.10.2019
28 Clouds 18 1021 58 10000 1 0 11:20 17.10.2019
29 Clouds 18 1021 58 10000 1 0 10:57 17.10.2019
30 Clouds 16 1021 66 10000 0.5 0 10:39 17.10.2019
31 Clouds 16 1021 66 10000 0.5 0 10:19 17.10.2019
32 Clouds 14 1021 71 10000 1.492 74 09:54 17.10.2019
33 Clouds 14 1021 71 10000 1.16 62 09:36 17.10.2019
34 Clear 11 1021 71 10000 0.517 282 09:18 17.10.2019
35 Clear 11 1021 71 10000 0.517 282 09:18 17.10.2019
36 Clear 8 1021 81 8000 1.5 100 08:42 17.10.2019
37 -273 0 0 0 0 0 08:24 17.10.2019
38 Clear 8 1020 93 8000 1 0 07:56 17.10.2019
39 Clear 7 1020 93 8000 1.5 130 07:37 17.10.2019
40 Clear 7 1020 93 8000 1.5 130 07:18 17.10.2019
41 Clear 7 1020 93 8000 1.5 100 06:40 17.10.2019
42 Clear 7 1020 93 8000 1.5 100 06:21 17.10.2019
43 Clear 7 1020 87 8000 1.5 110 05:54 17.10.2019
44 Clear 7 1020 93 8000 2.1 100 05:32 17.10.2019
45 Clear 7 1020 93 8000 2.1 100 05:32 17.10.2019
46 Clear 6 1020 87 10000 0.618 276 04:53 17.10.2019
47 Clear 6 1020 87 10000 1.5 320 03:55 17.10.2019
48 Clear 8 1020 81 10000 0.5 0 02:36 17.10.2019
49 Clear 8 1020 81 10000 0.648 233 01:27 17.10.2019
50 Clear 9 1019 71 10000 0.648 233 00:38 17.10.2019
51 Clear 9 1019 71 10000 0.5 0 00:19 17.10.2019
52 Clear 9 1019 62 10000 0.844 175 23:42 16.10.2019
53 Clear 9 1019 62 10000 0.844 175 23:21 16.10.2019
54 Clear 9 1019 62 10000 0.844 175 23:21 16.10.2019
55 Clear 9 1019 66 10000 1 0 22:56 16.10.2019
56 Clear 10 1019 66 10000 1.5 150 22:37 16.10.2019
57 Clear 10 1019 66 10000 1.5 150 22:18 16.10.2019
58 Clear 11 1019 58 10000 1.5 130 21:56 16.10.2019
59 Clear 11 1018 58 10000 1.5 150 21:37 16.10.2019
60 Clear 11 1018 58 10000 1.5 150 21:18 16.10.2019
61 Clear 12 1018 51 10000 2.1 120 20:57 16.10.2019
62 Clear 12 1018 51 10000 2.1 130 20:38 16.10.2019
63 Clear 12 1018 51 10000 2.1 130 20:20 16.10.2019
64 Clear 15 1018 45 10000 2.1 130 19:56 16.10.2019
65 Clear 15 1018 45 10000 2.1 140 19:38 16.10.2019
66 Clear 15 1018 45 10000 2.1 140 19:38 16.10.2019
67 Clear 15 1018 45 10000 2.1 140 19:19 16.10.2019
68 Clear 16 1017 32 10000 2.6 30 18:39 16.10.2019
69 Clear 16 1017 32 10000 2.6 30 18:39 16.10.2019
70 Clear 17 1017 25 10000 1 0 18:19 16.10.2019
71 Clear 18 1017 25 10000 1 0 17:56 16.10.2019
72 Clear 19 1016 40 10000 1 0 17:38 16.10.2019
73 Clear 23 1016 40 10000 1 0 17:20 16.10.2019
74 Clear 24 1017 18 10000 1 0 16:58 16.10.2019
75 Clear 19 1017 16 10000 1 0 16:40 16.10.2019
76 Clear 21 1017 16 10000 1 0 16:20 16.10.2019
77 Clear 21 1017 16 10000 1 0 15:56 16.10.2019
78 Clear 21 1017 22 10000 0.5 0 15:37 16.10.2019
79 Clear 25 1017 22 10000 0.5 0 15:18 16.10.2019
80 Clear 25 1017 19 10000 1.5 270 14:56 16.10.2019
81 Clear 24 1017 19 10000 1.5 270 14:38 16.10.2019
82 Clear 24 1017 23 10000 1 0 14:18 16.10.2019
83 Clear 23 1018 29 10000 1 0 13:56 16.10.2019
84 Clear 24 1018 29 10000 1 0 13:36 16.10.2019
85 Clear 24 1018 30 10000 1.5 0 13:18 16.10.2019
86 Clear 22 1019 40 10000 1 0 12:40 16.10.2019
87 Clear 22 1019 40 10000 1 0 12:18 16.10.2019
88 Clear 21 1019 42 10000 1 0 11:42 16.10.2019
89 Clear 20 1019 48 10000 0.59 43 11:18 16.10.2019
90 Clear 17 1020 55 10000 1.5 110 10:39 16.10.2019
91 Clear 17 1020 58 10000 1 0 10:20 16.10.2019
92 Clear 15 1020 66 10000 1 0 09:55 16.10.2019
93 Clear 14 1020 66 10000 1 0 09:37 16.10.2019
94 Clear 11 1020 71 9000 1.5 110 09:19 16.10.2019
95 Clear 8 1020 81 9000 0.5 0 08:42 16.10.2019
96 Clear 8 1020 81 9000 0.5 0 08:24 16.10.2019
97 Clouds 8 1020 87 8000 0.578 277 07:45 16.10.2019
98 -273 0 0 0 0 0 07:25 16.10.2019
99 Clear 7 1019 86 8000 2.1 100 06:58 16.10.2019
100 Clear 7 1019 86 8000 2.1 100 06:58 16.10.2019
101 Clear 7 1019 86 8000 2.1 100 06:39 16.10.2019
102 Clear 8 1019 87 10000 0.961 249 05:44 16.10.2019
103 Clear 10 1019 75 10000 1 280 02:58 16.10.2019
104 Clear 10 1019 75 10000 1 280 02:38 16.10.2019
105 Clear 9 1019 66 10000 2.1 140 01:19 16.10.2019
106 Clear 9 1019 66 10000 2.1 170 00:47 16.10.2019
107 Clear 10 1019 58 10000 2.1 190 00:27 16.10.2019
108 Clear 10 1019 58 10000 2.6 150 23:40 15.10.2019
109 Clear 10 1019 54 10000 3.1 140 23:22 15.10.2019
110 Clear 10 1019 54 10000 3.1 140 23:22 15.10.2019
111 Clear 10 1019 58 10000 3.6 150 22:56 15.10.2019
112 Clear 11 1019 58 10000 3.6 150 22:38 15.10.2019
113 Clear 11 1019 54 10000 3.6 130 22:19 15.10.2019
114 -273 0 0 0 0 0 21:56 15.10.2019
115 Clear 11 1019 54 10000 3.1 120 21:56 15.10.2019
116 Clear 11 1019 54 10000 3.1 120 21:38 15.10.2019
117 Clear 11 1019 54 10000 3.6 140 21:19 15.10.2019
118 Clear 13 1018 51 10000 3.6 130 20:57 15.10.2019
119 Clear 13 1018 51 10000 3.6 130 20:39 15.10.2019
120 Clear 14 1018 48 10000 3.6 140 20:20 15.10.2019
121 Clear 14 1018 48 10000 3.6 140 20:20 15.10.2019
122 Clear 14 1018 51 10000 3.1 130 19:57 15.10.2019
123 Clear 15 1018 40 10000 2.1 130 19:39 15.10.2019
124 Clear 17 1018 40 10000 2.1 130 19:19 15.10.2019
125 Clear 17 1018 40 10000 2.1 130 19:19 15.10.2019
126 Clear 17 1018 45 10000 2.6 120 18:47 15.10.2019
127 Clear 19 1017 40 10000 3.1 140 18:28 15.10.2019
128 Clear 22 1017 23 10000 1 0 17:58 15.10.2019
129 Clear 22 1017 23 10000 1 0 17:39 15.10.2019
130 Clear 23 1017 22 10000 1.511 116 17:20 15.10.2019
131 Clear 25 1017 21 10000 1 0 16:46 15.10.2019
132 Clear 25 1017 24 10000 1 0 16:23 15.10.2019
133 Clear 25 1018 24 10000 1 0 15:59 15.10.2019
134 Clear 25 1018 24 10000 1 0 15:41 15.10.2019
135 Clear 25 1018 24 10000 1 0 15:41 15.10.2019
136 Clear 25 1018 26 10000 1 0 15:20 15.10.2019
137 Clear 25 1018 25 10000 1.5 0 14:57 15.10.2019
138 Clear 25 1018 25 10000 1.5 0 14:38 15.10.2019
139 Clear 25 1018 25 10000 1.5 0 14:38 15.10.2019
140 Clear 25 1019 27 10000 1 0 14:19 15.10.2019
141 Clear 25 1019 31 10000 1.5 280 13:44 15.10.2019
142 Clear 24 1019 33 10000 2.1 290 13:21 15.10.2019
143 Clear 23 1020 40 10000 1 0 12:59 15.10.2019
144 Clear 23 1020 40 10000 1 0 12:39 15.10.2019
145 Clear 23 1020 40 10000 1 0 12:39 15.10.2019
146 Clear 22 1021 48 10000 1 0 12:20 15.10.2019
147 Clear 19 1021 48 10000 1 0 11:44 15.10.2019
148 Clear 20 1021 55 10000 1 0 11:21 15.10.2019
149 Clear 18 1021 55 10000 1 0 10:58 15.10.2019
150 Clear 18 1021 55 10000 1 0 10:39 15.10.2019
151 Clear 17 1021 62 10000 0.5 0 10:19 15.10.2019
152 Clear 15 1022 66 10000 2.13 158.403 09:57 15.10.2019
153 Clear 14 1022 66 10000 2.13 158.403 09:37 15.10.2019
154 Clear 12 1022 71 8000 1.57 124.746 09:19 15.10.2019
155 Clear 9 1022 76 8000 1.5 124.942 08:42 15.10.2019
156 Clear 8 1022 87 6000 1.5 124.942 08:21 15.10.2019
157 Mist 7 1021 93 7000 1 350 07:56 15.10.2019
158 Fog 7 1021 100 5000 1 360 07:38 15.10.2019
159 Fog 6 1021 100 5000 1 360 07:19 15.10.2019
160 Fog 6 1021 100 5000 1.5 124.942 06:44 15.10.2019
161 Fog 6 1021 100 5000 1.5 124.942 06:25 15.10.2019
162 Mist 7 1021 93 5000 1 90 05:41 15.10.2019
163 Mist 7 1021 87 5000 1.42 117.288 05:22 15.10.2019
164 Mist 5 1021 93 5000 2.1 100 04:23 15.10.2019
165 Clear 6 1021 81 6000 1.5 250 03:37 15.10.2019
166 Clear 7 1022 81 10000 0.5 0 02:24 15.10.2019
167 Clear 7 1022 81 10000 1 0 01:47 15.10.2019
168 Clear 8 1022 81 10000 1.51 115.953 01:19 15.10.2019
169 Clear 8 1022 71 10000 1 0 00:48 15.10.2019
170 Clear 9 1022 71 10000 2.1 170 00:21 15.10.2019
171 Clear 9 1022 66 10000 1.5 140 23:43 14.10.2019
172 Clear 10 1022 62 10000 2.1 160 23:20 14.10.2019
173 Clear 12 1022 62 10000 3.1 150 22:55 14.10.2019
174 Clear 12 1022 62 10000 3.1 150 22:37 14.10.2019
175 Clear 12 1022 62 10000 3.1 150 22:37 14.10.2019
176 Clear 12 1022 62 10000 3.1 150 22:18 14.10.2019
177 Clear 13 1022 58 10000 2.6 140 21:41 14.10.2019
178 Clear 13 1022 58 10000 2.6 140 21:22 14.10.2019
179 Clear 14 1021 51 10000 3.6 140 20:59 14.10.2019
180 Clear 14 1021 55 10000 1.5 120 20:39 14.10.2019
181 Clear 14 1021 55 10000 1.5 120 20:20 14.10.2019
182 Clear 16 1021 48 10000 1.5 140 19:58 14.10.2019
183 Clear 16 1021 48 10000 1.5 140 19:40 14.10.2019
184 Clear 17 1021 48 10000 2.6 120 19:22 14.10.2019
185 Clear 18 1021 52 10000 2.6 160 18:58 14.10.2019
186 Clear 19 1021 52 10000 2.6 160 18:38 14.10.2019
187 Clear 20 1021 43 10000 3.1 150 18:18 14.10.2019
188 Clear 20 1021 43 10000 3.1 150 18:18 14.10.2019
189 Clear 23 1021 30 10000 1 0 17:44 14.10.2019
190 Clear 24 1021 30 10000 1 0 17:25 14.10.2019
191 Clear 25 1021 31 10000 1 0 16:58 14.10.2019
192 Clear 25 1021 31 10000 1.5 290 16:40 14.10.2019
193 Clear 25 1021 31 10000 1.5 290 16:20 14.10.2019
194 Clear 24 1021 33 10000 1.5 260 15:41 14.10.2019
195 Clear 25 1021 33 10000 1.5 260 15:22 14.10.2019
196 Clear 23 1022 38 10000 1.5 250 14:44 14.10.2019
197 Clear 23 1022 38 10000 1.5 250 14:26 14.10.2019
198 Clear 24 1022 40 10000 1 0 13:59 14.10.2019
199 Clear 24 1023 43 10000 1 0 13:41 14.10.2019
200 Clear 23 1023 46 10000 1.5 0 13:21 14.10.2019
201 Clear 23 1024 52 10000 1 0 12:42 14.10.2019
202 -273 0 0 0 0 0 12:21 14.10.2019
203 Clear 22 1024 52 10000 1 0 12:21 14.10.2019
204 Clear 20 1024 55 10000 1 0 11:57 14.10.2019
205 Clear 19 1024 63 10000 1 0 11:39 14.10.2019
206 Clear 19 1024 63 10000 1 0 11:20 14.10.2019
207 Clear 17 1025 72 10000 0.5 0 10:44 14.10.2019
208 Clear 17 1025 72 10000 0.5 0 10:23 14.10.2019
209 Clear 15 1025 76 10000 1.83 164.682 09:59 14.10.2019
210 Clear 14 1025 81 10000 1.83 164.682 09:40 14.10.2019
211 Clear 13 1025 81 10000 1.18 114.826 09:20 14.10.2019
212 Mist 11 1025 93 5000 1 0 08:48 14.10.2019
213 Mist 10 1025 93 5000 1 0 08:23 14.10.2019
214 Mist 10 1024 93 4500 1.5 110 07:47 14.10.2019
215 Mist 10 1024 93 4500 1.5 110 07:23 14.10.2019
216 Fog 10 1024 100 5000 1.5 120 06:57 14.10.2019
217 Fog 10 1024 100 600 1.18 114.826 06:28 14.10.2019
218 Mist 8 1025 93 2000 1.21 110.428 05:55 14.10.2019
219 Clear 8 1024 93 8000 1 100 04:59 14.10.2019
220 Clear 9 1024 93 8000 1.21 110.428 03:49 14.10.2019
221 Clear 9 1024 87 8000 0.5 0 03:22 14.10.2019
222 Clear 10 1025 87 10000 1.2 109.279 01:56 14.10.2019
223 Clear 10 1025 87 10000 0.5 0 01:18 14.10.2019
224 Clear 11 1024 71 10000 2.1 140 00:40 14.10.2019
225 Clear 12 1024 71 10000 2.1 140 00:18 14.10.2019
226 Clear 12 1024 71 10000 3.6 150 23:40 13.10.2019
227 Clear 12 1024 71 10000 3.6 150 23:19 13.10.2019
228 Clear 12 1024 67 10000 3.1 130 22:55 13.10.2019
229 Clear 12 1024 67 10000 3.1 130 22:55 13.10.2019
230 Clear 12 1024 67 10000 3.1 130 22:55 13.10.2019
231 Clear 12 1024 67 10000 3.1 130 22:37 13.10.2019
232 Clear 12 1024 67 10000 3.1 130 22:19 13.10.2019
233 Clear 12 1024 67 10000 3.1 130 22:19 13.10.2019
234 Clear 12 1024 67 10000 3.1 130 21:55 13.10.2019
235 Clear 12 1024 67 10000 3.1 130 21:36 13.10.2019
236 Clear 13 1024 67 10000 3.1 130 21:18 13.10.2019
237 Clear 13 1024 67 10000 3.1 130 21:18 13.10.2019
238 Clear 13 1024 67 10000 3.1 130 21:18 13.10.2019
239 Clear 13 1024 67 10000 2.6 120 20:55 13.10.2019
240 Clear 13 1024 67 10000 2.6 120 20:55 13.10.2019
241 Clear 14 1024 63 10000 3.1 110 20:36 13.10.2019
242 Clear 14 1024 72 10000 2.6 120 20:18 13.10.2019
243 Clear 14 1023 63 10000 2.6 120 19:40 13.10.2019
244 Clear 15 1023 63 10000 2.6 120 19:22 13.10.2019
245 Clear 15 1023 59 10000 1.5 200 18:59 13.10.2019
246 Clear 15 1023 56 10000 0.5 230 18:38 13.10.2019
247 Clear 16 1023 56 10000 0.5 230 18:20 13.10.2019
248 Clear 18 1023 43 10000 1.07 165.587 17:59 13.10.2019
249 Clear 19 1023 38 10000 0.5 270 17:40 13.10.2019
250 Clear 23 1023 38 10000 0.5 270 17:22 13.10.2019
251 Clear 23 1023 41 10000 0.5 0 16:43 13.10.2019
252 Clear 23 1023 41 10000 0.5 0 16:19 13.10.2019
253 -273 0 0 0 0 0 15:57 13.10.2019
254 Clear 23 1023 41 10000 1.5 330 15:39 13.10.2019
255 Clear 24 1023 41 10000 1.5 330 15:20 13.10.2019
256 Clear 24 1023 41 10000 1.5 330 15:20 13.10.2019
257 Clear 24 1023 41 10000 1 0 14:57 13.10.2019
258 Clear 24 1024 43 10000 2.1 290 14:39 13.10.2019
259 Clear 24 1024 43 10000 2.1 290 14:20 13.10.2019
260 Clear 23 1024 49 10000 1.5 0 13:43 13.10.2019
261 -273 0 0 0 0 0 13:43 13.10.2019
262 Clear 23 1024 49 10000 1.5 0 13:24 13.10.2019
263 Clear 23 1025 52 10000 2.1 280 12:59 13.10.2019
264 Clear 23 1025 52 10000 2.1 280 12:59 13.10.2019
265 Clear 22 1025 52 10000 1.75 184.987 12:40 13.10.2019
266 Clear 22 1025 52 10000 1.56 182.352 12:21 13.10.2019
267 Clear 21 1025 55 10000 1.5 0 11:59 13.10.2019
268 Clear 20 1026 63 10000 1 0 11:40 13.10.2019
269 Clear 18 1026 63 10000 1 0 11:21 13.10.2019
270 Clear 18 1026 67 10000 1 0 10:59 13.10.2019
271 Clear 17 1026 72 10000 0.5 0 10:40 13.10.2019
272 Clear 17 1026 72 10000 0.5 0 10:22 13.10.2019
273 Clear 13 1026 81 10000 0.5 0 09:40 13.10.2019
274 Clear 12 1026 81 10000 0.5 0 09:21 13.10.2019
275 Fog 11 1026 87 7000 1.5 30 08:55 13.10.2019
276 Fog 10 1026 87 7000 1.5 30 08:27 13.10.2019
277 Mist 10 1026 93 5000 1.38 130.183 07:55 13.10.2019
278 Mist 9 1026 100 5000 1.38 130.183 07:35 13.10.2019
279 Fog 10 1026 100 7000 1.38 130.183 06:54 13.10.2019
280 Fog 10 1026 100 7000 1.38 130.183 06:54 13.10.2019
281 Clear 10 1025 100 8000 1.38 130.183 06:26 13.10.2019
282 Clear 8 1025 93 10000 0.5 0 05:27 13.10.2019
283 Clear 8 1025 93 10000 1.33 123.511 04:35 13.10.2019
284 Clear 8 1025 87 10000 1.5 350 03:35 13.10.2019
285 Clear 8 1026 87 10000 1.5 100 02:32 13.10.2019
286 Clear 9 1026 76 10000 2.1 170 01:37 13.10.2019
287 Clear 8 1026 81 10000 1.5 170 01:18 13.10.2019
288 Clear 9 1026 81 10000 1.5 170 00:42 13.10.2019
289 Clear 9 1026 81 10000 1.5 170 00:19 13.10.2019
290 Clear 10 1026 76 10000 2.1 150 23:42 12.10.2019
291 Clear 10 1026 76 10000 2.1 150 23:23 12.10.2019
292 Clear 11 1026 71 10000 3.1 150 22:59 12.10.2019
293 Clear 12 1025 67 10000 3.6 140 22:40 12.10.2019
294 Clear 12 1025 67 10000 3.6 140 22:22 12.10.2019
295 Clear 13 1025 67 10000 3.1 130 21:58 12.10.2019
296 Clear 13 1025 67 10000 4.1 110 21:40 12.10.2019
297 Clear 13 1025 67 10000 4.1 110 21:40 12.10.2019
298 Clear 13 1025 67 10000 4.1 110 21:40 12.10.2019
299 Clear 13 1025 67 10000 4.6 110 21:21 12.10.2019
300 Clear 13 1025 67 10000 4.6 110 20:54 12.10.2019
301 Clear 14 1025 67 10000 5.1 110 20:36 12.10.2019
302 Clear 14 1025 67 10000 5.1 110 20:18 12.10.2019
303 Clear 13 1024 67 10000 4.1 110 19:36 12.10.2019
304 Clear 14 1024 67 10000 4.1 110 19:18 12.10.2019
305 Clear 14 1024 55 10000 4.6 130 18:43 12.10.2019
306 Clear 14 1024 55 10000 4.6 130 18:24 12.10.2019
307 Clear 17 1024 46 10000 3.1 100 17:46 12.10.2019
308 Clear 21 1024 46 10000 3.1 100 17:22 12.10.2019
309 Clear 22 1024 44 10000 2.6 100 16:59 12.10.2019
310 Clear 22 1024 44 10000 2.6 100 16:59 12.10.2019
311 Clear 23 1024 46 10000 2.6 90 16:40 12.10.2019
312 Clear 22 1024 46 10000 2.6 90 16:21 12.10.2019
313 Clear 23 1024 44 10000 1.5 130 15:56 12.10.2019
314 Clear 22 1024 46 10000 3.6 70 15:37 12.10.2019
315 Clear 22 1024 46 10000 1.5 0 15:18 12.10.2019
316 Clear 22 1025 43 10000 1.5 0 14:39 12.10.2019
317 Clear 23 1025 43 10000 1 0 14:20 12.10.2019
318 Clear 23 1025 43 10000 1 0 13:50 12.10.2019
319 Clear 21 1026 49 10000 1.5 0 13:32 12.10.2019
320 Clear 21 1026 49 10000 1.5 150 12:55 12.10.2019
321 Clear 20 1027 52 10000 2.6 280 12:37 12.10.2019
322 Clear 19 1027 55 10000 1.5 0 12:18 12.10.2019
323 Clear 19 1027 55 10000 1 0 11:41 12.10.2019
324 Clear 19 1027 55 10000 1 0 11:22 12.10.2019
325 Clear 18 1027 59 10000 1.5 0 10:57 12.10.2019
326 Clear 17 1027 62 10000 1 0 10:38 12.10.2019
327 Clear 16 1027 62 10000 1 0 10:19 12.10.2019
328 Clear 15 1027 66 10000 1 0 09:56 12.10.2019
329 Clear 13 1027 71 10000 2.59 158.112 09:37 12.10.2019
330 Clear 10 1027 71 10000 1.92 136.748 09:19 12.10.2019
331 Clear 8 1027 75 10000 1.88 136.425 08:43 12.10.2019
332 Clear 8 1027 87 10000 1 340 08:23 12.10.2019
333 Clear 7 1027 87 10000 1.88 136.425 07:40 12.10.2019
334 Clear 6 1027 87 10000 1.88 136.425 07:22 12.10.2019
335 Clear 6 1027 93 10000 2.09 118.416 05:54 12.10.2019
336 Clear 7 1027 87 10000 1.5 10 05:25 12.10.2019
337 Clear 7 1027 81 10000 3.1 270 04:29 12.10.2019
338 Clear 7 1026 81 10000 2.09 118.416 03:46 12.10.2019
339 Clouds 8 1027 81 10000 1 20 02:37 12.10.2019
340 Clouds 9 1027 71 10000 1 0 01:30 12.10.2019
341 Clear 8 1026 76 10000 0.5 0 00:43 12.10.2019
342 Clear 8 1026 81 10000 1.24 101.22 00:19 12.10.2019
343 Clear 10 1026 66 10000 0.5 0 23:40 11.10.2019
344 Clear 10 1026 66 10000 0.5 0 23:40 11.10.2019
345 Clear 10 1026 66 10000 1.5 120 23:20 11.10.2019
346 Clear 10 1026 66 10000 1.5 120 22:56 11.10.2019
347 Clear 10 1026 66 10000 2.1 180 22:37 11.10.2019
348 Clear 10 1026 66 10000 2.1 180 22:18 11.10.2019
349 Clear 10 1025 58 10000 1 60 21:40 11.10.2019
350 Clear 10 1025 58 10000 1 60 21:21 11.10.2019
351 Clear 10 1025 58 10000 1.5 60 20:45 11.10.2019
352 Clear 10 1025 58 10000 1.5 60 20:27 11.10.2019
353 Clear 11 1025 47 10000 2.6 170 19:59 11.10.2019
354 Clear 11 1025 48 10000 2.6 170 19:39 11.10.2019
355 Clear 12 1025 48 10000 2.6 170 19:18 11.10.2019
356 Clear 12 1025 48 10000 2.6 170 19:18 11.10.2019
357 Clear 10 1025 45 10000 2.6 170 18:59 11.10.2019
358 Clear 10 1024 42 10000 3.1 40 18:39 11.10.2019
359 Clear 14 1024 42 10000 3.1 40 18:19 11.10.2019
360 Clear 15 1024 39 10000 4.1 40 17:59 11.10.2019
361 Clear 15 1024 40 10000 3.1 40 17:38 11.10.2019
362 Clear 20 1024 37 10000 2.1 340 17:19 11.10.2019
363 Clear 20 1024 37 10000 2.1 340 17:19 11.10.2019
364 Clear 20 1024 37 10000 2.1 340 16:59 11.10.2019
365 Clear 20 1024 37 10000 2.1 330 16:39 11.10.2019
366 Clear 20 1024 35 10000 2.6 340 16:19 11.10.2019
367 Clear 20 1024 37 10000 2.6 300 15:42 11.10.2019
368 Clear 20 1024 37 10000 2.6 300 15:22 11.10.2019
369 Clear 20 1024 35 10000 2.1 290 14:59 11.10.2019
370 Clear 19 1024 40 10000 2.1 270 14:40 11.10.2019
371 Clear 19 1024 40 10000 2.1 270 14:20 11.10.2019
372 Clear 19 1025 45 10000 2.6 310 13:45 11.10.2019
373 Clear 19 1025 45 10000 2.6 310 13:45 11.10.2019
374 Clear 20 1025 45 10000 2.6 310 13:25 11.10.2019
375 Clear 20 1025 42 10000 3.1 260 12:57 11.10.2019
376 Clear 19 1025 45 10000 3.1 300 12:39 11.10.2019
377 Clear 18 1025 45 10000 3.1 300 12:20 11.10.2019
378 Clear 19 1025 51 10000 3.6 0 11:58 11.10.2019
379 Clear 19 1025 51 10000 3.1 270 11:38 11.10.2019
380 Clear 17 1025 51 10000 3.1 270 11:20 11.10.2019
381 Clear 18 1025 59 10000 3.1 270 10:54 11.10.2019
382 Clear 17 1025 59 10000 3.6 280 10:36 11.10.2019
383 Clear 17 1025 59 10000 3.6 280 10:18 11.10.2019
384 Clouds 16 1025 76 10000 6.2 270 09:41 11.10.2019
385 Clouds 15 1025 76 10000 5.7 270 09:20 11.10.2019
386 Clouds 14 1025 76 10000 5.7 270 08:56 11.10.2019
387 Clouds 14 1024 82 10000 5.1 280 08:38 11.10.2019
388 Clouds 13 1024 82 10000 5.1 280 08:20 11.10.2019
389 Clouds 12 1024 82 10000 4.1 280 07:51 11.10.2019
390 Clouds 12 1023 87 10000 4.6 270 07:33 11.10.2019
391 Clouds 12 1023 87 10000 3.6 270 06:50 11.10.2019
392 Clouds 13 1023 82 10000 3.6 290 06:25 11.10.2019
393 Clouds 13 1022 87 10000 4.6 260 05:46 11.10.2019
394 Clouds 14 1022 87 10000 4.6 260 05:27 11.10.2019
395 Clouds 14 1022 87 10000 3.6 280 04:47 11.10.2019
396 Rain 14 1021 87 10000 3.6 300 03:20 11.10.2019
397 Clouds 14 1019 87 10000 1.5 250 00:54 11.10.2019
398 Rain 14 1018 82 10000 2.95 316.98 00:31 11.10.2019
399 Clouds 14 1018 77 10000 1 0 23:57 10.10.2019
400 Clear 14 1018 77 10000 1.5 0 23:39 10.10.2019
401 Clear 14 1018 77 10000 1.5 0 23:18 10.10.2019
402 Clear 15 1018 82 10000 1.5 360 22:54 10.10.2019
403 Clear 15 1018 82 10000 1 0 22:36 10.10.2019
404 Clear 15 1017 77 10000 1.5 330 22:18 10.10.2019
405 Clear 16 1017 72 10000 1 0 21:42 10.10.2019
406 Clear 17 1017 72 10000 1 0 21:22 10.10.2019
407 Clear 17 1017 72 10000 2.1 80 21:22 10.10.2019
408 Clear 17 1017 72 10000 2.1 80 20:57 10.10.2019
409 Clear 17 1017 77 10000 2.1 80 20:39 10.10.2019
410 Clear 17 1017 68 10000 1 0 20:19 10.10.2019
411 Clear 17 1017 68 10000 1 0 19:55 10.10.2019
412 Clear 18 1017 63 10000 1.5 170 19:36 10.10.2019
413 Clear 18 1017 63 10000 1.5 170 19:18 10.10.2019
414 Clouds 19 1016 60 10000 1.14 263.593 18:41 10.10.2019
415 Clouds 20 1016 60 10000 3.06 303.56 18:20 10.10.2019
416 Clouds 21 1016 49 10000 1.5 130 17:56 10.10.2019
417 Clouds 21 1016 49 10000 0.5 0 17:37 10.10.2019
418 Clouds 22 1016 49 10000 0.5 0 17:18 10.10.2019
419 Clouds 22 1016 46 10000 1 0 16:47 10.10.2019
420 Clouds 24 1016 44 10000 1 0 16:26 10.10.2019
421 Clouds 24 1017 44 10000 2.1 320 15:58 10.10.2019
422 Clouds 24 1017 47 10000 1 0 15:38 10.10.2019
423 Clouds 24 1017 47 10000 1 0 15:20 10.10.2019
424 Clouds 23 1017 44 10000 2.6 320 14:55 10.10.2019
425 Clouds 23 1017 44 10000 2.1 0 14:36 10.10.2019
426 Clouds 23 1017 46 10000 1.5 0 14:18 10.10.2019
427 Clouds 24 1018 46 10000 1 0 13:42 10.10.2019
428 Clouds 24 1018 46 10000 1 0 13:24 10.10.2019
429 Clouds 23 1018 52 10000 2.1 30 12:58 10.10.2019
430 Clouds 22 1019 56 10000 1.5 0 12:40 10.10.2019
431 Clouds 20 1019 56 10000 1.5 0 12:20 10.10.2019
432 Clouds 21 1019 59 10000 0.5 0 11:58 10.10.2019
433 Clear 21 1020 63 10000 0.5 0 11:38 10.10.2019
434 Clear 20 1020 63 10000 0.5 0 11:19 10.10.2019
435 Clear 18 1020 67 10000 1 0 10:44 10.10.2019
436 Clear 17 1020 67 10000 1 0 10:26 10.10.2019
437 Clear 15 1020 76 10000 1 0 09:56 10.10.2019
438 Clear 14 1020 76 10000 1 0 09:38 10.10.2019
439 Clear 12 1020 76 10000 1 0 09:20 10.10.2019
440 Clear 10 1020 81 10000 1 0 08:57 10.10.2019
441 Clear 9 1019 87 9000 0.5 0 08:37 10.10.2019
442 Clear 8 1019 87 9000 0.5 0 08:18 10.10.2019
443 Clouds 8 1019 93 9000 1.5 190 07:44 10.10.2019
444 Clouds 7 1019 93 9000 3.1 180 07:21 10.10.2019
445 Clouds 7 1019 93 9000 3.1 180 06:48 10.10.2019
446 Clouds 6 1019 93 8000 2.6 110 06:29 10.10.2019
447 Clouds 6 1019 93 8000 0.43 212.727 05:27 10.10.2019
448 Clear 5 1019 93 10000 1 0 04:39 10.10.2019
449 Clear 5 1019 93 10000 1 0 04:21 10.10.2019
450 Clear 7 1019 87 10000 1 0 01:43 10.10.2019
451 Clear 7 1019 87 10000 1 0 01:43 10.10.2019
452 Clear 7 1019 87 10000 1 0 01:24 10.10.2019
453 Clear 8 1019 81 10000 1.5 160 00:53 10.10.2019
454 Clear 8 1019 81 10000 1 150 00:21 10.10.2019
455 Clear 8 1019 81 10000 1.5 0 23:39 09.10.2019
456 Clear 9 1019 81 10000 1.5 0 23:20 09.10.2019
457 Clear 9 1019 76 10000 2.1 140 22:43 09.10.2019
458 Clear 11 1019 76 10000 2.1 140 22:24 09.10.2019
459 Clear 10 1019 76 10000 2.1 90 21:59 09.10.2019
460 Clear 10 1019 76 10000 2.1 90 21:59 09.10.2019
461 Clear 11 1019 71 10000 2.1 100 21:39 09.10.2019
462 Clear 11 1019 71 10000 2.1 100 21:20 09.10.2019
463 Clear 12 1019 71 10000 1 0 20:56 09.10.2019
464 Clear 12 1019 71 10000 1 0 20:56 09.10.2019
465 Clear 12 1019 67 10000 2.6 100 20:37 09.10.2019
466 Clear 13 1019 62 10000 2.6 80 20:18 09.10.2019
467 Clear 13 1019 62 10000 2.6 80 20:18 09.10.2019
468 Clear 14 1019 55 10000 2.6 0 19:45 09.10.2019
469 Clear 14 1019 55 10000 2.6 0 19:24 09.10.2019
470 Clear 15 1019 59 10000 2.1 180 18:58 09.10.2019
471 Clear 19 1019 48 10000 1.5 90 18:38 09.10.2019
472 Clear 17 1019 48 10000 1.5 90 18:18 09.10.2019
473 Clear 18 1019 45 10000 2.1 110 17:55 09.10.2019
474 Clear 19 1019 40 10000 2.1 140 17:37 09.10.2019
475 Clear 20 1019 43 10000 2.1 100 17:18 09.10.2019
476 Clear 17 1019 40 10000 2.6 110 16:41 09.10.2019
477 Clear 17 1019 40 10000 2.6 110 16:23 09.10.2019
478 Clear 18 1019 40 10000 1.5 90 15:58 09.10.2019
479 Clear 18 1020 42 10000 1 0 15:39 09.10.2019
480 Clear 18 1020 42 10000 1 0 15:20 09.10.2019
481 Clear 18 1020 42 10000 1.5 0 14:58 09.10.2019
482 Clear 18 1020 45 10000 1 0 14:39 09.10.2019
483 Clear 20 1020 45 10000 1 0 14:18 09.10.2019
484 Clear 19 1021 52 10000 1.5 0 13:40 09.10.2019
485 Clear 19 1021 52 10000 1.5 0 13:21 09.10.2019
486 Clear 18 1022 51 10000 1 0 12:59 09.10.2019
487 Clear 17 1023 55 10000 1.5 60 12:40 09.10.2019
488 Clear 16 1023 55 10000 1.5 60 12:21 09.10.2019
489 Clear 15 1023 58 10000 2.1 120 11:55 09.10.2019
490 Clear 16 1023 58 10000 2.1 0 11:36 09.10.2019
491 Clear 14 1024 66 10000 1.5 0 11:18 09.10.2019
492 Clear 14 1024 76 10000 1.5 0 10:43 09.10.2019
493 Clear 13 1024 76 10000 1.5 0 10:21 09.10.2019
494 Clear 11 1024 71 10000 2.6 120 09:57 09.10.2019
495 Clear 10 1024 81 10000 2.1 110 09:38 09.10.2019
496 Clear 10 1024 81 10000 2.1 110 09:38 09.10.2019
497 Clear 10 1024 81 10000 2.1 110 09:18 09.10.2019
498 Clear 8 1024 87 8000 2.1 120 08:39 09.10.2019
499 Clear 7 1024 93 8000 1 0 08:21 09.10.2019
500 Clear 7 1024 93 8000 1 0 07:47 09.10.2019
501 Clear 6 1024 87 8000 1.5 130 07:27 09.10.2019
502 Clear 6 1024 87 8000 1.5 130 07:27 09.10.2019
503 Clear 6 1023 93 8000 1 0 06:59 09.10.2019
504 Clear 5 1023 93 8000 2.57 131.125 06:41 09.10.2019
505 Clear 5 1024 93 10000 1.5 230 05:53 09.10.2019
506 Clear 4 1024 93 10000 2.41 128.905 05:18 09.10.2019
507 Clear 6 1024 87 10000 2.1 120 03:54 09.10.2019
508 Clear 5 1024 87 10000 2.6 130 02:42 09.10.2019
509 Clear 5 1024 87 10000 4.6 100 01:39 09.10.2019
510 Clear 5 1024 87 10000 4.6 100 01:39 09.10.2019
511 Clear 5 1024 87 10000 4.6 100 01:19 09.10.2019
512 Clear 5 1024 87 10000 5.1 100 00:55 09.10.2019
513 Clear 5 1024 81 10000 4.6 100 00:37 09.10.2019
514 Clear 5 1024 81 10000 4.6 100 00:19 09.10.2019
515 Clear 6 1024 81 10000 4.6 100 23:39 08.10.2019
516 Clear 6 1024 81 10000 5.1 110 23:18 08.10.2019
517 Clear 6 1024 81 10000 5.1 110 22:55 08.10.2019
518 Clear 7 1024 76 10000 5.1 110 22:36 08.10.2019
519 Clear 7 1024 76 10000 5.1 110 22:18 08.10.2019
520 Clear 7 1024 81 10000 4.1 130 21:55 08.10.2019
521 Clear 7 1024 81 10000 4.1 130 21:55 08.10.2019
522 Clouds 7 1024 76 10000 3.6 130 21:36 08.10.2019
523 Clouds 7 1024 76 10000 3.6 130 21:18 08.10.2019
524 Clear 7 1023 76 10000 2.6 140 20:55 08.10.2019
525 Clear 7 1023 76 10000 2.6 140 20:55 08.10.2019
526 Clear 7 1023 76 10000 3.6 130 20:36 08.10.2019
527 Clouds 8 1023 66 10000 4.1 110 20:18 08.10.2019
528 Clouds 8 1022 62 10000 3.6 120 19:42 08.10.2019
529 Clouds 9 1022 62 10000 3.1 130 19:24 08.10.2019
530 Clouds 7 1022 62 10000 3.1 130 18:59 08.10.2019
531 Clouds 8 1022 58 10000 3.1 150 18:41 08.10.2019
532 Clouds 9 1022 54 10000 2.6 150 18:22 08.10.2019
533 Clouds 10 1022 54 10000 2.6 150 17:57 08.10.2019
534 Clouds 10 1021 54 10000 3.1 150 17:39 08.10.2019
535 Clouds 10 1021 54 10000 3.1 150 17:18 08.10.2019
536 Clouds 10 1021 51 10000 4.1 150 16:41 08.10.2019
537 Clouds 11 1021 51 10000 4.1 150 16:22 08.10.2019
538 Clouds 11 1021 51 10000 3.1 150 15:57 08.10.2019
539 Clouds 10 1021 51 10000 3.1 150 15:38 08.10.2019
540 Clouds 11 1021 51 10000 3.1 150 15:19 08.10.2019
541 Clouds 10 1021 54 10000 3.6 140 14:42 08.10.2019
542 Clouds 10 1021 54 10000 3.6 140 14:42 08.10.2019
543 Clouds 11 1021 54 10000 3.6 140 14:21 08.10.2019
544 Clouds 14 1021 51 10000 4.1 150 13:59 08.10.2019
545 Clouds 13 1022 62 10000 3.6 130 13:39 08.10.2019
546 Clouds 11 1022 62 10000 3.6 130 13:21 08.10.2019
547 Clouds 11 1022 58 10000 3.1 110 12:59 08.10.2019
548 Clouds 10 1022 62 10000 1 0 12:39 08.10.2019
549 Clouds 8 1022 62 10000 1 0 12:19 08.10.2019
550 Clouds 9 1022 62 10000 1 0 11:43 08.10.2019
551 Clouds 9 1022 66 10000 0.63 56.942 11:24 08.10.2019
552 Clouds 9 1022 66 10000 0.63 56.942 11:24 08.10.2019
553 Clouds 8 1022 66 10000 0.63 56.942 10:59 08.10.2019
554 Clouds 8 1022 71 10000 1.5 150 10:39 08.10.2019
555 Clouds 8 1022 71 10000 1.5 150 10:20 08.10.2019
556 Clouds 8 1022 71 10000 1.5 150 10:20 08.10.2019
557 Clouds 7 1022 81 10000 2.1 180 09:57 08.10.2019
558 Clouds 7 1021 81 10000 2.1 180 09:39 08.10.2019
559 Clouds 7 1021 81 10000 2.1 180 09:20 08.10.2019
560 Clouds 7 1021 81 10000 2.1 190 08:42 08.10.2019
561 Rain 7 1020 87 10000 1.5 0 08:24 08.10.2019
562 Clouds 7 1020 81 10000 1.5 50 07:45 08.10.2019
563 Clouds 5 1019 87 10000 2.6 50 07:21 08.10.2019
564 Clouds 5 1019 87 10000 2.6 50 06:56 08.10.2019
565 Clouds 5 1019 81 10000 2.1 110 06:32 08.10.2019
566 Clouds 4 1018 76 10000 3.6 150 05:55 08.10.2019
567 Clouds 4 1018 76 10000 3.6 130 05:36 08.10.2019
568 Clouds 3 1018 70 10000 0.5 0 04:33 08.10.2019
569 Clouds 4 1018 75 10000 1.5 110 03:29 08.10.2019
570 Clouds 3 1018 70 10000 1.44 11.45 02:39 08.10.2019
571 Clouds 2 1018 75 10000 1.44 11.45 01:49 08.10.2019
572 Clouds 4 1017 75 10000 1.5 350 01:31 08.10.2019
573 Clouds 4 1017 75 10000 1 10 00:48 08.10.2019
574 Clouds 4 1016 70 10000 1.5 0 00:21 08.10.2019
575 Clouds 5 1017 61 10000 1 0 23:41 07.10.2019
576 Clouds 3 1017 61 10000 1 0 23:20 07.10.2019
577 Clouds 3 1017 61 10000 1 0 23:20 07.10.2019
578 Clouds 3 1017 61 10000 1 0 23:20 07.10.2019
579 Clouds 5 1017 61 10000 1 0 22:57 07.10.2019
580 Clouds 5 1017 66 10000 1 0 22:39 07.10.2019
581 Clouds 5 1017 57 10000 1.83 25.26 22:20 07.10.2019
582 Clouds 5 1017 57 10000 1.83 25.26 21:57 07.10.2019
583 Clouds 5 1016 57 10000 1 0 21:38 07.10.2019
584 Clouds 5 1016 57 10000 2.41 35.596 21:20 07.10.2019
585 Clouds 5 1016 57 10000 2.41 35.596 21:20 07.10.2019
586 Clouds 5 1016 57 10000 2.31 35.336 20:57 07.10.2019
587 Clouds 8 1016 53 10000 2.31 35.336 20:39 07.10.2019
588 Clouds 4 1016 53 10000 2.31 35.336 20:20 07.10.2019
589 Clouds 6 1015 50 10000 1 0 19:57 07.10.2019
590 Clouds 4 1015 46 10000 1 0 19:39 07.10.2019
591 Clouds 4 1015 46 10000 1 0 19:18 07.10.2019
592 Clouds 4 1015 53 10000 3.1 70 18:56 07.10.2019
593 Clouds 4 1014 50 10000 4.1 50 18:38 07.10.2019
594 Clouds 10 1014 50 10000 4.1 50 18:18 07.10.2019
595 Clear 11 1013 41 10000 4.1 50 17:42 07.10.2019
596 Clear 11 1013 41 10000 4.1 50 17:19 07.10.2019
597 Clear 11 1013 38 10000 3.1 70 16:55 07.10.2019
598 Clear 11 1013 49 10000 2.1 80 16:37 07.10.2019
599 Clear 12 1013 49 10000 2.1 80 16:19 07.10.2019
600 Clouds 12 1013 41 10000 1.5 0 15:43 07.10.2019
601 Clouds 12 1013 41 10000 1.5 0 15:24 07.10.2019
602 Clouds 12 1013 38 10000 1.5 0 14:42 07.10.2019
603 Clouds 15 1013 38 10000 1.5 0 14:23 07.10.2019
604 Clear 14 1014 37 10000 1.5 0 13:59 07.10.2019
605 Clear 14 1014 37 10000 2.1 280 13:40 07.10.2019
606 Clear 13 1014 50 10000 1 0 13:18 07.10.2019
607 Clear 14 1014 50 10000 1 0 12:55 07.10.2019
608 Clouds 13 1014 57 10000 1 0 12:36 07.10.2019
609 Clouds 13 1014 57 10000 1 0 12:36 07.10.2019
610 Clouds 10 1014 66 10000 1.5 260 12:18 07.10.2019
611 Clouds 10 1014 66 10000 1.5 260 11:56 07.10.2019
612 Clouds 12 1014 70 10000 2.1 0 11:36 07.10.2019
613 Clouds 11 1014 70 10000 2.1 0 11:18 07.10.2019
614 Clouds 10 1015 81 10000 2.1 10 10:40 07.10.2019
615 Clouds 7 1014 87 10000 1 0 10:20 07.10.2019
616 Clouds 7 1014 81 8000 1 0 09:42 07.10.2019
617 Clouds 5 1014 81 8000 1 0 09:23 07.10.2019
618 Clouds 6 1014 86 8000 1.5 160 08:55 07.10.2019
619 Clouds 5 1014 93 6000 1 0 08:37 07.10.2019
620 Mist 3 1014 100 4000 1.5 130 08:18 07.10.2019
621 Fog 2 1014 100 10000 0.5 0 07:40 07.10.2019
622 Fog 2 1014 93 7000 0.5 0 07:20 07.10.2019
623 Clouds 2 1014 93 10000 1 0 06:44 07.10.2019
624 Clouds 2 1014 93 10000 1 0 06:22 07.10.2019
625 Clouds 2 1014 93 10000 1.02 328.659 05:27 07.10.2019
626 Clear 2 1014 93 10000 1.5 330 04:58 07.10.2019
627 Clear 2 1014 86 10000 1.5 280 04:20 07.10.2019
628 Clear 2 1014 93 10000 2.1 270 03:39 07.10.2019
629 Clear 2 1015 86 10000 2.1 260 03:18 07.10.2019
630 Clear 1 1015 86 10000 1.5 210 02:20 07.10.2019
631 Clear 2 1015 93 10000 1.5 310 01:42 07.10.2019
632 Clear 2 1015 93 10000 1.5 310 01:18 07.10.2019
633 Clear 2 1015 81 10000 1.5 20 00:36 07.10.2019
634 Clear 2 1015 81 10000 3.1 360 00:18 07.10.2019
635 Clear 3 1015 75 10000 2.1 340 23:40 06.10.2019
636 Clear 3 1015 75 10000 2.1 340 23:21 06.10.2019
637 Clear 8 1015 70 10000 2.6 330 22:58 06.10.2019
638 Clear 3 1015 70 10000 5.7 280 22:39 06.10.2019
639 Clear 3 1015 70 10000 5.7 280 22:21 06.10.2019
640 Clear 3 1015 70 10000 5.7 280 21:56 06.10.2019
641 Clear 5 1016 66 10000 5.1 280 21:37 06.10.2019
642 Clear 8 1016 66 10000 5.1 280 21:19 06.10.2019
643 Clear 8 1015 70 10000 4.6 270 20:56 06.10.2019
644 Clear 8 1015 66 10000 5.1 280 20:38 06.10.2019
645 Clear 8 1015 66 10000 5.1 280 20:19 06.10.2019
646 Clouds 8 1015 66 10000 3.6 280 19:56 06.10.2019
647 Clouds 5 1015 61 10000 3.6 280 19:37 06.10.2019
648 Clouds 5 1015 61 10000 4.6 280 19:18 06.10.2019
649 Clouds 2 1015 61 10000 4.6 280 18:55 06.10.2019
650 Clouds 4 1015 54 10000 5.7 280 18:37 06.10.2019
651 Clouds 11 1015 54 10000 5.7 280 18:18 06.10.2019
652 Clouds 12 1014 50 10000 6.2 300 17:43 06.10.2019
653 Clouds 13 1014 50 10000 6.2 300 17:20 06.10.2019
654 Clouds 12 1014 50 10000 6.2 300 17:20 06.10.2019
655 Clouds 13 1014 47 10000 6.2 290 16:56 06.10.2019
656 Clouds 13 1014 47 10000 5.1 290 16:37 06.10.2019
657 Clouds 13 1014 50 10000 6.2 300 16:18 06.10.2019
658 Clouds 13 1014 54 10000 4.6 290 15:43 06.10.2019
659 Clouds 14 1014 54 10000 4.6 290 15:21 06.10.2019
660 Clouds 13 1014 58 10000 6.2 280 14:44 06.10.2019
661 Clouds 13 1014 58 10000 6.2 280 14:26 06.10.2019
662 Clouds 12 1014 58 10000 6.2 290 13:59 06.10.2019
663 Clouds 12 1015 58 10000 7.2 290 13:40 06.10.2019
664 Clouds 11 1015 58 10000 7.2 290 13:22 06.10.2019
665 Clouds 11 1014 62 10000 7.2 290 12:59 06.10.2019
666 Clouds 11 1015 66 10000 7.7 290 12:40 06.10.2019
667 Clouds 11 1015 66 10000 7.7 290 12:21 06.10.2019
668 Clouds 11 1014 71 10000 6.2 290 11:59 06.10.2019
669 Clouds 12 1014 71 10000 5.7 310 11:40 06.10.2019
670 Clouds 12 1014 71 10000 5.7 310 11:21 06.10.2019
671 Clouds 12 1014 71 10000 6.2 300 10:54 06.10.2019
672 Clouds 12 1014 76 10000 3.6 300 10:36 06.10.2019
673 Clouds 12 1014 76 10000 3.6 300 10:18 06.10.2019
674 Clouds 11 1014 87 8000 0.5 0 09:41 06.10.2019
675 Clouds 11 1014 87 8000 0.5 0 09:19 06.10.2019
676 Clouds 10 1013 87 7000 1.5 270 08:47 06.10.2019
677 Clouds 9 1013 93 6000 1 0 08:21 06.10.2019
678 Clouds 8 1013 93 6000 2.1 310 07:57 06.10.2019
679 Clouds 5 1012 93 6000 1.5 0 07:38 06.10.2019
680 Rain 5 1012 100 8000 1 0 06:32 06.10.2019
681 Clear 5 1012 93 8000 2.1 310 05:35 06.10.2019
682 Clouds 6 1012 93 10000 1.01 307.52 04:27 06.10.2019
683 Clear 6 1012 87 10000 2.1 220 02:47 06.10.2019
684 Clouds 6 1012 93 10000 0.91 320.453 02:27 06.10.2019
685 Clouds 7 1012 87 10000 1.5 20 01:46 06.10.2019
686 Clouds 7 1012 87 10000 1.5 20 01:27 06.10.2019
687 Clouds 7 1012 87 10000 1.5 20 00:57 06.10.2019
688 Clouds 7 1012 87 10000 1.5 350 00:29 06.10.2019
689 Rain 8 1012 81 10000 2.6 280 23:45 05.10.2019
690 Rain 8 1012 81 10000 2.6 280 23:23 05.10.2019
691 Rain 8 1012 81 10000 2.6 280 22:59 05.10.2019
692 Clouds 9 1012 81 10000 3.1 250 22:40 05.10.2019
693 Clouds 8 1012 81 10000 3.1 250 22:20 05.10.2019
694 Clouds 9 1012 76 10000 3.1 250 21:57 05.10.2019
695 Clouds 9 1012 76 10000 3.1 250 21:57 05.10.2019
696 Rain 9 1012 76 10000 2.6 270 21:39 05.10.2019
697 Rain 9 1012 76 10000 2.6 270 21:39 05.10.2019
698 Rain 9 1011 71 10000 3.1 270 21:20 05.10.2019
699 Rain 9 1011 71 10000 3.1 270 20:56 05.10.2019
700 Rain 10 1011 62 10000 2.6 280 20:38 05.10.2019
701 Rain 10 1011 62 10000 2.6 280 20:19 05.10.2019
702 Clouds 10 1010 71 10000 2.1 330 20:19 05.10.2019
703 Rain 10 1011 62 10000 2.6 280 20:19 05.10.2019
704 Clouds 8 1010 71 10000 2.1 280 19:38 05.10.2019
705 Clouds 8 1010 71 10000 2.1 280 19:20 05.10.2019
706 Rain 9 1010 58 10000 3.1 260 18:56 05.10.2019
707 Clouds 9 1010 54 10000 2.1 300 18:38 05.10.2019
708 Clouds 12 1010 54 10000 2.1 300 18:20 05.10.2019
709 Clouds 12 1010 48 10000 4.1 310 17:46 05.10.2019
710 Clouds 13 1010 48 10000 4.1 310 17:27 05.10.2019
711 Clouds 13 1009 48 10000 3.1 320 16:59 05.10.2019
712 Clouds 13 1009 51 10000 3.6 320 16:41 05.10.2019
713 Clouds 13 1009 51 10000 3.6 320 16:21 05.10.2019
714 Clouds 13 1009 51 10000 3.6 320 15:57 05.10.2019
715 Clouds 13 1009 51 10000 2.6 360 15:39 05.10.2019
716 Clouds 16 1009 51 10000 2.6 360 15:20 05.10.2019
717 Clouds 17 1009 51 10000 4.1 310 14:44 05.10.2019
718 Clouds 13 1009 51 10000 4.1 310 14:26 05.10.2019
719 Clouds 13 1009 51 10000 4.1 310 14:26 05.10.2019
720 Clouds 14 1009 54 10000 4.6 300 13:59 05.10.2019
721 Clouds 16 1009 51 10000 4.1 320 13:41 05.10.2019
722 Clouds 16 1009 51 10000 4.1 320 13:20 05.10.2019
723 Clouds 16 1010 51 10000 4.1 320 12:44 05.10.2019
724 Clouds 11 1010 51 10000 4.1 320 12:20 05.10.2019
725 Clouds 11 1011 58 10000 4.1 330 11:45 05.10.2019
726 Clouds 14 1011 58 10000 4.1 330 11:23 05.10.2019
727 Clouds 12 1011 58 10000 3.6 320 10:59 05.10.2019
728 Clouds 13 1011 71 10000 2.6 320 10:41 05.10.2019
729 Clouds 13 1011 71 10000 2.6 320 10:23 05.10.2019
730 Clouds 11 1011 71 10000 3.1 320 09:56 05.10.2019
731 Clouds 10 1011 76 10000 3.6 300 09:37 05.10.2019
732 Clouds 8 1011 76 10000 3.6 300 09:19 05.10.2019
733 Clouds 8 1011 81 10000 3.6 310 08:39 05.10.2019
734 Clouds 7 1011 81 10000 3.6 310 08:19 05.10.2019
735 Clouds 7 1011 75 10000 3.6 290 07:52 05.10.2019
736 Clouds 7 1011 75 10000 3.6 290 07:31 05.10.2019
737 Clouds 6 1011 81 10000 3.1 290 06:57 05.10.2019
738 Clouds 5 1010 75 10000 4.1 290 06:24 05.10.2019
739 Clouds 5 1010 76 10000 3.6 280 05:39 05.10.2019
740 Clouds 5 1011 81 10000 3.6 280 03:34 05.10.2019
741 Clouds 5 1010 81 10000 4.1 280 02:45 05.10.2019
742 Clouds 5 1011 87 10000 4.1 280 01:29 05.10.2019
743 Clouds 6 1011 87 10000 4.1 280 00:49 05.10.2019
744 Clouds 5 1011 87 10000 4.1 280 00:28 05.10.2019
745 Clouds 7 1011 87 10000 4.1 280 23:58 04.10.2019
746 Clouds 6 1011 81 10000 4.6 280 23:40 04.10.2019
747 Clouds 6 1011 81 10000 4.6 280 23:22 04.10.2019
748 Clouds 7 1011 87 10000 4.1 270 22:57 04.10.2019
749 Clouds 7 1011 87 10000 4.1 270 22:57 04.10.2019
750 Clouds 7 1011 81 10000 4.6 280 22:37 04.10.2019
751 Clouds 7 1011 87 10000 3.6 280 22:19 04.10.2019
752 Clouds 7 1011 93 10000 3.6 270 21:40 04.10.2019
753 Clouds 8 1011 93 10000 3.6 270 21:22 04.10.2019
754 Clouds 8 1011 93 9000 5.1 270 20:59 04.10.2019
755 Clouds 8 1011 93 9000 5.1 270 20:59 04.10.2019
756 Drizzle 8 1011 93 4000 5.7 270 20:40 04.10.2019
757 Drizzle 8 1011 93 4000 5.7 270 20:22 04.10.2019
758 Rain 7 1011 93 4500 4.6 280 19:56 04.10.2019
759 -273 0 0 0 0 0 19:55 04.10.2019
760 Rain 7 1011 93 4500 4.6 280 19:55 04.10.2019
761 Rain 7 1011 93 4500 4.6 280 19:55 04.10.2019
762 Rain 7 1011 93 4000 5.7 280 19:36 04.10.2019
763 Rain 7 1011 93 4000 5.7 280 19:18 04.10.2019
764 Rain 7 1010 93 4000 6.2 280 18:39 04.10.2019
765 Rain 8 1010 93 4000 6.2 280 18:19 04.10.2019
766 Rain 8 1010 93 4000 5.7 280 17:57 04.10.2019
767 Rain 9 1010 87 5000 4.6 280 17:38 04.10.2019
768 Rain 9 1010 87 5000 4.6 280 17:19 04.10.2019
769 Rain 9 1010 87 6000 5.1 280 16:54 04.10.2019
770 Drizzle 9 1010 93 8000 3.6 280 16:36 04.10.2019
771 Drizzle 9 1010 93 8000 3.6 280 16:36 04.10.2019
772 Drizzle 9 1010 93 8000 3.6 280 16:36 04.10.2019
773 Rain 9 1010 87 8000 4.6 280 16:18 04.10.2019
774 -273 0 0 0 0 0 15:55 04.10.2019
775 Rain 9 1010 87 8000 4.1 280 15:36 04.10.2019
776 Rain 8 1010 87 8000 4.1 280 15:18 04.10.2019
777 Rain 8 1011 93 8000 5.7 280 14:41 04.10.2019
778 Clouds 9 1011 93 8000 5.7 280 14:22 04.10.2019
779 Clouds 8 1011 87 10000 4.6 280 13:58 04.10.2019
780 Rain 8 1011 87 10000 4.6 290 13:40 04.10.2019
781 Rain 8 1011 87 10000 4.6 290 13:19 04.10.2019
782 Rain 9 1012 87 8000 3.6 280 12:45 04.10.2019
783 Rain 9 1012 87 8000 3.6 280 12:27 04.10.2019
784 Rain 9 1012 87 8000 3.6 280 12:27 04.10.2019
785 Clouds 8 1012 87 10000 4.6 270 11:44 04.10.2019
786 Clouds 8 1012 87 10000 4.6 270 11:44 04.10.2019
787 Clouds 8 1012 87 10000 4.6 270 11:43 04.10.2019
788 Clouds 8 1012 87 10000 4.6 270 11:43 04.10.2019
789 Clouds 8 1012 87 10000 4.6 270 11:43 04.10.2019
790 Clouds 10 1012 87 10000 4.6 270 11:22 04.10.2019
791 Rain 10 1012 81 10000 4.6 280 10:58 04.10.2019
792 Clouds 10 1013 81 10000 4.6 280 10:38 04.10.2019
793 Clouds 9 1013 81 10000 4.6 280 10:19 04.10.2019
794 Clouds 10 1012 87 10000 4.6 280 09:44 04.10.2019
795 Clouds 9 1012 87 10000 4.6 280 09:44 04.10.2019
796 Clouds 8 1012 87 10000 4.6 280 09:25 04.10.2019
797 Rain 8 1012 87 10000 4.6 280 08:48 04.10.2019
798 Rain 8 1012 87 10000 4.6 280 08:29 04.10.2019
799 Rain 8 1012 87 10000 4.1 280 07:56 04.10.2019
800 Rain 8 1012 87 8000 5.1 280 07:38 04.10.2019
801 Rain 8 1012 87 8000 5.1 280 07:19 04.10.2019
802 Clouds 9 1011 87 10000 5.1 280 06:40 04.10.2019
803 Rain 8 1011 87 10000 7.2 280 06:21 04.10.2019
804 Rain 8 1011 93 10000 4.6 280 05:22 04.10.2019
805 Rain 8 1012 93 6000 5.7 280 04:39 04.10.2019
806 Rain 8 1011 93 8000 6.2 270 03:32 04.10.2019
807 Rain 9 1010 87 10000 6.7 270 02:45 04.10.2019
808 Rain 9 1010 87 8000 5.7 280 01:54 04.10.2019
809 Rain 9 1011 87 10000 6.2 280 01:54 04.10.2019
810 -273 0 0 0 0 0 01:54 04.10.2019
811 Rain 9 1011 87 10000 6.2 280 01:26 04.10.2019
812 Rain 9 1010 93 10000 6.2 280 00:34 04.10.2019
813 Rain 11 1010 93 10000 6.2 270 23:41 03.10.2019
814 Rain 11 1010 93 10000 6.2 270 23:22 03.10.2019
815 Rain 11 1010 93 10000 6.2 270 23:22 03.10.2019
816 Rain 10 1010 93 10000 6.2 270 22:58 03.10.2019
817 Rain 10 1010 87 7000 6.7 270 22:39 03.10.2019
818 Rain 10 1010 87 7000 6.7 270 22:39 03.10.2019
819 Rain 10 1010 87 7000 6.7 270 22:21 03.10.2019
820 Rain 10 1010 87 7000 6.7 270 22:21 03.10.2019
821 Rain 11 1009 93 10000 5.1 270 21:58 03.10.2019
822 Rain 11 1009 87 10000 6.7 270 21:40 03.10.2019
823 Rain 12 1009 87 10000 6.7 270 21:20 03.10.2019
824 Rain 12 1009 93 10000 4.1 280 20:58 03.10.2019
825 Rain 13 1009 93 10000 4.1 290 20:39 03.10.2019
826 Rain 13 1009 93 10000 4.1 290 20:20 03.10.2019
827 Rain 12 1008 87 10000 5.1 290 19:56 03.10.2019
828 Rain 11 1008 87 10000 1.5 320 19:38 03.10.2019
829 Rain 13 1008 82 7000 2.6 210 19:19 03.10.2019
830 Rain 12 1008 82 7000 2.6 210 18:56 03.10.2019
831 Clouds 12 1008 82 10000 2.1 240 18:37 03.10.2019
832 Clouds 16 1007 82 10000 2.6 330 18:18 03.10.2019
833 Rain 17 1007 82 10000 5.1 310 17:42 03.10.2019
834 Rain 17 1007 82 10000 5.1 310 17:21 03.10.2019
835 Rain 17 1008 77 8000 7.7 290 16:55 03.10.2019
836 Rain 18 1007 59 10000 4.6 290 16:37 03.10.2019
837 Rain 20 1007 43 10000 8.2 240 16:19 03.10.2019
838 Rain 23 1007 46 10000 1 0 15:43 03.10.2019
839 Rain 24 1007 46 10000 1 0 15:24 03.10.2019
840 Rain 24 1007 46 10000 1 0 15:24 03.10.2019
841 Clouds 21 1007 38 10000 6.2 240 14:58 03.10.2019
842 Clouds 21 1007 36 10000 8.2 230 14:36 03.10.2019
843 Clouds 21 1007 36 10000 8.2 230 14:36 03.10.2019
844 Clouds 21 1007 36 10000 8.2 230 14:36 03.10.2019
845 Clouds 25 1007 31 10000 6.2 200 14:18 03.10.2019
846 Clouds 24 1007 36 10000 2.6 290 13:43 03.10.2019
847 Clouds 25 1007 36 10000 2.6 290 13:24 03.10.2019
848 Clouds 24 1007 38 10000 2.6 0 12:58 03.10.2019
849 Clouds 24 1007 46 10000 2.6 0 12:39 03.10.2019
850 Clouds 21 1008 49 10000 2.6 0 12:20 03.10.2019
851 Clouds 21 1008 49 10000 2.6 0 11:58 03.10.2019
852 Clouds 23 1008 53 10000 2.1 0 11:39 03.10.2019
853 Clouds 20 1008 53 10000 2.1 0 11:21 03.10.2019
854 Clouds 23 1008 56 10000 1.5 300 10:57 03.10.2019
855 Clear 22 1008 56 10000 1.5 160 10:38 03.10.2019
856 Clear 21 1008 56 10000 1.5 160 10:18 03.10.2019
857 Clear 19 1009 63 10000 1.5 120 09:56 03.10.2019
858 Clear 15 1009 67 10000 1.5 90 09:37 03.10.2019
859 Clear 15 1008 77 10000 2.1 80 09:18 03.10.2019
860 Clear 14 1008 82 10000 1 0 08:41 03.10.2019
861 Clear 14 1008 82 10000 1 0 08:41 03.10.2019
862 Clear 13 1008 82 10000 1 0 08:23 03.10.2019
863 Clear 12 1008 81 10000 0.5 0 07:41 03.10.2019
864 Clear 12 1008 81 10000 0.5 0 07:41 03.10.2019
865 Clear 11 1008 81 10000 0.5 0 07:20 03.10.2019
866 Clear 13 1008 76 10000 1.5 130 06:52 03.10.2019
867 Clear 10 1008 82 10000 2.1 100 06:26 03.10.2019
868 Clear 11 1008 82 10000 1 0 05:47 03.10.2019
869 Clear 10 1008 87 10000 1.5 40 05:25 03.10.2019
870 Clear 10 1008 76 10000 0.5 0 04:39 03.10.2019
871 Clear 10 1008 76 10000 3.1 110 03:30 03.10.2019
872 Clear 11 1008 76 10000 1.5 100 02:45 03.10.2019
873 Clear 11 1008 77 10000 2.1 90 02:19 03.10.2019
874 Clear 11 1008 77 10000 2.6 160 01:37 03.10.2019
875 Clear 12 1009 72 10000 2.6 190 00:51 03.10.2019
876 Clear 12 1009 72 10000 2.1 180 00:28 03.10.2019
877 Clear 12 1009 72 10000 2.1 140 23:44 02.10.2019
878 Clear 12 1009 72 10000 2.1 140 23:24 02.10.2019
879 Clear 13 1009 72 10000 1 0 22:47 02.10.2019
880 Clear 13 1009 67 10000 1 0 22:24 02.10.2019
881 Clear 13 1009 63 10000 3.1 100 21:58 02.10.2019
882 Clear 13 1009 68 10000 3.1 100 21:39 02.10.2019
883 Clear 13 1009 68 10000 3.1 100 21:20 02.10.2019
884 Clear 14 1009 63 10000 4.1 90 20:58 02.10.2019
885 Clear 14 1008 52 10000 4.6 110 20:39 02.10.2019
886 Clear 17 1008 52 10000 4.6 110 20:21 02.10.2019
887 Clear 15 1008 49 10000 5.1 120 19:58 02.10.2019
888 Clear 15 1008 52 10000 4.1 130 19:39 02.10.2019
889 Clear 15 1008 52 10000 4.1 130 19:21 02.10.2019
890 Clear 16 1008 49 10000 4.6 150 18:57 02.10.2019
891 Clear 17 1008 44 10000 4.1 120 18:38 02.10.2019
892 Clear 18 1008 41 10000 6.2 120 18:20 02.10.2019
893 Clear 19 1008 41 10000 6.2 120 17:56 02.10.2019
894 Clouds 22 1008 39 10000 6.2 130 17:37 02.10.2019
895 Clouds 22 1008 39 10000 6.2 130 17:19 02.10.2019
896 Clouds 22 1008 39 10000 6.2 130 17:19 02.10.2019
897 Clear 22 1008 34 10000 4.1 110 16:42 02.10.2019
898 Clear 22 1008 34 10000 4.1 110 16:22 02.10.2019
899 Clouds 22 1008 34 10000 2.6 110 15:57 02.10.2019
900 Clear 22 1009 36 10000 3.6 100 15:38 02.10.2019
901 Clear 25 1009 36 10000 3.6 100 15:19 02.10.2019
902 Clear 26 1009 36 10000 2.1 20 14:56 02.10.2019
903 Clear 26 1009 39 10000 3.1 0 14:38 02.10.2019
904 Clear 26 1009 39 10000 3.1 0 14:20 02.10.2019
905 Clear 26 1010 41 10000 2.6 80 13:43 02.10.2019
906 Clear 25 1010 44 10000 3.6 80 13:23 02.10.2019
907 Clear 24 1011 47 10000 3.1 40 12:56 02.10.2019
908 Clear 24 1011 49 10000 2.6 110 12:37 02.10.2019
909 Clear 24 1011 49 10000 2.6 110 12:37 02.10.2019
910 Clear 21 1011 49 10000 2.6 110 12:18 02.10.2019
911 Clear 21 1011 49 10000 3.6 120 11:43 02.10.2019
912 Clear 20 1012 53 10000 4.6 110 11:22 02.10.2019
913 Clear 21 1012 60 10000 3.6 110 10:41 02.10.2019
914 Clear 21 1012 60 10000 5.7 110 10:20 02.10.2019
915 Clear 19 1013 63 8000 4.6 120 09:56 02.10.2019
916 Clear 19 1013 68 8000 4.1 110 09:36 02.10.2019
917 Clear 16 1013 68 8000 4.1 110 09:18 02.10.2019
918 Clear 16 1013 72 8000 3.6 120 08:42 02.10.2019
919 Clear 16 1013 72 8000 3.6 120 08:42 02.10.2019
920 Clouds 15 1013 82 8000 3.6 110 08:22 02.10.2019
921 Clouds 13 1013 87 8000 2.1 110 07:55 02.10.2019
922 Clouds 13 1013 87 8000 2.1 90 07:37 02.10.2019
923 Clouds 11 1013 87 8000 2.1 90 07:18 02.10.2019
924 Clear 11 1013 87 8000 1.5 90 06:29 02.10.2019
925 Clear 12 1013 82 10000 2.1 120 05:51 02.10.2019
926 Clear 12 1013 87 10000 3.6 100 05:22 02.10.2019
927 Clear 12 1013 82 10000 3.6 100 04:18 02.10.2019
928 Clear 12 1013 77 10000 4.6 130 03:50 02.10.2019
929 Clear 12 1013 72 10000 4.6 110 02:38 02.10.2019
930 Clear 13 1013 68 10000 4.1 120 02:20 02.10.2019
931 Clear 12 1013 59 10000 1.5 140 00:55 02.10.2019
932 Clear 13 1013 59 10000 1 0 00:30 02.10.2019
933 Clouds 13 1013 55 10000 4.1 130 23:57 01.10.2019
934 Clouds 13 1013 59 10000 3.6 120 23:39 01.10.2019
935 Clouds 13 1013 59 10000 3.6 120 23:21 01.10.2019
936 Clear 13 1013 55 10000 2.6 130 22:58 01.10.2019
937 Clear 13 1013 55 10000 2.6 130 22:58 01.10.2019
938 Clear 13 1013 55 10000 2.6 130 22:58 01.10.2019
939 Clear 13 1014 55 10000 3.1 110 22:38 01.10.2019
940 Clear 13 1014 55 10000 3.1 110 22:38 01.10.2019
941 Clear 13 1014 55 10000 3.1 110 22:18 01.10.2019
942 Clear 13 1013 55 10000 2.6 130 21:43 01.10.2019
943 Clear 13 1013 55 10000 2.6 130 21:43 01.10.2019
944 Clear 15 1014 52 10000 2.1 90 21:23 01.10.2019
945 Clear 15 1014 52 10000 2.1 90 21:23 01.10.2019
946 Clear 15 1014 59 10000 0.5 0 20:59 01.10.2019
947 Clear 15 1014 59 10000 0.5 0 20:59 01.10.2019
948 Clear 15 1014 59 10000 0.5 0 20:39 01.10.2019
949 Clear 16 1013 56 10000 2.1 170 20:20 01.10.2019
950 Clear 16 1013 49 10000 2.1 130 19:58 01.10.2019
951 Clear 16 1013 49 10000 2.1 130 19:39 01.10.2019
952 Clear 17 1013 49 10000 2.6 150 19:21 01.10.2019
953 Clear 17 1013 43 10000 1 0 18:56 01.10.2019
954 Clear 18 1013 38 10000 2.1 50 18:38 01.10.2019
955 Clear 20 1013 38 10000 2.1 50 18:19 01.10.2019
956 Clouds 24 1013 36 10000 2.6 30 17:43 01.10.2019
957 Clouds 25 1013 36 10000 3.1 40 17:21 01.10.2019
958 Clear 22 1013 31 10000 2.6 10 16:59 01.10.2019
959 Clear 22 1013 31 10000 2.6 10 16:40 01.10.2019
960 Clouds 22 1013 31 10000 1.5 0 16:22 01.10.2019
961 Clouds 22 1014 31 10000 1 0 15:48 01.10.2019
962 Clouds 26 1014 29 10000 2.1 280 15:24 01.10.2019
963 Clouds 25 1014 33 10000 1.5 0 14:58 01.10.2019
964 Clouds 25 1014 33 10000 1.5 0 14:40 01.10.2019
965 Clouds 26 1015 38 10000 2.1 0 14:19 01.10.2019
966 Clear 26 1015 36 10000 1 0 13:56 01.10.2019
967 Clear 26 1015 38 10000 2.6 0 13:37 01.10.2019
968 Clear 26 1015 38 10000 2.6 0 13:18 01.10.2019
969 Clear 25 1016 38 10000 2.1 0 12:54 01.10.2019
970 Clear 25 1016 41 10000 2.1 0 12:36 01.10.2019
971 Clear 25 1016 41 10000 2.1 0 12:18 01.10.2019
972 Clear 25 1017 44 10000 2.6 0 11:54 01.10.2019
973 Clear 24 1017 49 10000 2.6 270 11:36 01.10.2019
974 Clear 24 1017 49 10000 2.6 270 11:18 01.10.2019
975 Clear 23 1017 53 10000 2.1 280 10:43 01.10.2019
976 Clouds 22 1017 56 10000 2.1 290 10:24 01.10.2019
977 Clouds 20 1017 63 10000 1.5 280 09:44 01.10.2019
978 Clouds 16 1017 67 10000 0.5 0 09:25 01.10.2019
979 Clouds 16 1017 67 10000 0.5 0 09:25 01.10.2019
980 Clouds 16 1017 67 10000 1.24 322.465 08:44 01.10.2019
981 Clouds 14 1016 82 10000 1.5 140 08:25 01.10.2019
982 Clouds 13 1016 82 10000 2.1 80 07:49 01.10.2019
983 Clouds 12 1016 87 10000 2.1 130 07:26 01.10.2019
984 Clouds 12 1016 87 10000 1.5 130 06:51 01.10.2019
985 Clouds 11 1016 82 10000 2.1 100 06:25 01.10.2019
986 Clouds 11 1015 82 10000 1.5 60 05:46 01.10.2019
987 Clouds 10 1015 76 10000 1.42 323.187 05:20 01.10.2019
988 Clouds 10 1015 82 10000 1.42 323.187 04:35 01.10.2019
989 Clouds 10 1015 82 10000 1.42 323.187 04:35 01.10.2019
990 Clouds 11 1015 76 10000 2.1 100 03:25 01.10.2019
991 Clouds 12 1014 82 10000 0.5 0 02:18 01.10.2019
992 Clear 12 1014 72 10000 1.5 220 01:28 01.10.2019
993 Clouds 11 1014 76 10000 2.6 150 00:40 01.10.2019
994 Clouds 13 1014 76 10000 2.6 150 00:22 01.10.2019
995 Clear 13 1013 76 10000 1 0 23:41 30.09.2019
996 Clear 13 1013 76 10000 1 0 23:41 30.09.2019
997 Clear 13 1013 76 10000 1 0 23:41 30.09.2019
998 Clear 13 1013 67 10000 0.78 308.454 23:22 30.09.2019
999 Clear 13 1013 67 10000 0.78 308.454 22:45 30.09.2019
1000 Clear 13 1013 67 10000 0.78 308.454 22:45 30.09.2019
1001 Clear 13 1013 67 10000 0.5 0 22:26 30.09.2019
1002 Clear 14 1012 67 10000 1.5 90 21:58 30.09.2019
1003 Clear 14 1012 67 10000 1.5 90 21:39 30.09.2019
1004 Clear 16 1012 55 10000 1.5 250 21:20 30.09.2019
1005 Clear 16 1012 55 10000 1.5 250 21:20 30.09.2019
1006 Clear 17 1012 55 10000 2.6 280 20:58 30.09.2019
1007 Clear 16 1012 55 10000 2.6 280 20:39 30.09.2019
1008 Clear 15 1012 49 10000 2.6 290 20:20 30.09.2019
1009 Clear 15 1011 49 10000 3.1 300 19:57 30.09.2019
1010 Clear 15 1011 46 10000 2.1 310 19:39 30.09.2019
1011 Clear 15 1011 46 10000 2.1 310 19:19 30.09.2019
1012 Clear 14 1011 40 10000 2.6 300 18:57 30.09.2019
1013 Clear 15 1011 36 10000 4.1 300 18:39 30.09.2019
1014 Clear 21 1011 36 10000 4.1 300 18:20 30.09.2019
1015 Clear 21 1010 34 10000 5.1 310 17:44 30.09.2019
1016 Clear 23 1010 32 10000 3.1 310 17:24 30.09.2019
1017 Clear 22 1010 36 10000 3.6 310 16:58 30.09.2019
1018 Clear 23 1010 36 10000 3.6 310 16:40 30.09.2019
1019 Clear 24 1010 36 10000 3.6 310 16:19 30.09.2019
1020 Clear 24 1011 34 10000 3.6 290 15:58 30.09.2019
1021 Clear 24 1011 36 10000 4.1 300 15:38 30.09.2019
1022 Clear 24 1011 36 10000 4.1 300 15:19 30.09.2019
1023 Clear 24 1011 39 10000 5.1 280 14:57 30.09.2019
1024 Clouds 23 1011 39 10000 4.1 310 14:37 30.09.2019
1025 Clouds 23 1011 39 10000 4.1 310 14:19 30.09.2019
1026 Clear 22 1011 34 10000 4.6 250 13:58 30.09.2019
1027 Clear 26 1012 44 10000 4.6 290 13:39 30.09.2019
1028 Clear 26 1012 44 10000 4.6 290 13:20 30.09.2019
1029 Clouds 26 1013 44 10000 4.6 290 12:43 30.09.2019
1030 Clouds 23 1013 44 10000 4.1 300 12:22 30.09.2019
1031 Clouds 22 1014 50 10000 2.6 340 11:57 30.09.2019
1032 Clouds 24 1014 53 10000 1.5 250 11:39 30.09.2019
1033 Clouds 21 1014 53 10000 1.5 250 11:19 30.09.2019
1034 Clouds 23 1014 56 10000 2.1 290 10:54 30.09.2019
1035 Clouds 22 1014 63 10000 2.1 290 10:36 30.09.2019
1036 Clouds 21 1014 63 10000 2.1 290 10:18 30.09.2019
1037 Clouds 19 1014 68 10000 1 0 09:40 30.09.2019
1038 Clouds 15 1014 72 10000 1 0 09:21 30.09.2019
1039 Clouds 14 1014 77 10000 1.5 80 08:51 30.09.2019
1040 Clouds 13 1014 82 10000 1 0 08:33 30.09.2019
1041 Clouds 13 1014 87 10000 1.5 140 07:46 30.09.2019
1042 Clouds 13 1014 93 10000 1.5 110 07:28 30.09.2019
1043 Clouds 11 1014 93 10000 2.1 90 06:59 30.09.2019
1044 Clouds 11 1014 87 10000 1.5 90 06:34 30.09.2019
1045 Clouds 11 1014 87 10000 0.5 0 05:49 30.09.2019
1046 Clouds 11 1014 87 10000 0.5 0 05:49 30.09.2019
1047 Clouds 11 1014 87 10000 1.11 125.2 05:25 30.09.2019
1048 Clear 11 1015 82 10000 0.58 111.82 02:49 30.09.2019
1049 Clear 12 1015 87 10000 1.5 140 01:39 30.09.2019
1050 Clear 12 1015 77 10000 0.72 115.851 00:44 30.09.2019
1051 Clear 12 1015 77 10000 1 0 00:24 30.09.2019
1052 Clear 13 1016 72 10000 0.4 93.307 23:57 29.09.2019
1053 Clear 13 1016 68 10000 2.1 290 23:39 29.09.2019
1054 Clear 13 1016 68 10000 2.1 290 23:19 29.09.2019
1055 Clear 13 1016 77 10000 0.5 0 22:43 29.09.2019
1056 Clear 13 1016 63 10000 1 0 22:25 29.09.2019
1057 Clouds 14 1016 63 10000 0.4 93.307 21:58 29.09.2019
1058 Clouds 14 1016 63 10000 0.4 93.307 21:38 29.09.2019
1059 Clouds 15 1016 56 10000 0.98 19.788 21:19 29.09.2019
1060 Clear 15 1015 60 10000 2.1 290 20:57 29.09.2019
1061 Clear 15 1015 60 10000 2.1 290 20:57 29.09.2019
1062 Clear 15 1015 60 10000 2.1 290 20:39 29.09.2019
1063 Clear 15 1015 53 10000 1.5 320 20:19 29.09.2019
1064 Clear 16 1015 49 10000 2.1 260 19:39 29.09.2019
1065 Clear 16 1015 49 10000 2.1 260 19:20 29.09.2019
1066 Clouds 15 1015 49 10000 2.1 280 18:57 29.09.2019
1067 Clouds 15 1015 49 10000 2.1 280 18:57 29.09.2019
1068 Clouds 16 1015 41 10000 2.6 280 18:39 29.09.2019
1069 Clouds 21 1015 41 10000 2.6 280 18:20 29.09.2019
1070 Clear 21 1015 41 10000 1.5 290 17:59 29.09.2019
1071 Clear 22 1015 41 10000 1.5 290 17:41 29.09.2019
1072 Clear 23 1015 39 10000 1.5 330 17:20 29.09.2019
1073 Clear 23 1015 39 10000 1.5 330 17:20 29.09.2019
1074 Clear 23 1015 39 10000 1.5 330 17:00 29.09.2019
1075 Clear 23 1015 39 10000 1.5 330 17:00 29.09.2019
1076 Clear 23 1015 39 10000 1.5 330 17:00 29.09.2019
1077 Clear 22 1015 39 10000 1.5 330 16:41 29.09.2019
1078 Clear 23 1015 36 10000 1.5 0 16:20 29.09.2019
1079 Clear 23 1016 39 10000 1 0 15:58 29.09.2019
1080 Clear 23 1016 36 10000 2.1 0 15:37 29.09.2019
1081 Clear 24 1016 36 10000 2.1 0 15:18 29.09.2019
1082 Clear 22 1016 39 10000 1.5 0 14:56 29.09.2019
1083 Clear 22 1017 39 10000 2.1 0 14:37 29.09.2019
1084 Clear 23 1017 41 10000 2.6 290 14:18 29.09.2019
1085 Clear 23 1017 41 10000 2.6 290 13:55 29.09.2019
1086 Clear 23 1017 41 10000 2.6 290 13:55 29.09.2019
1087 Clear 23 1018 41 10000 2.1 0 13:36 29.09.2019
1088 Clear 23 1018 41 10000 2.1 0 13:18 29.09.2019
1089 -273 0 0 0 0 0 12:55 29.09.2019
1090 Clear 22 1019 43 10000 2.1 280 12:37 29.09.2019
1091 Clear 22 1019 43 10000 2.1 280 12:19 29.09.2019
1092 Clear 22 1019 43 10000 2.1 280 11:41 29.09.2019
1093 Clear 21 1019 46 10000 1 0 11:19 29.09.2019
1094 Clear 20 1019 52 10000 1 0 10:58 29.09.2019
1095 Clear 20 1019 52 10000 1 0 10:58 29.09.2019
1096 Clear 21 1020 59 10000 1 0 10:38 29.09.2019
1097 Clear 20 1020 59 10000 1 0 10:20 29.09.2019
1098 Clear 19 1020 59 10000 1 0 09:56 29.09.2019
1099 Clear 19 1020 59 10000 1 0 09:56 29.09.2019
1100 Clear 16 1020 72 10000 1.5 207.439 09:38 29.09.2019
1101 Clear 15 1020 72 10000 0.32 304.186 09:18 29.09.2019
1102 Clear 13 1020 71 10000 1 0 08:42 29.09.2019
1103 Clear 13 1019 81 10000 1.5 120 08:21 29.09.2019
1104 Clouds 12 1019 93 10000 2.1 110 07:43 29.09.2019
1105 Clouds 10 1019 87 10000 1 0 07:25 29.09.2019
1106 Clouds 11 1019 87 10000 1.5 100 06:49 29.09.2019
1107 Clouds 10 1019 81 10000 0.56 324.167 05:55 29.09.2019
1108 Clouds 10 1019 81 10000 0.56 324.167 05:54 29.09.2019
1109 Clouds 9 1019 87 10000 0.56 324.167 04:42 29.09.2019
1110 Clouds 9 1019 87 10000 0.56 324.167 04:23 29.09.2019
1111 Clear 9 1019 81 10000 0.2 173.472 02:55 29.09.2019
1112 Clouds 9 1019 87 10000 0.5 0 02:19 29.09.2019
1113 Clear 10 1019 76 10000 2.1 100 01:38 29.09.2019
1114 Clear 10 1019 76 10000 2.1 130 00:53 29.09.2019
1115 Clear 10 1019 76 10000 0.5 0 00:21 29.09.2019
1116 Clear 11 1019 67 10000 1.5 30 23:56 28.09.2019
1117 Clear 11 1019 71 10000 1.5 150 23:36 28.09.2019
1118 Clear 11 1019 71 10000 1.5 150 23:18 28.09.2019
1119 Clear 13 1019 71 10000 1.5 140 22:39 28.09.2019
1120 Clear 13 1019 67 10000 2.1 160 22:21 28.09.2019
1121 Clear 13 1019 63 10000 2.1 160 21:57 28.09.2019
1122 Clear 13 1019 63 10000 2.1 160 21:39 28.09.2019
1123 Clear 13 1019 63 10000 2.1 160 21:39 28.09.2019
1124 Clear 14 1019 59 10000 0.71 11.976 21:20 28.09.2019
1125 Clear 14 1019 59 10000 1 70 20:57 28.09.2019
1126 Clear 14 1019 59 10000 1 70 20:38 28.09.2019
1127 Clouds 14 1019 63 10000 2.6 90 20:18 28.09.2019
1128 Clouds 14 1019 63 10000 2.6 90 20:18 28.09.2019
1129 Clouds 15 1018 52 10000 1 0 19:56 28.09.2019
1130 Clouds 15 1018 52 10000 1 0 19:56 28.09.2019
1131 Clear 14 1018 52 10000 3.6 180 19:37 28.09.2019
1132 Clear 15 1018 52 10000 3.6 180 19:19 28.09.2019
1133 Clear 13 1018 43 10000 2.6 150 18:43 28.09.2019
1134 Clear 17 1018 38 10000 2.6 90 18:22 28.09.2019
1135 Clear 18 1018 36 10000 2.6 80 18:00 28.09.2019
1136 Clear 18 1018 36 10000 2.6 80 18:00 28.09.2019
1137 Clear 18 1018 36 10000 2.6 80 17:41 28.09.2019
1138 Clear 21 1018 29 10000 1.5 70 17:22 28.09.2019
1139 Clear 21 1018 31 10000 2.1 0 16:56 28.09.2019
1140 Clear 21 1018 31 10000 2.1 0 16:56 28.09.2019
1141 Clear 22 1018 29 10000 1.5 0 16:37 28.09.2019
1142 Clear 22 1018 29 10000 1.5 0 16:18 28.09.2019
1143 Clear 22 1018 29 10000 1 0 15:40 28.09.2019
1144 Clear 22 1018 29 10000 2.1 270 15:22 28.09.2019
1145 Clear 22 1019 31 10000 0.5 0 14:55 28.09.2019
1146 Clear 22 1019 31 10000 0.5 0 14:55 28.09.2019
1147 Clear 22 1019 36 10000 2.1 0 14:37 28.09.2019
1148 Clear 22 1019 36 10000 2.1 0 14:19 28.09.2019
1149 Clear 24 1020 36 10000 1.5 0 13:43 28.09.2019
1150 Clear 23 1020 43 10000 1.5 0 13:20 28.09.2019
1151 Clear 23 1020 40 10000 1 0 12:57 28.09.2019
1152 Clear 22 1021 45 10000 1.5 180 12:39 28.09.2019
1153 Clear 20 1021 45 10000 1.5 180 12:18 28.09.2019
1154 Clear 19 1021 52 10000 1.5 0 11:41 28.09.2019
1155 Clear 19 1021 52 10000 1.5 0 11:41 28.09.2019
1156 Clear 18 1021 59 10000 1.5 0 11:20 28.09.2019
1157 Clear 19 1022 63 10000 1 0 10:56 28.09.2019
1158 Clear 16 1022 71 10000 1 0 10:38 28.09.2019
1159 Clear 16 1022 71 10000 1 0 10:18 28.09.2019
1160 Clear 14 1022 76 10000 1 0 09:41 28.09.2019
1161 Clear 12 1022 87 10000 1.5 120 09:20 28.09.2019
1162 Clouds 10 1022 93 8000 2.1 90 08:48 28.09.2019
1163 Fog 9 1022 93 4000 1.5 100 08:29 28.09.2019
1164 Fog 9 1022 100 3000 1.64 140.548 07:57 28.09.2019
1165 Fog 9 1022 100 3000 1.64 140.548 07:38 28.09.2019
1166 Fog 8 1022 93 450 1 310 07:19 28.09.2019
1167 Fog 7 1022 100 300 1.64 140.548 06:40 28.09.2019
1168 Fog 7 1021 93 7000 1.5 350 06:21 28.09.2019
1169 Fog 7 1021 93 6000 0.84 120.472 05:25 28.09.2019
1170 Clouds 7 1021 93 8000 0.84 120.472 04:56 28.09.2019
1171 Clear 7 1021 93 10000 1 0 04:30 28.09.2019
1172 Clear 7 1021 87 10000 2.1 160 03:42 28.09.2019
1173 Clear 8 1021 87 10000 1 140 02:59 28.09.2019
1174 Clear 8 1021 87 10000 1 140 02:40 28.09.2019
1175 Clear 7 1021 93 10000 1.5 190 02:22 28.09.2019
1176 Clear 8 1021 87 10000 2.1 150 01:43 28.09.2019
1177 Clear 7 1021 93 10000 1 150 01:19 28.09.2019
1178 Clear 8 1021 87 10000 2.1 120 00:46 28.09.2019
1179 Clear 8 1021 87 10000 1.5 150 00:28 28.09.2019
1180 Clear 9 1021 76 10000 0.48 317.467 23:39 27.09.2019
1181 Clear 9 1021 76 10000 0.48 317.467 23:21 27.09.2019
1182 Clear 9 1021 87 10000 1 50 22:56 27.09.2019
1183 Clear 9 1020 81 10000 1 40 22:37 27.09.2019
1184 Clear 9 1020 81 10000 1 40 22:18 27.09.2019
1185 Clear 9 1020 76 10000 1.5 200 21:41 27.09.2019
1186 Clear 11 1020 71 10000 1.5 260 21:21 27.09.2019
1187 Clear 11 1020 67 10000 1.5 330 20:59 27.09.2019
1188 Clear 11 1020 67 10000 1.5 330 20:40 27.09.2019
1189 Clouds 11 1019 63 10000 2.1 360 20:20 27.09.2019
1190 Clouds 11 1019 63 10000 2.1 360 20:20 27.09.2019
1191 Clouds 12 1019 59 10000 3.1 280 19:58 27.09.2019
1192 Clouds 9 1019 59 10000 3.1 280 19:39 27.09.2019
1193 Clouds 12 1019 52 10000 3.1 280 19:20 27.09.2019
1194 Clouds 10 1019 48 10000 4.1 300 18:43 27.09.2019
1195 Clouds 16 1018 45 10000 4.6 280 18:24 27.09.2019
1196 Clouds 17 1018 43 10000 4.6 280 17:57 27.09.2019
1197 Clouds 16 1018 43 10000 4.6 270 17:38 27.09.2019
1198 Clouds 16 1018 43 10000 4.6 270 17:20 27.09.2019
1199 Clouds 17 1018 40 10000 4.1 290 16:57 27.09.2019
1200 Clouds 17 1018 43 10000 3.6 290 16:38 27.09.2019
1201 Clouds 18 1018 43 10000 3.6 290 16:18 27.09.2019
1202 Clouds 19 1018 40 10000 4.1 280 15:47 27.09.2019
1203 Clouds 19 1018 40 10000 5.7 270 15:21 27.09.2019
1204 Clouds 19 1018 40 10000 5.7 270 15:21 27.09.2019
1205 Clouds 19 1018 43 10000 5.1 300 14:59 27.09.2019
1206 Clouds 17 1018 43 10000 5.1 280 14:41 27.09.2019
1207 Clouds 17 1018 43 10000 5.1 280 14:22 27.09.2019
1208 Clouds 19 1018 43 10000 4.1 290 13:58 27.09.2019
1209 Clouds 18 1018 45 10000 4.6 290 13:40 27.09.2019
1210 Clouds 18 1018 45 10000 4.6 290 13:21 27.09.2019
1211 Clouds 18 1018 45 10000 4.6 290 13:21 27.09.2019
1212 -273 0 0 0 0 0 12:56 27.09.2019
1213 Clouds 20 1019 49 10000 5.7 280 12:37 27.09.2019
1214 Clouds 18 1019 49 10000 5.7 280 12:18 27.09.2019
1215 Clouds 16 1019 55 10000 6.7 290 11:39 27.09.2019
1216 Clouds 16 1019 55 10000 6.7 290 11:20 27.09.2019
1217 Clouds 19 1019 59 10000 5.7 290 10:54 27.09.2019
1218 Clouds 18 1019 63 10000 5.7 290 10:36 27.09.2019
1219 Clouds 18 1019 63 10000 5.7 290 10:18 27.09.2019
1220 Clouds 16 1019 72 10000 5.1 300 09:41 27.09.2019
1221 Clouds 12 1019 82 10000 2.6 310 09:20 27.09.2019
1222 Clear 12 1019 82 10000 2.6 330 08:42 27.09.2019
1223 Clouds 11 1019 87 10000 3.1 320 08:22 27.09.2019
1224 Clouds 11 1019 81 10000 3.1 310 07:58 27.09.2019
1225 Clouds 10 1018 87 10000 3.6 310 07:39 27.09.2019
1226 Clouds 8 1018 87 10000 3.6 310 07:20 27.09.2019
1227 Clouds 10 1018 93 10000 2.6 310 06:40 27.09.2019
1228 Clouds 8 1018 93 10000 2.6 340 06:22 27.09.2019
1229 Clouds 8 1018 87 10000 1.5 350 05:49 27.09.2019
1230 Clouds 10 1018 87 10000 2.6 340 05:30 27.09.2019
1231 Clouds 8 1017 76 10000 5.1 290 03:52 27.09.2019
1232 Clouds 9 1017 82 10000 2.6 310 01:57 27.09.2019
1233 Clouds 9 1017 82 10000 2.6 310 01:57 27.09.2019
1234 Clouds 9 1017 82 10000 4.6 280 01:34 27.09.2019
1235 Clouds 9 1017 82 10000 3.6 290 00:44 27.09.2019
1236 Clouds 11 1017 82 10000 4.1 300 23:59 26.09.2019
1237 Clouds 12 1017 82 10000 3.6 290 23:41 26.09.2019
1238 Clouds 12 1017 82 10000 3.6 290 23:22 26.09.2019
1239 Clear 12 1016 77 10000 4.1 280 22:58 26.09.2019
1240 Clear 12 1016 77 10000 4.1 280 22:40 26.09.2019
1241 Clear 12 1016 82 10000 4.6 290 22:19 26.09.2019
1242 Clouds 12 1016 77 10000 5.1 280 21:59 26.09.2019
1243 Clouds 12 1016 77 10000 5.1 280 21:38 26.09.2019
1244 Clouds 12 1016 77 10000 5.1 280 21:38 26.09.2019
1245 Clouds 12 1016 87 10000 6.7 260 21:20 26.09.2019
1246 Clouds 12 1015 87 10000 3.6 280 20:59 26.09.2019
1247 Clouds 12 1015 87 10000 3.6 280 20:59 26.09.2019
1248 Clouds 12 1015 87 10000 3.6 280 20:40 26.09.2019
1249 Clouds 12 1015 87 10000 4.6 280 20:21 26.09.2019
1250 Clouds 12 1015 82 10000 3.6 270 19:59 26.09.2019
1251 Clouds 12 1015 82 10000 3.6 270 19:39 26.09.2019
1252 Clouds 11 1015 87 10000 2.6 320 19:18 26.09.2019
1253 Rain 12 1014 87 10000 2.1 310 18:54 26.09.2019
1254 Rain 12 1014 87 10000 5.7 260 18:36 26.09.2019
1255 Rain 14 1014 87 10000 5.7 260 18:18 26.09.2019
1256 Rain 16 1013 63 10000 9.3 300 17:38 26.09.2019
1257 Rain 16 1013 63 10000 9.3 300 17:38 26.09.2019
1258 Rain 16 1013 63 10000 9.3 300 17:38 26.09.2019
1259 Rain 16 1013 63 10000 9.3 300 17:38 26.09.2019
1260 Rain 16 1013 63 10000 9.3 300 17:19 26.09.2019
1261 Rain 18 1012 56 10000 1.5 20 16:56 26.09.2019
1262 Clouds 18 1012 60 10000 2.6 330 16:37 26.09.2019
1263 Clouds 18 1012 60 10000 2.6 330 16:19 26.09.2019
1264 Clouds 18 1012 60 10000 3.6 280 15:55 26.09.2019
1265 Clouds 18 1012 64 10000 2.6 280 15:36 26.09.2019
1266 Clouds 21 1012 64 10000 2.6 280 15:18 26.09.2019
1267 Rain 18 1012 68 7000 6.2 320 14:41 26.09.2019
1268 Rain 17 1012 68 7000 6.2 320 14:22 26.09.2019
1269 Rain 19 1012 53 10000 0.5 0 13:58 26.09.2019
1270 Clouds 21 1012 53 10000 1.5 0 13:39 26.09.2019
1271 Clouds 20 1012 53 10000 1.5 0 13:19 26.09.2019
1272 Clouds 23 1013 53 10000 2.1 0 12:55 26.09.2019
1273 Clouds 23 1013 53 10000 2.1 0 12:55 26.09.2019
1274 Clouds 23 1013 53 10000 2.1 0 12:55 26.09.2019
1275 Clouds 20 1013 56 10000 1.5 0 12:36 26.09.2019
1276 Clouds 20 1013 56 10000 1.5 0 12:18 26.09.2019
1277 Clouds 19 1013 68 10000 2.1 120 11:41 26.09.2019
1278 Clouds 19 1013 68 10000 2.1 120 11:19 26.09.2019
1279 Clouds 20 1013 68 10000 1.5 110 10:42 26.09.2019
1280 Clouds 17 1013 72 10000 2.1 90 10:24 26.09.2019
1281 Clouds 14 1013 77 10000 1.5 0 09:59 26.09.2019
1282 Clouds 14 1013 82 10000 2.6 120 09:41 26.09.2019
1283 Clouds 13 1013 82 10000 2.6 120 09:20 26.09.2019
1284 Clouds 13 1013 82 10000 3.1 120 08:51 26.09.2019
1285 Clouds 13 1013 82 10000 3.6 100 08:31 26.09.2019
1286 Clouds 14 1013 87 7000 1 0 07:48 26.09.2019
1287 Clouds 12 1013 87 8000 1 0 07:23 26.09.2019
1288 Clouds 11 1013 93 8000 3.1 100 06:56 26.09.2019
1289 Clouds 12 1013 87 10000 4.1 90 06:29 26.09.2019
1290 Clouds 11 1013 87 10000 5.1 100 06:00 26.09.2019
1291 Clouds 11 1013 87 10000 5.1 90 05:32 26.09.2019
1292 Clouds 11 1013 87 10000 5.1 80 04:34 26.09.2019
1293 Clouds 12 1013 82 10000 5.1 90 02:33 26.09.2019
1294 Clouds 11 1013 82 10000 4.6 90 01:48 26.09.2019
1295 Clouds 12 1013 82 10000 5.1 100 01:22 26.09.2019
1296 Clouds 12 1013 87 10000 5.7 90 00:46 26.09.2019
1297 Clouds 12 1013 87 10000 5.1 100 00:25 26.09.2019
1298 Clouds 12 1013 87 10000 4.1 100 23:44 25.09.2019
1299 Clouds 12 1013 87 10000 4.6 90 23:23 25.09.2019
1300 Clouds 12 1013 87 10000 4.1 120 22:55 25.09.2019
1301 Clouds 12 1013 87 10000 4.1 80 22:37 25.09.2019
1302 Clouds 12 1013 87 10000 4.1 80 22:18 25.09.2019
1303 Clouds 12 1013 87 10000 4.6 70 21:55 25.09.2019
1304 Rain 12 1014 88 7000 2.6 0 21:37 25.09.2019
1305 Rain 12 1014 88 7000 2.6 0 21:18 25.09.2019
1306 Clouds 12 1013 77 10000 3.6 100 20:55 25.09.2019
1307 Clouds 12 1013 77 10000 3.6 90 20:37 25.09.2019
1308 Clouds 12 1013 77 10000 3.6 90 20:18 25.09.2019
1309 Clouds 12 1012 77 10000 2.1 120 19:39 25.09.2019
1310 Clouds 14 1012 68 10000 2.1 90 19:20 25.09.2019
1311 Clouds 13 1012 64 10000 1 0 18:56 25.09.2019
1312 Clouds 15 1012 68 10000 1.5 80 18:37 25.09.2019
1313 Clouds 16 1012 68 10000 1.5 80 18:18 25.09.2019
1314 Clouds 17 1012 64 10000 2.1 70 17:40 25.09.2019
1315 Clouds 20 1012 60 10000 1.33 69.272 17:21 25.09.2019
1316 Clouds 18 1012 60 10000 1.5 90 16:57 25.09.2019
1317 Clouds 18 1012 60 10000 1.5 90 16:57 25.09.2019
1318 Clouds 18 1012 60 10000 2.1 320 16:37 25.09.2019
1319 Clouds 20 1012 60 10000 2.1 320 16:19 25.09.2019
1320 Clouds 20 1013 60 10000 2.6 310 15:42 25.09.2019
1321 Clouds 20 1013 60 10000 2.6 310 15:23 25.09.2019
1322 Clouds 20 1013 60 10000 2.1 310 15:00 25.09.2019
1323 Clouds 20 1013 60 10000 2.1 310 14:41 25.09.2019
1324 Clouds 17 1013 64 10000 1.5 0 14:22 25.09.2019
1325 Clouds 17 1013 64 10000 2.1 240 13:56 25.09.2019
1326 Clouds 17 1013 60 10000 2.1 300 13:38 25.09.2019
1327 Clouds 17 1013 60 10000 2.1 300 13:19 25.09.2019
1328 Clouds 16 1014 68 10000 2.1 100 12:42 25.09.2019
1329 Clouds 16 1014 68 10000 2.1 100 12:24 25.09.2019
1330 Clouds 16 1014 72 10000 2.1 100 11:59 25.09.2019
1331 Clouds 16 1014 72 10000 2.1 100 11:40 25.09.2019
1332 Clouds 19 1014 72 10000 2.1 140 11:19 25.09.2019
1333 Clouds 19 1014 72 10000 2.1 140 11:19 25.09.2019
1334 Clouds 19 1014 72 10000 1 0 10:45 25.09.2019
1335 Clouds 18 1014 77 10000 1 0 10:26 25.09.2019
1336 Clouds 17 1014 87 10000 0.5 0 09:58 25.09.2019
1337 Clouds 16 1013 82 10000 1.21 145.413 09:38 25.09.2019
1338 Clouds 14 1013 82 10000 0.51 98.961 09:20 25.09.2019
1339 Clouds 14 1013 87 10000 1 0 08:45 25.09.2019
1340 Clouds 13 1013 93 10000 1.5 280 08:22 25.09.2019
1341 Clouds 13 1013 93 8000 1.5 280 07:59 25.09.2019
1342 Clouds 13 1013 93 6000 2.1 270 07:39 25.09.2019
1343 Clouds 11 1013 93 6000 2.1 270 07:21 25.09.2019
1344 Clouds 11 1013 93 7000 2.1 280 06:45 25.09.2019
1345 Clouds 11 1013 93 10000 2.1 280 06:22 25.09.2019
1346 Clouds 10 1013 93 10000 1.5 280 05:35 25.09.2019
1347 Clouds 10 1013 93 10000 1.5 270 04:55 25.09.2019
1348 Rain 11 1012 93 8000 1 0 02:31 25.09.2019
1349 Clouds 10 1012 93 8000 1 320 00:46 25.09.2019
1350 Clouds 11 1013 93 7000 1.5 280 00:27 25.09.2019
1351 Clouds 11 1012 93 7000 1 0 23:59 24.09.2019
1352 Mist 11 1012 93 5000 1 0 23:40 24.09.2019
1353 Mist 12 1012 93 5000 1 0 23:21 24.09.2019
1354 Mist 12 1012 100 5000 1.28 48.941 22:39 24.09.2019
1355 Mist 11 1012 100 5000 1.28 48.941 22:21 24.09.2019
1356 Mist 12 1012 100 5000 1.3 39.293 21:58 24.09.2019
1357 Mist 12 1012 100 5000 1.3 39.293 21:58 24.09.2019
1358 Mist 12 1012 100 5000 1.3 39.293 21:58 24.09.2019
1359 Mist 13 1012 100 4000 1 340 21:38 24.09.2019
1360 Mist 13 1012 100 4000 1 340 21:19 24.09.2019
1361 Rain 12 1012 100 5000 1.85 31.736 20:58 24.09.2019
1362 Rain 12 1012 100 5000 1.85 31.736 20:40 24.09.2019
1363 Rain 13 1012 100 5000 1.85 31.736 20:22 24.09.2019
1364 Rain 13 1012 93 5000 1.85 31.736 19:57 24.09.2019
1365 Rain 13 1012 93 5000 1.85 31.736 19:57 24.09.2019
1366 Rain 14 1011 87 8000 1.5 210 19:39 24.09.2019
1367 Rain 14 1011 87 8000 1.5 210 19:18 24.09.2019
1368 Rain 14 1012 93 6000 1.5 270 18:42 24.09.2019
1369 Rain 14 1012 93 6000 1.5 270 18:22 24.09.2019
1370 Rain 14 1011 93 7000 1.5 300 17:59 24.09.2019
1371 Rain 14 1011 87 6000 2.1 290 17:39 24.09.2019
1372 Rain 14 1011 87 6000 2.1 290 17:21 24.09.2019
1373 Rain 14 1011 93 8000 2.6 280 16:59 24.09.2019
1374 Rain 14 1011 93 3500 3.6 260 16:41 24.09.2019
1375 Rain 14 1011 93 3500 3.6 260 16:19 24.09.2019
1376 Rain 14 1011 93 3500 3.6 260 16:19 24.09.2019
1377 Rain 14 1011 87 6000 2.1 280 15:43 24.09.2019
1378 Rain 14 1011 82 7000 2.41 54.424 15:23 24.09.2019
1379 Rain 15 1011 77 10000 2.6 70 14:45 24.09.2019
1380 Clouds 15 1011 77 10000 3.6 110 14:21 24.09.2019
1381 Clouds 15 1011 72 10000 3.1 100 13:59 24.09.2019
1382 Clouds 13 1011 72 10000 3.1 100 13:40 24.09.2019
1383 Clouds 13 1012 68 10000 3.1 110 13:21 24.09.2019
1384 Clouds 13 1012 72 10000 2.6 120 12:40 24.09.2019
1385 Clouds 15 1012 72 10000 3.1 100 12:21 24.09.2019
1386 Clouds 15 1012 72 10000 3.6 90 11:57 24.09.2019
1387 Clouds 15 1012 77 10000 4.1 100 11:39 24.09.2019
1388 Clouds 13 1012 77 10000 4.1 100 11:18 24.09.2019
1389 Clouds 16 1012 82 10000 3.6 100 10:39 24.09.2019
1390 Clouds 14 1012 82 10000 3.6 100 10:21 24.09.2019
1391 Clouds 13 1012 87 10000 3.1 120 09:56 24.09.2019
1392 Clouds 13 1012 87 10000 2.6 110 09:37 24.09.2019
1393 Clouds 14 1012 87 10000 2.6 110 09:18 24.09.2019
1394 Clouds 14 1012 87 10000 1.5 130 08:41 24.09.2019
1395 Clouds 14 1012 87 10000 1.5 130 08:41 24.09.2019
1396 Clouds 14 1012 87 10000 1.5 130 08:41 24.09.2019
1397 Clouds 14 1012 93 8000 1.5 130 08:23 24.09.2019
1398 Mist 13 1012 93 5000 1 0 07:59 24.09.2019
1399 Mist 13 1012 93 5000 1 0 07:41 24.09.2019
1400 Mist 13 1012 93 5000 1.74 129.123 07:22 24.09.2019
1401 Mist 13 1012 93 4500 1 60 06:40 24.09.2019
1402 Mist 12 1012 93 5000 1.6 128.048 06:19 24.09.2019
1403 Mist 11 1013 93 4500 1.6 128.048 05:23 24.09.2019
1404 Mist 11 1014 93 4400 2.1 120 03:46 24.09.2019
1405 Mist 11 1014 93 4800 2.1 90 03:25 24.09.2019
1406 Mist 11 1014 100 4800 2.6 90 02:44 24.09.2019
1407 Mist 11 1014 100 3700 1.5 140 01:41 24.09.2019
1408 Rain 11 1014 93 4400 1.76 131.653 00:42 24.09.2019
1409 Rain 11 1014 93 4700 1 200 00:22 24.09.2019
1410 Clouds 11 1015 93 8000 0.86 140.945 23:43 23.09.2019
1411 Rain 11 1015 93 8000 0.86 140.945 23:23 23.09.2019
1412 Rain 12 1015 93 10000 0.86 140.945 22:41 23.09.2019
1413 Clouds 12 1015 93 10000 0.86 140.945 22:22 23.09.2019
1414 Clouds 12 1015 93 10000 0.86 140.945 21:59 23.09.2019
1415 Clouds 13 1015 93 10000 0.86 140.945 21:41 23.09.2019
1416 Rain 13 1015 93 10000 1 50 21:20 23.09.2019
1417 Rain 13 1015 93 10000 1.5 330 20:59 23.09.2019
1418 Rain 13 1015 93 10000 1.5 330 20:59 23.09.2019
1419 Rain 13 1015 93 10000 1.5 330 20:40 23.09.2019
1420 Rain 13 1015 87 8000 1.5 350 20:19 23.09.2019
1421 Clouds 11 1015 77 10000 1.5 0 19:40 23.09.2019
1422 Clouds 13 1015 82 10000 2.1 280 19:22 23.09.2019
1423 Rain 13 1015 82 10000 1.5 280 18:59 23.09.2019
1424 Rain 13 1015 82 10000 1.5 280 18:41 23.09.2019
1425 Rain 13 1015 82 10000 1.5 280 18:41 23.09.2019
1426 Rain 14 1015 72 10000 1 0 18:19 23.09.2019
1427 Rain 14 1015 68 10000 1 0 17:57 23.09.2019
1428 Rain 15 1015 55 10000 1 0 17:39 23.09.2019
1429 Rain 15 1015 55 10000 1 0 17:39 23.09.2019
1430 Rain 17 1015 55 10000 1 0 17:20 23.09.2019
1431 Clouds 16 1015 49 10000 2.6 150 16:57 23.09.2019
1432 Clouds 15 1015 49 10000 1.5 0 16:36 23.09.2019
1433 Clouds 16 1015 49 10000 1.5 0 16:18 23.09.2019
1434 Clouds 18 1015 49 10000 2.1 110 15:56 23.09.2019
1435 Clouds 18 1015 49 10000 2.1 110 15:56 23.09.2019
1436 Clouds 16 1015 49 10000 1.5 160 15:38 23.09.2019
1437 Clouds 18 1015 49 10000 1.5 160 15:18 23.09.2019
1438 Clouds 18 1015 52 10000 2.1 120 14:40 23.09.2019
1439 Clouds 18 1016 55 10000 0.5 0 14:20 23.09.2019
1440 Clouds 18 1016 52 10000 0.5 0 13:58 23.09.2019
1441 Rain 18 1016 52 10000 2.14 311.231 13:38 23.09.2019
1442 Rain 18 1016 52 10000 2.88 305.272 13:18 23.09.2019
1443 Rain 18 1017 48 10000 2.1 280 12:44 23.09.2019
1444 Rain 18 1017 48 10000 2.1 280 12:23 23.09.2019
1445 Rain 18 1017 48 10000 2.1 280 12:23 23.09.2019
1446 Clouds 18 1017 45 10000 1 0 11:58 23.09.2019
1447 Clear 18 1018 51 10000 1.5 0 11:40 23.09.2019
1448 Clear 17 1018 51 10000 1.5 0 11:21 23.09.2019
1449 Clouds 16 1018 51 10000 1.5 0 10:49 23.09.2019
1450 Clear 15 1018 54 10000 0.5 0 10:22 23.09.2019
1451 Clear 14 1018 62 10000 1 0 09:58 23.09.2019
1452 Clear 14 1019 66 10000 0.5 0 09:37 23.09.2019
1453 Clear 13 1019 66 10000 0.5 0 09:19 23.09.2019
1454 Clear 11 1018 66 10000 2.1 90 08:45 23.09.2019
1455 Clear 11 1018 71 10000 1.5 100 08:26 23.09.2019
1456 Clear 11 1018 71 10000 1.5 110 07:47 23.09.2019
1457 Clear 10 1018 81 10000 0.5 0 07:27 23.09.2019
1458 Clear 9 1018 76 10000 1.38 144.588 06:24 23.09.2019
1459 Clear 9 1018 76 10000 1 320 05:47 23.09.2019
1460 Clear 9 1019 76 10000 1.5 350 05:19 23.09.2019
1461 Clear 9 1019 76 10000 1.5 330 04:54 23.09.2019
1462 Clear 9 1019 62 10000 1 150 02:36 23.09.2019
1463 Clear 10 1019 58 10000 1.5 200 00:42 23.09.2019
1464 Clear 10 1019 62 10000 2.1 150 00:22 23.09.2019
1465 Clear 10 1019 62 10000 2.1 130 23:46 22.09.2019
1466 Clear 10 1019 58 10000 3.1 130 23:27 22.09.2019
1467 Clear 10 1019 54 10000 3.1 130 22:57 22.09.2019
1468 Clear 10 1019 54 10000 2.6 120 22:38 22.09.2019
1469 Clear 10 1019 54 10000 2.6 120 22:20 22.09.2019
1470 Clear 10 1019 54 10000 3.1 130 21:43 22.09.2019
1471 Clear 11 1019 54 10000 3.6 110 21:21 22.09.2019
1472 Clear 11 1019 54 10000 3.6 100 20:46 22.09.2019
1473 Clear 11 1019 51 10000 4.1 100 20:28 22.09.2019
1474 Clear 11 1019 55 10000 3.1 100 19:59 22.09.2019
1475 Clear 12 1018 45 10000 3.1 0 19:41 22.09.2019
1476 Clear 12 1018 45 10000 3.1 0 19:21 22.09.2019
1477 Clear 12 1018 37 10000 2.1 120 18:58 22.09.2019
1478 Clear 12 1018 33 10000 1.5 130 18:38 22.09.2019
1479 Clear 17 1018 33 10000 1.5 130 18:18 22.09.2019
1480 Clear 18 1019 30 10000 2.1 120 17:48 22.09.2019
1481 Clear 16 1019 30 10000 2.6 100 17:27 22.09.2019
1482 Clear 19 1019 28 10000 1 0 16:59 22.09.2019
1483 Clear 19 1019 28 10000 1 0 16:59 22.09.2019
1484 Clear 19 1019 28 10000 1 0 16:59 22.09.2019
1485 Clear 19 1019 28 10000 1 0 16:59 22.09.2019
1486 Clear 19 1019 28 10000 1 0 16:40 22.09.2019
1487 Clear 19 1019 28 10000 1 0 16:40 22.09.2019
1488 Clear 20 1019 27 10000 2.1 250 16:21 22.09.2019
1489 Clear 20 1020 28 10000 2.1 270 15:46 22.09.2019
1490 Clear 20 1020 28 10000 1.5 0 15:27 22.09.2019
1491 Clear 20 1020 30 10000 2.1 80 14:57 22.09.2019
1492 Clear 20 1020 30 10000 2.1 80 14:57 22.09.2019
1493 Clear 20 1020 30 10000 2.1 80 14:39 22.09.2019
1494 Clear 20 1021 30 10000 2.6 30 14:21 22.09.2019
1495 Clear 19 1021 32 10000 2.1 0 13:45 22.09.2019
1496 Clear 18 1022 34 10000 2.6 280 13:26 22.09.2019
1497 Clear 20 1022 37 10000 1.5 0 12:58 22.09.2019
1498 Clear 20 1023 39 10000 1.5 0 12:40 22.09.2019
1499 Clear 17 1023 39 10000 1.5 0 12:21 22.09.2019
1500 Clear 16 1023 42 10000 1.5 0 11:56 22.09.2019
1501 Clear 16 1024 44 10000 1 0 11:38 22.09.2019
1502 Clear 16 1024 44 10000 1 0 11:19 22.09.2019
1503 Clear 16 1024 54 10000 2.1 140 10:43 22.09.2019
1504 Clear 15 1025 58 10000 1.5 100 10:20 22.09.2019
1505 Clear 15 1025 58 10000 1.5 100 10:20 22.09.2019
1506 Clear 15 1025 58 10000 1.5 100 10:20 22.09.2019
1507 Clear 13 1025 58 10000 1 0 09:55 22.09.2019
1508 Clear 12 1025 66 10000 2.1 140 09:36 22.09.2019
1509 Clear 10 1025 66 10000 2.1 140 09:18 22.09.2019
1510 Clear 9 1025 66 10000 0.5 0 08:42 22.09.2019
1511 Clear 7 1025 75 10000 1 0 08:22 22.09.2019
1512 Clear 7 1025 75 10000 1.5 320 07:46 22.09.2019
1513 Clear 6 1025 80 10000 1 330 07:26 22.09.2019
1514 Clear 6 1025 80 10000 1.5 340 06:58 22.09.2019
1515 Clear 5 1025 86 10000 1.5 330 06:34 22.09.2019
1516 Clear 4 1025 75 10000 0.5 0 04:41 22.09.2019
1517 Clear 5 1025 75 10000 1.71 112.715 02:45 22.09.2019
1518 Clear 5 1025 75 10000 1.5 140 02:24 22.09.2019
1519 Clear 5 1025 70 10000 2.1 160 01:38 22.09.2019
1520 Clear 6 1025 65 10000 2.1 160 00:46 22.09.2019
1521 Clear 6 1025 65 10000 2.6 130 00:27 22.09.2019
1522 Clear 6 1025 65 10000 1.5 120 23:51 21.09.2019
1523 Clear 6 1026 57 10000 1.5 130 23:33 21.09.2019
1524 Clear 6 1026 57 10000 0.5 0 22:43 21.09.2019
1525 Clear 6 1026 53 10000 2.1 120 22:24 21.09.2019
1526 Clear 7 1026 53 10000 2.1 130 21:58 21.09.2019
1527 Clear 7 1026 53 10000 2.1 130 21:40 21.09.2019
1528 Clear 7 1026 53 10000 1.5 160 21:19 21.09.2019
1529 Clear 9 1026 46 10000 2.1 150 20:41 21.09.2019
1530 Clear 9 1026 46 10000 2.1 150 20:41 21.09.2019
1531 Clear 9 1025 50 10000 2.6 140 20:23 21.09.2019
1532 Clear 9 1025 40 10000 2.1 140 19:58 21.09.2019
1533 Clear 9 1025 40 10000 2.1 140 19:39 21.09.2019
1534 Clear 9 1025 38 10000 2.6 140 19:18 21.09.2019
1535 Clear 9 1024 14 10000 1 0 18:39 21.09.2019
1536 Clear 15 1024 14 10000 1 0 18:21 21.09.2019
1537 Clear 14 1024 19 10000 1 0 17:42 21.09.2019
1538 Clear 16 1024 19 10000 0.5 0 17:23 21.09.2019
1539 Clear 16 1024 19 10000 1.5 0 16:56 21.09.2019
1540 Clear 16 1024 17 10000 1 0 16:36 21.09.2019
1541 Clear 16 1024 17 10000 1 0 16:18 21.09.2019
1542 Clear 16 1024 16 10000 1.5 250 15:42 21.09.2019
1543 Clear 16 1025 17 10000 2.1 230 15:20 21.09.2019
1544 Clear 19 1025 24 10000 1.5 0 14:47 21.09.2019
1545 Clear 16 1025 22 10000 2.1 0 14:28 21.09.2019
1546 Clear 16 1025 22 10000 2.1 0 14:28 21.09.2019
1547 Clear 19 1026 22 10000 1.5 0 13:45 21.09.2019
1548 Clear 19 1026 20 10000 1.5 0 13:25 21.09.2019
1549 Clear 19 1026 20 10000 1.5 0 13:25 21.09.2019
1550 Clear 18 1026 25 10000 2.6 240 12:58 21.09.2019
1551 Clear 18 1027 26 10000 2.6 0 12:39 21.09.2019
1552 Clear 15 1027 26 10000 2.6 0 12:20 21.09.2019
1553 Clear 15 1027 26 10000 2.6 0 12:20 21.09.2019
1554 Clear 14 1027 33 10000 2.6 230 11:57 21.09.2019
1555 Clear 13 1027 43 10000 2.6 0 11:38 21.09.2019
1556 Clear 16 1027 43 10000 2.6 0 11:18 21.09.2019
1557 Clear 15 1028 27 10000 2.1 310 10:40 21.09.2019
1558 Clear 14 1028 53 10000 1 0 10:20 21.09.2019
1559 Clear 14 1028 53 10000 1 0 10:20 21.09.2019
1560 Clear 12 1028 57 10000 0.5 0 09:55 21.09.2019
1561 Clear 10 1028 70 10000 1.69 257.471 09:37 21.09.2019
1562 Clear 7 1028 70 10000 1.63 302.347 09:19 21.09.2019
1563 Clear 5 1027 75 10000 1 0 08:45 21.09.2019
1564 Fog 4 1027 86 10000 2.1 100 07:59 21.09.2019
1565 Fog 5 1027 86 10000 2.1 100 07:40 21.09.2019
1566 Fog 4 1027 93 10000 1.5 80 07:20 21.09.2019
1567 Clear 3 1026 86 10000 1 0 06:36 21.09.2019
1568 Clear 2 1026 93 10000 2.1 120 05:51 21.09.2019
1569 Clear 2 1026 86 10000 2.1 90 04:39 21.09.2019
1570 Clear 2 1026 86 10000 2.1 110 03:34 21.09.2019
1571 Clear 2 1026 86 10000 1.34 321.06 02:25 21.09.2019
1572 Clear 2 1026 80 10000 1.5 100 01:48 21.09.2019
1573 Clear 3 1026 70 10000 2.1 30 01:25 21.09.2019
1574 -273 0 0 0 0 0 00:24 21.09.2019
1575 Clear 5 1025 65 10000 2.1 300 23:56 20.09.2019
1576 Clear 4 1025 61 10000 2.6 320 23:30 20.09.2019
1577 Clear 4 1025 61 10000 2.6 300 22:56 20.09.2019
1578 Clear 4 1025 61 10000 2.6 300 22:56 20.09.2019
1579 Clear 4 1025 70 10000 0.5 0 22:37 20.09.2019
1580 Clear 4 1025 70 10000 0.5 0 22:19 20.09.2019
1581 Clear 5 1025 62 10000 1 0 21:54 20.09.2019
1582 Clear 5 1025 54 10000 3.1 230 21:36 20.09.2019
1583 Clear 8 1025 54 10000 3.1 230 21:18 20.09.2019
1584 Clear 8 1024 54 10000 2.6 200 20:41 20.09.2019
1585 Clear 8 1024 50 10000 3.1 190 20:20 20.09.2019
1586 Clear 7 1023 50 10000 2.1 180 19:56 20.09.2019
1587 Clear 7 1023 50 10000 2.1 180 19:56 20.09.2019
1588 Clear 5 1023 50 10000 2.1 50 19:37 20.09.2019
1589 Clear 4 1023 50 10000 2.1 50 19:18 20.09.2019
1590 Clear 6 1022 27 10000 3.1 20 18:39 20.09.2019
1591 Clear 13 1022 27 10000 3.1 20 18:20 20.09.2019
1592 Clear 13 1022 23 10000 3.1 360 17:56 20.09.2019
1593 Clear 13 1022 23 10000 3.1 360 17:56 20.09.2019
1594 Clear 14 1022 23 10000 3.6 320 17:38 20.09.2019
1595 Clear 14 1022 23 10000 3.6 320 17:18 20.09.2019
1596 Clear 14 1022 23 10000 3.6 300 16:38 20.09.2019
1597 Clear 15 1022 23 10000 3.6 300 16:19 20.09.2019
1598 Clear 14 1022 25 10000 3.6 320 15:42 20.09.2019
1599 Clear 14 1022 27 10000 4.6 310 15:23 20.09.2019
1600 Clear 14 1022 27 10000 4.6 310 15:23 20.09.2019
1601 Clear 10 1022 25 10000 3.6 320 14:56 20.09.2019
1602 Clear 10 1022 25 10000 3.6 320 14:38 20.09.2019
1603 Clear 10 1022 29 10000 4.1 320 14:18 20.09.2019
1604 Clear 19 1022 26 10000 4.6 330 13:44 20.09.2019
1605 Clouds 18 1022 36 10000 4.6 280 13:25 20.09.2019
1606 Clouds 18 1022 36 10000 4.6 280 12:42 20.09.2019
1607 Clouds 9 1022 38 10000 4.1 290 12:23 20.09.2019
1608 Clouds 16 1023 38 10000 4.6 290 11:57 20.09.2019
1609 Clouds 16 1023 41 10000 4.1 280 11:39 20.09.2019
1610 Clouds 15 1023 41 10000 4.1 280 11:19 20.09.2019
1611 Clouds 14 1023 50 10000 5.1 270 10:42 20.09.2019
1612 Clouds 14 1023 50 10000 5.1 270 10:22 20.09.2019
1613 Clouds 12 1023 66 10000 4.1 290 09:38 20.09.2019
1614 Clouds 11 1023 66 10000 4.1 290 09:19 20.09.2019
1615 Clouds 7 1023 71 10000 4.6 280 08:59 20.09.2019
1616 Clouds 8 1023 81 10000 4.1 280 08:39 20.09.2019
1617 Clouds 6 1023 81 10000 4.1 280 08:20 20.09.2019
1618 Clouds 6 1022 81 10000 3.6 280 07:41 20.09.2019
1619 Clouds 7 1022 87 10000 4.1 280 07:23 20.09.2019
1620 Clouds 7 1022 81 10000 3.6 280 06:43 20.09.2019
1621 Clouds 6 1022 81 10000 3.6 280 06:18 20.09.2019
1622 Clouds 6 1022 93 10000 4.1 270 04:32 20.09.2019
1623 Rain 6 1022 93 10000 3.6 280 03:29 20.09.2019
1624 Rain 6 1023 87 10000 4.1 270 02:22 20.09.2019
1625 Rain 6 1023 93 8000 3.6 280 01:43 20.09.2019
1626 Rain 6 1023 93 8000 3.6 280 01:43 20.09.2019
1627 Rain 7 1023 93 8000 5.1 270 00:42 20.09.2019
1628 Rain 8 1022 87 10000 4.6 280 23:50 19.09.2019
1629 Rain 8 1022 87 10000 4.6 280 23:50 19.09.2019
1630 Rain 7 1022 81 10000 3.6 280 23:28 19.09.2019
1631 Rain 9 1022 81 10000 3.1 280 22:59 19.09.2019
1632 Rain 8 1022 81 10000 3.1 280 22:40 19.09.2019
1633 Clouds 8 1022 81 10000 4.1 280 22:21 19.09.2019
1634 Clouds 8 1022 81 10000 3.1 280 21:57 19.09.2019
1635 Clouds 8 1022 87 10000 2.6 290 21:38 19.09.2019
1636 Clouds 9 1022 87 10000 2.6 290 21:19 19.09.2019
1637 Clouds 9 1022 87 10000 3.6 300 20:55 19.09.2019
1638 Clouds 9 1022 87 10000 3.6 300 20:55 19.09.2019
1639 Clouds 9 1022 87 10000 3.6 300 20:55 19.09.2019
1640 Rain 9 1022 87 10000 3.1 250 20:37 19.09.2019
1641 Rain 9 1022 87 10000 3.1 250 20:18 19.09.2019
1642 Rain 9 1021 87 10000 3.1 270 19:39 19.09.2019
1643 Rain 10 1021 87 10000 3.1 270 19:21 19.09.2019
1644 Rain 10 1021 87 10000 3.6 280 18:58 19.09.2019
1645 Rain 10 1021 87 10000 3.6 290 18:40 19.09.2019
1646 Rain 10 1021 87 10000 3.6 290 18:21 19.09.2019
1647 Rain 11 1021 76 10000 1.5 290 17:42 19.09.2019
1648 Rain 10 1021 76 10000 1.5 290 17:24 19.09.2019
1649 Rain 11 1021 76 10000 1 0 16:59 19.09.2019
1650 Rain 11 1021 76 10000 1 0 16:40 19.09.2019
1651 Clouds 11 1021 71 10000 2.6 300 16:19 19.09.2019
1652 Clouds 11 1022 71 10000 2.1 310 15:40 19.09.2019
1653 Clouds 11 1022 71 10000 2.1 310 15:40 19.09.2019
1654 Clouds 11 1022 71 10000 2.1 310 15:21 19.09.2019
1655 Clouds 11 1022 71 10000 2.1 290 14:57 19.09.2019
1656 Clouds 11 1022 76 10000 2.1 300 14:38 19.09.2019
1657 Clouds 11 1022 76 10000 2.1 300 14:18 19.09.2019
1658 Clouds 11 1022 71 10000 1.5 290 13:40 19.09.2019
1659 Clouds 11 1022 76 10000 2.1 280 13:20 19.09.2019
1660 Clouds 11 1022 81 10000 3.1 290 12:40 19.09.2019
1661 Clouds 11 1022 81 10000 3.1 290 12:20 19.09.2019
1662 Clouds 11 1023 81 10000 3.1 310 11:59 19.09.2019
1663 Clouds 11 1023 81 10000 3.1 310 11:40 19.09.2019
1664 Clouds 10 1023 81 10000 3.1 310 11:21 19.09.2019
1665 Rain 10 1023 76 10000 2.6 290 10:57 19.09.2019
1666 Rain 10 1023 81 10000 2.6 290 10:36 19.09.2019
1667 Rain 10 1023 81 10000 2.6 290 10:18 19.09.2019
1668 Rain 10 1023 81 10000 2.1 290 09:42 19.09.2019
1669 Drizzle 10 1023 76 10000 3.1 290 09:22 19.09.2019
1670 Rain 10 1022 71 10000 3.6 270 08:56 19.09.2019
1671 -273 0 0 0 0 0 08:56 19.09.2019
1672 Rain 10 1022 66 10000 2.6 230 08:29 19.09.2019
1673 Rain 11 1022 66 10000 2.6 270 07:58 19.09.2019
1674 Drizzle 10 1022 58 10000 3.6 280 07:40 19.09.2019
1675 Drizzle 10 1022 58 10000 3.6 280 07:21 19.09.2019
1676 Drizzle 10 1022 50 10000 3.6 280 06:45 19.09.2019
1677 Drizzle 10 1022 50 10000 3.6 280 06:45 19.09.2019
1678 Drizzle 10 1021 50 10000 3.1 280 06:25 19.09.2019
1679 Clouds 10 1021 50 10000 3.1 280 05:51 19.09.2019
1680 Clouds 10 1021 47 10000 3.6 280 04:39 19.09.2019
1681 Clear 11 1021 50 10000 4.1 280 03:22 19.09.2019
1682 Clear 11 1021 47 10000 4.1 270 01:53 19.09.2019
1683 Clear 11 1021 47 10000 4.1 270 01:21 19.09.2019
1684 Clear 11 1021 47 10000 5.7 280 00:49 19.09.2019
1685 Clear 11 1021 50 10000 6.2 270 00:25 19.09.2019
1686 Clear 11 1021 54 10000 5.7 280 23:39 18.09.2019
1687 Clear 12 1021 54 10000 5.7 280 23:21 18.09.2019
1688 Clear 10 1021 51 10000 5.7 280 22:43 18.09.2019
1689 Clear 12 1021 54 10000 5.1 280 22:20 18.09.2019
1690 Clouds 12 1021 55 10000 5.1 280 21:58 18.09.2019
1691 Clouds 12 1021 55 10000 5.1 280 21:40 18.09.2019
1692 Clouds 13 1020 55 10000 5.7 280 21:19 18.09.2019
1693 Clouds 14 1020 51 10000 6.2 270 20:58 18.09.2019
1694 Clouds 14 1020 51 10000 6.2 270 20:40 18.09.2019
1695 Clouds 14 1020 51 10000 5.7 280 20:22 18.09.2019
1696 Clouds 13 1019 48 10000 6.2 280 19:57 18.09.2019
1697 Clouds 13 1019 48 10000 6.2 280 19:57 18.09.2019
1698 Clouds 13 1019 48 10000 7.7 270 19:38 18.09.2019
1699 Clouds 14 1019 48 10000 7.7 270 19:19 18.09.2019
1700 Clouds 14 1019 48 10000 7.7 270 19:19 18.09.2019
1701 Clouds 13 1019 45 10000 6.2 280 18:55 18.09.2019
1702 Clouds 14 1019 42 10000 6.2 280 18:37 18.09.2019
1703 Clouds 17 1019 42 10000 6.2 280 18:18 18.09.2019
1704 Clouds 18 1019 37 10000 5.7 280 17:57 18.09.2019
1705 Clouds 18 1019 37 10000 5.7 280 17:57 18.09.2019
1706 Clouds 19 1018 43 10000 5.7 300 17:39 18.09.2019
1707 Clouds 19 1018 43 10000 5.7 300 17:18 18.09.2019
1708 Clouds 19 1018 43 10000 5.7 300 17:18 18.09.2019
1709 Clouds 20 1018 38 10000 5.7 310 16:55 18.09.2019
1710 Clouds 20 1018 38 10000 5.7 310 16:55 18.09.2019
1711 Clouds 19 1018 41 10000 5.1 320 16:36 18.09.2019
1712 Clouds 21 1018 41 10000 5.1 320 16:18 18.09.2019
1713 Clouds 22 1017 38 10000 5.1 310 15:54 18.09.2019
1714 Clouds 20 1017 41 10000 3.1 330 15:36 18.09.2019
1715 Clouds 20 1017 41 10000 3.1 330 15:36 18.09.2019
1716 Clouds 20 1017 41 10000 3.1 330 15:18 18.09.2019
1717 Clouds 21 1017 36 10000 4.6 350 14:55 18.09.2019
1718 Clouds 21 1017 41 10000 8.7 290 14:36 18.09.2019
1719 Clouds 21 1017 41 10000 8.7 290 14:18 18.09.2019
1720 Clouds 22 1017 41 10000 9.3 290 13:40 18.09.2019
1721 Clouds 21 1017 38 10000 7.7 280 13:19 18.09.2019
1722 Clear 22 1017 38 10000 8.2 290 12:53 18.09.2019
1723 Clear 22 1017 36 10000 8.2 290 12:31 18.09.2019
1724 Clear 24 1016 31 10000 7.2 280 11:57 18.09.2019
1725 Clear 24 1016 31 10000 7.7 270 11:38 18.09.2019
1726 Clear 23 1016 31 10000 7.7 270 11:19 18.09.2019
1727 Clear 26 1016 31 10000 4.6 290 10:40 18.09.2019
1728 Clear 24 1016 37 10000 2.1 0 10:21 18.09.2019
1729 Clear 23 1016 42 10000 1.5 0 09:58 18.09.2019
1730 Clear 21 1016 45 10000 0.5 0 09:38 18.09.2019
1731 Clear 18 1016 45 10000 0.5 0 09:20 18.09.2019
1732 Clear 16 1016 48 10000 1 0 08:42 18.09.2019
1733 Clear 14 1016 58 10000 1 0 08:24 18.09.2019
1734 Clear 13 1016 66 10000 1 0 07:57 18.09.2019
1735 Clear 13 1016 71 10000 1.5 10 07:39 18.09.2019
1736 Clear 13 1016 71 10000 1.5 10 07:21 18.09.2019
1737 Clear 12 1015 66 10000 2.1 110 06:40 18.09.2019
1738 Clear 11 1015 71 10000 2.1 100 05:50 18.09.2019
1739 Clear 11 1014 66 10000 1.5 150 04:52 18.09.2019
1740 Clear 11 1014 66 10000 2.1 50 02:54 18.09.2019
1741 Clear 12 1015 54 10000 2.1 0 02:28 18.09.2019
1742 Clear 12 1015 54 10000 0.5 0 01:21 18.09.2019
1743 Clear 13 1015 51 10000 2.1 140 00:48 18.09.2019
1744 Clear 13 1015 48 10000 1.5 180 00:20 18.09.2019
1745 Clear 14 1015 45 10000 2.1 180 23:44 17.09.2019
1746 Clear 14 1014 45 10000 2.6 160 23:22 17.09.2019
1747 Clear 14 1014 45 10000 3.1 150 22:43 17.09.2019
1748 Clear 13 1015 48 10000 1 0 22:24 17.09.2019
1749 Clear 14 1014 45 10000 1.15 109.503 21:55 17.09.2019
1750 Clear 14 1014 45 10000 1.15 109.503 21:55 17.09.2019
1751 Clear 15 1014 32 10000 2.1 200 21:37 17.09.2019
1752 Clear 15 1014 32 10000 2.1 200 21:18 17.09.2019
1753 Clear 15 1014 32 10000 2.1 200 21:18 17.09.2019
1754 Clear 16 1014 33 10000 1.5 230 20:57 17.09.2019
1755 Clear 16 1014 33 10000 1.5 210 20:39 17.09.2019
1756 Clear 16 1014 33 10000 1.5 210 20:21 17.09.2019
1757 Clear 17 1014 25 10000 2.6 200 19:58 17.09.2019
1758 Clear 16 1013 23 10000 2.1 290 19:39 17.09.2019
1759 Clear 17 1013 23 10000 2.1 290 19:19 17.09.2019
1760 Clear 17 1013 19 10000 2.1 280 18:56 17.09.2019
1761 Clear 18 1013 17 10000 2.1 300 18:37 17.09.2019
1762 Clear 24 1013 17 10000 2.1 300 18:19 17.09.2019
1763 Clear 23 1014 16 10000 3.1 310 17:45 17.09.2019
1764 Clear 26 1014 16 10000 3.1 310 17:19 17.09.2019
1765 Clear 26 1014 16 10000 3.1 310 16:56 17.09.2019
1766 Clear 26 1014 16 10000 4.1 280 16:37 17.09.2019
1767 Clear 27 1014 16 10000 4.1 280 16:19 17.09.2019
1768 Clear 25 1014 16 10000 3.1 0 15:39 17.09.2019
1769 Clear 25 1014 15 10000 3.1 320 15:20 17.09.2019
1770 Clear 25 1015 18 10000 2.6 0 14:56 17.09.2019
1771 Clear 25 1015 18 10000 3.1 310 14:37 17.09.2019
1772 Clear 25 1015 18 10000 3.1 310 14:19 17.09.2019
1773 Clear 25 1016 20 10000 2.1 0 13:43 17.09.2019
1774 Clear 25 1016 20 10000 3.6 290 13:25 17.09.2019
1775 Clear 25 1016 21 10000 3.1 310 12:59 17.09.2019
1776 Clear 24 1017 26 10000 1.5 0 12:38 17.09.2019
1777 Clear 24 1017 26 10000 1.5 0 12:19 17.09.2019
1778 Clear 24 1017 26 10000 1.5 0 12:19 17.09.2019
1779 Clear 25 1017 31 10000 1.5 0 11:44 17.09.2019
1780 Clear 24 1017 36 10000 1 0 11:25 17.09.2019
1781 Clear 23 1017 40 10000 2.29 279.787 10:56 17.09.2019
1782 Clear 22 1018 42 10000 1 0 10:38 17.09.2019
1783 Clear 22 1018 42 10000 1 0 10:20 17.09.2019
1784 Clear 17 1018 45 10000 1.5 270 09:42 17.09.2019
1785 Clear 15 1018 48 10000 0.5 0 09:23 17.09.2019
1786 Clear 15 1018 58 10000 1.41 282.741 08:52 17.09.2019
1787 Clear 13 1018 66 10000 2.1 80 08:33 17.09.2019
1788 Clear 13 1018 66 10000 2.1 80 08:33 17.09.2019
1789 Clear 12 1018 71 10000 1 0 07:59 17.09.2019
1790 Clear 12 1018 76 10000 1 160 07:41 17.09.2019
1791 Clear 11 1018 76 10000 1 160 07:23 17.09.2019
1792 Clear 11 1018 71 10000 1 0 06:47 17.09.2019
1793 Clear 10 1017 81 10000 1.5 90 06:23 17.09.2019
1794 Clear 10 1017 81 10000 1.5 70 05:49 17.09.2019
1795 Clear 9 1017 76 10000 1 0 04:31 17.09.2019
1796 Clear 10 1017 71 10000 1.5 140 02:58 17.09.2019
1797 Clear 11 1017 66 10000 1.5 80 02:39 17.09.2019
1798 Clear 12 1017 62 10000 2.6 150 01:26 17.09.2019
1799 Clear 12 1018 54 10000 1.5 110 00:40 17.09.2019
1800 Clear 13 1018 45 10000 1 0 23:40 16.09.2019
1801 Clear 12 1018 45 10000 1 0 23:19 16.09.2019
1802 Clear 12 1018 45 10000 1 0 22:56 16.09.2019
1803 Clear 13 1018 45 10000 1 0 22:56 16.09.2019
1804 Clear 12 1018 45 10000 1 0 22:56 16.09.2019
1805 Clear 13 1018 39 10000 2.6 330 22:37 16.09.2019
1806 Clear 13 1018 39 10000 2.6 330 22:19 16.09.2019
1807 Clear 14 1018 35 10000 2.6 290 21:41 16.09.2019
1808 Clear 15 1017 32 10000 3.6 270 21:22 16.09.2019
1809 Clear 15 1017 32 10000 4.1 270 20:59 16.09.2019
1810 Clear 15 1017 32 10000 4.1 270 20:40 16.09.2019
1811 Clear 15 1017 28 10000 4.1 270 20:20 16.09.2019
1812 Clear 15 1017 27 10000 3.6 270 19:57 16.09.2019
1813 Clear 16 1016 23 10000 3.1 290 19:38 16.09.2019
1814 Clear 15 1016 23 10000 3.1 290 19:18 16.09.2019
1815 Clear 17 1016 21 10000 5.1 280 18:45 16.09.2019
1816 Clear 23 1016 21 10000 5.1 280 18:27 16.09.2019
1817 Clear 24 1016 20 10000 5.1 280 17:56 16.09.2019
1818 Clear 24 1016 20 10000 5.1 280 17:56 16.09.2019
1819 Clear 24 1016 17 10000 5.1 280 17:37 16.09.2019
1820 Clear 25 1016 17 10000 5.1 280 17:19 16.09.2019
1821 Clear 26 1016 18 10000 3.6 280 16:43 16.09.2019
1822 Clear 26 1016 18 10000 4.6 260 16:21 16.09.2019
1823 Clear 26 1017 17 10000 3.6 280 15:57 16.09.2019
1824 Clear 26 1017 17 10000 3.6 280 15:39 16.09.2019
1825 Clear 25 1017 16 10000 4.1 250 15:20 16.09.2019
1826 Clear 25 1017 16 10000 4.1 250 15:20 16.09.2019
1827 Clear 24 1017 18 10000 3.6 280 14:58 16.09.2019
1828 Clear 24 1017 18 10000 3.6 280 14:39 16.09.2019
1829 Clear 23 1018 22 10000 4.1 300 14:20 16.09.2019
1830 Clear 23 1018 26 10000 2.6 290 13:43 16.09.2019
1831 Clear 23 1019 24 10000 2.6 310 13:22 16.09.2019
1832 Clear 24 1019 26 10000 4.1 280 12:57 16.09.2019
1833 Clear 24 1019 26 10000 4.1 280 12:57 16.09.2019
1834 Clear 27 1020 29 10000 4.1 280 12:38 16.09.2019
1835 Clear 22 1020 29 10000 4.1 280 12:18 16.09.2019
1836 Clear 23 1020 36 10000 4.1 290 11:44 16.09.2019
1837 Clear 22 1020 46 10000 1.5 0 11:22 16.09.2019
1838 Clear 22 1021 49 10000 1 0 10:55 16.09.2019
1839 Clear 22 1021 49 10000 1 0 10:55 16.09.2019
1840 Clear 23 1021 52 10000 1.5 200 10:36 16.09.2019
1841 Clear 19 1021 52 10000 1.5 200 10:18 16.09.2019
1842 Clear 18 1021 63 10000 1.5 0 09:41 16.09.2019
1843 Clear 17 1021 63 10000 1.5 0 09:20 16.09.2019
1844 Clear 16 1022 67 10000 0.5 0 08:52 16.09.2019
1845 Clear 14 1022 76 10000 1.5 320 08:31 16.09.2019
1846 Clear 14 1022 76 10000 1 0 07:58 16.09.2019
1847 Clear 12 1022 87 10000 1.5 340 07:40 16.09.2019
1848 Clear 12 1022 87 10000 1.5 340 07:20 16.09.2019
1849 Clear 11 1022 87 10000 1 350 06:49 16.09.2019
1850 Clear 12 1022 81 10000 1.5 340 06:31 16.09.2019
1851 Clear 10 1022 81 10000 0.35 334.537 05:57 16.09.2019
1852 Clear 11 1022 87 10000 0.35 334.537 05:38 16.09.2019
1853 Clear 10 1022 87 10000 1 0 04:55 16.09.2019
1854 Clear 11 1023 81 10000 1.5 110 03:33 16.09.2019
1855 Clear 11 1023 76 10000 0.17 221.186 00:44 16.09.2019
1856 Clear 12 1023 71 10000 1 0 00:26 16.09.2019
1857 Clear 13 1023 67 10000 1.2 25.607 23:45 15.09.2019
1858 Clear 13 1024 62 10000 1.2 25.607 23:22 15.09.2019
1859 Clear 13 1024 63 10000 1 0 22:59 15.09.2019
1860 Clear 14 1024 59 10000 1 0 22:38 15.09.2019
1861 Clear 14 1024 59 10000 1 0 22:18 15.09.2019
1862 Clear 14 1024 67 10000 1.5 120 21:56 15.09.2019
1863 Clear 15 1024 55 10000 1.5 10 21:37 15.09.2019
1864 Clear 15 1024 55 10000 1.5 10 21:37 15.09.2019
1865 Clear 15 1024 55 10000 1.5 10 21:19 15.09.2019
1866 Clear 16 1024 52 10000 1 0 20:44 15.09.2019
1867 Clear 16 1023 46 10000 2.1 160 20:26 15.09.2019
1868 Clear 16 1023 46 10000 2.1 150 19:47 15.09.2019
1869 Clear 16 1023 49 10000 1.5 50 19:27 15.09.2019
1870 Clear 17 1023 43 10000 2.6 50 18:56 15.09.2019
1871 Clear 18 1023 41 10000 3.1 40 18:38 15.09.2019
1872 Clear 21 1023 41 10000 3.1 40 18:20 15.09.2019
1873 Clear 21 1023 38 10000 4.1 40 17:43 15.09.2019
1874 Clear 22 1023 36 10000 4.1 50 17:22 15.09.2019
1875 Clear 22 1023 31 10000 3.1 30 16:57 15.09.2019
1876 Clouds 23 1023 26 10000 3.1 100 16:38 15.09.2019
1877 Clouds 23 1023 26 10000 3.1 100 16:20 15.09.2019
1878 Clouds 22 1024 26 10000 1 0 15:41 15.09.2019
1879 Clouds 22 1024 26 10000 1 0 15:41 15.09.2019
1880 Clouds 24 1024 28 10000 2.1 130 15:21 15.09.2019
1881 Clouds 23 1024 29 10000 1 0 14:59 15.09.2019
1882 Clouds 23 1024 29 10000 1 0 14:41 15.09.2019
1883 Clouds 21 1025 31 10000 2.1 130 14:23 15.09.2019
1884 Clouds 25 1025 34 10000 2.6 110 13:48 15.09.2019
1885 Clouds 26 1026 34 10000 1.5 0 13:26 15.09.2019
1886 Clouds 26 1026 36 10000 2.6 0 12:59 15.09.2019
1887 Clouds 25 1027 41 10000 2.1 0 12:40 15.09.2019
1888 Clouds 22 1027 41 10000 2.1 0 12:20 15.09.2019
1889 Clouds 22 1027 41 10000 2.1 0 12:20 15.09.2019
1890 Clouds 22 1027 43 10000 1.5 0 11:43 15.09.2019
1891 Clouds 24 1027 46 10000 1.5 280 11:23 15.09.2019
1892 Clouds 23 1027 49 10000 1.5 0 10:59 15.09.2019
1893 Clouds 22 1027 49 10000 1.5 0 10:40 15.09.2019
1894 Clear 19 1028 55 10000 2.1 310 10:21 15.09.2019
1895 Clear 18 1028 63 10000 1.5 0 09:43 15.09.2019
1896 Clear 15 1028 63 10000 1.44 284.113 09:21 15.09.2019
1897 Clear 14 1028 63 10000 1 0 08:58 15.09.2019
1898 Clear 13 1028 63 10000 1 0 08:39 15.09.2019
1899 Clear 12 1028 67 10000 0.5 0 08:18 15.09.2019
1900 Clear 13 1027 76 10000 1 0 07:41 15.09.2019
1901 Clear 11 1027 81 10000 1.5 140 06:44 15.09.2019
1902 Clear 9 1027 81 10000 1.15 347.277 05:35 15.09.2019
1903 Clear 10 1027 76 10000 2.1 120 03:19 15.09.2019
1904 Clear 9 1027 71 10000 1.5 130 02:18 15.09.2019
1905 Clear 10 1027 71 10000 2.1 100 01:36 15.09.2019
1906 Clear 10 1027 71 10000 2.1 100 01:36 15.09.2019
1907 Clear 13 1027 59 10000 1.5 80 00:56 15.09.2019
1908 Clear 11 1026 59 10000 3.1 280 00:36 15.09.2019
1909 Clear 11 1026 59 10000 3.1 280 00:18 15.09.2019
1910 Clear 12 1027 59 10000 3.6 280 23:55 14.09.2019
1911 Clear 12 1027 59 10000 4.6 280 23:37 14.09.2019
1912 Clear 12 1027 59 10000 4.6 280 23:18 14.09.2019
1913 Clear 12 1027 55 10000 4.6 280 22:55 14.09.2019
1914 Clear 12 1026 52 10000 4.6 270 22:37 14.09.2019
1915 Clear 13 1026 52 10000 4.6 270 22:18 14.09.2019
1916 Clear 13 1026 40 10000 3.1 270 21:40 14.09.2019
1917 Clear 15 1026 40 10000 3.1 270 21:20 14.09.2019
1918 Clear 15 1025 42 10000 1 0 20:58 14.09.2019
1919 Clear 14 1025 42 10000 2.1 40 20:38 14.09.2019
1920 Clear 14 1025 42 10000 2.1 40 20:20 14.09.2019
1921 Clear 13 1025 40 10000 2.1 40 19:46 14.09.2019
1922 Clear 13 1024 38 10000 3.1 60 19:22 14.09.2019
1923 Clear 14 1024 33 10000 3.6 50 18:57 14.09.2019
1924 Clear 15 1024 33 10000 4.1 50 18:38 14.09.2019
1925 Clear 21 1024 33 10000 4.1 50 18:19 14.09.2019
1926 Clear 22 1024 31 10000 3.6 60 17:44 14.09.2019
1927 Clear 22 1024 31 10000 4.1 70 17:24 14.09.2019
1928 Clear 23 1024 31 10000 4.1 50 16:51 14.09.2019
1929 Clear 22 1024 28 10000 2.6 30 16:29 14.09.2019
1930 Clear 23 1024 29 10000 2.1 70 15:59 14.09.2019
1931 Clear 22 1024 28 10000 1.5 0 15:40 14.09.2019
1932 Clear 24 1024 28 10000 1.5 0 15:22 14.09.2019
1933 Clear 24 1024 28 10000 1.5 0 15:22 14.09.2019
1934 Clear 24 1024 28 10000 1.5 0 15:22 14.09.2019
1935 Clear 22 1025 29 10000 2.6 360 14:45 14.09.2019
1936 Clear 22 1025 28 10000 3.1 270 14:19 14.09.2019
1937 Clear 22 1025 29 10000 3.1 0 13:56 14.09.2019
1938 Clear 24 1026 31 10000 3.6 250 13:37 14.09.2019
1939 Clear 23 1026 31 10000 3.6 250 13:19 14.09.2019
1940 Clear 23 1026 33 10000 2.6 180 12:43 14.09.2019
1941 Clear 21 1026 36 10000 1.5 0 12:20 14.09.2019
1942 Clear 23 1026 36 10000 2.1 0 11:41 14.09.2019
1943 Clear 21 1027 40 10000 2.6 290 11:20 14.09.2019
1944 Clear 23 1027 43 10000 2.1 300 10:40 14.09.2019
1945 Clear 20 1027 45 10000 1.5 0 10:21 14.09.2019
1946 Clear 18 1028 51 10000 2.1 300 09:58 14.09.2019
1947 Clear 17 1028 51 10000 2.1 300 09:39 14.09.2019
1948 Clear 16 1028 51 10000 1 0 09:19 14.09.2019
1949 Clear 14 1028 54 10000 1.5 130 08:47 14.09.2019
1950 Clear 13 1028 62 10000 1.5 110 08:25 14.09.2019
1951 Clear 11 1028 71 10000 2.1 90 07:48 14.09.2019
1952 Clear 11 1028 71 10000 2.1 90 07:48 14.09.2019
1953 Clear 10 1028 76 10000 1.5 90 07:29 14.09.2019
1954 Clear 10 1028 75 10000 1.5 100 06:52 14.09.2019
1955 Clear 9 1027 75 10000 2.1 90 06:31 14.09.2019
1956 Clear 8 1027 70 10000 2.1 120 05:27 14.09.2019
1957 Clear 7 1027 70 10000 2.6 100 03:46 14.09.2019
1958 Clear 8 1028 71 10000 2.1 100 02:55 14.09.2019
1959 Clear 8 1028 62 10000 1 0 01:55 14.09.2019
1960 Clear 9 1028 66 10000 2.1 120 01:23 14.09.2019
1961 Clear 8 1028 66 10000 2.1 170 00:59 14.09.2019
1962 Clear 9 1028 71 10000 1 0 00:39 14.09.2019
1963 Clear 9 1028 71 10000 1 0 00:39 14.09.2019
1964 Clear 10 1028 71 10000 1 0 00:21 14.09.2019
1965 Clear 10 1028 71 10000 1 0 00:21 14.09.2019
1966 Clear 11 1027 54 10000 1 0 23:38 13.09.2019
1967 Clear 11 1027 54 10000 1 0 23:19 13.09.2019
1968 Clear 11 1028 50 10000 1.84 345.007 22:59 13.09.2019
1969 Clear 11 1027 51 10000 1.84 345.007 22:38 13.09.2019
1970 Clear 12 1027 51 10000 1.84 345.007 22:20 13.09.2019
1971 Clear 12 1027 48 10000 1.84 345.007 21:54 13.09.2019
1972 Clear 12 1027 42 10000 1.5 350 21:36 13.09.2019
1973 Clear 15 1027 42 10000 1.5 350 21:18 13.09.2019
1974 Clear 15 1027 39 10000 2.1 350 20:41 13.09.2019
1975 Clear 14 1027 37 10000 1.5 360 20:21 13.09.2019
1976 Clear 11 1027 34 10000 1.5 20 19:58 13.09.2019
1977 Clear 11 1027 34 10000 1.5 20 19:40 13.09.2019
1978 Clear 12 1026 30 10000 2.1 40 19:19 13.09.2019
1979 -273 0 0 0 0 0 18:56 13.09.2019
1980 Clear 13 1026 27 10000 4.1 40 18:37 13.09.2019
1981 Clear 20 1026 27 10000 4.1 40 18:18 13.09.2019
1982 Clear 20 1026 23 10000 4.1 20 17:39 13.09.2019
1983 Clear 21 1026 23 10000 4.1 20 17:19 13.09.2019
1984 Clear 21 1026 23 10000 6.2 60 16:42 13.09.2019
1985 Clear 22 1026 23 10000 6.7 50 16:21 13.09.2019
1986 Clear 22 1026 22 10000 5.1 50 15:57 13.09.2019
1987 Clear 21 1026 22 10000 5.7 40 15:39 13.09.2019
1988 Clear 22 1026 22 10000 5.7 40 15:20 13.09.2019
1989 Clear 22 1026 22 10000 5.7 40 15:20 13.09.2019
1990 Clear 20 1026 25 10000 4.6 30 14:43 13.09.2019
1991 Clear 20 1026 23 10000 4.6 50 14:22 13.09.2019
1992 Clear 20 1027 23 10000 4.1 40 13:54 13.09.2019
1993 Clear 20 1027 25 10000 5.1 70 13:36 13.09.2019
1994 Clear 22 1027 25 10000 5.1 70 13:18 13.09.2019
1995 Clear 20 1027 25 10000 5.1 70 13:18 13.09.2019
1996 Clear 22 1028 23 10000 5.7 40 12:41 13.09.2019
1997 Clear 20 1028 23 10000 5.7 40 12:22 13.09.2019
1998 Clear 21 1027 23 10000 5.7 40 11:55 13.09.2019
1999 Clear 21 1027 23 10000 5.7 40 11:55 13.09.2019
2000 Clear 21 1028 27 10000 6.2 80 11:19 13.09.2019
2001 Clear 20 1028 35 10000 3.1 40 10:39 13.09.2019
2002 Clear 20 1028 35 10000 3.1 40 10:19 13.09.2019
2003 Clear 19 1028 37 10000 2.1 10 09:46 13.09.2019
2004 Clear 16 1028 45 10000 2.1 290 09:25 13.09.2019
2005 Clear 17 1028 51 10000 3.1 300 08:59 13.09.2019
2006 Clear 16 1028 51 10000 3.1 300 08:40 13.09.2019
2007 Clear 15 1028 55 10000 1 0 08:20 13.09.2019
2008 Clear 13 1028 66 10000 1.5 320 07:46 13.09.2019
2009 Clear 13 1027 66 10000 2.1 330 07:27 13.09.2019
2010 Clear 12 1027 66 10000 1 0 06:47 13.09.2019
2011 Clear 13 1027 66 10000 2.08 6.057 05:49 13.09.2019
2012 Clear 14 1026 62 10000 1 0 04:53 13.09.2019
2013 Clear 11 1026 58 10000 2.1 300 03:39 13.09.2019
2014 Clear 12 1026 55 10000 2.1 330 02:20 13.09.2019
2015 Clouds 12 1026 55 10000 2.6 330 01:42 13.09.2019
2016 Clear 12 1026 55 10000 2.6 310 01:22 13.09.2019
2017 Clear 11 1026 48 10000 1.5 0 00:38 13.09.2019
2018 Clear 13 1026 48 10000 2.1 340 23:58 12.09.2019
2019 Clear 14 1026 45 10000 2.6 240 23:36 12.09.2019
2020 Clear 14 1026 48 10000 2.1 250 22:59 12.09.2019
2021 Clear 12 1026 48 10000 2.1 250 22:41 12.09.2019
2022 Clear 12 1026 45 10000 2.1 230 22:23 12.09.2019
2023 Clear 10 1026 42 10000 1.5 250 21:57 12.09.2019
2024 Clear 11 1026 42 10000 2.6 240 21:37 12.09.2019
2025 Clear 15 1026 42 10000 2.6 240 21:19 12.09.2019
2026 Clear 16 1026 42 10000 1 0 20:55 12.09.2019
2027 Clear 15 1026 42 10000 1 0 20:55 12.09.2019
2028 Clear 15 1026 42 10000 1 0 20:55 12.09.2019
2029 Clear 16 1026 40 10000 1.5 330 20:36 12.09.2019
2030 Clear 14 1026 40 10000 1.5 330 20:18 12.09.2019
2031 Clear 11 1025 40 10000 3.6 20 19:41 12.09.2019
2032 Clear 11 1026 40 10000 2.1 360 19:41 12.09.2019
2033 Clear 11 1025 40 10000 3.6 20 19:20 12.09.2019
2034 Clouds 12 1025 35 10000 4.6 40 18:58 12.09.2019
2035 Clouds 12 1025 33 10000 3.6 40 18:36 12.09.2019
2036 Clouds 19 1025 33 10000 3.6 40 18:18 12.09.2019
2037 Clouds 19 1025 35 10000 5.1 30 17:41 12.09.2019
2038 Clouds 20 1025 35 10000 5.1 30 17:21 12.09.2019
2039 Clouds 20 1025 33 10000 5.1 30 16:58 12.09.2019
2040 Clouds 20 1025 33 10000 5.1 30 16:40 12.09.2019
2041 Clouds 20 1025 33 10000 4.6 30 16:20 12.09.2019
2042 Clouds 21 1025 29 10000 4.6 20 15:42 12.09.2019
2043 Clouds 21 1025 31 10000 5.7 30 15:23 12.09.2019
2044 Clouds 21 1025 31 10000 5.7 30 15:23 12.09.2019
2045 Clouds 21 1025 29 10000 4.1 20 14:47 12.09.2019
2046 Clouds 21 1025 29 10000 5.7 30 14:23 12.09.2019
2047 Clouds 20 1025 31 10000 4.1 20 13:59 12.09.2019
2048 Clouds 21 1025 33 10000 4.6 50 13:39 12.09.2019
2049 Clouds 21 1025 33 10000 4.6 50 13:20 12.09.2019
2050 Clouds 19 1026 35 10000 4.1 20 12:48 12.09.2019
2051 Clouds 20 1026 38 10000 4.6 350 12:19 12.09.2019
2052 Clouds 21 1026 38 10000 3.6 30 11:57 12.09.2019
2053 Clouds 20 1026 40 10000 4.6 360 11:39 12.09.2019
2054 Clouds 19 1026 40 10000 4.6 360 11:21 12.09.2019
2055 Clouds 23 1025 40 10000 3.6 20 10:48 12.09.2019
2056 Clear 20 1025 43 10000 4.1 20 10:26 12.09.2019
2057 Clear 19 1025 43 10000 2.6 30 09:56 12.09.2019
2058 Clear 19 1025 43 10000 2.6 30 09:36 12.09.2019
2059 Clear 19 1025 43 10000 2.6 30 09:18 12.09.2019
2060 Clear 17 1025 59 10000 2.1 250 08:41 12.09.2019
2061 Clouds 16 1025 63 10000 1.19 2.071 08:22 12.09.2019
2062 Clouds 14 1025 72 10000 0.5 0 07:45 12.09.2019
2063 Clouds 13 1024 77 10000 1 0 07:20 12.09.2019
2064 Clouds 12 1024 76 10000 1.5 360 06:51 12.09.2019
2065 Clear 12 1024 76 10000 2.1 350 06:29 12.09.2019
2066 Clear 10 1024 76 10000 1.5 200 05:51 12.09.2019
2067 Clear 10 1024 72 10000 1 0 05:33 12.09.2019
2068 Clouds 10 1024 76 10000 0.5 0 04:41 12.09.2019
2069 Clouds 11 1023 72 10000 2.6 100 02:43 12.09.2019
2070 Clouds 12 1024 72 10000 1.38 27.029 01:37 12.09.2019
2071 Clouds 11 1024 72 10000 1.38 27.029 01:18 12.09.2019
2072 Clear 12 1024 63 10000 1.38 27.029 00:42 12.09.2019
2073 Clear 12 1024 63 10000 1.59 30.129 00:24 12.09.2019
2074 Clear 12 1023 59 10000 1 230 23:42 11.09.2019
2075 Clear 12 1023 63 10000 0.5 0 23:22 11.09.2019
2076 Clear 13 1023 59 10000 1.5 190 22:57 11.09.2019
2077 Clear 13 1023 55 10000 1.5 230 22:37 11.09.2019
2078 Clear 12 1023 55 10000 1.5 230 22:19 11.09.2019
2079 Clear 11 1023 59 10000 1 0 21:43 11.09.2019
2080 Clear 13 1023 55 10000 1.5 120 21:25 11.09.2019
2081 Clear 14 1023 49 10000 2.1 140 20:58 11.09.2019
2082 Clear 14 1023 49 10000 2.1 140 20:40 11.09.2019
2083 Clear 14 1023 46 10000 2.6 130 20:19 11.09.2019
2084 Clear 13 1022 49 10000 3.6 60 19:58 11.09.2019
2085 Clear 13 1022 49 10000 3.6 60 19:39 11.09.2019
2086 Clouds 13 1022 43 10000 4.1 50 19:21 11.09.2019
2087 Clouds 13 1021 40 10000 5.1 50 18:58 11.09.2019
2088 Clouds 13 1021 38 10000 5.1 40 18:39 11.09.2019
2089 Clouds 20 1021 38 10000 5.1 40 18:19 11.09.2019
2090 Clouds 20 1021 38 10000 4.6 30 17:56 11.09.2019
2091 Clouds 20 1021 38 10000 5.1 30 17:38 11.09.2019
2092 Clouds 21 1021 38 10000 5.1 30 17:19 11.09.2019
2093 Clear 22 1021 34 10000 6.2 40 16:48 11.09.2019
2094 Clear 21 1021 36 10000 4.6 20 16:25 11.09.2019
2095 Clear 22 1021 36 10000 4.1 20 15:54 11.09.2019
2096 Clear 22 1021 31 10000 5.7 40 15:36 11.09.2019
2097 Clear 22 1021 31 10000 5.7 40 15:18 11.09.2019
2098 Clear 22 1021 27 10000 3.1 20 14:42 11.09.2019
2099 Clear 22 1021 27 10000 3.1 20 14:21 11.09.2019
2100 Clear 22 1021 29 10000 3.6 50 13:59 11.09.2019
2101 Clear 21 1021 31 10000 3.6 20 13:37 11.09.2019
2102 Clear 24 1021 31 10000 3.6 20 13:19 11.09.2019
2103 Clear 25 1021 31 10000 4.6 30 12:55 11.09.2019
2104 Clear 25 1022 33 10000 5.1 20 12:37 11.09.2019
2105 Clear 20 1022 33 10000 5.1 20 12:19 11.09.2019
2106 Clear 21 1022 40 10000 3.6 10 11:39 11.09.2019
2107 Clear 24 1022 40 10000 3.6 10 11:21 11.09.2019
2108 Clear 23 1022 43 10000 3.6 20 10:55 11.09.2019
2109 Clear 22 1022 49 10000 1.5 0 10:37 11.09.2019
2110 Clear 22 1022 49 10000 1.5 0 10:19 11.09.2019
2111 Clouds 20 1022 55 10000 2.1 280 09:38 11.09.2019
2112 Clouds 15 1022 55 10000 2.1 280 09:19 11.09.2019
2113 Clouds 16 1022 63 10000 2.1 310 08:42 11.09.2019
2114 Clouds 15 1022 67 10000 2.1 270 08:22 11.09.2019
2115 Clouds 14 1022 72 10000 2.1 240 07:59 11.09.2019
2116 Clear 13 1021 76 10000 1 0 07:39 11.09.2019
2117 Clear 12 1021 76 10000 1 0 07:20 11.09.2019
2118 Clear 11 1021 87 10000 2.6 350 06:44 11.09.2019
2119 Clear 11 1021 87 10000 2.1 360 06:21 11.09.2019
2120 Clear 10 1021 82 10000 2.1 140 05:35 11.09.2019
2121 Clear 9 1021 82 10000 3.1 150 04:53 11.09.2019
2122 Clear 10 1020 82 10000 2.1 150 04:21 11.09.2019
2123 Clear 11 1021 72 10000 2.1 130 03:27 11.09.2019
2124 Clear 11 1020 71 10000 3.1 140 02:32 11.09.2019
2125 Clear 11 1020 72 10000 2.6 110 01:33 11.09.2019
2126 Clear 11 1020 63 10000 1 150 00:37 11.09.2019
2127 Clear 11 1020 63 10000 1 150 00:19 11.09.2019
2128 Clear 12 1020 59 10000 1.5 260 23:40 10.09.2019
2129 Clear 13 1020 59 10000 1.5 260 23:22 10.09.2019
2130 Clear 13 1019 59 10000 1.88 37.658 22:55 10.09.2019
2131 Clear 13 1019 55 10000 1.5 130 22:37 10.09.2019
2132 Clear 13 1019 55 10000 1.5 130 22:18 10.09.2019
2133 Clouds 13 1019 55 10000 1 0 21:54 10.09.2019
2134 Clouds 14 1019 52 10000 3.1 110 21:36 10.09.2019
2135 Clouds 16 1019 52 10000 3.1 110 21:18 10.09.2019
2136 Clouds 16 1019 52 10000 3.1 110 21:18 10.09.2019
2137 Clouds 16 1019 52 10000 3.1 110 21:18 10.09.2019
2138 Clear 18 1019 49 10000 3.6 130 20:54 10.09.2019
2139 Clear 18 1019 49 10000 3.6 130 20:54 10.09.2019
2140 Clear 17 1018 46 10000 3.6 150 20:36 10.09.2019
2141 Clear 17 1018 46 10000 3.6 150 20:18 10.09.2019
2142 Clear 17 1017 46 10000 3.6 80 19:55 10.09.2019
2143 Clear 17 1017 46 10000 3.6 80 19:55 10.09.2019
2144 Clear 17 1017 46 10000 4.1 60 19:36 10.09.2019
2145 Clear 16 1017 46 10000 4.1 60 19:18 10.09.2019
2146 Clear 16 1017 46 10000 4.1 60 19:18 10.09.2019
2147 Clear 16 1017 41 10000 4.1 50 18:42 10.09.2019
2148 Clear 21 1017 38 10000 5.7 50 18:22 10.09.2019
2149 Clear 22 1017 36 10000 5.1 40 17:56 10.09.2019
2150 Clear 22 1017 34 10000 5.7 50 17:38 10.09.2019
2151 Clear 23 1017 34 10000 5.7 50 17:19 10.09.2019
2152 Clear 23 1017 34 10000 5.7 60 16:56 10.09.2019
2153 Clear 23 1016 34 10000 5.7 40 16:37 10.09.2019
2154 Clear 23 1016 34 10000 5.7 40 16:37 10.09.2019
2155 Clear 23 1016 34 10000 5.7 40 16:19 10.09.2019
2156 Clear 22 1017 34 10000 5.1 40 15:43 10.09.2019
2157 Clouds 22 1017 34 10000 4.6 40 15:22 10.09.2019
2158 Clouds 22 1017 36 10000 4.1 110 14:55 10.09.2019
2159 Clouds 23 1017 39 10000 4.6 50 14:37 10.09.2019
2160 Clouds 23 1017 39 10000 4.6 50 14:19 10.09.2019
2161 Clouds 23 1017 39 10000 4.6 50 14:19 10.09.2019
2162 Clouds 26 1017 36 10000 2.6 80 13:44 10.09.2019
2163 Clouds 24 1017 36 10000 3.6 0 13:22 10.09.2019
2164 Clear 26 1018 39 10000 3.1 100 12:51 10.09.2019
2165 Clear 23 1018 41 10000 2.6 110 12:28 10.09.2019
2166 Clear 23 1018 44 10000 2.1 0 11:58 10.09.2019
2167 Clear 22 1018 44 10000 1 0 11:40 10.09.2019
2168 Clear 22 1018 44 10000 1 0 11:21 10.09.2019
2169 Clear 23 1018 49 10000 1.5 280 10:42 10.09.2019
2170 Clear 20 1018 49 10000 1.5 280 10:21 10.09.2019
2171 Clear 20 1019 55 10000 1 0 09:58 10.09.2019
2172 Clear 20 1019 59 10000 1.5 270 09:40 10.09.2019
2173 Clear 17 1019 59 10000 1.5 270 09:19 10.09.2019
2174 Clear 17 1019 59 10000 1.5 270 09:19 10.09.2019
2175 Clouds 16 1018 55 10000 1 0 08:47 10.09.2019
2176 Clouds 16 1018 59 10000 2.6 80 08:28 10.09.2019
2177 Clear 15 1018 63 10000 1.5 100 07:55 10.09.2019
2178 Clear 15 1018 63 10000 1.5 100 07:55 10.09.2019
2179 -273 0 0 0 0 0 07:55 10.09.2019
2180 Clear 15 1018 63 10000 1.5 100 07:55 10.09.2019
2181 Clear 14 1018 67 10000 2.1 110 07:37 10.09.2019
2182 Clear 13 1018 67 10000 2.1 110 07:18 10.09.2019
2183 Clouds 13 1018 71 10000 2.1 140 06:39 10.09.2019
2184 Clouds 12 1018 71 10000 2.1 140 06:18 10.09.2019
2185 Clouds 12 1017 63 10000 2.1 120 03:58 10.09.2019
2186 Clear 12 1017 59 10000 3.6 110 02:38 10.09.2019
2187 Clear 12 1017 59 10000 3.6 110 02:38 10.09.2019
2188 Clear 12 1017 59 10000 3.6 110 02:38 10.09.2019
2189 Clear 12 1017 59 10000 3.6 110 02:19 10.09.2019
2190 Clear 13 1017 59 10000 4.1 120 01:45 10.09.2019
2191 Clear 13 1017 59 10000 3.6 120 01:21 10.09.2019
2192 Clear 13 1017 59 10000 3.6 130 00:29 10.09.2019
2193 Clear 13 1017 59 10000 2.6 120 23:48 09.09.2019
2194 Clear 14 1016 55 10000 3.6 120 23:20 09.09.2019
2195 Clear 14 1016 55 10000 3.6 120 23:20 09.09.2019
2196 Clear 13 1016 59 10000 3.6 130 22:57 09.09.2019
2197 Clouds 14 1016 52 10000 3.6 140 22:39 09.09.2019
2198 Clouds 14 1016 52 10000 3.6 140 22:21 09.09.2019
2199 Clouds 15 1016 49 10000 4.6 100 21:58 09.09.2019
2200 Clouds 15 1016 46 10000 4.6 100 21:40 09.09.2019
2201 Clouds 17 1016 46 10000 4.6 100 21:20 09.09.2019
2202 Clouds 18 1016 46 10000 4.6 100 20:57 09.09.2019
2203 Clouds 18 1016 46 10000 5.1 90 20:37 09.09.2019
2204 Clouds 18 1016 46 10000 5.1 90 20:19 09.09.2019
2205 Clouds 16 1015 43 10000 3.6 110 19:58 09.09.2019
2206 Clouds 15 1015 41 10000 4.1 120 19:39 09.09.2019
2207 Clouds 16 1015 41 10000 4.1 120 19:19 09.09.2019
2208 Clouds 16 1015 41 10000 4.1 120 18:58 09.09.2019
2209 Clouds 15 1015 38 10000 4.6 130 18:40 09.09.2019
2210 Clouds 21 1015 38 10000 4.6 130 18:21 09.09.2019
2211 Clouds 21 1015 38 10000 4.1 140 17:58 09.09.2019
2212 Clouds 21 1015 38 10000 4.6 120 17:40 09.09.2019
2213 Clouds 21 1015 38 10000 4.6 120 17:21 09.09.2019
2214 Clouds 22 1015 36 10000 4.6 100 16:56 09.09.2019
2215 Clouds 22 1015 36 10000 3.1 80 16:38 09.09.2019
2216 Clouds 22 1015 36 10000 3.1 80 16:19 09.09.2019
2217 Clouds 22 1015 39 10000 4.1 110 15:55 09.09.2019
2218 Clouds 22 1015 39 10000 4.1 110 15:55 09.09.2019
2219 -273 0 0 0 0 0 15:55 09.09.2019
2220 Clear 22 1015 39 10000 4.1 110 15:36 09.09.2019
2221 Clouds 22 1015 39 10000 5.1 110 15:18 09.09.2019
2222 Clouds 22 1016 39 10000 5.1 110 14:40 09.09.2019
2223 Clouds 22 1016 39 10000 5.1 110 14:40 09.09.2019
2224 Clouds 23 1016 39 10000 5.1 110 14:22 09.09.2019
2225 Clear 22 1016 41 10000 5.7 90 13:59 09.09.2019
2226 Clear 22 1016 41 10000 5.1 100 13:41 09.09.2019
2227 Clear 22 1016 41 10000 5.1 100 13:19 09.09.2019
2228 Clear 22 1017 44 10000 5.1 90 12:57 09.09.2019
2229 Clear 22 1017 47 10000 5.1 100 12:37 09.09.2019
2230 Clear 21 1017 47 10000 5.1 100 12:18 09.09.2019
2231 Clear 21 1018 53 10000 5.1 110 11:43 09.09.2019
2232 Clear 20 1018 53 10000 5.1 110 11:20 09.09.2019
2233 Clear 22 1018 53 10000 5.7 100 10:57 09.09.2019
2234 Clear 21 1018 56 10000 6.2 100 10:38 09.09.2019
2235 Clear 21 1018 56 10000 6.2 100 10:19 09.09.2019
2236 Clear 20 1018 60 10000 6.7 110 09:48 09.09.2019
2237 Clear 18 1018 64 10000 6.7 100 09:28 09.09.2019
2238 Clear 16 1018 68 10000 6.7 110 08:56 09.09.2019
2239 Clear 16 1019 68 10000 7.2 100 08:38 09.09.2019
2240 Clear 15 1019 72 10000 6.2 100 08:19 09.09.2019
2241 Clear 16 1019 72 10000 6.7 100 07:41 09.09.2019
2242 Clear 14 1019 72 10000 6.7 100 07:20 09.09.2019
2243 Clouds 13 1019 77 8000 6.2 100 06:53 09.09.2019
2244 Clear 13 1019 77 10000 6.7 90 06:27 09.09.2019
2245 Clear 13 1019 68 10000 7.7 110 03:21 09.09.2019
2246 Clouds 14 1019 68 10000 6.7 120 02:42 09.09.2019
2247 Clouds 14 1020 68 10000 6.7 120 01:25 09.09.2019
2248 Clear 14 1020 68 10000 6.2 130 00:24 09.09.2019
2249 Clear 14 1020 60 10000 7.2 130 23:56 08.09.2019
2250 Clear 14 1019 55 10000 4.1 110 23:38 08.09.2019
2251 Clear 14 1019 55 10000 4.1 110 23:19 08.09.2019
2252 Clear 15 1019 45 10000 5.7 110 22:41 08.09.2019
2253 Clear 15 1019 45 10000 5.7 110 22:22 08.09.2019
2254 Clear 13 1019 45 10000 3.1 130 21:58 08.09.2019
2255 Clouds 14 1019 43 10000 3.6 110 21:40 08.09.2019
2256 Clouds 13 1019 43 10000 3.6 110 21:22 08.09.2019
2257 Clouds 17 1019 43 10000 3.6 110 20:54 08.09.2019
2258 Clouds 16 1019 49 10000 3.6 90 20:36 08.09.2019
2259 Clouds 17 1018 40 10000 3.1 140 20:18 08.09.2019
2260 Clouds 17 1018 40 10000 3.1 140 20:18 08.09.2019
2261 Clouds 16 1019 49 10000 3.6 90 20:18 08.09.2019
2262 Clouds 17 1018 40 10000 4.1 130 19:39 08.09.2019
2263 Clouds 18 1018 40 10000 4.1 130 19:21 08.09.2019
2264 Clouds 17 1018 38 10000 4.6 130 18:58 08.09.2019
2265 Clouds 18 1018 36 10000 5.7 140 18:39 08.09.2019
2266 Clouds 21 1018 36 10000 5.7 140 18:19 08.09.2019
2267 Clouds 22 1018 34 10000 5.7 140 17:58 08.09.2019
2268 Clouds 22 1018 32 10000 6.7 140 17:37 08.09.2019
2269 Clouds 22 1018 32 10000 6.7 140 17:18 08.09.2019
2270 Clouds 23 1017 32 10000 5.7 140 16:55 08.09.2019
2271 Clouds 23 1017 34 10000 5.7 120 16:37 08.09.2019
2272 Clouds 23 1017 34 10000 5.7 120 16:18 08.09.2019
2273 Clouds 21 1017 32 10000 4.6 100 15:41 08.09.2019
2274 Clouds 24 1017 32 10000 4.6 100 15:22 08.09.2019
2275 Clouds 24 1017 30 10000 3.6 130 14:59 08.09.2019
2276 Clouds 24 1017 32 10000 5.1 130 14:39 08.09.2019
2277 Clouds 24 1017 32 10000 5.1 130 14:20 08.09.2019
2278 Clouds 27 1018 34 10000 5.1 120 13:57 08.09.2019
2279 Clouds 24 1018 34 10000 4.1 80 13:38 08.09.2019
2280 Clouds 23 1018 34 10000 4.1 80 13:20 08.09.2019
2281 Clouds 23 1018 34 10000 4.1 90 12:44 08.09.2019
2282 Clouds 23 1018 34 10000 4.1 90 12:24 08.09.2019
2283 Clear 23 1018 36 10000 3.6 100 11:59 08.09.2019
2284 Clear 23 1019 41 10000 2.1 90 11:41 08.09.2019
2285 Clear 23 1019 41 10000 2.1 90 11:20 08.09.2019
2286 Clear 25 1019 41 10000 1.5 0 10:59 08.09.2019
2287 Clear 24 1019 43 10000 2.1 120 10:40 08.09.2019
2288 Clear 24 1019 43 10000 2.1 120 10:22 08.09.2019
2289 Clear 21 1019 49 10000 2.1 100 09:40 08.09.2019
2290 Clear 19 1019 49 10000 2.1 100 09:21 08.09.2019
2291 Clear 18 1019 56 10000 2.6 110 08:57 08.09.2019
2292 Clear 17 1019 59 10000 2.1 140 08:39 08.09.2019
2293 Clear 17 1019 59 10000 2.1 140 08:39 08.09.2019
2294 Clear 16 1019 59 10000 2.1 140 08:18 08.09.2019
2295 Clear 15 1019 63 10000 2.6 90 07:40 08.09.2019
2296 Clear 14 1019 63 10000 2.6 90 07:21 08.09.2019
2297 Clear 14 1019 67 10000 2.1 90 06:53 08.09.2019
2298 Clouds 14 1019 67 10000 2.1 140 06:33 08.09.2019
2299 Clear 12 1019 67 10000 2.1 100 05:39 08.09.2019
2300 Clear 13 1019 59 10000 2.1 170 04:27 08.09.2019
2301 Clear 12 1019 52 10000 4.1 140 03:19 08.09.2019
2302 Clear 13 1019 52 10000 5.7 120 02:29 08.09.2019
2303 Clear 14 1019 52 10000 5.7 120 01:52 08.09.2019
2304 Clear 13 1019 55 10000 3.6 120 01:23 08.09.2019
2305 Clear 12 1019 52 10000 3.1 110 00:46 08.09.2019
2306 Clear 12 1018 52 10000 3.6 120 00:27 08.09.2019
2307 Clear 14 1018 52 10000 4.1 130 23:39 07.09.2019
2308 Clear 14 1018 52 10000 4.1 130 23:21 07.09.2019
2309 Clear 14 1018 49 10000 2.6 140 22:59 07.09.2019
2310 Clear 14 1018 43 10000 2.1 120 22:40 07.09.2019
2311 Clear 14 1018 43 10000 2.1 120 22:22 07.09.2019
2312 Clear 15 1018 43 10000 2.6 140 21:45 07.09.2019
2313 Clear 17 1018 45 10000 3.1 110 21:26 07.09.2019
2314 Clear 15 1018 46 10000 2.6 130 20:59 07.09.2019
2315 Clouds 18 1017 43 10000 3.6 90 20:39 07.09.2019
2316 Clouds 18 1017 43 10000 3.6 90 20:20 07.09.2019
2317 Clouds 16 1017 40 10000 3.1 100 19:55 07.09.2019
2318 Clouds 16 1017 38 10000 4.1 140 19:37 07.09.2019
2319 Clouds 19 1017 38 10000 4.1 140 19:19 07.09.2019
2320 Clouds 16 1017 36 10000 3.1 160 18:56 07.09.2019
2321 Clouds 15 1017 36 10000 3.6 150 18:36 07.09.2019
2322 Clouds 21 1017 36 10000 3.6 150 18:18 07.09.2019
2323 Clouds 21 1017 36 10000 3.6 150 18:18 07.09.2019
2324 Clouds 22 1017 34 10000 4.1 150 17:56 07.09.2019
2325 Clouds 22 1017 34 10000 4.1 150 17:56 07.09.2019
2326 Clouds 22 1017 34 10000 3.6 130 17:37 07.09.2019
2327 Clouds 22 1017 34 10000 3.6 130 17:18 07.09.2019
2328 Clouds 22 1017 34 10000 2.1 70 16:43 07.09.2019
2329 Clouds 22 1017 34 10000 2.1 70 16:43 07.09.2019
2330 Clouds 23 1017 34 10000 2.1 70 16:21 07.09.2019
2331 Clouds 23 1017 32 10000 3.6 140 15:50 07.09.2019
2332 Clouds 22 1017 34 10000 2.6 140 15:27 07.09.2019
2333 Clouds 23 1017 34 10000 2.6 0 14:59 07.09.2019
2334 Clouds 21 1017 34 10000 2.1 130 14:38 07.09.2019
2335 Clouds 22 1017 34 10000 2.1 130 14:20 07.09.2019
2336 Clouds 23 1018 34 10000 3.6 130 13:59 07.09.2019
2337 Clouds 22 1018 36 10000 4.1 120 13:41 07.09.2019
2338 Clouds 22 1018 36 10000 4.1 120 13:23 07.09.2019
2339 Clouds 22 1018 33 10000 3.1 70 12:45 07.09.2019
2340 Clouds 22 1018 33 10000 3.1 70 12:26 07.09.2019
2341 Clouds 22 1019 38 10000 4.6 110 11:58 07.09.2019
2342 Clear 21 1019 41 10000 5.1 110 11:39 07.09.2019
2343 Clear 22 1019 41 10000 5.1 110 11:19 07.09.2019
2344 Clouds 21 1019 46 10000 4.6 90 10:41 07.09.2019
2345 Clouds 20 1019 46 10000 4.6 90 10:22 07.09.2019
2346 Clear 19 1019 49 10000 5.7 90 09:56 07.09.2019
2347 Clear 20 1019 49 10000 6.2 100 09:38 07.09.2019
2348 Clear 18 1019 49 10000 6.2 100 09:20 07.09.2019
2349 Clear 18 1019 49 10000 6.2 100 09:20 07.09.2019
2350 Clear 18 1019 49 10000 6.7 100 08:44 07.09.2019
2351 Clouds 17 1019 55 10000 5.1 100 08:26 07.09.2019
2352 Clouds 16 1019 59 10000 4.6 100 07:47 07.09.2019
2353 Clouds 15 1019 59 10000 4.6 120 07:28 07.09.2019
2354 Clouds 16 1019 63 10000 4.1 120 06:52 07.09.2019
2355 Clouds 13 1019 63 10000 4.6 90 06:20 07.09.2019
2356 Clear 13 1019 52 10000 3.1 130 04:49 07.09.2019
2357 Clouds 13 1019 55 10000 3.6 140 04:23 07.09.2019
2358 Clear 12 1018 63 10000 4.6 120 02:49 07.09.2019
2359 Clouds 13 1018 68 10000 3.6 120 01:53 07.09.2019
2360 Clouds 13 1018 68 10000 3.6 120 01:53 07.09.2019
2361 Clear 13 1018 64 10000 2.6 130 01:23 07.09.2019
2362 Clouds 13 1018 60 10000 3.6 90 00:40 07.09.2019
2363 Clouds 13 1018 60 10000 3.6 90 00:19 07.09.2019
2364 Clouds 14 1018 60 10000 3.1 120 23:40 06.09.2019
2365 Clouds 14 1018 60 10000 3.1 120 23:22 06.09.2019
2366 Clouds 14 1018 56 10000 4.6 110 22:58 06.09.2019
2367 Clouds 16 1018 53 10000 3.1 110 22:38 06.09.2019
2368 Clouds 16 1018 53 10000 3.1 110 22:19 06.09.2019
2369 Clouds 16 1018 53 10000 3.1 110 22:19 06.09.2019
2370 Clouds 16 1018 56 10000 3.1 130 21:57 06.09.2019
2371 Clouds 16 1018 56 10000 3.6 130 21:39 06.09.2019
2372 Clouds 16 1018 56 10000 3.6 130 21:20 06.09.2019
2373 Clouds 18 1018 56 10000 2.6 130 20:57 06.09.2019
2374 Clouds 19 1018 53 10000 2.6 140 20:38 06.09.2019
2375 Clouds 19 1018 53 10000 2.6 140 20:19 06.09.2019
2376 Clear 14 1017 49 10000 3.1 70 19:55 06.09.2019
2377 Clear 14 1017 47 10000 4.6 60 19:37 06.09.2019
2378 Clear 15 1017 44 10000 4.1 50 19:18 06.09.2019
2379 Clouds 15 1016 41 10000 5.7 50 18:41 06.09.2019
2380 Clouds 21 1016 41 10000 5.7 50 18:23 06.09.2019
2381 Clouds 22 1016 41 10000 5.7 50 17:57 06.09.2019
2382 Clouds 22 1016 39 10000 5.1 40 17:37 06.09.2019
2383 Clouds 23 1016 39 10000 5.1 40 17:19 06.09.2019
2384 Clouds 23 1016 37 10000 4.1 60 16:39 06.09.2019
2385 Clouds 22 1016 37 10000 4.1 60 16:18 06.09.2019
2386 Clouds 22 1016 42 10000 3.1 110 15:42 06.09.2019
2387 Clouds 22 1016 42 10000 3.1 110 15:23 06.09.2019
2388 Clouds 22 1017 44 10000 4.6 80 14:48 06.09.2019
2389 Clouds 23 1017 44 10000 4.6 80 14:20 06.09.2019
2390 Clouds 23 1017 44 10000 2.6 160 13:59 06.09.2019
2391 Clouds 22 1017 47 10000 2.1 80 13:41 06.09.2019
2392 Clouds 23 1017 47 10000 2.1 80 13:19 06.09.2019
2393 Clouds 22 1018 50 10000 3.6 50 12:38 06.09.2019
2394 Clouds 25 1018 50 10000 3.6 50 12:18 06.09.2019
2395 Clouds 24 1018 56 10000 2.6 90 11:43 06.09.2019
2396 Clouds 24 1018 56 10000 2.6 90 11:24 06.09.2019
2397 Clouds 23 1018 56 10000 3.1 110 10:59 06.09.2019
2398 Clouds 23 1018 64 10000 3.1 100 10:40 06.09.2019
2399 Clouds 22 1018 64 10000 3.1 100 10:21 06.09.2019
2400 Clouds 19 1018 68 10000 3.1 110 09:40 06.09.2019
2401 Clouds 18 1018 68 10000 3.1 110 09:21 06.09.2019
2402 Clouds 18 1018 68 10000 3.1 110 08:58 06.09.2019
2403 Clouds 18 1018 72 10000 3.6 110 08:39 06.09.2019
2404 Clouds 18 1018 72 10000 3.6 110 08:21 06.09.2019
2405 Clouds 17 1018 77 10000 2.6 130 07:45 06.09.2019
2406 Clouds 16 1018 82 10000 3.6 90 07:27 06.09.2019
2407 Clouds 16 1017 82 10000 3.1 90 06:56 06.09.2019
2408 Clouds 14 1017 82 10000 3.6 120 06:19 06.09.2019
2409 Clouds 13 1017 82 10000 4.1 90 05:41 06.09.2019
2410 Clear 14 1017 82 10000 3.1 110 04:45 06.09.2019
2411 Clear 14 1016 82 10000 4.6 110 03:49 06.09.2019
2412 Clear 14 1016 77 10000 6.2 100 01:54 06.09.2019
2413 Clear 13 1015 72 10000 5.7 90 00:41 06.09.2019
2414 Clear 14 1015 68 10000 4.1 110 23:45 05.09.2019
2415 Clear 14 1015 68 10000 4.1 110 23:45 05.09.2019
2416 Clear 14 1015 68 10000 4.1 110 23:25 05.09.2019
2417 Clear 14 1015 68 10000 4.1 110 23:25 05.09.2019
2418 Clear 14 1015 64 10000 3.6 130 22:56 05.09.2019
2419 Clear 14 1015 64 10000 3.1 0 22:37 05.09.2019
2420 Clear 14 1015 64 10000 3.1 0 22:37 05.09.2019
2421 Clear 16 1015 64 10000 3.1 0 22:19 05.09.2019
2422 Clear 16 1015 60 10000 2.6 130 21:56 05.09.2019
2423 Clear 16 1015 60 10000 2.6 130 21:37 05.09.2019
2424 Clear 19 1015 60 10000 2.6 130 21:19 05.09.2019
2425 Clear 19 1015 56 10000 2.6 130 20:55 05.09.2019
2426 Clear 19 1015 53 10000 3.1 120 20:37 05.09.2019
2427 Clear 17 1015 53 10000 3.1 120 20:18 05.09.2019
2428 Clouds 17 1014 53 10000 4.1 60 19:42 05.09.2019
2429 Clouds 18 1014 53 10000 4.1 60 19:23 05.09.2019
2430 Clouds 17 1014 50 10000 4.6 60 18:57 05.09.2019
2431 Clouds 18 1013 44 10000 4.1 40 18:39 05.09.2019
2432 Clouds 22 1013 44 10000 4.1 40 18:19 05.09.2019
2433 Clouds 23 1013 39 10000 5.1 60 17:42 05.09.2019
2434 Clouds 23 1013 39 10000 5.1 60 17:23 05.09.2019
2435 Clouds 23 1013 37 10000 3.1 120 16:58 05.09.2019
2436 Clouds 20 1013 34 10000 2.6 130 16:40 05.09.2019
2437 Clouds 21 1013 34 10000 2.6 130 16:20 05.09.2019
2438 Clouds 24 1013 34 10000 2.6 110 15:56 05.09.2019
2439 Clouds 23 1014 41 10000 3.6 90 15:38 05.09.2019
2440 Clouds 23 1014 41 10000 3.6 90 15:18 05.09.2019
2441 Clouds 24 1014 42 10000 3.6 0 15:18 05.09.2019
2442 Clouds 23 1014 41 10000 3.6 90 15:18 05.09.2019
2443 Clouds 23 1014 44 10000 4.6 100 14:42 05.09.2019
2444 Clouds 23 1014 44 10000 4.6 100 14:21 05.09.2019
2445 Clouds 23 1015 47 10000 4.6 120 13:44 05.09.2019
2446 Clouds 23 1015 47 10000 4.6 120 13:23 05.09.2019
2447 Clouds 22 1015 50 10000 5.1 120 12:58 05.09.2019
2448 Clouds 22 1015 53 10000 5.1 100 12:38 05.09.2019
2449 Clouds 25 1015 53 10000 5.1 100 12:20 05.09.2019
2450 Clouds 24 1016 56 10000 5.7 90 11:43 05.09.2019
2451 Clouds 23 1016 56 10000 5.7 90 11:20 05.09.2019
2452 Clouds 22 1016 60 10000 4.6 110 10:43 05.09.2019
2453 Clouds 22 1016 60 10000 4.6 110 10:23 05.09.2019
2454 Clouds 22 1016 60 10000 4.6 110 10:23 05.09.2019
2455 Clouds 21 1016 60 10000 5.1 110 09:59 05.09.2019
2456 Clouds 21 1016 68 10000 1.5 10 09:40 05.09.2019
2457 Clouds 21 1016 68 10000 1.5 10 09:40 05.09.2019
2458 Clouds 19 1016 68 10000 1.5 10 09:19 05.09.2019
2459 Clouds 19 1016 68 10000 1.5 10 09:19 05.09.2019
2460 Clouds 17 1016 77 10000 1 0 08:46 05.09.2019
2461 Clouds 17 1016 77 10000 1 0 08:27 05.09.2019
2462 Clouds 16 1016 77 10000 1.5 290 07:48 05.09.2019
2463 Clouds 15 1016 82 10000 1.5 310 07:29 05.09.2019
2464 Clouds 15 1016 82 8000 2.1 320 06:58 05.09.2019
2465 Clouds 14 1016 77 10000 2.6 340 06:32 05.09.2019
2466 Clouds 14 1016 77 10000 1.5 360 05:51 05.09.2019
2467 Clouds 14 1016 77 10000 0.89 78.842 05:32 05.09.2019
2468 Clouds 14 1016 77 10000 1.5 270 04:55 05.09.2019
2469 Clouds 13 1016 82 10000 1 280 04:29 05.09.2019
2470 Clouds 13 1017 87 10000 1 0 03:40 05.09.2019
2471 Clouds 13 1017 87 10000 1.01 33.784 02:54 05.09.2019
2472 Clouds 13 1017 82 10000 1.01 33.784 02:27 05.09.2019
2473 Clear 14 1017 82 10000 2.6 20 01:41 05.09.2019
2474 Clear 15 1017 72 10000 2.6 20 00:48 05.09.2019
2475 Clear 15 1017 77 10000 2.1 310 00:22 05.09.2019
2476 Clear 15 1017 68 10000 2.1 290 23:56 04.09.2019
2477 Clear 15 1017 68 10000 3.1 280 23:37 04.09.2019
2478 Clear 16 1017 68 10000 3.1 280 23:18 04.09.2019
2479 Clear 16 1017 68 10000 3.6 280 22:46 04.09.2019
2480 Clear 16 1017 68 10000 3.6 280 22:19 04.09.2019
2481 Clear 16 1017 64 10000 3.1 270 21:41 04.09.2019
2482 Clear 17 1017 64 10000 3.1 270 21:20 04.09.2019
2483 Clear 17 1017 56 10000 2.6 270 20:58 04.09.2019
2484 Clear 18 1016 46 10000 3.1 270 20:40 04.09.2019
2485 Clear 18 1016 46 10000 3.1 270 20:19 04.09.2019
2486 Clear 18 1016 49 10000 1 0 19:57 04.09.2019
2487 Clouds 18 1015 47 10000 2.6 40 19:38 04.09.2019
2488 Clouds 20 1015 47 10000 2.6 40 19:19 04.09.2019
2489 Clouds 19 1015 39 10000 4.6 50 18:39 04.09.2019
2490 Clouds 19 1015 39 10000 4.6 50 18:39 04.09.2019
2491 Clouds 22 1015 39 10000 4.6 50 18:20 04.09.2019
2492 Clouds 23 1015 39 10000 4.6 40 17:54 04.09.2019
2493 Clouds 23 1015 39 10000 4.6 40 17:54 04.09.2019
2494 Clouds 23 1015 36 10000 4.6 50 17:36 04.09.2019
2495 Clouds 23 1015 36 10000 4.6 50 17:36 04.09.2019
2496 Clouds 23 1015 36 10000 4.6 50 17:18 04.09.2019
2497 Clouds 24 1015 34 10000 4.6 30 16:42 04.09.2019
2498 Clouds 24 1015 34 10000 4.6 30 16:24 04.09.2019
2499 Clouds 24 1015 32 10000 4.6 20 15:56 04.09.2019
2500 Clouds 24 1016 26 10000 2.6 0 15:38 04.09.2019
2501 Clouds 24 1016 26 10000 2.6 0 15:20 04.09.2019
2502 Clouds 24 1016 32 10000 3.1 300 14:55 04.09.2019
2503 Clouds 24 1016 32 10000 3.1 300 14:55 04.09.2019
2504 Clouds 24 1016 32 10000 3.1 300 14:55 04.09.2019
2505 Clouds 23 1016 34 10000 4.1 280 14:36 04.09.2019
2506 Clouds 23 1016 34 10000 4.1 280 14:18 04.09.2019
2507 Clouds 24 1017 41 10000 2.6 290 13:40 04.09.2019
2508 Clouds 24 1017 41 10000 2.6 290 13:21 04.09.2019
2509 Clouds 24 1018 47 10000 3.6 290 12:57 04.09.2019
2510 Clouds 23 1018 47 10000 3.6 270 12:37 04.09.2019
2511 Clouds 23 1018 47 10000 3.6 270 12:37 04.09.2019
2512 Clear 23 1018 49 10000 3.6 280 12:18 04.09.2019
2513 Clear 22 1019 53 10000 3.6 280 11:41 04.09.2019
2514 Clear 22 1019 53 10000 3.6 280 11:21 04.09.2019
2515 Clear 23 1019 56 10000 3.6 290 10:59 04.09.2019
2516 Clear 22 1019 60 10000 4.1 290 10:40 04.09.2019
2517 Clear 22 1019 60 10000 4.1 290 10:21 04.09.2019
2518 Clear 20 1019 63 10000 3.6 280 09:46 04.09.2019
2519 Clouds 16 1019 68 8000 3.6 300 09:22 04.09.2019
2520 Clouds 17 1019 72 8000 2.6 300 08:57 04.09.2019
2521 Clouds 16 1019 77 8000 2.6 310 08:38 04.09.2019
2522 Clouds 16 1019 77 8000 2.6 310 08:19 04.09.2019
2523 Mist 15 1019 87 5000 2.1 310 07:40 04.09.2019
2524 Mist 14 1019 87 5000 2.1 310 07:22 04.09.2019
2525 Clouds 14 1019 87 7000 1 0 06:39 04.09.2019
2526 Clear 12 1019 82 10000 4.1 280 04:56 04.09.2019
2527 Clear 13 1019 82 10000 4.6 270 04:24 04.09.2019
2528 Clear 13 1019 82 10000 5.7 270 03:21 04.09.2019
2529 Clear 12 1019 72 10000 6.7 270 01:21 04.09.2019
2530 Clear 13 1019 68 10000 5.7 270 00:45 04.09.2019
2531 Clear 15 1019 68 10000 5.7 270 00:27 04.09.2019
2532 Clear 16 1018 72 10000 5.1 270 23:52 03.09.2019
2533 Clear 16 1018 68 10000 5.1 270 23:27 03.09.2019
2534 Clear 14 1018 60 10000 3.6 280 22:43 03.09.2019
2535 Clear 14 1018 60 10000 3.6 280 22:25 03.09.2019
2536 Clear 15 1018 49 10000 2.1 260 21:59 03.09.2019
2537 Clear 15 1018 49 10000 2.1 260 21:59 03.09.2019
2538 Clear 15 1017 37 10000 2.6 130 21:39 03.09.2019
2539 Clear 19 1017 37 10000 2.6 130 21:20 03.09.2019
2540 Clear 19 1017 37 10000 3.6 140 20:59 03.09.2019
2541 Clear 20 1017 29 10000 2.6 90 20:40 03.09.2019
2542 Clear 18 1017 29 10000 2.6 90 20:21 03.09.2019
2543 -273 0 0 0 0 0 19:55 03.09.2019
2544 Clear 15 1016 27 10000 1 0 19:55 03.09.2019
2545 -273 0 0 0 0 0 19:55 03.09.2019
2546 Clear 15 1016 27 10000 1 0 19:55 03.09.2019
2547 Clear 15 1016 27 10000 1 0 19:55 03.09.2019
2548 Clear 16 1016 24 10000 3.6 50 19:36 03.09.2019
2549 Clear 18 1016 24 10000 3.6 50 19:18 03.09.2019
2550 Clear 17 1015 21 10000 4.6 40 18:42 03.09.2019
2551 Clear 24 1015 21 10000 4.6 40 18:24 03.09.2019
2552 Clear 24 1015 20 10000 4.1 30 17:56 03.09.2019
2553 Clear 24 1015 19 10000 4.1 10 17:38 03.09.2019
2554 Clear 26 1015 19 10000 4.1 10 17:19 03.09.2019
2555 Clear 26 1015 19 10000 3.6 40 16:43 03.09.2019
2556 Clear 26 1015 19 10000 3.6 40 16:23 03.09.2019
2557 Clear 26 1015 19 10000 2.6 0 15:57 03.09.2019
2558 Clear 26 1015 19 10000 2.1 0 15:37 03.09.2019
2559 Clear 26 1015 19 10000 2.1 0 15:19 03.09.2019
2560 Clear 26 1016 19 10000 3.1 30 14:56 03.09.2019
2561 Clear 30 1016 19 10000 3.6 60 14:37 03.09.2019
2562 Clear 26 1016 19 10000 3.6 60 14:18 03.09.2019
2563 Clear 26 1016 19 10000 3.6 60 14:18 03.09.2019
2564 Clear 26 1016 20 10000 3.6 310 13:55 03.09.2019
2565 Clear 29 1016 23 10000 4.6 100 13:37 03.09.2019
2566 Clear 29 1016 23 10000 4.6 100 13:18 03.09.2019
2567 Clear 29 1017 24 10000 2.1 0 12:46 03.09.2019
2568 Clear 25 1017 26 10000 1 0 12:28 03.09.2019
2569 Clear 25 1017 33 10000 1.5 280 11:43 03.09.2019
2570 Clear 27 1017 33 10000 1.5 280 11:25 03.09.2019
2571 Clear 24 1018 36 10000 1 0 10:59 03.09.2019
2572 Clear 25 1018 40 10000 1.5 0 10:40 03.09.2019
2573 Clear 24 1018 40 10000 1.5 0 10:21 03.09.2019
2574 Clear 22 1018 46 10000 1 0 09:50 03.09.2019
2575 Clear 19 1018 48 10000 1 0 09:32 03.09.2019
2576 Clear 18 1018 45 10000 1.67 295.064 08:57 03.09.2019
2577 Clear 17 1018 48 10000 1 0 08:37 03.09.2019
2578 Clear 16 1018 48 10000 1 0 08:19 03.09.2019
2579 Clear 15 1017 54 10000 1 0 07:43 03.09.2019
2580 Clear 13 1017 62 10000 1.67 295.064 07:24 03.09.2019
2581 Clear 13 1017 62 10000 1.67 295.064 06:47 03.09.2019
2582 Clear 12 1017 62 10000 1.67 295.064 06:28 03.09.2019
2583 Clear 12 1017 54 10000 2.6 120 03:44 03.09.2019
2584 Clear 12 1017 51 10000 2.1 130 02:48 03.09.2019
2585 Clear 12 1017 54 10000 3.6 110 02:27 03.09.2019
2586 Clear 12 1017 54 10000 3.6 110 01:53 03.09.2019
2587 Clear 13 1017 51 10000 4.1 120 01:34 03.09.2019
2588 Clear 13 1017 51 10000 3.1 130 00:57 03.09.2019
2589 Clear 13 1017 42 10000 3.6 140 00:26 03.09.2019
2590 Clear 14 1016 39 10000 3.1 120 23:40 02.09.2019
2591 Clear 14 1016 39 10000 3.1 120 23:20 02.09.2019
2592 Clear 15 1016 34 10000 3.6 130 22:57 02.09.2019
2593 Clear 15 1016 34 10000 3.6 130 22:57 02.09.2019
2594 Clear 15 1016 34 10000 3.6 140 22:39 02.09.2019
2595 Clear 15 1016 34 10000 3.6 140 22:20 02.09.2019
2596 Clear 16 1016 32 10000 3.1 140 21:58 02.09.2019
2597 Clear 15 1016 34 10000 3.1 130 21:40 02.09.2019
2598 Clear 17 1016 34 10000 3.1 130 21:20 02.09.2019
2599 Clear 17 1016 34 10000 3.1 130 21:20 02.09.2019
2600 Clear 16 1015 34 10000 2.6 120 20:59 02.09.2019
2601 Clear 18 1015 30 10000 3.1 130 20:40 02.09.2019
2602 Clear 15 1015 30 10000 3.1 130 20:18 02.09.2019
2603 Clear 16 1015 25 10000 4.6 70 19:56 02.09.2019
2604 Clear 17 1014 22 10000 4.6 110 19:38 02.09.2019
2605 Clear 17 1014 22 10000 4.6 110 19:19 02.09.2019
2606 Clear 18 1014 23 10000 4.6 60 18:40 02.09.2019
2607 Clear 18 1014 23 10000 4.6 60 18:40 02.09.2019
2608 Clear 25 1014 23 10000 4.6 60 18:22 02.09.2019
2609 Clear 25 1013 22 10000 2.1 110 17:57 02.09.2019
2610 Clear 25 1013 22 10000 2.1 110 17:57 02.09.2019
2611 Clear 26 1014 15 10000 1 0 17:39 02.09.2019
2612 Clear 26 1014 15 10000 1 0 17:19 02.09.2019
2613 Clear 26 1014 14 10000 1.5 40 16:42 02.09.2019
2614 Clear 26 1014 14 10000 1.5 40 16:23 02.09.2019
2615 Clear 27 1014 15 10000 2.6 170 15:57 02.09.2019
2616 Clear 25 1015 15 10000 2.1 0 15:38 02.09.2019
2617 Clear 26 1015 15 10000 2.1 0 15:19 02.09.2019
2618 Clear 26 1015 17 10000 2.6 0 14:56 02.09.2019
2619 Clear 30 1015 19 10000 3.1 130 14:37 02.09.2019
2620 Clear 30 1015 19 10000 3.1 130 14:37 02.09.2019
2621 Clear 27 1015 19 10000 3.1 130 14:18 02.09.2019
2622 Clear 29 1016 17 10000 2.6 0 13:44 02.09.2019
2623 Clear 29 1016 17 10000 2.6 0 13:25 02.09.2019
2624 Clear 29 1016 17 10000 2.1 110 12:56 02.09.2019
2625 Clear 29 1016 18 10000 2.1 0 12:38 02.09.2019
2626 Clear 25 1016 18 10000 2.1 0 12:18 02.09.2019
2627 Clear 28 1017 34 10000 1.5 0 11:41 02.09.2019
2628 Clear 27 1017 36 10000 1 0 11:22 02.09.2019
2629 Clear 26 1017 36 10000 1 0 10:59 02.09.2019
2630 Clear 27 1017 36 10000 1 0 10:59 02.09.2019
2631 Clear 25 1017 40 10000 1.5 80 10:41 02.09.2019
2632 Clear 24 1017 40 10000 1.5 80 10:22 02.09.2019
2633 Clear 22 1017 43 10000 1 0 09:58 02.09.2019
2634 Clear 21 1017 45 10000 1 0 09:38 02.09.2019
2635 Clear 18 1017 45 10000 1 0 09:19 02.09.2019
2636 Clear 18 1017 45 10000 1 0 09:19 02.09.2019
2637 Clear 16 1017 51 10000 1.85 127.217 08:39 02.09.2019
2638 Clear 16 1017 51 10000 1.85 127.217 08:21 02.09.2019
2639 Clear 14 1017 58 10000 1.5 320 07:42 02.09.2019
2640 Clear 13 1017 58 10000 1.5 320 07:22 02.09.2019
2641 Clear 12 1017 62 10000 1.5 320 06:58 02.09.2019
2642 Clear 11 1017 66 10000 1 320 06:39 02.09.2019
2643 Clear 10 1017 66 10000 1.5 300 05:50 02.09.2019
2644 Clear 10 1017 66 10000 1 0 05:20 02.09.2019
2645 Clear 11 1017 62 10000 1.87 94.667 04:45 02.09.2019
2646 Clear 12 1016 58 10000 2.1 160 01:50 02.09.2019
2647 Clear 12 1016 58 10000 2.1 130 00:55 02.09.2019
2648 Clear 12 1016 54 10000 2.6 120 00:32 02.09.2019
2649 Clear 14 1016 48 10000 2.1 150 23:48 01.09.2019
2650 Clear 15 1016 48 10000 2.1 150 23:24 01.09.2019
2651 Clear 15 1016 45 10000 2.6 140 22:59 01.09.2019
2652 Clear 15 1016 42 10000 2.1 120 22:40 01.09.2019
2653 Clear 15 1016 42 10000 2.1 120 22:20 01.09.2019
2654 Clear 16 1016 37 10000 3.6 120 21:59 01.09.2019
2655 Clear 16 1016 35 10000 2.1 100 21:40 01.09.2019
2656 Clear 16 1016 35 10000 2.1 100 21:22 01.09.2019
2657 Clear 17 1016 33 10000 3.1 180 20:57 01.09.2019
2658 Clear 15 1015 33 10000 3.1 150 20:38 01.09.2019
2659 Clear 15 1015 33 10000 3.1 150 20:19 01.09.2019
2660 Clear 15 1015 29 10000 2.1 100 19:58 01.09.2019
2661 Clear 16 1014 27 10000 3.1 50 19:38 01.09.2019
2662 Clear 16 1014 27 10000 3.1 50 19:19 01.09.2019
2663 Clear 17 1014 21 10000 4.6 40 18:43 01.09.2019
2664 Clear 24 1014 21 10000 4.6 40 18:25 01.09.2019
2665 Clear 24 1014 21 10000 4.6 40 18:25 01.09.2019
2666 Clear 24 1014 21 10000 4.6 40 17:57 01.09.2019
2667 Clear 25 1014 18 10000 4.1 30 17:38 01.09.2019
2668 Clear 25 1014 18 10000 4.1 30 17:19 01.09.2019
2669 Clear 25 1014 18 10000 4.1 30 17:19 01.09.2019
2670 Clear 25 1014 18 10000 5.1 50 16:41 01.09.2019
2671 Clear 25 1014 18 10000 5.1 50 16:41 01.09.2019
2672 Clear 26 1014 18 10000 5.1 50 16:20 01.09.2019
2673 Clear 25 1015 20 10000 2.6 0 15:49 01.09.2019
2674 Clear 26 1015 20 10000 2.6 0 15:31 01.09.2019
2675 Clear 29 1015 20 10000 3.6 30 14:59 01.09.2019
2676 Clear 25 1015 20 10000 1.5 0 14:40 01.09.2019
2677 Clear 29 1015 20 10000 1.5 0 14:21 01.09.2019
2678 Clear 28 1015 21 10000 2.1 0 13:54 01.09.2019
2679 Clear 28 1015 21 10000 2.1 0 13:54 01.09.2019
2680 Clear 28 1016 21 10000 2.6 0 13:36 01.09.2019
2681 Clear 28 1016 21 10000 2.6 0 13:18 01.09.2019
2682 Clear 27 1016 19 10000 3.1 100 12:41 01.09.2019
2683 Clear 24 1016 19 10000 3.1 100 12:22 01.09.2019
2684 Clear 24 1017 29 10000 2.1 100 11:41 01.09.2019
2685 Clear 23 1017 29 10000 2.1 100 11:20 01.09.2019
2686 Clear 25 1017 33 10000 1 0 10:58 01.09.2019
2687 Clear 24 1017 37 10000 1 0 10:40 01.09.2019
2688 Clear 23 1017 37 10000 1 0 10:21 01.09.2019
2689 Clear 21 1017 48 10000 1 0 09:43 01.09.2019
2690 Clear 17 1017 48 10000 1 0 09:25 01.09.2019
2691 Clear 15 1017 59 10000 1.5 270 08:44 01.09.2019
2692 Clear 14 1017 59 10000 1.5 270 08:24 01.09.2019
2693 Clear 14 1017 62 10000 2.1 300 07:51 01.09.2019
2694 Clear 14 1017 62 10000 2.1 300 07:51 01.09.2019
2695 Clear 13 1017 66 10000 0.91 19.956 07:33 01.09.2019
2696 Clear 11 1018 71 10000 2.1 330 06:42 01.09.2019
2697 Clear 10 1018 71 10000 2.1 330 06:23 01.09.2019
2698 Clear 10 1018 76 10000 1.34 41.057 05:39 01.09.2019
2699 Clear 10 1018 71 10000 1.34 41.057 04:31 01.09.2019
2700 Clear 11 1018 66 10000 1.5 130 03:42 01.09.2019
2701 Clear 11 1018 62 10000 1.5 140 02:57 01.09.2019
2702 Clear 12 1018 67 10000 2.6 120 02:26 01.09.2019
2703 Clear 12 1018 67 10000 3.1 150 01:50 01.09.2019
2704 Clear 13 1018 67 10000 2.6 110 01:22 01.09.2019
2705 Clear 13 1018 63 10000 2.6 90 00:45 01.09.2019
2706 Clear 14 1018 63 10000 2.6 90 00:22 01.09.2019
2707 Clear 13 1018 63 10000 2.6 90 23:48 31.08.2019
2708 Clear 13 1018 59 10000 2.1 110 23:22 31.08.2019
2709 Clear 14 1018 49 10000 2.1 150 22:57 31.08.2019
2710 Clear 13 1018 46 10000 2.1 170 22:39 31.08.2019
2711 Clear 13 1018 46 10000 2.1 170 22:21 31.08.2019
2712 Clear 13 1018 46 10000 2.6 190 21:55 31.08.2019
2713 Clear 13 1018 46 10000 3.1 170 21:37 31.08.2019
2714 Clear 19 1018 46 10000 3.1 170 21:18 31.08.2019
2715 Clear 18 1018 43 10000 2.1 100 20:43 31.08.2019
2716 Clear 16 1018 43 10000 2.1 100 20:24 31.08.2019
2717 Clear 15 1017 36 10000 3.6 50 19:47 31.08.2019
2718 Clear 15 1017 36 10000 3.6 50 19:23 31.08.2019
2719 Clear 16 1017 34 10000 4.1 50 18:58 31.08.2019
2720 Clear 16 1017 32 10000 5.7 50 18:39 31.08.2019
2721 Clear 23 1017 32 10000 5.7 50 18:19 31.08.2019
2722 Clear 23 1017 30 10000 5.1 40 17:55 31.08.2019
2723 Clear 24 1017 30 10000 6.2 50 17:37 31.08.2019
2724 Clear 24 1017 30 10000 6.2 50 17:18 31.08.2019
2725 Clear 23 1017 28 10000 4.6 30 16:55 31.08.2019
2726 Clear 23 1017 28 10000 4.6 30 16:55 31.08.2019
2727 Clouds 23 1017 28 10000 4.6 50 16:37 31.08.2019
2728 Clouds 24 1017 28 10000 4.6 50 16:18 31.08.2019
2729 Clouds 25 1018 28 10000 4.1 40 15:41 31.08.2019
2730 Clouds 24 1018 28 10000 4.1 40 15:19 31.08.2019
2731 Clouds 28 1018 28 10000 5.7 50 14:55 31.08.2019
2732 Clouds 24 1018 28 10000 2.6 80 14:36 31.08.2019
2733 Clouds 25 1018 28 10000 2.6 80 14:18 31.08.2019
2734 Clouds 27 1019 32 10000 5.7 30 13:39 31.08.2019
2735 Clouds 28 1019 32 10000 5.7 30 13:21 31.08.2019
2736 Clouds 28 1019 32 10000 3.1 40 12:56 31.08.2019
2737 Clouds 28 1019 34 10000 3.1 40 12:38 31.08.2019
2738 Clouds 24 1019 34 10000 3.1 40 12:18 31.08.2019
2739 Clouds 24 1020 41 10000 1.5 310 11:44 31.08.2019
2740 Clouds 27 1020 41 10000 1.5 310 11:26 31.08.2019
2741 Clouds 27 1020 44 10000 1.5 0 10:57 31.08.2019
2742 Clear 23 1020 47 10000 1 0 10:39 31.08.2019
2743 Clear 22 1020 47 10000 1 0 10:18 31.08.2019
2744 Clear 20 1021 56 10000 1 0 09:40 31.08.2019
2745 Clear 20 1021 56 10000 1 0 09:22 31.08.2019
2746 Clear 19 1021 60 10000 0.51 70.286 08:58 31.08.2019
2747 Clear 19 1021 60 10000 0.51 70.286 08:58 31.08.2019
2748 Clear 18 1021 59 10000 0.5 0 08:39 31.08.2019
2749 Clear 18 1021 59 10000 0.5 0 08:20 31.08.2019
2750 Clear 16 1021 67 10000 0.5 0 07:39 31.08.2019
2751 Clear 15 1021 72 10000 2.1 350 07:18 31.08.2019
2752 Clear 14 1020 77 10000 1.5 330 06:27 31.08.2019
2753 Clear 12 1020 77 10000 1.5 360 05:55 31.08.2019
2754 Clear 12 1020 77 10000 1 0 05:29 31.08.2019
2755 Clear 13 1020 72 10000 0.5 0 04:29 31.08.2019
2756 Clear 13 1020 67 10000 2.6 120 03:42 31.08.2019
2757 Clear 14 1020 63 10000 2.6 120 02:23 31.08.2019
2758 Clear 13 1020 59 10000 3.6 120 01:47 31.08.2019
2759 Clear 13 1021 59 10000 3.1 150 01:29 31.08.2019
2760 Clear 13 1021 63 10000 3.1 140 00:47 31.08.2019
2761 Clear 14 1021 63 10000 4.1 120 00:27 31.08.2019
2762 Clear 15 1020 63 10000 2.6 110 23:50 30.08.2019
2763 Clear 17 1020 55 10000 2.1 110 23:19 30.08.2019
2764 Clear 16 1020 55 10000 2.1 130 22:58 30.08.2019
2765 Clear 15 1020 49 10000 1 0 22:38 30.08.2019
2766 Clear 15 1020 49 10000 1 0 22:20 30.08.2019
2767 Clear 15 1020 52 10000 1.5 110 21:57 30.08.2019
2768 Clear 16 1020 46 10000 1.5 110 21:36 30.08.2019
2769 Clear 18 1020 46 10000 1.5 110 21:18 30.08.2019
2770 Clear 19 1020 40 10000 2.1 100 20:56 30.08.2019
2771 Clear 19 1019 41 10000 2.1 80 20:37 30.08.2019
2772 Clear 17 1019 41 10000 2.1 80 20:18 30.08.2019
2773 Clear 18 1019 34 10000 3.1 50 19:41 30.08.2019
2774 Clear 19 1019 34 10000 3.1 50 19:22 30.08.2019
2775 Clear 19 1019 30 10000 3.1 50 18:59 30.08.2019
2776 Clear 19 1019 30 10000 4.1 40 18:41 30.08.2019
2777 Clear 24 1019 30 10000 4.1 40 18:23 30.08.2019
2778 Clear 25 1019 28 10000 4.6 40 17:56 30.08.2019
2779 Clear 25 1019 27 10000 5.1 50 17:38 30.08.2019
2780 Clear 25 1019 27 10000 5.1 50 17:18 30.08.2019
2781 Clear 25 1019 27 10000 4.1 30 16:46 30.08.2019
2782 Clear 25 1019 26 10000 5.7 50 16:27 30.08.2019
2783 Clear 26 1019 23 10000 4.6 40 15:57 30.08.2019
2784 Clear 25 1019 26 10000 3.1 0 15:38 30.08.2019
2785 Clear 25 1019 26 10000 3.1 0 15:38 30.08.2019
2786 Clear 26 1019 26 10000 3.1 0 15:19 30.08.2019
2787 Clear 25 1020 27 10000 3.6 110 14:42 30.08.2019
2788 Clear 25 1020 27 10000 3.6 110 14:42 30.08.2019
2789 Clear 25 1020 27 10000 3.6 110 14:24 30.08.2019
2790 Clear 26 1020 26 10000 4.1 40 13:56 30.08.2019
2791 Clear 26 1020 26 10000 4.1 40 13:56 30.08.2019
2792 Clear 26 1020 26 10000 4.1 40 13:56 30.08.2019
2793 Clear 25 1020 26 10000 2.6 0 13:36 30.08.2019
2794 Clear 30 1020 26 10000 2.6 0 13:18 30.08.2019
2795 Clear 29 1021 25 10000 2.1 0 12:42 30.08.2019
2796 Clear 25 1021 28 10000 1 0 12:22 30.08.2019
2797 Clear 25 1021 34 10000 1 0 11:43 30.08.2019
2798 Clear 25 1021 34 10000 1 0 11:25 30.08.2019
2799 Clear 27 1021 36 10000 1.5 0 10:57 30.08.2019
2800 Clear 23 1022 40 10000 1 0 10:36 30.08.2019
2801 Clear 23 1022 40 10000 1 0 10:18 30.08.2019
2802 Clear 20 1022 45 10000 1.5 290 09:42 30.08.2019
2803 Clear 19 1022 45 10000 1.5 290 09:19 30.08.2019
2804 Clear 19 1022 48 10000 1.5 270 08:57 30.08.2019
2805 Clear 18 1022 52 10000 1 0 08:38 30.08.2019
2806 Clear 17 1022 52 10000 1 0 08:20 30.08.2019
2807 Clear 16 1021 67 10000 0.21 332.954 07:40 30.08.2019
2808 Clear 15 1021 67 10000 0.21 332.954 07:21 30.08.2019
2809 Clear 14 1021 62 10000 1 300 06:47 30.08.2019
2810 Clear 12 1021 62 10000 1.5 270 06:28 30.08.2019
2811 Clear 11 1021 71 10000 1.5 40 05:44 30.08.2019
2812 Clear 12 1021 55 10000 2.1 170 03:59 30.08.2019
2813 Clear 12 1021 58 10000 2.1 140 03:38 30.08.2019
2814 Clear 12 1021 58 10000 2.6 140 02:56 30.08.2019
2815 Clear 13 1021 55 10000 3.1 110 02:26 30.08.2019
2816 Clear 13 1021 51 10000 2.1 130 01:28 30.08.2019
2817 Clear 13 1021 55 10000 3.1 120 00:29 30.08.2019
2818 Clear 14 1020 48 10000 1.5 130 23:59 29.08.2019
2819 Clear 14 1020 45 10000 3.1 140 23:40 29.08.2019
2820 Clear 14 1020 45 10000 3.1 140 23:20 29.08.2019
2821 Clear 16 1020 37 10000 2.6 130 22:43 29.08.2019
2822 Clear 15 1020 37 10000 2.6 130 22:25 29.08.2019
2823 Clear 15 1020 37 10000 2.6 120 21:56 29.08.2019
2824 Clear 16 1020 35 10000 3.1 100 21:38 29.08.2019
2825 Clear 17 1019 35 10000 3.1 140 21:20 29.08.2019
2826 Clear 16 1019 33 10000 3.6 150 20:43 29.08.2019
2827 Clear 16 1019 29 10000 2.6 70 20:20 29.08.2019
2828 Clear 16 1019 29 10000 2.6 70 19:59 29.08.2019
2829 Clear 17 1019 26 10000 3.6 60 19:40 29.08.2019
2830 Clear 18 1018 24 10000 4.1 40 19:21 29.08.2019
2831 Clear 20 1018 25 10000 4.6 30 18:43 29.08.2019
2832 Clear 25 1018 25 10000 3.6 30 18:21 29.08.2019
2833 Clear 25 1018 25 10000 3.6 30 17:56 29.08.2019
2834 Clear 26 1019 23 10000 3.6 20 17:38 29.08.2019
2835 Clear 26 1019 23 10000 4.6 60 17:19 29.08.2019
2836 Clear 26 1019 23 10000 4.6 60 16:57 29.08.2019
2837 Clear 27 1019 22 10000 3.6 40 16:38 29.08.2019
2838 Clear 27 1019 22 10000 4.6 40 16:20 29.08.2019
2839 Clear 27 1019 22 10000 4.1 70 15:39 29.08.2019
2840 Clear 27 1019 22 10000 4.1 70 15:20 29.08.2019
2841 Clear 27 1019 23 10000 3.1 0 14:50 29.08.2019
2842 Clear 27 1019 23 10000 4.1 50 14:24 29.08.2019
2843 Clear 27 1020 22 10000 1.5 0 13:59 29.08.2019
2844 Clear 30 1020 23 10000 4.6 130 13:39 29.08.2019
2845 Clear 30 1020 23 10000 4.6 130 13:20 29.08.2019
2846 Clear 26 1020 28 10000 4.6 100 12:59 29.08.2019
2847 Clear 26 1020 28 10000 2.1 0 12:39 29.08.2019
2848 Clear 26 1020 28 10000 2.1 0 12:39 29.08.2019
2849 Clear 26 1020 26 10000 4.1 120 12:21 29.08.2019
2850 Clear 25 1020 26 10000 4.1 120 11:59 29.08.2019
2851 Clear 25 1021 30 10000 4.1 110 11:39 29.08.2019
2852 Clear 25 1021 32 10000 2.1 0 11:19 29.08.2019
2853 Clear 27 1021 32 10000 2.1 0 10:45 29.08.2019
2854 Clear 26 1021 36 10000 1 0 10:25 29.08.2019
2855 Clear 24 1022 40 10000 1 0 09:56 29.08.2019
2856 Clear 22 1022 46 10000 1.5 310 09:38 29.08.2019
2857 Clear 19 1022 49 10000 1 0 09:18 29.08.2019
2858 Clear 18 1022 52 10000 2.1 280 08:41 29.08.2019
2859 Clear 17 1022 52 10000 2.1 280 08:22 29.08.2019
2860 Clear 16 1022 55 10000 0.5 0 07:51 29.08.2019
2861 Clear 16 1022 63 10000 1.5 330 07:29 29.08.2019
2862 Clear 15 1022 67 10000 1.5 330 06:53 29.08.2019
2863 Clear 14 1021 62 10000 2.6 80 06:33 29.08.2019
2864 Clear 13 1021 62 10000 3.1 140 05:43 29.08.2019
2865 Clear 13 1021 59 10000 3.6 140 04:51 29.08.2019
2866 Clear 14 1021 59 10000 3.1 140 04:30 29.08.2019
2867 Clear 14 1021 55 10000 3.1 140 03:35 29.08.2019
2868 Clear 14 1021 59 10000 3.6 120 01:52 29.08.2019
2869 Clear 14 1021 59 10000 4.1 120 01:32 29.08.2019
2870 Clear 15 1021 55 10000 2.6 110 00:45 29.08.2019
2871 Clear 15 1021 55 10000 2.6 110 00:21 29.08.2019
2872 Clear 16 1021 48 10000 2.1 110 23:44 28.08.2019
2873 Clear 16 1021 48 10000 2.1 110 23:26 28.08.2019
2874 Clear 17 1021 45 10000 4.1 140 22:59 28.08.2019
2875 Clear 17 1021 43 10000 3.6 150 22:39 28.08.2019
2876 Clear 17 1021 45 10000 2.1 110 22:19 28.08.2019
2877 Clear 17 1021 45 10000 2.1 110 21:59 28.08.2019
2878 Clear 18 1021 43 10000 3.6 100 21:39 28.08.2019
2879 Clear 18 1021 43 10000 3.6 100 21:39 28.08.2019
2880 Clear 18 1021 43 10000 3.6 100 21:21 28.08.2019
2881 Clear 19 1020 43 10000 3.6 90 20:45 28.08.2019
2882 Clear 20 1020 36 10000 3.6 100 20:27 28.08.2019
2883 Clear 19 1020 31 10000 4.1 110 19:59 28.08.2019
2884 Clear 20 1019 30 10000 4.6 130 19:39 28.08.2019
2885 Clear 22 1019 30 10000 4.6 130 19:21 28.08.2019
2886 Clear 21 1019 26 10000 6.7 140 18:42 28.08.2019
2887 Clear 25 1019 26 10000 6.7 140 18:22 28.08.2019
2888 Clear 25 1019 23 10000 6.7 110 17:57 28.08.2019
2889 Clear 25 1019 23 10000 6.7 120 17:37 28.08.2019
2890 Clear 26 1019 23 10000 6.7 120 17:19 28.08.2019
2891 Clear 26 1019 22 10000 5.1 110 16:43 28.08.2019
2892 Clear 27 1019 22 10000 5.1 120 16:19 28.08.2019
2893 Clear 27 1019 22 10000 5.1 120 15:58 28.08.2019
2894 Clear 27 1019 22 10000 3.1 100 15:37 28.08.2019
2895 Clear 27 1019 20 10000 2.1 0 15:18 28.08.2019
2896 Clear 27 1019 20 10000 2.1 0 14:56 28.08.2019
2897 Clear 27 1020 25 10000 2.6 0 14:37 28.08.2019
2898 Clear 27 1020 25 10000 4.1 80 14:19 28.08.2019
2899 Clear 27 1020 25 10000 4.1 80 13:56 28.08.2019
2900 Clear 30 1021 25 10000 3.1 80 13:37 28.08.2019
2901 Clear 30 1021 25 10000 3.1 80 13:18 28.08.2019
2902 Clear 30 1021 27 10000 2.6 0 12:41 28.08.2019
2903 Clear 26 1021 27 10000 2.6 0 12:23 28.08.2019
2904 Clear 26 1022 28 10000 2.6 80 11:41 28.08.2019
2905 Clear 26 1022 28 10000 2.6 80 11:23 28.08.2019
2906 Clear 28 1022 34 10000 2.1 140 10:59 28.08.2019
2907 Clear 28 1022 39 10000 1 0 10:41 28.08.2019
2908 Clear 27 1022 39 10000 1 0 10:20 28.08.2019
2909 Clear 24 1023 49 10000 1.5 280 09:42 28.08.2019
2910 Clear 21 1023 56 10000 1 0 09:22 28.08.2019
2911 Clear 20 1023 56 10000 1 0 08:59 28.08.2019
2912 Clear 19 1023 60 10000 2.2 126.823 08:38 28.08.2019
2913 Clear 19 1023 60 10000 2.2 126.823 08:19 28.08.2019
2914 Clear 16 1022 67 10000 2.6 120 07:39 28.08.2019
2915 Clear 17 1022 67 10000 2.6 120 07:20 28.08.2019
2916 Clear 16 1023 72 10000 2.6 120 06:50 28.08.2019
2917 Clear 15 1023 77 10000 3.1 130 06:31 28.08.2019
2918 Clear 13 1023 72 10000 3.6 110 05:24 28.08.2019
2919 Clear 14 1022 63 10000 4.6 120 02:20 28.08.2019
2920 Clear 14 1022 63 10000 3.6 100 01:31 28.08.2019
2921 Clear 14 1023 63 10000 4.1 120 00:52 28.08.2019
2922 Clear 14 1022 60 10000 4.1 110 00:33 28.08.2019
2923 Clear 15 1022 56 10000 3.6 140 23:58 27.08.2019
2924 Clear 14 1022 60 10000 3.1 140 23:38 27.08.2019
2925 Clear 16 1022 60 10000 3.1 140 23:19 27.08.2019
2926 Clear 16 1022 49 10000 3.1 130 22:42 27.08.2019
2927 Clear 16 1022 49 10000 3.1 130 22:23 27.08.2019
2928 Clear 17 1021 49 10000 1.5 130 21:57 27.08.2019
2929 Clear 17 1021 44 10000 1.5 140 21:38 27.08.2019
2930 Clear 18 1021 44 10000 1.5 140 21:20 27.08.2019
2931 Clear 18 1021 44 10000 3.1 100 20:58 27.08.2019
2932 Clear 18 1021 41 10000 3.6 110 20:39 27.08.2019
2933 Clear 18 1021 41 10000 3.6 110 20:19 27.08.2019
2934 Clouds 18 1020 34 10000 4.1 110 19:44 27.08.2019
2935 Clouds 17 1020 34 10000 4.1 110 19:26 27.08.2019
2936 Clouds 18 1020 30 10000 4.1 90 18:56 27.08.2019
2937 Clouds 19 1020 28 10000 4.6 100 18:38 27.08.2019
2938 Clear 26 1020 27 10000 5.7 70 18:18 27.08.2019
2939 Clear 26 1020 27 10000 5.1 90 17:43 27.08.2019
2940 Clear 26 1020 27 10000 5.1 90 17:43 27.08.2019
2941 Clear 26 1020 27 10000 5.1 90 17:25 27.08.2019
2942 Clear 27 1020 25 10000 5.1 80 16:57 27.08.2019
2943 -273 0 0 0 0 0 16:38 27.08.2019
2944 Clear 27 1020 25 10000 6.2 90 16:19 27.08.2019
2945 Clear 27 1020 23 10000 5.7 120 15:42 27.08.2019
2946 Clear 27 1020 23 10000 5.7 120 15:23 27.08.2019
2947 Clear 27 1020 22 10000 4.1 120 14:59 27.08.2019
2948 Clear 27 1021 22 10000 4.6 140 14:41 27.08.2019
2949 Clear 27 1021 22 10000 4.6 140 14:23 27.08.2019
2950 Clear 27 1021 23 10000 2.6 130 13:43 27.08.2019
2951 Clear 27 1021 23 10000 2.6 130 13:24 27.08.2019
2952 Clear 30 1021 25 10000 4.1 130 12:56 27.08.2019
2953 Clear 30 1021 25 10000 3.1 70 12:37 27.08.2019
2954 Clear 27 1021 25 10000 3.1 70 12:18 27.08.2019
2955 Clear 26 1022 25 10000 3.6 110 11:43 27.08.2019
2956 Clear 26 1022 25 10000 3.6 110 11:25 27.08.2019
2957 Clear 28 1022 34 10000 4.27 71.111 10:44 27.08.2019
2958 Clear 25 1022 34 10000 4.27 71.111 10:22 27.08.2019
2959 Clear 24 1022 41 10000 1 0 09:58 27.08.2019
2960 Clear 24 1022 46 10000 1 0 09:39 27.08.2019
2961 Clear 22 1022 46 10000 1 0 09:20 27.08.2019
2962 Clear 21 1022 49 10000 1 0 08:54 27.08.2019
2963 Clear 20 1022 56 10000 1 0 08:36 27.08.2019
2964 Clear 19 1022 59 10000 2.1 20 08:18 27.08.2019
2965 Clear 18 1022 68 10000 2.1 70 07:39 27.08.2019
2966 Clear 18 1022 68 10000 2.1 70 07:19 27.08.2019
2967 Clear 16 1022 72 10000 3.6 120 06:50 27.08.2019
2968 Clear 14 1022 67 10000 3.1 120 06:22 27.08.2019
2969 Clear 13 1022 72 10000 2.1 100 05:36 27.08.2019
2970 Clear 14 1021 63 10000 2.1 120 04:33 27.08.2019
2971 Clear 15 1022 59 10000 3.6 130 03:33 27.08.2019
2972 Clear 15 1021 60 10000 3.1 120 02:23 27.08.2019
2973 Clear 15 1022 60 10000 4.1 120 01:35 27.08.2019
2974 Clear 15 1022 60 10000 3.1 120 00:54 27.08.2019
2975 Clear 15 1022 63 10000 3.6 120 00:29 27.08.2019
2976 Clear 16 1022 60 10000 3.6 120 23:59 26.08.2019
2977 Clear 16 1022 59 10000 3.6 120 23:37 26.08.2019
2978 Clear 16 1022 59 10000 3.6 120 23:19 26.08.2019
2979 Clear 16 1021 52 10000 3.1 130 22:38 26.08.2019
2980 Clear 16 1021 52 10000 3.1 130 22:19 26.08.2019
2981 Clear 16 1021 52 10000 3.1 100 21:55 26.08.2019
2982 Clear 17 1021 49 10000 3.6 100 21:37 26.08.2019
2983 Clear 20 1021 46 10000 3.1 110 21:18 26.08.2019
2984 Clear 19 1021 41 10000 3.1 140 20:41 26.08.2019
2985 Clear 22 1020 36 10000 4.6 150 20:22 26.08.2019
2986 Clear 19 1020 36 10000 4.6 150 19:59 26.08.2019
2987 Clear 18 1020 34 10000 5.1 110 19:41 26.08.2019
2988 Clear 18 1020 34 10000 5.1 110 19:41 26.08.2019
2989 Clouds 20 1020 34 10000 6.7 100 19:19 26.08.2019
2990 -273 0 0 0 0 0 18:55 26.08.2019
2991 Clouds 19 1019 28 10000 5.1 90 18:37 26.08.2019
2992 Clouds 19 1019 28 10000 5.1 90 18:37 26.08.2019
2993 Clouds 26 1019 25 10000 5.1 50 18:18 26.08.2019
2994 Clouds 26 1019 25 10000 6.2 60 17:43 26.08.2019
2995 Clouds 27 1019 29 10000 6.7 60 17:19 26.08.2019
2996 Clouds 27 1019 29 10000 6.7 60 16:57 26.08.2019
2997 Clouds 27 1019 27 10000 6.2 60 16:38 26.08.2019
2998 Clouds 28 1019 27 10000 6.2 110 16:18 26.08.2019
2999 Rain 29 1019 22 10000 7.2 90 15:42 26.08.2019
3000 Clouds 26 1020 24 10000 8.2 90 15:22 26.08.2019
3001 Clouds 26 1020 24 10000 8.2 90 14:58 26.08.2019
3002 Clouds 26 1020 26 10000 6.7 110 14:38 26.08.2019
3003 Clouds 29 1020 27 10000 7.2 120 14:19 26.08.2019
3004 Clouds 29 1021 27 10000 6.2 120 13:43 26.08.2019
3005 Clouds 28 1021 27 10000 7.7 120 13:22 26.08.2019
3006 Clouds 28 1021 27 10000 7.7 120 12:54 26.08.2019
3007 Clear 28 1021 31 10000 8.2 110 12:36 26.08.2019
3008 Clear 27 1021 29 10000 7.7 110 12:18 26.08.2019
3009 Clear 30 1021 33 10000 6.7 120 11:38 26.08.2019
3010 Clear 29 1022 42 10000 5.7 110 11:19 26.08.2019
3011 Clear 29 1022 42 10000 5.7 110 10:55 26.08.2019
3012 Clear 28 1022 44 10000 5.7 100 10:36 26.08.2019
3013 Clear 28 1022 44 10000 4.1 110 10:18 26.08.2019
3014 Clear 26 1022 53 10000 2.6 130 09:41 26.08.2019
3015 Clear 21 1022 57 10000 3.6 110 09:23 26.08.2019
3016 Clear 20 1022 57 10000 3.6 110 08:56 26.08.2019
3017 Clear 22 1022 60 10000 3.6 100 08:37 26.08.2019
3018 Clear 20 1022 68 10000 3.6 110 08:19 26.08.2019
3019 Clear 19 1022 68 10000 3.6 110 07:42 26.08.2019
3020 Clear 17 1022 68 10000 3.6 110 07:24 26.08.2019
3021 Clear 17 1022 72 10000 4.1 120 06:50 26.08.2019
3022 Clear 16 1022 72 10000 4.1 120 06:25 26.08.2019
3023 Clear 16 1021 72 10000 3.6 120 05:56 26.08.2019
3024 Clear 15 1021 72 10000 4.1 120 04:35 26.08.2019
3025 Clear 16 1021 72 10000 3.6 100 03:30 26.08.2019
3026 Clear 16 1021 64 10000 3.6 100 01:41 26.08.2019
3027 Clear 16 1020 68 10000 3.1 130 01:21 26.08.2019
3028 Clear 16 1021 64 10000 2.6 120 00:42 26.08.2019
3029 Clear 17 1020 64 10000 3.1 100 00:23 26.08.2019
3030 Clear 17 1020 56 10000 2.1 160 23:43 25.08.2019
3031 Clear 17 1020 56 10000 2.1 160 23:43 25.08.2019
3032 Clear 17 1020 53 10000 2.1 140 23:19 25.08.2019
3033 Clear 18 1020 50 10000 2.6 140 22:57 25.08.2019
3034 Clear 18 1020 50 10000 2.6 140 22:57 25.08.2019
3035 Clear 18 1020 50 10000 2.6 140 22:39 25.08.2019
3036 Clear 17 1020 50 10000 3.1 150 22:20 25.08.2019
3037 Clear 17 1020 50 10000 3.1 150 21:57 25.08.2019
3038 Clear 18 1020 44 10000 3.1 160 21:57 25.08.2019
3039 Clear 18 1020 44 10000 3.1 160 21:37 25.08.2019
3040 Clear 19 1020 41 10000 2.6 90 21:18 25.08.2019
3041 Clear 19 1020 41 10000 2.6 90 21:18 25.08.2019
3042 Clear 19 1019 41 10000 3.1 100 20:40 25.08.2019
3043 Clear 19 1019 37 10000 4.1 70 20:20 25.08.2019
3044 Clear 19 1019 37 10000 2.6 80 19:58 25.08.2019
3045 Clear 19 1019 37 10000 2.6 80 19:39 25.08.2019
3046 Clear 20 1018 33 10000 4.1 60 19:19 25.08.2019
3047 Clear 20 1018 33 10000 4.1 60 18:57 25.08.2019
3048 Clear 20 1018 29 10000 4.6 50 18:39 25.08.2019
3049 Clear 26 1018 29 10000 4.6 50 18:21 25.08.2019
3050 Clear 27 1018 31 10000 4.1 60 17:43 25.08.2019
3051 Clear 27 1018 31 10000 4.1 60 17:25 25.08.2019
3052 Clear 27 1018 31 10000 4.1 40 16:56 25.08.2019
3053 Clear 27 1019 31 10000 4.6 60 16:36 25.08.2019
3054 Clear 28 1019 31 10000 5.1 40 16:18 25.08.2019
3055 Clear 28 1019 31 10000 3.1 20 15:42 25.08.2019
3056 Clear 28 1019 33 10000 4.1 0 15:24 25.08.2019
3057 Clear 28 1020 33 10000 4.6 90 14:43 25.08.2019
3058 Clear 28 1020 33 10000 4.6 90 14:24 25.08.2019
3059 Clear 28 1020 35 10000 4.6 120 13:56 25.08.2019
3060 Clear 28 1020 33 10000 4.1 60 13:37 25.08.2019
3061 Clear 31 1020 31 10000 3.6 50 13:18 25.08.2019
3062 Clear 31 1020 31 10000 4.6 60 12:42 25.08.2019
3063 Clear 27 1021 35 10000 3.6 140 12:24 25.08.2019
3064 Clear 27 1021 35 10000 3.6 140 11:58 25.08.2019
3065 Clouds 30 1021 37 10000 4.6 110 11:38 25.08.2019
3066 Clear 26 1021 39 10000 3.6 120 11:20 25.08.2019
3067 Clear 29 1021 39 10000 3.6 120 10:56 25.08.2019
3068 Clear 26 1021 42 10000 3.6 90 10:37 25.08.2019
3069 Clear 28 1021 47 10000 2.6 100 10:19 25.08.2019
3070 Clear 24 1021 50 10000 2.6 100 09:42 25.08.2019
3071 Clear 23 1021 53 10000 2.6 120 09:24 25.08.2019
3072 Clear 21 1021 60 10000 2.6 110 08:47 25.08.2019
3073 Clear 21 1021 60 10000 2.6 110 08:29 25.08.2019
3074 Clear 19 1021 68 10000 3.1 120 07:54 25.08.2019
3075 Clear 19 1021 64 10000 3.6 110 07:32 25.08.2019
3076 Clouds 18 1021 68 10000 4.1 100 06:38 25.08.2019
3077 Clouds 16 1021 72 10000 3.1 120 05:27 25.08.2019
3078 Clear 16 1021 68 10000 4.1 130 03:43 25.08.2019
3079 Clear 16 1021 68 10000 3.6 130 02:42 25.08.2019
3080 Clouds 15 1021 68 10000 3.6 130 01:53 25.08.2019
3081 Clear 16 1021 64 10000 3.6 110 00:45 25.08.2019
3082 Clear 17 1021 56 10000 3.6 130 00:23 25.08.2019
3083 Clear 16 1021 56 10000 3.6 130 23:57 24.08.2019
3084 Clear 16 1021 56 10000 3.6 130 23:57 24.08.2019
3085 Clear 17 1021 53 10000 3.6 130 23:39 24.08.2019
3086 Clear 17 1021 53 10000 3.1 120 23:21 24.08.2019
3087 Clear 17 1021 53 10000 3.6 120 22:40 24.08.2019
3088 Clear 20 1021 53 10000 3.1 120 22:19 24.08.2019
3089 Clear 20 1021 53 10000 3.1 120 21:58 24.08.2019
3090 Clear 20 1021 53 10000 3.1 130 21:39 24.08.2019
3091 Clear 20 1020 50 10000 3.1 120 21:21 24.08.2019
3092 Clear 20 1020 50 10000 3.1 120 21:21 24.08.2019
3093 Clear 20 1020 50 10000 3.1 120 20:57 24.08.2019
3094 Clear 21 1020 44 10000 4.1 100 20:38 24.08.2019
3095 Clear 20 1020 44 10000 3.6 90 20:18 24.08.2019
3096 Clear 18 1020 44 10000 3.6 90 19:57 24.08.2019
3097 Clear 21 1020 39 10000 5.1 90 19:38 24.08.2019
3098 Clear 21 1019 37 10000 5.1 70 19:19 24.08.2019
3099 Clear 19 1019 35 10000 5.1 80 18:45 24.08.2019
3100 Clouds 26 1019 37 10000 6.7 70 18:23 24.08.2019
3101 Clouds 27 1020 35 10000 4.6 80 17:46 24.08.2019
3102 Clouds 27 1020 35 10000 4.6 80 17:27 24.08.2019
3103 Clouds 27 1020 33 10000 5.7 70 16:56 24.08.2019
3104 Clouds 27 1020 31 10000 5.1 110 16:36 24.08.2019
3105 Clouds 27 1020 31 10000 5.1 110 16:18 24.08.2019
3106 Clouds 27 1020 33 10000 4.6 80 15:43 24.08.2019
3107 Clouds 27 1020 33 10000 4.6 80 15:25 24.08.2019
3108 Clouds 27 1021 29 10000 4.1 130 14:56 24.08.2019
3109 Clouds 31 1021 29 10000 4.1 130 14:37 24.08.2019
3110 Clouds 27 1021 31 10000 3.6 80 14:18 24.08.2019
3111 Clouds 27 1021 31 10000 3.6 100 13:42 24.08.2019
3112 Clouds 26 1022 33 10000 3.1 0 13:22 24.08.2019
3113 Clouds 25 1022 33 10000 3.1 0 12:58 24.08.2019
3114 Clouds 25 1022 35 10000 4.6 110 12:39 24.08.2019
3115 Clouds 25 1022 35 10000 5.7 120 12:21 24.08.2019
3116 Clouds 25 1022 35 10000 4.6 100 11:46 24.08.2019
3117 Clouds 25 1022 35 10000 4.6 100 11:24 24.08.2019
3118 Clouds 27 1022 37 10000 4.6 110 10:57 24.08.2019
3119 Clear 27 1023 39 10000 3.1 100 10:38 24.08.2019
3120 Clear 26 1023 44 10000 2.6 110 10:19 24.08.2019
3121 Clear 24 1023 50 10000 1.5 100 09:40 24.08.2019
3122 Clear 21 1023 56 10000 2.6 100 09:18 24.08.2019
3123 Clear 19 1023 64 10000 2.6 100 08:43 24.08.2019
3124 Clear 19 1023 68 10000 1.5 100 08:23 24.08.2019
3125 Clear 18 1023 72 10000 0.5 70 07:50 24.08.2019
3126 Clear 17 1023 72 10000 0.5 70 07:29 24.08.2019
3127 Clear 15 1023 77 10000 1.5 80 06:31 24.08.2019
3128 Clear 14 1023 77 10000 2.1 140 05:57 24.08.2019
3129 Clear 14 1023 77 10000 1.5 130 05:35 24.08.2019
3130 Clear 15 1022 72 10000 2.1 110 03:40 24.08.2019
3131 Clear 15 1022 72 10000 2.6 120 02:39 24.08.2019
3132 Clear 16 1023 63 10000 3.1 120 01:52 24.08.2019
3133 Clear 16 1023 68 10000 2.6 110 01:22 24.08.2019
3134 Clear 15 1023 68 10000 3.1 90 00:44 24.08.2019
3135 Clear 17 1023 59 10000 3.1 90 00:21 24.08.2019
3136 Clear 17 1023 60 10000 2.6 150 23:43 23.08.2019
3137 Clear 18 1023 49 10000 2.6 170 23:19 23.08.2019
3138 Clear 18 1023 49 10000 3.1 170 22:44 23.08.2019
3139 Clear 18 1023 46 10000 3.1 200 22:24 23.08.2019
3140 Clear 16 1023 46 10000 3.1 200 21:54 23.08.2019
3141 Clear 16 1023 46 10000 3.1 200 21:54 23.08.2019
3142 Clear 17 1023 41 10000 2.6 180 21:36 23.08.2019
3143 Clear 19 1022 36 10000 1.5 180 21:18 23.08.2019
3144 Clear 20 1022 38 10000 2.1 70 20:45 23.08.2019
3145 Clear 20 1022 38 10000 2.1 70 20:27 23.08.2019
3146 Clear 18 1022 32 10000 3.1 50 19:45 23.08.2019
3147 Clear 21 1021 32 10000 2.6 40 19:19 23.08.2019
3148 Clear 21 1021 32 10000 2.6 40 19:19 23.08.2019
3149 Clear 19 1021 32 10000 2.6 40 18:54 23.08.2019
3150 Clear 20 1021 30 10000 3.6 40 18:36 23.08.2019
3151 Clear 26 1021 30 10000 4.6 50 18:18 23.08.2019
3152 Clear 25 1022 33 10000 4.6 40 17:41 23.08.2019
3153 Clear 27 1022 31 10000 4.6 40 17:22 23.08.2019
3154 Clear 26 1022 31 10000 4.6 40 16:49 23.08.2019
3155 Clear 26 1022 31 10000 4.6 40 16:30 23.08.2019
3156 Clear 27 1022 31 10000 4.6 50 15:59 23.08.2019
3157 Clear 26 1022 31 10000 5.1 70 15:39 23.08.2019
3158 Clear 26 1022 33 10000 4.1 30 15:21 23.08.2019
3159 Clouds 29 1022 33 10000 5.1 20 14:44 23.08.2019
3160 Clouds 27 1023 35 10000 5.1 40 14:21 23.08.2019
3161 Clouds 29 1023 35 10000 5.1 40 13:59 23.08.2019
3162 Clouds 30 1023 33 10000 5.1 30 13:41 23.08.2019
3163 Clouds 29 1023 35 10000 5.7 80 13:22 23.08.2019
3164 Clouds 30 1023 35 10000 5.7 80 12:58 23.08.2019
3165 Clouds 30 1023 35 10000 5.7 80 12:58 23.08.2019
3166 Clouds 30 1023 35 10000 2.1 0 12:40 23.08.2019
3167 Clouds 27 1023 35 10000 2.6 90 12:21 23.08.2019
3168 Clouds 26 1023 35 10000 2.6 90 11:57 23.08.2019
3169 Clear 27 1024 37 10000 2.1 0 11:38 23.08.2019
3170 Clear 27 1024 37 10000 2.1 0 11:38 23.08.2019
3171 Clear 27 1024 39 10000 2.1 140 11:18 23.08.2019
3172 Clear 28 1024 42 10000 1 0 10:45 23.08.2019
3173 Clear 25 1024 42 10000 1 0 10:23 23.08.2019
3174 Clear 24 1024 47 10000 2.1 110 09:58 23.08.2019
3175 Clear 23 1024 50 10000 0.5 0 09:40 23.08.2019
3176 Clear 22 1024 56 10000 0.78 53.423 09:20 23.08.2019
3177 Clear 21 1024 60 10000 1 0 08:44 23.08.2019
3178 Clear 19 1024 63 10000 0.78 53.423 08:20 23.08.2019
3179 Clear 18 1024 68 10000 0.78 53.423 07:44 23.08.2019
3180 Clear 18 1024 68 10000 0.78 53.423 07:24 23.08.2019
3181 Clear 17 1023 77 10000 1 330 06:59 23.08.2019
3182 Clear 17 1023 77 10000 1.5 300 06:40 23.08.2019
3183 Clear 17 1023 77 10000 1.5 300 06:40 23.08.2019
3184 Clear 15 1023 82 10000 0.87 33.837 06:21 23.08.2019
3185 Clear 15 1023 77 10000 1 0 05:43 23.08.2019
3186 Clear 15 1023 77 10000 1 0 05:23 23.08.2019
3187 Clear 16 1023 72 10000 2.1 150 03:36 23.08.2019
3188 Clear 16 1023 64 10000 2.1 150 02:24 23.08.2019
3189 Clear 17 1023 60 10000 1.5 190 01:52 23.08.2019
3190 Clear 17 1023 64 10000 1.5 80 00:46 23.08.2019
3191 Clear 18 1023 56 10000 1 0 00:22 23.08.2019
3192 Clear 18 1023 53 10000 2.1 160 23:50 22.08.2019
3193 Clear 18 1023 53 10000 2.1 160 23:32 22.08.2019
3194 Clear 19 1022 47 10000 2.6 160 22:58 22.08.2019
3195 Clear 19 1022 47 10000 2.6 160 22:40 22.08.2019
3196 Clear 19 1022 44 10000 2.6 160 22:22 22.08.2019
3197 Clear 19 1022 44 10000 2.6 160 21:57 22.08.2019
3198 Clear 17 1022 44 10000 2.6 160 21:39 22.08.2019
3199 Clear 20 1022 41 10000 2.6 180 21:19 22.08.2019
3200 Clear 20 1022 41 10000 2.6 180 20:57 22.08.2019
3201 Clear 20 1021 41 10000 3.6 160 20:38 22.08.2019
3202 Clear 23 1021 36 10000 1 60 20:18 22.08.2019
3203 Clear 18 1021 36 10000 1 60 19:56 22.08.2019
3204 Clear 19 1021 32 10000 3.6 50 19:37 22.08.2019
3205 Clear 20 1021 30 10000 4.1 50 19:19 22.08.2019
3206 Clear 20 1021 30 10000 4.1 50 18:56 22.08.2019
3207 Clear 20 1020 29 10000 4.1 50 18:37 22.08.2019
3208 Clear 27 1020 29 10000 4.6 50 18:18 22.08.2019
3209 Clear 27 1020 27 10000 3.6 60 17:42 22.08.2019
3210 Clear 26 1020 27 10000 3.6 60 17:21 22.08.2019
3211 Clear 26 1020 27 10000 3.6 60 17:21 22.08.2019
3212 Clear 27 1021 25 10000 3.6 70 16:58 22.08.2019
3213 Clear 27 1021 25 10000 3.6 70 16:39 22.08.2019
3214 Clear 27 1021 29 10000 2.6 360 16:20 22.08.2019
3215 Clear 27 1021 29 10000 2.6 360 16:20 22.08.2019
3216 Clear 26 1021 29 10000 2.6 360 15:57 22.08.2019
3217 Clear 26 1021 29 10000 2.6 360 15:57 22.08.2019
3218 Clear 26 1021 29 10000 2.6 360 15:57 22.08.2019
3219 Clear 26 1021 29 10000 2.6 360 15:57 22.08.2019
3220 Clear 27 1021 25 10000 4.1 90 15:38 22.08.2019
3221 Clear 27 1021 25 10000 4.1 90 15:38 22.08.2019
3222 Clear 27 1021 27 10000 5.1 30 15:19 22.08.2019
3223 Clear 26 1021 27 10000 5.1 30 14:56 22.08.2019
3224 Clear 26 1021 30 10000 3.6 10 14:38 22.08.2019
3225 Clear 27 1021 27 10000 3.1 0 14:18 22.08.2019
3226 Clear 28 1022 29 10000 3.1 90 13:42 22.08.2019
3227 Clear 28 1022 29 10000 3.1 90 13:24 22.08.2019
3228 Clear 27 1022 30 10000 3.1 30 12:59 22.08.2019
3229 Clear 27 1022 30 10000 1.5 0 12:39 22.08.2019
3230 Clear 26 1022 32 10000 1 0 12:20 22.08.2019
3231 Clear 26 1022 32 10000 1 0 12:20 22.08.2019
3232 Clear 26 1022 37 10000 1.5 0 11:43 22.08.2019
3233 Clear 26 1023 34 10000 0.5 0 11:22 22.08.2019
3234 Clear 28 1023 36 10000 1.5 290 10:59 22.08.2019
3235 Clear 28 1023 36 10000 1.5 290 10:41 22.08.2019
3236 Clear 28 1023 36 10000 1.5 290 10:41 22.08.2019
3237 Clear 25 1023 36 10000 1.5 290 10:23 22.08.2019
3238 Clear 26 1023 44 10000 2.1 270 10:00 22.08.2019
3239 Clear 21 1023 46 10000 1.5 0 09:39 22.08.2019
3240 Clear 21 1023 46 10000 1.5 0 09:21 22.08.2019
3241 Clear 20 1023 49 10000 0.79 15.926 08:57 22.08.2019
3242 Clear 19 1023 49 10000 0.79 15.926 08:38 22.08.2019
3243 Clear 18 1023 52 10000 0.79 15.926 08:20 22.08.2019
3244 Clear 16 1023 59 10000 0.79 15.926 07:41 22.08.2019
3245 Clear 16 1022 72 10000 0.5 320 07:20 22.08.2019
3246 Clear 15 1022 72 10000 0.5 320 06:55 22.08.2019
3247 Clear 13 1022 76 10000 1.38 12.808 06:24 22.08.2019
3248 Clear 13 1022 77 10000 1.38 12.808 05:58 22.08.2019
3249 Clear 14 1022 77 10000 1.38 12.808 04:38 22.08.2019
3250 Clear 14 1022 67 10000 1.17 16.797 02:51 22.08.2019
3251 Clear 15 1022 67 10000 1.17 16.797 02:33 22.08.2019
3252 Clear 15 1022 72 10000 0.72 28.724 01:25 22.08.2019
3253 Clear 16 1022 63 10000 1.5 100 00:45 22.08.2019
3254 Clear 16 1022 63 10000 1.5 100 00:27 22.08.2019
3255 Clear 18 1021 56 10000 2.1 60 23:54 21.08.2019
3256 Clear 17 1021 49 10000 1 0 23:36 21.08.2019
3257 Clear 17 1021 43 10000 1.5 200 23:18 21.08.2019
3258 Clear 17 1021 43 10000 3.1 200 22:41 21.08.2019
3259 Clear 18 1021 46 10000 3.1 200 22:22 21.08.2019
3260 Clear 17 1021 46 10000 3.1 200 21:59 21.08.2019
3261 Clear 17 1021 41 10000 2.6 180 21:39 21.08.2019
3262 Clear 19 1020 41 10000 2.6 160 21:20 21.08.2019
3263 Clear 19 1020 41 10000 2.6 160 20:59 21.08.2019
3264 Clear 20 1020 36 10000 2.1 130 20:41 21.08.2019
3265 Clear 17 1020 36 10000 2.1 130 20:23 21.08.2019
3266 Clear 18 1019 30 10000 3.1 50 19:56 21.08.2019
3267 Clear 18 1019 30 10000 3.1 50 19:37 21.08.2019
3268 Clear 19 1019 30 10000 4.1 30 19:19 21.08.2019
3269 Clear 22 1019 27 10000 4.6 30 18:43 21.08.2019
3270 Clear 26 1019 27 10000 3.6 40 18:23 21.08.2019
3271 Clear 26 1019 27 10000 3.6 40 18:23 21.08.2019
3272 Clear 26 1019 27 10000 3.6 40 17:54 21.08.2019
3273 Clear 27 1019 25 10000 3.6 30 17:36 21.08.2019
3274 Clear 27 1019 27 10000 3.6 40 17:18 21.08.2019
3275 Clear 26 1019 27 10000 4.1 60 16:42 21.08.2019
3276 Clear 27 1019 27 10000 5.7 40 16:23 21.08.2019
3277 Clear 28 1019 27 10000 5.7 40 15:59 21.08.2019
3278 Clear 26 1020 27 10000 3.6 60 15:40 21.08.2019
3279 Clear 28 1020 28 10000 4.1 150 15:21 21.08.2019
3280 Clear 27 1020 28 10000 4.1 150 14:57 21.08.2019
3281 Clear 25 1020 28 10000 2.6 330 14:39 21.08.2019
3282 Clear 27 1020 28 10000 2.6 0 14:20 21.08.2019
3283 Clear 27 1021 28 10000 2.1 140 13:45 21.08.2019
3284 Clear 30 1021 28 10000 2.1 0 13:23 21.08.2019
3285 Clear 26 1021 28 10000 2.1 0 12:59 21.08.2019
3286 Clear 30 1021 30 10000 4.1 110 12:40 21.08.2019
3287 Clear 26 1021 30 10000 3.6 100 12:21 21.08.2019
3288 Clear 26 1021 30 10000 3.6 100 11:58 21.08.2019
3289 Clear 26 1021 30 10000 3.1 130 11:39 21.08.2019
3290 Clear 26 1021 30 10000 3.1 130 11:39 21.08.2019
3291 Clear 26 1021 30 10000 3.1 130 11:39 21.08.2019
3292 Clear 25 1022 39 10000 1.5 0 11:21 21.08.2019
3293 Clear 27 1022 39 10000 1.5 0 10:56 21.08.2019
3294 Clear 27 1022 41 10000 1.5 0 10:37 21.08.2019
3295 Clear 25 1022 46 10000 0.5 0 10:19 21.08.2019
3296 Clear 20 1022 49 10000 1 0 09:43 21.08.2019
3297 Clear 20 1022 49 10000 1 0 09:24 21.08.2019
3298 Clear 19 1022 56 10000 1 0 08:59 21.08.2019
3299 Clear 18 1023 59 10000 0.5 0 08:41 21.08.2019
3300 Clear 17 1023 63 10000 1 0 08:21 21.08.2019
3301 Clear 16 1022 63 10000 0.5 0 07:40 21.08.2019
3302 Clear 14 1022 72 10000 1.45 116.336 07:21 21.08.2019
3303 Clear 14 1022 71 10000 2.1 340 06:49 21.08.2019
3304 Clear 12 1022 71 10000 1.5 340 06:22 21.08.2019
3305 Clear 12 1022 72 10000 1 70 05:42 21.08.2019
3306 Clear 12 1022 72 10000 1 70 05:23 21.08.2019
3307 Clear 13 1022 63 10000 3.6 130 03:38 21.08.2019
3308 Clear 13 1022 63 10000 3.1 140 01:47 21.08.2019
3309 Clear 14 1022 59 10000 3.1 130 00:46 21.08.2019
3310 Clear 14 1022 59 10000 3.1 120 00:24 21.08.2019
3311 Clear 14 1022 59 10000 3.1 120 23:57 20.08.2019
3312 Clear 15 1022 55 10000 3.6 110 23:38 20.08.2019
3313 Clear 15 1022 52 10000 3.6 110 23:18 20.08.2019
3314 Clear 15 1022 52 10000 3.6 110 23:18 20.08.2019
3315 -273 0 0 0 0 0 22:55 20.08.2019
3316 Clear 16 1022 43 10000 3.6 130 22:36 20.08.2019
3317 Clear 16 1022 46 10000 4.6 110 22:18 20.08.2019
3318 Clear 15 1022 46 10000 4.6 110 21:56 20.08.2019
3319 Clear 15 1022 46 10000 3.6 140 21:37 20.08.2019
3320 Clear 20 1022 38 10000 3.6 140 21:18 20.08.2019
3321 Clear 18 1021 41 10000 3.6 140 20:42 20.08.2019
3322 Clear 20 1021 34 10000 3.1 70 20:24 20.08.2019
3323 Clear 17 1021 34 10000 3.1 70 19:54 20.08.2019
3324 Clear 17 1021 32 10000 3.6 50 19:36 20.08.2019
3325 Clear 18 1020 30 10000 3.6 40 19:18 20.08.2019
3326 Clear 18 1020 30 10000 3.6 40 18:55 20.08.2019
3327 Clear 18 1020 30 10000 3.6 40 18:55 20.08.2019
3328 Clear 22 1020 28 10000 4.1 40 18:36 20.08.2019
3329 Clear 26 1020 27 10000 3.6 40 18:18 20.08.2019
3330 Clear 26 1020 27 10000 4.1 50 17:39 20.08.2019
3331 Clear 26 1020 27 10000 4.1 50 17:20 20.08.2019
3332 Clear 27 1020 27 10000 5.1 50 16:48 20.08.2019
3333 Clear 25 1020 27 10000 3.6 40 16:28 20.08.2019
3334 Clear 27 1020 28 10000 4.6 60 15:59 20.08.2019
3335 Clear 27 1020 28 10000 4.6 90 15:41 20.08.2019
3336 Clear 27 1020 28 10000 4.6 90 15:18 20.08.2019
3337 Clear 27 1020 28 10000 4.6 90 15:18 20.08.2019
3338 Clear 27 1020 28 10000 5.1 90 14:44 20.08.2019
3339 Clear 27 1021 30 10000 4.6 100 14:22 20.08.2019
3340 Clear 30 1021 30 10000 3.6 60 13:59 20.08.2019
3341 Clear 29 1021 30 10000 2.1 0 13:40 20.08.2019
3342 Clear 29 1021 30 10000 2.1 0 13:22 20.08.2019
3343 Clear 29 1021 30 10000 2.1 0 13:22 20.08.2019
3344 Clear 29 1021 32 10000 2.6 0 12:59 20.08.2019
3345 Clear 29 1021 32 10000 2.6 0 12:59 20.08.2019
3346 Clear 29 1021 32 10000 3.6 100 12:40 20.08.2019
3347 Clear 26 1021 32 10000 3.6 100 12:22 20.08.2019
3348 Clear 25 1022 34 10000 3.1 130 11:42 20.08.2019
3349 Clear 25 1022 34 10000 3.1 130 11:22 20.08.2019
3350 Clear 27 1022 39 10000 2.6 110 10:58 20.08.2019
3351 Clear 23 1022 44 10000 1.5 120 10:40 20.08.2019
3352 Clear 23 1022 44 10000 1.5 120 10:22 20.08.2019
3353 Clear 22 1022 46 10000 2.1 110 09:59 20.08.2019
3354 Clear 23 1022 49 10000 2.1 100 09:40 20.08.2019
3355 Clear 20 1022 49 10000 2.1 100 09:21 20.08.2019
3356 Clear 18 1022 59 10000 1.5 130 08:42 20.08.2019
3357 Clear 18 1022 59 10000 1.5 130 08:24 20.08.2019
3358 Clear 17 1022 63 10000 1 0 07:58 20.08.2019
3359 Clear 16 1022 63 10000 1 0 07:39 20.08.2019
3360 Clear 15 1022 63 10000 1 0 07:20 20.08.2019
3361 Clear 15 1022 67 10000 2.1 140 06:44 20.08.2019
3362 Clear 13 1022 67 10000 2.1 140 06:20 20.08.2019
3363 Clear 13 1021 67 10000 2.1 110 05:42 20.08.2019
3364 Clear 14 1021 63 10000 3.1 120 04:26 20.08.2019
3365 Clear 14 1021 72 10000 3.6 120 02:50 20.08.2019
3366 Clear 14 1021 67 10000 2.1 130 01:53 20.08.2019
3367 Clear 15 1021 63 10000 3.1 140 01:21 20.08.2019
3368 Clear 15 1020 59 10000 3.1 110 00:45 20.08.2019
3369 Clear 16 1020 59 10000 3.1 110 00:24 20.08.2019
3370 Clear 16 1020 59 10000 3.1 130 23:44 19.08.2019
3371 Clear 16 1020 59 10000 3.1 130 23:19 19.08.2019
3372 Clear 16 1020 56 10000 2.6 110 22:58 19.08.2019
3373 Clear 17 1020 52 10000 3.1 110 22:40 19.08.2019
3374 Clear 17 1020 52 10000 3.1 110 22:20 19.08.2019
3375 Clear 18 1020 46 10000 1.5 160 21:57 19.08.2019
3376 Clear 16 1020 43 10000 3.1 150 21:38 19.08.2019
3377 Clear 18 1020 43 10000 3.1 150 21:19 19.08.2019
3378 Clear 16 1019 41 10000 2.1 110 20:40 19.08.2019
3379 Clear 16 1019 41 10000 2.1 110 20:21 19.08.2019
3380 Clear 17 1019 34 10000 4.1 60 19:59 19.08.2019
3381 Clear 17 1019 34 10000 4.6 60 19:41 19.08.2019
3382 Clear 20 1019 34 10000 4.6 60 19:19 19.08.2019
3383 Clear 20 1019 34 10000 4.6 60 19:19 19.08.2019
3384 Clear 20 1019 34 10000 4.6 60 19:19 19.08.2019
3385 Clear 20 1019 34 10000 4.6 60 19:19 19.08.2019
3386 Clear 18 1019 30 10000 5.1 60 18:59 19.08.2019
3387 Clear 18 1019 30 10000 5.1 60 18:59 19.08.2019
3388 Clear 19 1019 30 10000 4.1 40 18:39 19.08.2019
3389 Clear 26 1018 28 10000 3.6 40 18:21 19.08.2019
3390 Clear 26 1018 28 10000 3.6 40 17:55 19.08.2019
3391 Clear 26 1018 28 10000 3.6 50 17:36 19.08.2019
3392 Clear 26 1018 28 10000 3.6 50 17:18 19.08.2019
3393 Clear 25 1018 27 10000 2.6 0 16:38 19.08.2019
3394 Clear 25 1019 28 10000 2.6 0 16:20 19.08.2019
3395 Clear 25 1019 28 10000 2.6 0 15:56 19.08.2019
3396 Clear 25 1019 28 10000 2.6 0 15:56 19.08.2019
3397 Clear 24 1019 30 10000 1.5 0 15:38 19.08.2019
3398 Clear 25 1019 28 10000 2.1 0 15:19 19.08.2019
3399 Clear 24 1019 30 10000 2.6 0 14:43 19.08.2019
3400 Clear 24 1019 30 10000 3.6 130 14:23 19.08.2019
3401 Clear 26 1019 30 10000 3.6 130 13:58 19.08.2019
3402 Clear 29 1019 30 10000 3.1 90 13:38 19.08.2019
3403 Clear 29 1019 30 10000 3.1 110 13:20 19.08.2019
3404 Clear 28 1019 30 10000 3.1 110 12:58 19.08.2019
3405 Clear 28 1019 30 10000 2.1 0 12:39 19.08.2019
3406 Clear 25 1020 32 10000 3.6 120 12:19 19.08.2019
3407 Clear 25 1020 36 10000 1.5 0 11:40 19.08.2019
3408 Clear 23 1020 41 10000 1 0 11:21 19.08.2019
3409 Clear 26 1020 41 10000 1 0 10:58 19.08.2019
3410 Clear 25 1020 41 10000 2.1 0 10:37 19.08.2019
3411 Clear 24 1020 46 10000 1.5 0 10:18 19.08.2019
3412 Clear 22 1020 52 10000 1.5 0 09:45 19.08.2019
3413 Clear 20 1020 52 10000 1.5 0 09:24 19.08.2019
3414 Clear 20 1020 52 10000 1.5 0 09:24 19.08.2019
3415 Clear 19 1020 52 10000 1.5 130 08:59 19.08.2019
3416 Clear 17 1020 59 10000 1 0 08:41 19.08.2019
3417 Clear 18 1020 59 10000 1 0 08:41 19.08.2019
3418 Clear 16 1020 63 10000 1.05 136.463 08:20 19.08.2019
3419 Clear 16 1020 67 10000 1.05 136.463 07:49 19.08.2019
3420 Clear 16 1020 67 10000 1.05 136.463 07:31 19.08.2019
3421 Clear 13 1020 76 10000 1 350 06:48 19.08.2019
3422 Clear 11 1020 76 10000 1 350 06:27 19.08.2019
3423 Clear 11 1019 82 10000 1.5 350 05:21 19.08.2019
3424 Clear 12 1019 72 10000 2.1 350 04:27 19.08.2019
3425 Clear 12 1019 72 10000 2.1 350 04:27 19.08.2019
3426 Clear 12 1019 72 10000 2.1 350 04:27 19.08.2019
3427 Clear 12 1019 72 10000 1 130 03:23 19.08.2019
3428 Clear 13 1019 72 10000 1.5 90 02:24 19.08.2019
3429 Clear 13 1019 67 10000 1.5 140 01:34 19.08.2019
3430 Clear 14 1019 67 10000 3.1 110 00:43 19.08.2019
3431 Clear 16 1019 63 10000 2.6 100 00:23 19.08.2019
3432 Clear 17 1019 59 10000 2.1 100 23:42 18.08.2019
3433 Clear 18 1019 49 10000 1.5 180 23:21 18.08.2019
3434 Clear 15 1019 49 10000 1.5 180 22:55 18.08.2019
3435 Clear 16 1019 43 10000 2.6 220 22:37 18.08.2019
3436 Clear 16 1019 43 10000 2.6 220 22:37 18.08.2019
3437 Clear 16 1018 49 10000 3.1 200 22:19 18.08.2019
3438 Clear 14 1018 43 10000 2.6 170 21:55 18.08.2019
3439 Clear 23 1018 43 10000 2.6 170 21:37 18.08.2019
3440 Clear 23 1018 43 10000 2.6 200 21:18 18.08.2019
3441 Clear 24 1018 38 10000 1.5 70 20:42 18.08.2019
3442 Clear 24 1018 38 10000 1.5 70 20:24 18.08.2019
3443 Clear 27 1017 34 10000 2.6 30 19:54 18.08.2019
3444 Clear 27 1017 34 10000 2.6 30 19:54 18.08.2019
3445 Clear 27 1017 34 10000 2.6 30 19:36 18.08.2019
3446 Clear 28 1017 30 10000 3.1 20 19:18 18.08.2019
3447 Clear 28 1017 26 10000 2.1 90 18:41 18.08.2019
3448 Clear 29 1017 26 10000 1 0 18:23 18.08.2019
3449 Clear 27 1017 26 10000 2.1 70 17:56 18.08.2019
3450 Clear 27 1017 26 10000 2.1 70 17:38 18.08.2019
3451 Clear 27 1017 26 10000 3.1 260 17:19 18.08.2019
3452 Clear 27 1017 26 10000 3.1 260 16:55 18.08.2019
3453 Clear 27 1017 25 10000 2.1 0 16:37 18.08.2019
3454 Clear 27 1017 26 10000 2.1 0 16:18 18.08.2019
3455 Clear 28 1018 25 10000 4.1 280 15:40 18.08.2019
3456 Clear 27 1018 24 10000 4.1 240 15:20 18.08.2019
3457 Clear 28 1018 24 10000 4.1 240 14:59 18.08.2019
3458 Clear 28 1018 24 10000 4.1 240 14:59 18.08.2019
3459 Clear 27 1018 24 10000 2.6 0 14:40 18.08.2019
3460 Clear 27 1018 26 10000 2.1 0 14:20 18.08.2019
3461 Clear 27 1018 26 10000 2.1 0 13:57 18.08.2019
3462 Clouds 27 1018 28 10000 3.6 270 13:39 18.08.2019
3463 Clear 26 1018 34 10000 2.1 0 13:20 18.08.2019
3464 Clear 26 1019 34 10000 2.1 0 12:45 18.08.2019
3465 Clear 24 1019 41 10000 2.6 0 12:23 18.08.2019
3466 Clear 24 1019 41 10000 2.6 0 12:23 18.08.2019
3467 Clear 24 1019 41 10000 2.6 0 11:59 18.08.2019
3468 Clouds 24 1019 41 10000 1.5 0 11:40 18.08.2019
3469 Clear 23 1019 43 10000 1.5 290 11:21 18.08.2019
3470 Clear 21 1019 49 10000 1 0 10:41 18.08.2019
3471 Clear 20 1019 52 10000 2.1 280 10:22 18.08.2019
3472 Clear 20 1019 52 10000 2.1 280 09:55 18.08.2019
3473 Clear 18 1019 55 10000 1.5 0 09:36 18.08.2019
3474 Clear 18 1019 59 10000 1 0 09:18 18.08.2019
3475 Clear 16 1019 63 10000 1 0 08:42 18.08.2019
3476 Clear 16 1019 63 10000 1 0 08:42 18.08.2019
3477 Clear 14 1019 71 10000 1 0 08:24 18.08.2019
3478 Clear 12 1019 81 10000 1.5 90 07:49 18.08.2019
3479 Clear 12 1019 81 10000 1.5 90 07:29 18.08.2019
3480 Clear 11 1019 81 10000 2.1 110 05:50 18.08.2019
3481 Clear 11 1019 81 10000 2.1 110 04:55 18.08.2019
3482 Clear 11 1019 87 10000 2.6 110 03:43 18.08.2019
3483 Clear 12 1019 81 10000 2.1 150 02:48 18.08.2019
3484 Clear 12 1019 81 10000 2.1 150 02:25 18.08.2019
3485 Clear 13 1019 76 10000 1.5 110 01:47 18.08.2019
3486 Clear 13 1019 76 10000 1 100 01:20 18.08.2019
3487 Clear 14 1019 71 10000 1.5 110 00:39 18.08.2019
3488 Clear 16 1018 63 10000 2.6 280 00:19 18.08.2019
3489 Clear 16 1018 63 10000 2.6 280 23:57 17.08.2019
3490 Clear 15 1018 72 10000 1.14 333.592 23:37 17.08.2019
3491 Clear 17 1018 59 10000 1.5 10 23:18 17.08.2019
3492 Clear 17 1018 59 10000 1.5 10 23:18 17.08.2019
3493 Clear 17 1018 59 10000 1.5 10 22:56 17.08.2019
3494 Clear 17 1018 55 10000 0.5 0 22:37 17.08.2019
3495 Clear 19 1018 48 10000 2.1 280 22:19 17.08.2019
3496 Clear 18 1018 48 10000 2.1 290 21:41 17.08.2019
3497 Clear 18 1018 48 10000 2.1 290 21:23 17.08.2019
3498 Clear 21 1017 43 10000 2.1 330 20:41 17.08.2019
3499 Clear 8 1017 37 10000 2.1 340 20:21 17.08.2019
3500 Clear 9 1017 37 10000 2.1 340 19:59 17.08.2019
3501 Clear 11 1017 35 10000 2.6 340 19:40 17.08.2019
3502 Clear 13 1017 36 10000 2.6 330 19:21 17.08.2019
3503 Clear 18 1016 33 10000 3.6 320 18:41 17.08.2019
3504 Clear 24 1016 36 10000 3.6 330 18:20 17.08.2019
3505 Clear 24 1016 36 10000 3.6 330 17:59 17.08.2019
3506 Clear 24 1016 33 10000 3.6 300 17:41 17.08.2019
3507 Clear 24 1016 31 10000 3.6 310 17:21 17.08.2019
3508 Clear 24 1016 31 10000 3.6 310 16:55 17.08.2019
3509 Clouds 24 1016 33 10000 2.6 300 16:36 17.08.2019
3510 Clear 24 1016 33 10000 3.6 310 16:18 17.08.2019
3511 Clouds 24 1016 36 10000 2.1 0 15:41 17.08.2019
3512 Clouds 24 1017 33 10000 2.6 0 15:21 17.08.2019
3513 Clouds 24 1017 33 10000 2.6 0 14:56 17.08.2019
3514 Clear 24 1017 38 10000 3.1 0 14:36 17.08.2019
3515 Clear 23 1017 40 10000 2.1 0 14:18 17.08.2019
3516 Clouds 22 1018 43 10000 2.6 360 13:42 17.08.2019
3517 Clouds 22 1018 46 10000 4.1 350 13:19 17.08.2019
3518 Clouds 22 1018 46 10000 4.1 350 13:19 17.08.2019
3519 Clouds 22 1018 43 10000 2.6 10 12:42 17.08.2019
3520 Clouds 22 1018 43 10000 2.6 340 12:19 17.08.2019
3521 Clouds 24 1018 43 10000 2.6 340 11:57 17.08.2019
3522 Clear 24 1018 43 10000 2.6 0 11:36 17.08.2019
3523 Clear 23 1018 46 10000 1.5 0 11:18 17.08.2019
3524 Clear 22 1018 49 10000 2.6 290 10:39 17.08.2019
3525 Clear 21 1018 52 10000 3.1 300 10:19 17.08.2019
3526 Clear 20 1018 52 10000 4.1 290 09:50 17.08.2019
3527 Clear 20 1018 52 10000 4.1 290 09:31 17.08.2019
3528 Clear 18 1018 59 10000 2.6 310 08:54 17.08.2019
3529 Clear 18 1018 59 10000 2.6 310 08:26 17.08.2019
3530 Clear 17 1018 67 10000 2.1 310 07:53 17.08.2019
3531 Clear 15 1018 71 10000 2.1 340 07:22 17.08.2019
3532 Clear 15 1018 71 10000 2.1 340 07:22 17.08.2019
3533 Clear 15 1018 71 10000 2.1 340 06:55 17.08.2019
3534 Clear 10 1017 76 10000 1.5 120 05:55 17.08.2019
3535 Clear 10 1017 59 10000 1.5 80 04:30 17.08.2019
3536 Clear 11 1017 59 10000 3.6 280 03:35 17.08.2019
3537 Clouds 15 1017 55 10000 3.6 280 01:48 17.08.2019
3538 Clouds 16 1017 55 10000 3.6 280 01:29 17.08.2019
3539 Clouds 16 1017 55 10000 3.6 280 00:55 17.08.2019
3540 Clouds 16 1017 55 10000 3.1 280 00:31 17.08.2019
3541 Clouds 17 1017 55 10000 3.1 270 23:52 16.08.2019
3542 Clouds 16 1017 55 10000 3.1 270 23:27 16.08.2019
3543 Clouds 13 1017 52 10000 3.6 280 22:57 16.08.2019
3544 Clouds 13 1017 52 10000 4.1 280 22:39 16.08.2019
3545 Clouds 13 1017 52 10000 3.1 280 22:19 16.08.2019
3546 Clouds 13 1017 52 10000 3.1 280 22:19 16.08.2019
3547 Clouds 10 1017 52 10000 4.1 280 21:41 16.08.2019
3548 Clouds 19 1016 49 10000 4.6 280 21:20 16.08.2019
3549 Clouds 19 1016 49 10000 4.6 280 20:56 16.08.2019
3550 Clouds 20 1016 43 10000 5.1 290 20:38 16.08.2019
3551 Clouds 20 1016 43 10000 5.1 290 20:18 16.08.2019
3552 Clear 13 1015 43 10000 6.2 290 19:43 16.08.2019
3553 Clear 16 1015 43 10000 6.2 290 19:23 16.08.2019
3554 Clear 14 1015 36 10000 5.7 290 18:44 16.08.2019
3555 Clear 24 1015 36 10000 5.7 290 18:26 16.08.2019
3556 Clear 23 1015 33 10000 5.1 290 17:59 16.08.2019
3557 Clear 24 1015 31 10000 5.7 290 17:41 16.08.2019
3558 Clear 24 1015 31 10000 5.7 290 17:41 16.08.2019
3559 Clear 24 1015 31 10000 5.7 290 17:23 16.08.2019
3560 Clear 24 1015 31 10000 5.7 290 17:23 16.08.2019
3561 Clear 23 1015 27 10000 6.2 290 16:42 16.08.2019
3562 Clear 24 1015 25 10000 6.7 290 16:22 16.08.2019
3563 Clear 24 1015 25 10000 6.7 290 15:59 16.08.2019
3564 Clear 23 1015 29 10000 6.2 290 15:40 16.08.2019
3565 Clear 25 1015 27 10000 6.2 290 15:21 16.08.2019
3566 Clear 25 1015 27 10000 6.2 290 14:58 16.08.2019
3567 Clear 23 1015 31 10000 5.7 300 14:38 16.08.2019
3568 Clear 25 1015 31 10000 5.7 300 14:19 16.08.2019
3569 Clear 24 1015 33 10000 6.2 300 13:41 16.08.2019
3570 Clear 24 1015 33 10000 6.2 300 13:41 16.08.2019
3571 Clear 24 1015 33 10000 6.2 300 13:23 16.08.2019
3572 Clear 24 1016 28 10000 7.2 300 12:56 16.08.2019
3573 Clear 23 1016 28 10000 7.2 300 12:37 16.08.2019
3574 Clear 23 1016 28 10000 7.2 290 12:19 16.08.2019
3575 Clear 23 1016 28 10000 7.2 290 12:19 16.08.2019
3576 Clear 23 1016 35 10000 6.2 300 11:42 16.08.2019
3577 Clear 23 1016 40 10000 5.7 290 11:24 16.08.2019
3578 Clear 23 1016 35 10000 6.2 300 11:24 16.08.2019
3579 Clear 22 1016 45 10000 4.1 300 10:43 16.08.2019
3580 Clear 22 1016 45 10000 4.1 300 10:25 16.08.2019
3581 Clear 20 1016 55 10000 4.6 300 09:56 16.08.2019
3582 Clear 20 1016 55 10000 4.6 300 09:37 16.08.2019
3583 Clear 20 1016 55 10000 4.6 300 09:37 16.08.2019
3584 Clear 19 1016 59 10000 4.1 300 09:18 16.08.2019
3585 Clear 15 1016 63 10000 3.1 310 08:41 16.08.2019
3586 Clouds 17 1016 67 10000 2.1 320 08:21 16.08.2019
3587 Clouds 14 1016 76 10000 1 0 07:53 16.08.2019
3588 Clouds 15 1016 76 10000 1 0 07:32 16.08.2019
3589 Clouds 13 1016 81 8000 0.5 0 06:57 16.08.2019
3590 Clouds 11 1016 87 10000 3.1 330 06:21 16.08.2019
3591 Clear 12 1016 81 10000 2.6 360 05:40 16.08.2019
3592 Clear 10 1016 76 10000 2.6 350 04:27 16.08.2019
3593 Clouds 14 1016 67 10000 4.1 280 02:28 16.08.2019
3594 Clouds 13 1016 63 10000 3.6 280 01:30 16.08.2019
3595 Clouds 13 1016 63 10000 4.1 280 00:57 16.08.2019
3596 Clouds 14 1016 59 10000 4.6 280 00:39 16.08.2019
3597 Clouds 15 1016 59 10000 5.1 280 00:20 16.08.2019
3598 Clouds 15 1016 63 10000 5.7 280 23:42 15.08.2019
3599 Clouds 16 1016 63 10000 5.7 280 23:21 15.08.2019
3600 Clouds 13 1016 63 10000 5.7 280 22:57 15.08.2019
3601 Clouds 15 1016 63 10000 5.7 280 22:57 15.08.2019
3602 Clouds 14 1016 59 10000 6.2 290 22:39 15.08.2019
3603 Clouds 14 1016 59 10000 6.2 290 22:20 15.08.2019
3604 Clouds 14 1015 59 10000 5.7 280 21:40 15.08.2019
3605 Clouds 16 1015 63 10000 5.1 280 21:20 15.08.2019
3606 Clouds 16 1015 63 10000 5.1 280 20:59 15.08.2019
3607 Clouds 16 1014 60 10000 5.7 290 20:41 15.08.2019
3608 Clouds 17 1014 60 10000 6.2 290 20:21 15.08.2019
3609 Clouds 17 1014 52 10000 5.7 290 19:57 15.08.2019
3610 Clouds 17 1014 52 10000 5.7 290 19:38 15.08.2019
3611 Clouds 18 1014 52 10000 6.7 280 19:19 15.08.2019
3612 Clouds 16 1013 53 10000 6.7 290 18:46 15.08.2019
3613 Clouds 19 1013 49 10000 6.7 290 18:22 15.08.2019
3614 Clouds 22 1013 49 10000 6.7 290 17:56 15.08.2019
3615 Clouds 20 1013 49 10000 6.7 280 17:37 15.08.2019
3616 Clouds 23 1013 47 10000 6.2 270 17:19 15.08.2019
3617 Clouds 20 1013 49 10000 6.2 270 16:48 15.08.2019
3618 Clouds 23 1013 49 10000 6.2 270 16:27 15.08.2019
3619 Clouds 23 1013 49 10000 5.1 300 15:57 15.08.2019
3620 Clouds 22 1014 53 10000 7.2 290 15:38 15.08.2019
3621 Clouds 23 1014 53 10000 6.7 280 15:19 15.08.2019
3622 Clouds 23 1014 53 10000 6.7 300 14:42 15.08.2019
3623 Clouds 23 1014 53 10000 6.7 300 14:23 15.08.2019
3624 Clouds 23 1014 53 10000 7.7 290 13:58 15.08.2019
3625 Clouds 23 1014 53 10000 7.2 290 13:40 15.08.2019
3626 Clouds 22 1015 56 10000 7.2 290 13:20 15.08.2019
3627 Clouds 22 1015 56 10000 7.2 290 12:57 15.08.2019
3628 Clouds 22 1015 56 10000 7.2 290 12:39 15.08.2019
3629 Clouds 21 1015 60 10000 7.2 290 12:19 15.08.2019
3630 Clouds 22 1015 60 10000 7.2 290 11:57 15.08.2019
3631 Clouds 21 1015 60 10000 6.7 280 11:36 15.08.2019
3632 Clouds 21 1015 60 10000 7.2 290 11:18 15.08.2019
3633 Clouds 20 1015 63 10000 6.7 290 10:40 15.08.2019
3634 Clouds 19 1015 68 10000 6.7 290 10:20 15.08.2019
3635 Clouds 19 1015 68 10000 6.7 290 09:58 15.08.2019
3636 Clouds 19 1015 68 10000 6.7 280 09:39 15.08.2019
3637 Clouds 16 1015 72 10000 6.7 290 09:21 15.08.2019
3638 Clouds 16 1015 72 10000 6.7 280 08:38 15.08.2019
3639 Clouds 16 1015 82 10000 7.2 280 08:19 15.08.2019
3640 Clouds 17 1015 82 10000 7.2 280 07:46 15.08.2019
3641 Clouds 14 1015 82 10000 7.2 280 07:28 15.08.2019
3642 Clouds 14 1014 82 10000 6.2 280 06:56 15.08.2019
3643 Clouds 14 1014 82 10000 6.2 280 06:34 15.08.2019
3644 Clouds 14 1014 82 10000 6.2 280 05:54 15.08.2019
3645 Clouds 15 1014 82 10000 6.2 280 05:29 15.08.2019
3646 Clouds 15 1014 82 10000 6.7 280 04:39 15.08.2019
3647 Clouds 15 1014 88 10000 6.7 280 03:48 15.08.2019
3648 Clouds 15 1014 88 10000 7.7 280 02:46 15.08.2019
3649 Clouds 16 1013 88 10000 6.7 280 01:54 15.08.2019
3650 Clouds 15 1013 88 10000 6.2 280 01:36 15.08.2019
3651 Thunderstorm 16 1013 88 10000 4.1 210 00:41 15.08.2019
3652 Thunderstorm 16 1012 93 10000 1.5 330 00:22 15.08.2019
3653 Thunderstorm 16 1012 93 10000 1.5 330 23:58 14.08.2019
3654 Rain 18 1014 72 10000 8.2 260 23:38 14.08.2019
3655 Rain 18 1014 72 10000 8.2 260 23:38 14.08.2019
3656 Rain 17 1014 64 10000 8.2 260 23:19 14.08.2019
3657 Thunderstorm 16 1014 64 10000 8.2 260 22:57 14.08.2019
3658 Clouds 15 1014 64 10000 6.2 280 22:39 14.08.2019
3659 Clouds 15 1014 64 10000 8.2 300 22:20 14.08.2019
3660 Clouds 15 1014 64 10000 8.2 300 21:55 14.08.2019
3661 Clouds 15 1013 64 10000 8.7 290 21:55 14.08.2019
3662 Clouds 15 1013 64 10000 8.7 290 21:55 14.08.2019
3663 Clouds 16 1013 64 10000 8.7 290 21:37 14.08.2019
3664 Clouds 16 1013 64 10000 8.7 290 21:37 14.08.2019
3665 Clouds 19 1011 60 10000 5.7 280 21:18 14.08.2019
3666 Clouds 19 1011 60 10000 6.7 280 20:42 14.08.2019
3667 Clouds 22 1011 57 10000 8.7 270 20:21 14.08.2019
3668 Clouds 22 1011 57 10000 8.7 270 19:56 14.08.2019
3669 Clouds 25 1011 57 10000 8.7 270 19:37 14.08.2019
3670 Clear 28 1010 34 10000 4.6 360 19:19 14.08.2019
3671 Clear 30 1010 30 10000 4.1 20 18:56 14.08.2019
3672 Clear 30 1010 30 10000 4.1 20 18:38 14.08.2019
3673 Clear 31 1009 29 10000 4.6 30 18:19 14.08.2019
3674 Clear 32 1009 27 10000 4.6 40 17:56 14.08.2019
3675 Clear 32 1009 27 10000 4.6 40 17:36 14.08.2019
3676 Clouds 32 1009 27 10000 4.1 30 17:18 14.08.2019
3677 Clouds 32 1009 29 10000 3.6 20 16:41 14.08.2019
3678 Clear 34 1009 26 10000 2.6 350 16:20 14.08.2019
3679 Clear 34 1009 21 10000 1.5 0 15:45 14.08.2019
3680 Clear 34 1009 21 10000 1.5 0 15:24 14.08.2019
3681 Clear 33 1009 17 10000 2.6 340 14:59 14.08.2019
3682 Clear 33 1010 17 10000 1 0 14:39 14.08.2019
3683 Clear 33 1010 19 10000 2.1 120 14:19 14.08.2019
3684 Clear 33 1010 19 10000 2.1 120 14:19 14.08.2019
3685 Clear 31 1010 27 10000 3.1 0 13:55 14.08.2019
3686 Clear 31 1010 27 10000 3.1 0 13:37 14.08.2019
3687 Clear 30 1010 33 10000 2.1 0 13:19 14.08.2019
3688 Clear 29 1011 37 10000 2.1 0 12:55 14.08.2019
3689 Clear 29 1011 37 10000 2.1 0 12:36 14.08.2019
3690 Clear 29 1011 37 10000 2.1 0 12:18 14.08.2019
3691 Clear 27 1011 39 10000 2.1 120 11:45 14.08.2019
3692 Clear 26 1011 39 10000 2.6 110 11:23 14.08.2019
3693 Clear 25 1012 44 10000 2.1 100 10:54 14.08.2019
3694 Clear 25 1012 44 10000 2.1 100 10:36 14.08.2019
3695 Clear 24 1012 47 10000 2.1 70 10:18 14.08.2019
3696 Clear 23 1012 49 10000 1.5 0 09:41 14.08.2019
3697 Clear 22 1012 49 10000 1.5 120 09:20 14.08.2019
3698 Clear 21 1013 52 10000 0.5 0 08:43 14.08.2019
3699 Clear 21 1013 52 10000 0.5 0 08:43 14.08.2019
3700 Clear 20 1013 60 10000 1.5 140 08:25 14.08.2019
3701 Clear 20 1013 60 10000 1.5 140 07:56 14.08.2019
3702 Clear 19 1013 59 10000 1.5 0 07:35 14.08.2019
3703 Clear 17 1013 67 10000 1 120 06:50 14.08.2019
3704 Clear 17 1013 67 10000 2.1 150 06:25 14.08.2019
3705 Clear 16 1013 72 10000 1.5 160 05:32 14.08.2019
3706 Clear 17 1013 67 10000 3.1 130 03:41 14.08.2019
3707 Clear 19 1014 59 10000 3.1 140 02:37 14.08.2019
3708 Clear 19 1014 59 10000 3.1 130 01:57 14.08.2019
3709 Clear 19 1014 59 10000 3.1 130 01:30 14.08.2019
3710 Clear 22 1014 49 10000 5.7 90 00:25 14.08.2019
3711 Clear 18 1014 49 10000 6.2 90 23:43 13.08.2019
3712 Clear 18 1014 49 10000 6.2 90 23:19 13.08.2019
3713 Clear 18 1014 52 10000 3.6 110 22:56 13.08.2019
3714 Clear 18 1014 52 10000 3.6 110 22:56 13.08.2019
3715 Clear 18 1014 52 10000 3.6 110 22:38 13.08.2019
3716 Clear 18 1014 49 10000 3.1 120 22:19 13.08.2019
3717 Clear 18 1014 49 10000 3.1 120 21:54 13.08.2019
3718 Clear 19 1014 41 10000 3.1 130 21:36 13.08.2019
3719 Clear 21 1013 34 10000 3.6 110 21:18 13.08.2019
3720 Clear 20 1013 34 10000 3.6 120 20:42 13.08.2019
3721 Clear 21 1013 32 10000 4.1 120 20:19 13.08.2019
3722 Clear 20 1013 32 10000 4.1 120 19:56 13.08.2019
3723 Clear 20 1013 30 10000 4.6 110 19:37 13.08.2019
3724 Clear 21 1013 27 10000 5.7 130 19:19 13.08.2019
3725 Clear 21 1013 27 10000 4.6 140 18:41 13.08.2019
3726 Clear 31 1013 25 10000 4.6 140 18:22 13.08.2019
3727 Clear 31 1013 26 10000 5.1 130 17:44 13.08.2019
3728 Clear 31 1013 26 10000 5.1 130 17:25 13.08.2019
3729 Clear 27 1013 24 10000 5.7 140 16:59 13.08.2019
3730 Clear 27 1013 24 10000 5.7 140 16:59 13.08.2019
3731 Clear 27 1013 24 10000 6.2 130 16:40 13.08.2019
3732 Clear 27 1013 26 10000 6.2 110 16:21 13.08.2019
3733 Clear 27 1013 26 10000 6.2 110 15:59 13.08.2019
3734 Clear 27 1013 24 10000 6.7 110 15:38 13.08.2019
3735 Clear 32 1013 26 10000 6.7 100 15:19 13.08.2019
3736 Clear 32 1014 27 10000 6.2 100 14:43 13.08.2019
3737 Clear 31 1014 31 10000 6.7 110 14:20 13.08.2019
3738 Clear 31 1014 31 10000 6.7 110 13:58 13.08.2019
3739 Clear 31 1014 31 10000 6.7 110 13:58 13.08.2019
3740 Clear 30 1014 33 10000 5.7 100 13:39 13.08.2019
3741 Clear 30 1015 35 10000 6.7 100 13:18 13.08.2019
3742 Clear 30 1015 35 10000 6.7 100 12:56 13.08.2019
3743 Clear 30 1015 35 10000 5.7 120 12:38 13.08.2019
3744 Clear 26 1015 35 10000 6.2 130 12:18 13.08.2019
3745 Clear 27 1016 34 10000 6.2 110 11:42 13.08.2019
3746 Clear 26 1016 34 10000 7.7 110 11:22 13.08.2019
3747 Clear 26 1016 34 10000 7.7 110 10:57 13.08.2019
3748 Clear 28 1016 34 10000 8.2 110 10:38 13.08.2019
3749 Clear 25 1016 36 10000 7.2 100 10:19 13.08.2019
3750 Clear 26 1016 39 10000 6.7 100 09:45 13.08.2019
3751 Clear 22 1016 39 10000 6.7 100 09:24 13.08.2019
3752 -273 0 0 0 0 0 09:24 13.08.2019
3753 Clear 22 1016 39 10000 6.7 100 09:24 13.08.2019
3754 Clear 22 1017 47 10000 3.1 140 08:57 13.08.2019
3755 Clear 21 1017 53 10000 4.6 100 08:39 13.08.2019
3756 Clear 20 1017 52 10000 3.6 120 08:20 13.08.2019
3757 Clear 19 1017 56 10000 3.6 110 07:42 13.08.2019
3758 Clear 18 1017 63 10000 3.6 120 07:21 13.08.2019
3759 Clear 17 1017 67 10000 3.6 120 06:43 13.08.2019
3760 Clear 17 1017 59 10000 4.6 120 05:47 13.08.2019
3761 Clear 17 1017 59 10000 3.6 120 04:24 13.08.2019
3762 Clear 18 1017 52 10000 5.1 120 02:22 13.08.2019
3763 Clear 18 1018 56 10000 4.6 120 01:26 13.08.2019
3764 Clear 18 1018 56 10000 5.1 110 00:47 13.08.2019
3765 Clear 19 1018 53 10000 6.2 100 00:19 13.08.2019
3766 Clear 18 1018 49 10000 5.1 110 23:43 12.08.2019
3767 Clear 19 1017 49 10000 5.1 110 23:21 12.08.2019
3768 Clear 18 1017 49 10000 5.1 110 22:40 12.08.2019
3769 Clear 19 1017 49 10000 4.1 110 22:20 12.08.2019
3770 Clear 19 1017 49 10000 4.1 110 21:57 12.08.2019
3771 Clear 19 1017 44 10000 4.6 110 21:38 12.08.2019
3772 Clear 20 1016 39 10000 5.1 120 21:19 12.08.2019
3773 Clear 21 1016 39 10000 5.1 120 20:58 12.08.2019
3774 Clear 21 1016 39 10000 5.1 120 20:58 12.08.2019
3775 Clear 20 1016 36 10000 5.7 110 20:39 12.08.2019
3776 Clear 20 1016 34 10000 4.6 120 20:20 12.08.2019
3777 Clear 21 1015 28 10000 5.7 140 19:56 12.08.2019
3778 Clear 21 1015 28 10000 5.7 140 19:37 12.08.2019
3779 Clear 22 1015 24 10000 5.1 140 19:19 12.08.2019
3780 Clear 22 1015 24 10000 5.1 140 18:55 12.08.2019
3781 Clear 22 1015 24 10000 7.2 130 18:37 12.08.2019
3782 Clear 31 1015 22 10000 7.2 130 18:19 12.08.2019
3783 Clear 29 1016 22 10000 7.7 120 17:47 12.08.2019
3784 Clear 27 1016 22 10000 7.7 120 17:28 12.08.2019
3785 Clear 27 1016 21 10000 8.2 120 16:57 12.08.2019
3786 Clear 28 1016 21 10000 7.7 110 16:39 12.08.2019
3787 Clear 28 1016 21 10000 7.2 110 16:20 12.08.2019
3788 Clear 28 1016 21 10000 7.7 100 15:58 12.08.2019
3789 Clear 28 1016 21 10000 7.7 100 15:39 12.08.2019
3790 -273 0 0 0 0 0 15:39 12.08.2019
3791 Clear 30 1017 21 10000 7.2 100 15:20 12.08.2019
3792 Clear 32 1017 22 10000 7.7 100 14:55 12.08.2019
3793 Clear 29 1017 22 10000 7.7 100 14:36 12.08.2019
3794 Clear 32 1017 24 10000 7.2 100 14:18 12.08.2019
3795 Clear 32 1017 24 10000 7.2 100 14:18 12.08.2019
3796 Clear 32 1018 24 10000 7.2 100 13:42 12.08.2019
3797 Clear 32 1018 25 10000 6.7 100 13:23 12.08.2019
3798 Clear 31 1018 31 10000 6.2 110 12:44 12.08.2019
3799 Clear 25 1018 33 10000 5.1 90 12:22 12.08.2019
3800 Clear 26 1018 33 10000 5.1 90 11:56 12.08.2019
3801 Clear 28 1019 33 10000 5.7 90 11:38 12.08.2019
3802 Clear 27 1019 32 10000 5.1 100 11:19 12.08.2019
3803 Clear 28 1019 34 10000 4.1 110 10:40 12.08.2019
3804 Clear 28 1019 34 10000 4.1 110 10:40 12.08.2019
3805 Clear 26 1019 39 10000 4.6 120 10:22 12.08.2019
3806 Clear 27 1019 39 10000 4.6 120 09:56 12.08.2019
3807 Clear 26 1019 38 10000 5.1 110 09:37 12.08.2019
3808 Clear 26 1019 38 10000 5.1 110 09:37 12.08.2019
3809 Clear 23 1019 41 10000 5.7 110 09:18 12.08.2019
3810 Clear 21 1019 43 10000 6.7 100 08:42 12.08.2019
3811 Clear 21 1019 43 10000 6.7 100 08:24 12.08.2019
3812 Clear 21 1019 46 10000 5.1 110 07:56 12.08.2019
3813 Clear 21 1019 46 10000 5.1 110 07:36 12.08.2019
3814 Clear 18 1019 55 10000 4.6 110 06:58 12.08.2019
3815 Clear 17 1019 52 10000 4.1 110 06:22 12.08.2019
3816 Clear 17 1019 55 10000 5.1 100 04:31 12.08.2019
3817 Clear 19 1019 49 10000 4.6 120 02:43 12.08.2019
3818 Clear 19 1019 52 10000 5.7 100 01:48 12.08.2019
3819 Clear 19 1019 53 10000 5.7 100 01:19 12.08.2019
3820 Clear 19 1019 53 10000 5.7 100 01:19 12.08.2019
3821 Clear 19 1019 53 10000 5.7 100 00:55 12.08.2019
3822 Clear 19 1019 53 10000 6.2 90 00:37 12.08.2019
3823 Clear 20 1019 68 10000 4.1 120 00:18 12.08.2019
3824 Clear 19 1019 64 10000 3.1 130 23:40 11.08.2019
3825 Clear 19 1019 60 10000 3.6 130 23:20 11.08.2019
3826 Clear 20 1019 60 10000 3.6 130 22:57 11.08.2019
3827 Clear 20 1018 57 10000 3.6 130 22:38 11.08.2019
3828 Clear 21 1018 57 10000 2.6 120 22:18 11.08.2019
3829 Clear 21 1018 57 10000 2.6 120 21:56 11.08.2019
3830 Clear 22 1018 54 10000 3.1 120 21:38 11.08.2019
3831 Clear 23 1018 47 10000 3.6 80 21:19 11.08.2019
3832 Clear 23 1018 47 10000 3.1 100 20:44 11.08.2019
3833 Clear 23 1018 47 10000 3.1 100 20:23 11.08.2019
3834 Clear 22 1017 39 10000 3.1 60 19:56 11.08.2019
3835 Clear 24 1017 38 10000 4.1 50 19:37 11.08.2019
3836 Clear 26 1017 33 10000 4.6 50 19:18 11.08.2019
3837 Clear 24 1017 35 10000 4.6 50 18:40 11.08.2019
3838 Clear 28 1017 33 10000 4.1 40 18:20 11.08.2019
3839 Clear 28 1017 33 10000 4.1 40 17:54 11.08.2019
3840 Clear 28 1017 33 10000 4.1 50 17:36 11.08.2019
3841 Clear 29 1017 31 10000 3.6 80 17:18 11.08.2019
3842 Clear 28 1017 36 10000 2.6 0 16:41 11.08.2019
3843 Clear 29 1017 33 10000 6.2 100 16:22 11.08.2019
3844 Clear 28 1017 33 10000 6.2 100 15:59 11.08.2019
3845 Clear 28 1018 33 10000 3.1 140 15:41 11.08.2019
3846 Clear 32 1018 35 10000 4.1 120 15:22 11.08.2019
3847 Clear 32 1018 35 10000 4.1 120 14:55 11.08.2019
3848 Clear 32 1018 35 10000 3.6 120 14:37 11.08.2019
3849 Clear 32 1018 38 10000 3.1 120 14:19 11.08.2019
3850 Clear 32 1018 38 10000 3.1 120 14:19 11.08.2019
3851 Clear 32 1019 38 10000 4.1 110 13:43 11.08.2019
3852 Clear 31 1019 40 10000 4.6 120 13:23 11.08.2019
3853 Clear 31 1019 42 10000 4.1 110 12:44 11.08.2019
3854 Clear 28 1019 42 10000 4.1 90 12:22 11.08.2019
3855 Clear 30 1019 45 10000 3.6 100 11:41 11.08.2019
3856 Clear 27 1019 48 10000 4.1 90 11:23 11.08.2019
3857 Clear 29 1019 48 10000 4.1 90 10:57 11.08.2019
3858 Clear 29 1019 47 10000 4.1 90 10:39 11.08.2019
3859 Clear 28 1020 50 10000 5.1 90 10:21 11.08.2019
3860 Clear 26 1020 47 10000 5.7 100 09:55 11.08.2019
3861 Clear 26 1020 47 10000 5.7 100 09:37 11.08.2019
3862 Clear 24 1020 53 10000 5.1 100 09:18 11.08.2019
3863 Clear 22 1020 57 10000 4.1 110 08:41 11.08.2019
3864 Clear 22 1020 57 10000 4.1 110 08:23 11.08.2019
3865 Clear 20 1020 72 10000 2.6 120 07:47 11.08.2019
3866 Clear 19 1019 77 10000 3.1 120 07:20 11.08.2019
3867 Clear 17 1019 72 10000 3.6 120 06:38 11.08.2019
3868 Clear 17 1019 72 10000 3.1 110 05:34 11.08.2019
3869 Clear 17 1018 72 10000 4.6 90 02:54 11.08.2019
3870 Clear 17 1018 72 10000 3.1 100 02:26 11.08.2019
3871 Clear 17 1018 77 10000 2.6 90 01:35 11.08.2019
3872 Clear 17 1018 77 10000 3.1 120 00:56 11.08.2019
3873 Clear 17 1018 77 10000 2.6 100 00:36 11.08.2019
3874 Clear 17 1018 77 10000 2.6 100 00:36 11.08.2019
3875 Clear 18 1018 73 10000 2.1 80 00:18 11.08.2019
3876 Clear 18 1018 73 10000 2.6 80 23:39 10.08.2019
3877 Clear 19 1018 64 10000 2.1 170 23:20 10.08.2019
3878 Clear 19 1019 64 10000 2.6 0 22:42 10.08.2019
3879 Clear 19 1019 64 10000 2.6 0 22:23 10.08.2019
3880 Clear 19 1018 61 10000 1.5 180 21:57 10.08.2019
3881 Clear 19 1018 54 10000 1.33 52.25 21:36 10.08.2019
3882 Clear 21 1018 48 10000 2.1 140 21:18 10.08.2019
3883 Clear 21 1017 51 10000 1.5 100 20:42 10.08.2019
3884 Clear 20 1017 45 10000 2.6 60 20:21 10.08.2019
3885 Clear 20 1017 45 10000 2.6 60 19:57 10.08.2019
3886 Clear 21 1017 42 10000 4.6 60 19:37 10.08.2019
3887 Clear 21 1016 40 10000 4.6 60 19:19 10.08.2019
3888 Clear 22 1016 38 10000 3.6 50 18:39 10.08.2019
3889 Clear 22 1016 38 10000 3.6 50 18:39 10.08.2019
3890 Clear 29 1016 38 10000 3.6 50 18:21 10.08.2019
3891 Clear 28 1016 33 10000 2.6 90 17:44 10.08.2019
3892 Clear 28 1016 33 10000 3.6 80 17:24 10.08.2019
3893 Clouds 29 1016 32 10000 3.1 110 16:47 10.08.2019
3894 Clouds 29 1016 32 10000 3.1 110 16:28 10.08.2019
3895 Clouds 28 1016 33 10000 5.1 110 15:54 10.08.2019
3896 Clouds 28 1017 33 10000 3.1 110 15:25 10.08.2019
3897 Clouds 28 1017 31 10000 2.6 0 14:45 10.08.2019
3898 Clouds 28 1017 33 10000 2.6 0 14:22 10.08.2019
3899 Clouds 33 1017 31 10000 2.1 300 13:42 10.08.2019
3900 Clouds 32 1017 33 10000 1 0 13:21 10.08.2019
3901 Clouds 32 1017 33 10000 1 0 12:59 10.08.2019
3902 Clouds 32 1017 33 10000 1 0 12:59 10.08.2019
3903 Clear 32 1018 42 10000 2.1 0 12:39 10.08.2019
3904 Clear 28 1018 45 10000 2.1 0 12:21 10.08.2019
3905 Clear 28 1018 48 10000 0.5 0 11:43 10.08.2019
3906 Clear 26 1018 48 10000 0.5 0 11:23 10.08.2019
3907 Clear 29 1018 51 10000 1 0 10:59 10.08.2019
3908 Clear 28 1019 57 10000 1 0 10:38 10.08.2019
3909 Clear 27 1019 61 10000 1 0 10:19 10.08.2019
3910 Clear 25 1018 64 10000 1.5 0 09:43 10.08.2019
3911 Clear 23 1018 64 10000 1.5 0 09:24 10.08.2019
3912 Clear 22 1018 73 10000 1 0 08:56 10.08.2019
3913 Clear 21 1018 73 10000 1 0 08:38 10.08.2019
3914 Clear 20 1018 82 10000 2.1 100 08:18 10.08.2019
3915 Clear 20 1018 82 10000 1.5 90 07:46 10.08.2019
3916 Clear 18 1018 82 10000 1.5 90 07:24 10.08.2019
3917 Clear 18 1018 88 8000 1 90 06:47 10.08.2019
3918 Clear 16 1017 88 10000 2.1 150 05:52 10.08.2019
3919 Clear 16 1017 93 10000 0.82 322.725 05:20 10.08.2019
3920 Clear 16 1017 93 10000 2.6 110 03:54 10.08.2019
3921 Clear 16 1017 82 10000 0.5 0 02:48 10.08.2019
3922 Clear 16 1017 88 10000 1 200 01:56 10.08.2019
3923 Clear 16 1017 82 10000 1 0 01:36 10.08.2019
3924 Clear 16 1017 77 10000 1.5 50 01:18 10.08.2019
3925 Clear 17 1017 73 10000 0.5 0 00:41 10.08.2019
3926 Clear 17 1017 69 10000 0.5 0 00:19 10.08.2019
3927 Clear 18 1017 69 10000 2.6 220 23:39 09.08.2019
3928 Clear 18 1017 64 10000 2.1 260 23:21 09.08.2019
3929 Clear 18 1017 64 10000 2.1 260 22:55 09.08.2019
3930 Clear 19 1016 61 10000 1.5 240 22:37 09.08.2019
3931 Clear 19 1016 61 10000 2.1 180 22:18 09.08.2019
3932 Clear 19 1016 57 10000 0.5 0 21:40 09.08.2019
3933 Clear 19 1016 54 10000 1.5 360 21:21 09.08.2019
3934 Clear 20 1016 54 10000 1.5 360 20:57 09.08.2019
3935 Clear 20 1015 54 10000 1 50 20:39 09.08.2019
3936 Clear 21 1015 51 10000 2.6 70 20:18 09.08.2019
3937 Clear 19 1015 48 10000 3.1 60 19:43 09.08.2019
3938 Clear 22 1015 45 10000 3.6 60 19:22 09.08.2019
3939 Clear 20 1015 45 10000 3.6 60 18:56 09.08.2019
3940 Clear 21 1015 43 10000 3.1 60 18:38 09.08.2019
3941 Clear 21 1015 43 10000 3.1 60 18:38 09.08.2019
3942 Clear 27 1014 43 10000 3.6 50 18:19 09.08.2019
3943 Clear 27 1014 43 10000 3.6 50 18:19 09.08.2019
3944 Clear 28 1014 43 10000 4.6 40 17:42 09.08.2019
3945 Clear 28 1014 43 10000 4.6 40 17:24 09.08.2019
3946 -273 0 0 0 0 0 16:55 09.08.2019
3947 Clouds 27 1014 43 10000 2.6 10 16:36 09.08.2019
3948 Clouds 28 1015 38 10000 3.1 40 16:18 09.08.2019
3949 Clouds 28 1015 38 10000 3.1 40 16:18 09.08.2019
3950 Clouds 28 1015 40 10000 4.1 20 15:41 09.08.2019
3951 Clouds 27 1015 43 10000 3.1 10 15:21 09.08.2019
3952 Clouds 29 1015 43 10000 3.1 10 14:58 09.08.2019
3953 Thunderstorm 29 1015 38 10000 4.1 20 14:38 09.08.2019
3954 Clouds 30 1015 35 10000 2.1 0 14:20 09.08.2019
3955 Clouds 28 1015 38 10000 2.1 330 13:45 09.08.2019
3956 Clouds 28 1015 43 10000 2.1 0 13:21 09.08.2019
3957 Clouds 28 1015 43 10000 2.1 0 12:56 09.08.2019
3958 Clear 29 1016 42 10000 2.6 300 12:37 09.08.2019
3959 Clear 28 1016 40 10000 2.1 310 12:18 09.08.2019
3960 Clear 28 1016 42 10000 1.5 200 11:41 09.08.2019
3961 Clear 27 1016 45 10000 1 0 11:20 09.08.2019
3962 Clear 25 1016 47 10000 2.1 280 10:41 09.08.2019
3963 Clouds 25 1016 53 10000 1.5 310 10:22 09.08.2019
3964 Clouds 24 1016 53 10000 1.5 310 09:59 09.08.2019
3965 Clouds 22 1016 64 10000 2.1 280 09:37 09.08.2019
3966 Clouds 22 1016 64 10000 1.5 150 09:18 09.08.2019
3967 Clouds 21 1016 64 10000 1.5 160 08:44 09.08.2019
3968 Clouds 21 1016 64 10000 1.5 160 08:25 09.08.2019
3969 Clouds 20 1016 68 10000 1.5 240 07:56 09.08.2019
3970 Clouds 20 1016 68 10000 1.5 240 07:56 09.08.2019
3971 Clear 21 1016 73 10000 0.62 278.508 07:24 09.08.2019
3972 Clear 19 1016 77 10000 1.5 340 06:59 09.08.2019
3973 Clear 19 1016 77 10000 0.62 278.508 06:38 09.08.2019
3974 Clear 17 1016 82 10000 0.5 350 06:20 09.08.2019
3975 Clear 16 1015 77 10000 1.5 150 04:57 09.08.2019
3976 Clear 17 1015 77 10000 2.1 110 02:26 09.08.2019
3977 Clear 18 1015 64 10000 2.1 150 01:21 09.08.2019
3978 Clear 18 1015 64 10000 2.1 140 00:41 09.08.2019
3979 Clear 18 1015 60 10000 4.1 120 00:22 09.08.2019
3980 Clear 19 1015 57 10000 3.6 140 23:55 08.08.2019
3981 Clear 19 1015 57 10000 3.6 140 23:36 08.08.2019
3982 Clear 19 1015 57 10000 4.1 110 23:18 08.08.2019
3983 Clear 19 1015 53 10000 4.1 120 22:37 08.08.2019
3984 Clear 20 1014 50 10000 4.6 100 22:19 08.08.2019
3985 Clear 20 1014 50 10000 4.6 100 21:59 08.08.2019
3986 Clear 20 1014 50 10000 4.6 100 21:59 08.08.2019
3987 Clear 20 1014 47 10000 3.6 100 21:41 08.08.2019
3988 Clear 21 1014 54 10000 3.6 90 21:22 08.08.2019
3989 Clear 21 1014 54 10000 3.6 90 20:56 08.08.2019
3990 Clear 22 1013 47 10000 3.1 100 20:38 08.08.2019
3991 Clear 22 1013 42 10000 3.6 140 20:19 08.08.2019
3992 Clear 21 1013 35 10000 3.6 120 19:44 08.08.2019
3993 Clear 23 1013 31 10000 4.1 120 19:22 08.08.2019
3994 Clear 22 1013 26 10000 3.6 110 18:44 08.08.2019
3995 Clear 29 1013 22 10000 3.6 100 18:24 08.08.2019
3996 Clear 29 1013 22 10000 3.6 100 17:58 08.08.2019
3997 Clear 29 1013 22 10000 3.6 100 17:58 08.08.2019
3998 Clear 28 1013 21 10000 2.6 110 17:40 08.08.2019
3999 Clear 29 1013 20 10000 2.6 130 17:21 08.08.2019
4000 Clear 30 1013 20 10000 2.6 130 16:55 08.08.2019
4001 Clear 28 1014 21 10000 3.1 140 16:37 08.08.2019
4002 Clear 30 1014 26 10000 3.1 110 16:18 08.08.2019
4003 Clear 29 1014 26 10000 2.6 120 15:41 08.08.2019
4004 Clear 29 1014 29 10000 1.5 0 15:23 08.08.2019
4005 Clear 28 1014 29 10000 1.5 0 14:55 08.08.2019
4006 Clouds 29 1015 33 10000 2.1 150 14:36 08.08.2019
4007 Clear 32 1015 33 10000 1.5 0 14:18 08.08.2019
4008 Clear 29 1015 38 10000 1 0 13:39 08.08.2019
4009 Clear 31 1016 37 10000 2.1 0 13:20 08.08.2019
4010 Clear 30 1016 39 10000 1.5 0 12:40 08.08.2019
4011 Clear 30 1016 39 10000 0.5 0 12:21 08.08.2019
4012 Clear 30 1016 39 10000 0.5 0 11:58 08.08.2019
4013 Clear 29 1016 42 10000 1 0 11:39 08.08.2019
4014 Clear 26 1017 47 10000 1 0 11:20 08.08.2019
4015 Clear 27 1017 47 10000 1 0 10:41 08.08.2019
4016 Clear 24 1017 50 10000 1 0 10:21 08.08.2019
4017 Clear 23 1017 53 10000 1.53 175.994 09:49 08.08.2019
4018 Clear 23 1017 53 10000 1.53 175.994 09:30 08.08.2019
4019 Clear 21 1017 56 10000 2.1 100 08:57 08.08.2019
4020 Clear 21 1017 60 10000 1 0 08:38 08.08.2019
4021 Clear 20 1017 68 10000 1.5 90 08:18 08.08.2019
4022 Clear 18 1017 72 10000 1.93 146.26 07:40 08.08.2019
4023 Clear 17 1017 82 10000 1.93 146.26 07:20 08.08.2019
4024 Clear 17 1017 87 10000 1 360 06:47 08.08.2019
4025 Clear 15 1017 87 10000 1 360 06:26 08.08.2019
4026 Clear 14 1017 77 10000 1.74 121.326 05:52 08.08.2019
4027 Clear 15 1016 72 10000 1 230 04:53 08.08.2019
4028 Clear 15 1017 72 10000 2.1 140 03:52 08.08.2019
4029 Clear 15 1017 72 10000 3.1 150 02:21 08.08.2019
4030 Clear 16 1017 68 10000 1.5 120 01:35 08.08.2019
4031 Clear 16 1017 64 10000 2.6 120 00:26 08.08.2019
4032 Clear 17 1017 60 10000 3.6 140 23:46 07.08.2019
4033 Clear 17 1016 60 10000 3.6 120 23:19 07.08.2019
4034 Clear 17 1016 60 10000 3.6 120 22:55 07.08.2019
4035 Clear 18 1016 56 10000 3.6 120 22:36 07.08.2019
4036 Clear 18 1016 56 10000 3.6 120 22:36 07.08.2019
4037 Clear 17 1016 56 10000 4.1 110 22:18 07.08.2019
4038 Clear 18 1016 56 10000 4.1 110 21:54 07.08.2019
4039 Clear 17 1016 56 10000 4.1 90 21:36 07.08.2019
4040 Clear 18 1016 56 10000 4.1 100 21:18 07.08.2019
4041 Clear 18 1015 50 10000 3.1 140 20:41 07.08.2019
4042 Clear 19 1015 47 10000 4.1 120 20:23 07.08.2019
4043 Clear 19 1015 47 10000 4.1 120 20:23 07.08.2019
4044 Clear 19 1015 47 10000 4.1 120 19:56 07.08.2019
4045 Clear 19 1015 39 10000 3.1 110 19:38 07.08.2019
4046 Clear 22 1015 35 10000 3.6 120 19:20 07.08.2019
4047 Clear 21 1015 31 10000 2.6 140 18:42 07.08.2019
4048 Clear 27 1015 33 10000 3.6 120 18:20 07.08.2019
4049 Clear 27 1015 33 10000 3.6 120 17:57 07.08.2019
4050 Clear 26 1016 27 10000 1 0 17:38 07.08.2019
4051 Clear 27 1016 31 10000 1 0 17:20 07.08.2019
4052 Clear 26 1016 31 10000 1 0 16:57 07.08.2019
4053 Clear 26 1016 29 10000 3.1 70 16:57 07.08.2019
4054 Clear 26 1016 29 10000 3.1 70 16:57 07.08.2019
4055 Clear 26 1016 29 10000 3.1 70 16:39 07.08.2019
4056 Clear 26 1016 29 10000 2.6 80 16:19 07.08.2019
4057 Clear 26 1016 29 10000 2.6 80 15:55 07.08.2019
4058 Clear 26 1017 29 10000 2.1 0 15:37 07.08.2019
4059 Clear 26 1017 29 10000 2.1 0 15:37 07.08.2019
4060 Clear 26 1017 31 10000 2.1 0 15:18 07.08.2019
4061 Clear 27 1017 30 10000 1 0 14:45 07.08.2019
4062 Clear 27 1017 30 10000 1 0 14:24 07.08.2019
4063 Clear 30 1018 35 10000 1.5 0 13:41 07.08.2019
4064 Clear 29 1018 37 10000 1.5 110 13:19 07.08.2019
4065 Clear 29 1018 37 10000 1.5 110 12:58 07.08.2019
4066 Clear 28 1018 36 10000 2.1 110 12:39 07.08.2019
4067 Clear 25 1018 39 10000 2.6 120 12:20 07.08.2019
4068 Clear 25 1018 39 10000 2.6 120 11:58 07.08.2019
4069 Clear 25 1018 44 10000 1.5 150 11:40 07.08.2019
4070 Clear 24 1019 47 10000 1.5 120 11:18 07.08.2019
4071 Clear 23 1019 53 10000 1.5 110 10:41 07.08.2019
4072 Clear 22 1019 56 10000 0.5 0 10:20 07.08.2019
4073 Clear 22 1019 56 10000 0.5 0 09:59 07.08.2019
4074 Clear 21 1019 56 10000 1 0 09:40 07.08.2019
4075 Clear 19 1019 68 10000 0.5 0 09:20 07.08.2019
4076 Clear 17 1019 72 10000 1 0 08:45 07.08.2019
4077 Clear 17 1019 72 10000 1 0 08:25 07.08.2019
4078 Clear 16 1019 77 10000 1 0 07:51 07.08.2019
4079 Clear 16 1019 77 10000 1 0 07:31 07.08.2019
4080 Clear 14 1019 87 10000 1.5 340 06:48 07.08.2019
4081 Clear 13 1019 87 10000 1.5 340 06:26 07.08.2019
4082 Clear 12 1018 87 10000 1.16 116.896 05:42 07.08.2019
4083 Clear 13 1018 82 10000 1.16 116.896 04:40 07.08.2019
4084 Clear 13 1018 77 10000 1.5 110 02:58 07.08.2019
4085 Clear 13 1018 63 10000 1 100 02:38 07.08.2019
4086 Clear 13 1018 72 10000 2.6 160 01:51 07.08.2019
4087 Clear 14 1018 63 10000 3.1 150 00:57 07.08.2019
4088 Clear 14 1018 67 10000 1.5 160 00:24 07.08.2019
4089 Clear 14 1018 67 10000 1.5 160 23:58 06.08.2019
4090 Clear 15 1018 67 10000 1.5 120 23:37 06.08.2019
4091 Clear 15 1018 63 10000 1 0 23:18 06.08.2019
4092 Clear 16 1018 52 10000 2.1 190 22:40 06.08.2019
4093 Clear 18 1018 56 10000 1.5 170 22:21 06.08.2019
4094 Clear 18 1018 56 10000 1.5 170 21:57 06.08.2019
4095 Clear 18 1017 52 10000 2.6 150 21:38 06.08.2019
4096 Clear 19 1017 46 10000 2.1 0 21:19 06.08.2019
4097 Clear 19 1017 44 10000 3.1 350 20:43 06.08.2019
4098 Clear 19 1017 44 10000 3.1 350 20:24 06.08.2019
4099 Clear 20 1017 26 10000 2.1 310 19:49 06.08.2019
4100 Clear 21 1017 26 10000 2.1 310 19:29 06.08.2019
4101 Clear 19 1017 24 10000 3.1 280 18:57 06.08.2019
4102 Clear 21 1017 23 10000 2.1 320 18:39 06.08.2019
4103 Clear 24 1017 23 10000 3.1 280 18:20 06.08.2019
4104 Clear 23 1017 23 10000 3.1 280 17:56 06.08.2019
4105 Clear 23 1017 23 10000 1 0 17:37 06.08.2019
4106 Clouds 23 1017 26 10000 2.6 0 17:19 06.08.2019
4107 Clouds 27 1017 26 10000 1.5 0 16:43 06.08.2019
4108 Clouds 27 1017 28 10000 2.1 0 16:24 06.08.2019
4109 Clouds 27 1017 28 10000 2.1 0 15:58 06.08.2019
4110 Clouds 27 1018 26 10000 2.1 0 15:39 06.08.2019
4111 Clouds 27 1018 26 10000 3.1 50 15:21 06.08.2019
4112 Clouds 26 1018 30 10000 2.6 20 14:46 06.08.2019
4113 Clouds 27 1018 31 10000 3.1 10 14:27 06.08.2019
4114 Clouds 27 1018 31 10000 3.1 10 13:59 06.08.2019
4115 Clouds 27 1019 34 10000 2.1 0 13:41 06.08.2019
4116 Clouds 27 1019 36 10000 2.6 0 13:23 06.08.2019
4117 Clouds 27 1019 36 10000 2.6 0 12:59 06.08.2019
4118 Clouds 26 1019 44 10000 2.6 0 12:39 06.08.2019
4119 Clouds 26 1019 50 10000 1.5 0 12:21 06.08.2019
4120 Clouds 25 1019 49 10000 1.5 0 11:43 06.08.2019
4121 Clear 24 1020 53 10000 0.5 0 11:20 06.08.2019
4122 Clear 24 1020 53 10000 0.5 0 10:56 06.08.2019
4123 Clear 24 1020 53 10000 0.5 0 10:56 06.08.2019
4124 Clear 23 1019 56 10000 1 0 10:38 06.08.2019
4125 Clear 22 1019 60 10000 1.38 248.09 10:19 06.08.2019
4126 Clear 17 1019 68 10000 1.5 90 09:41 06.08.2019
4127 Clear 17 1019 72 10000 1.5 110 09:20 06.08.2019
4128 Clear 16 1020 77 10000 1 0 08:49 06.08.2019
4129 Clear 15 1020 77 10000 1 0 08:27 06.08.2019
4130 Clear 14 1019 82 10000 1.16 180.891 07:56 06.08.2019
4131 Clear 13 1019 82 10000 1 0 07:23 06.08.2019
4132 Clear 12 1019 87 10000 1 0 06:43 06.08.2019
4133 Clear 10 1019 87 10000 0.34 347.707 06:19 06.08.2019
4134 Clear 9 1018 93 10000 1 360 04:36 06.08.2019
4135 Clear 11 1018 77 10000 1 180 01:59 06.08.2019
4136 Clear 11 1018 82 10000 2.1 180 01:24 06.08.2019
4137 Clear 11 1018 82 10000 0.34 39.87 00:39 06.08.2019
4138 Clear 12 1018 77 10000 0.83 50.309 23:51 05.08.2019
4139 Clear 12 1018 68 10000 1.5 220 23:19 05.08.2019
4140 Clear 12 1018 68 10000 2.6 180 22:42 05.08.2019
4141 Clouds 12 1017 68 10000 1 0 22:23 05.08.2019
4142 Clouds 11 1017 68 10000 1 0 21:56 05.08.2019
4143 Clouds 12 1017 60 10000 1.5 220 21:37 05.08.2019
4144 Clouds 14 1017 56 10000 1 0 21:19 05.08.2019
4145 Clouds 14 1016 56 10000 1.5 10 20:56 05.08.2019
4146 Clouds 14 1016 56 10000 1.5 10 20:37 05.08.2019
4147 Clouds 15 1016 49 10000 2.1 30 20:18 05.08.2019
4148 Clouds 13 1016 46 10000 3.1 30 19:43 05.08.2019
4149 Clouds 13 1016 46 10000 3.1 30 19:24 05.08.2019
4150 Clouds 13 1016 49 10000 2.1 10 18:57 05.08.2019
4151 Clouds 14 1016 44 10000 3.1 10 18:39 05.08.2019
4152 Clouds 20 1016 41 10000 2.6 10 18:19 05.08.2019
4153 Clouds 20 1016 44 10000 3.6 10 17:45 05.08.2019
4154 Clouds 20 1016 44 10000 3.6 10 17:45 05.08.2019
4155 Clouds 20 1016 44 10000 3.6 10 17:26 05.08.2019
4156 Clouds 20 1016 41 10000 2.6 350 16:46 05.08.2019
4157 Clouds 20 1016 41 10000 2.6 350 16:26 05.08.2019
4158 Clouds 20 1016 33 10000 2.1 0 15:56 05.08.2019
4159 Clouds 21 1016 34 10000 3.1 310 15:36 05.08.2019
4160 Clouds 21 1016 36 10000 2.6 60 15:18 05.08.2019
4161 Clouds 21 1016 33 10000 3.1 310 14:38 05.08.2019
4162 Clouds 21 1017 36 10000 2.1 320 14:19 05.08.2019
4163 Clouds 21 1017 38 10000 2.1 0 13:43 05.08.2019
4164 Clouds 20 1017 38 10000 2.1 0 13:22 05.08.2019
4165 Clouds 21 1017 43 10000 2.1 0 12:46 05.08.2019
4166 Clouds 20 1017 46 10000 3.1 280 12:20 05.08.2019
4167 Clouds 21 1018 49 10000 3.6 290 11:47 05.08.2019
4168 Clouds 21 1018 49 10000 3.6 290 11:27 05.08.2019
4169 Clear 20 1018 49 10000 3.1 290 10:59 05.08.2019
4170 Clear 20 1018 56 10000 3.1 300 10:40 05.08.2019
4171 Clear 20 1018 60 10000 3.1 300 10:21 05.08.2019
4172 Clear 19 1018 72 10000 2.1 300 09:43 05.08.2019
4173 Clear 14 1018 72 10000 2.1 300 09:24 05.08.2019
4174 Clear 15 1018 77 10000 0.5 0 08:49 05.08.2019
4175 Clear 15 1018 77 10000 0.5 0 08:25 05.08.2019
4176 Clear 15 1018 77 10000 1.66 293.955 07:54 05.08.2019
4177 Clear 13 1018 82 10000 1.5 290 07:31 05.08.2019
4178 Clear 12 1018 87 10000 1 0 06:59 05.08.2019
4179 Clear 11 1018 93 10000 1.5 190 06:29 05.08.2019
4180 Clear 9 1017 93 10000 1.5 340 05:41 05.08.2019
4181 Clear 9 1017 87 10000 0.5 0 04:56 05.08.2019
4182 Clear 9 1017 87 10000 1.5 170 03:56 05.08.2019
4183 Clear 9 1017 87 10000 2.1 350 03:20 05.08.2019
4184 Clouds 10 1017 82 10000 2.1 300 02:26 05.08.2019
4185 Clear 10 1017 82 10000 2.1 270 01:32 05.08.2019
4186 Clouds 11 1017 72 10000 3.1 280 00:41 05.08.2019
4187 Clouds 11 1017 82 10000 2.1 310 00:21 05.08.2019
4188 Clouds 12 1017 72 10000 2.1 300 23:44 04.08.2019
4189 Clouds 12 1017 72 10000 2.1 300 23:24 04.08.2019
4190 Clouds 13 1016 72 10000 1.5 310 22:58 04.08.2019
4191 Clouds 13 1016 72 10000 2.1 290 22:39 04.08.2019
4192 Clouds 14 1016 72 10000 2.1 320 22:20 04.08.2019
4193 Clouds 13 1016 72 10000 2.1 320 21:59 04.08.2019
4194 Clear 13 1016 72 10000 2.6 280 21:41 04.08.2019
4195 Clear 16 1015 68 10000 2.6 290 21:20 04.08.2019
4196 Clouds 13 1015 60 10000 3.1 290 20:43 04.08.2019
4197 Clouds 14 1015 53 10000 3.1 290 20:19 04.08.2019
4198 Clouds 13 1014 53 10000 2.1 320 19:55 04.08.2019
4199 Clouds 12 1014 53 10000 2.1 320 19:36 04.08.2019
4200 Clouds 15 1014 49 10000 1.5 350 19:18 04.08.2019
4201 Clouds 15 1014 53 10000 1.5 330 18:41 04.08.2019
4202 Clouds 19 1014 49 10000 2.6 310 18:20 04.08.2019
4203 Clouds 19 1014 49 10000 3.1 310 17:44 04.08.2019
4204 Clouds 20 1014 49 10000 3.1 310 17:24 04.08.2019
4205 Clouds 18 1014 64 10000 2.6 350 16:46 04.08.2019
4206 Clouds 19 1014 64 10000 2.6 350 16:28 04.08.2019
4207 Rain 18 1014 60 10000 4.6 350 15:58 04.08.2019
4208 Rain 18 1014 56 10000 2.6 350 15:38 04.08.2019
4209 Rain 20 1014 56 10000 1.5 0 15:19 04.08.2019
4210 Clouds 21 1014 60 10000 1.5 230 14:43 04.08.2019
4211 Clouds 20 1014 60 10000 1.5 230 14:25 04.08.2019
4212 Rain 21 1014 53 10000 3.1 270 13:46 04.08.2019
4213 Rain 23 1014 53 10000 3.1 270 13:27 04.08.2019
4214 Clouds 23 1014 52 10000 3.6 290 12:57 04.08.2019
4215 Clouds 21 1014 53 10000 4.6 300 12:39 04.08.2019
4216 Clouds 21 1014 43 10000 4.6 280 12:21 04.08.2019
4217 Clouds 20 1014 53 10000 4.1 280 11:46 04.08.2019
4218 Clouds 20 1014 56 10000 4.1 290 11:23 04.08.2019
4219 Clouds 21 1014 60 10000 4.6 290 10:48 04.08.2019
4220 Clouds 19 1014 64 10000 5.1 290 10:22 04.08.2019
4221 Clouds 20 1014 68 10000 5.1 290 09:46 04.08.2019
4222 Clouds 20 1014 68 10000 5.1 290 09:26 04.08.2019
4223 Clouds 18 1014 68 10000 5.1 290 09:26 04.08.2019
4224 Clouds 17 1014 63 10000 5.7 300 08:58 04.08.2019
4225 Clouds 17 1014 63 10000 5.1 290 08:34 04.08.2019
4226 Clouds 16 1014 68 10000 5.7 290 07:55 04.08.2019
4227 Clear 16 1013 72 10000 6.7 280 07:28 04.08.2019
4228 Clear 15 1013 72 10000 4.6 280 06:40 04.08.2019
4229 Clear 12 1012 72 10000 5.1 280 06:18 04.08.2019
4230 Clear 14 1012 82 10000 3.6 290 03:37 04.08.2019
4231 Clear 13 1012 72 10000 4.6 280 01:52 04.08.2019
4232 Clear 12 1012 72 10000 4.6 280 01:32 04.08.2019
4233 Clear 14 1012 77 10000 5.1 280 00:42 04.08.2019
4234 Clear 16 1011 72 10000 5.7 280 00:23 04.08.2019
4235 Clear 16 1011 72 10000 5.1 280 23:42 03.08.2019
4236 Clear 16 1011 68 10000 4.6 280 23:19 03.08.2019
4237 Clear 14 1011 68 10000 4.6 280 22:59 03.08.2019
4238 Clear 14 1011 68 10000 4.6 280 22:39 03.08.2019
4239 Clouds 14 1011 64 10000 3.6 290 22:19 03.08.2019
4240 Clear 14 1011 64 10000 5.1 280 21:39 03.08.2019
4241 Clouds 17 1010 64 10000 6.2 280 21:20 03.08.2019
4242 Clouds 18 1010 64 10000 6.2 270 20:43 03.08.2019
4243 Clouds 18 1009 64 10000 6.7 270 20:24 03.08.2019
4244 Clouds 14 1009 56 10000 6.7 280 19:43 03.08.2019
4245 Clouds 14 1009 56 10000 6.7 280 19:43 03.08.2019
4246 Clouds 17 1009 56 10000 6.7 280 19:25 03.08.2019
4247 Clouds 17 1008 60 10000 6.7 260 18:56 03.08.2019
4248 Clouds 20 1008 68 10000 7.7 260 18:28 03.08.2019
4249 Clouds 23 1008 64 10000 6.7 270 17:51 03.08.2019
4250 Clouds 23 1008 64 10000 6.7 270 17:23 03.08.2019
4251 Clouds 23 1009 68 10000 5.7 290 16:58 03.08.2019
4252 Clouds 22 1009 77 10000 6.7 280 16:38 03.08.2019
4253 Clouds 18 1009 82 10000 8.2 260 16:19 03.08.2019
4254 Rain 18 1009 88 8000 8.2 280 15:45 03.08.2019
4255 Rain 18 1009 88 8000 8.2 280 15:45 03.08.2019
4256 Rain 18 1009 88 8000 8.2 280 15:24 03.08.2019
4257 Thunderstorm 19 1008 93 10000 3.1 280 14:43 03.08.2019
4258 Rain 23 1007 45 10000 9.3 260 14:22 03.08.2019
4259 Clouds 26 1007 42 10000 8.7 250 13:53 03.08.2019
4260 Clouds 26 1007 42 10000 8.7 250 13:26 03.08.2019
4261 Clouds 24 1008 61 10000 1.5 0 12:59 03.08.2019
4262 Clouds 23 1008 61 10000 2.1 0 12:40 03.08.2019
4263 Clouds 26 1009 69 10000 1 0 12:21 03.08.2019
4264 Clouds 22 1009 78 10000 2.6 100 11:49 03.08.2019
4265 Clouds 23 1009 78 10000 2.6 100 11:28 03.08.2019
4266 Clouds 22 1010 82 10000 1 0 10:42 03.08.2019
4267 Clouds 21 1010 82 10000 1 0 10:24 03.08.2019
4268 Clouds 19 1010 88 8000 4.95 299.384 09:44 03.08.2019
4269 Clouds 18 1011 82 7000 1.5 260 09:23 03.08.2019
4270 Clouds 18 1011 82 7000 1.5 260 08:54 03.08.2019
4271 Mist 18 1011 93 2200 2.1 140 07:56 03.08.2019
4272 Mist 18 1011 93 2200 2.1 140 07:36 03.08.2019
4273 Mist 18 1011 93 2200 2.1 140 07:36 03.08.2019
4274 Fog 17 1011 93 10000 0.49 204.57 06:39 03.08.2019
4275 Clouds 15 1012 100 7000 1.5 140 04:52 03.08.2019
4276 Clouds 15 1012 93 10000 0.47 282.095 02:40 03.08.2019
4277 Rain 16 1012 93 8000 1.5 150 01:50 03.08.2019
4278 Rain 16 1012 93 8000 1.5 150 01:50 03.08.2019
4279 Clear 16 1012 93 10000 2.6 30 00:49 03.08.2019
4280 Clouds 15 1012 88 10000 1.5 170 23:59 02.08.2019
4281 Clouds 15 1012 88 10000 3.6 180 23:40 02.08.2019
4282 Rain 16 1013 88 10000 5.7 160 23:19 02.08.2019
4283 Rain 15 1013 88 10000 5.7 160 22:57 02.08.2019
4284 Thunderstorm 17 1015 88 10000 8.7 230 22:38 02.08.2019
4285 Thunderstorm 16 1013 64 7000 9.8 290 22:19 02.08.2019
4286 Clouds 18 1011 61 10000 2.1 140 21:43 02.08.2019
4287 Clouds 20 1011 61 10000 2.1 140 21:24 02.08.2019
4288 Clouds 20 1010 61 10000 2.6 110 20:57 02.08.2019
4289 Clouds 20 1010 57 10000 1.5 120 20:39 02.08.2019
4290 Clouds 21 1010 51 10000 2.1 80 20:20 02.08.2019
4291 Clouds 20 1010 45 10000 4.6 90 19:45 02.08.2019
4292 Clouds 20 1010 42 10000 3.6 100 19:25 02.08.2019
4293 Clouds 21 1011 35 10000 2.1 360 18:44 02.08.2019
4294 Clouds 27 1011 35 10000 2.1 360 18:25 02.08.2019
4295 Clouds 26 1012 33 10000 3.1 360 17:44 02.08.2019
4296 Clouds 26 1012 33 10000 3.1 360 17:24 02.08.2019
4297 Clouds 26 1012 35 10000 4.1 300 16:56 02.08.2019
4298 Clouds 26 1012 35 10000 4.1 300 16:37 02.08.2019
4299 Clouds 27 1013 35 10000 2.6 330 16:18 02.08.2019
4300 Clouds 26 1013 33 10000 3.1 290 15:39 02.08.2019
4301 Clouds 27 1013 29 10000 2.6 0 15:19 02.08.2019
4302 Clouds 26 1013 37 10000 2.6 0 14:45 02.08.2019
4303 Clouds 26 1014 40 10000 2.1 0 14:18 02.08.2019
4304 Clouds 29 1014 40 10000 1.5 0 13:48 02.08.2019
4305 Clouds 29 1014 40 10000 1.5 0 13:25 02.08.2019
4306 Clouds 29 1014 45 10000 2.1 230 12:45 02.08.2019
4307 Clouds 26 1015 45 10000 1 0 12:21 02.08.2019
4308 Clouds 25 1015 50 10000 2.6 190 11:51 02.08.2019
4309 Clouds 25 1015 50 10000 2.6 190 11:32 02.08.2019
4310 Clouds 27 1015 54 10000 1.5 0 10:55 02.08.2019
4311 Clouds 26 1015 61 10000 2.1 290 10:37 02.08.2019
4312 Clouds 23 1016 69 10000 1.5 290 10:19 02.08.2019
4313 Clear 22 1016 73 10000 1.5 0 09:52 02.08.2019
4314 Clear 22 1016 73 10000 1.5 0 09:25 02.08.2019
4315 Clear 20 1016 82 8000 1 0 08:47 02.08.2019
4316 Clear 19 1016 88 8000 1.5 130 08:21 02.08.2019
4317 Clear 18 1016 93 6000 2.1 80 07:49 02.08.2019
4318 Clear 17 1016 93 6000 2.1 80 07:31 02.08.2019
4319 Clear 16 1015 100 6000 0.5 0 06:44 02.08.2019
4320 Mist 14 1015 93 4500 1.5 130 05:52 02.08.2019
4321 Clear 14 1016 93 8000 1.39 323.903 04:19 02.08.2019
4322 Clear 15 1016 88 9000 0.68 312.359 03:25 02.08.2019
4323 Clouds 15 1016 88 10000 2.1 300 01:46 02.08.2019
4324 Clouds 15 1016 88 10000 0.56 319.577 00:35 02.08.2019
4325 Clear 15 1016 77 10000 1 0 23:46 01.08.2019
4326 Clear 17 1016 77 10000 1 0 23:28 01.08.2019
4327 Clear 16 1016 73 10000 0.88 22.202 22:56 01.08.2019
4328 Clear 16 1015 68 10000 1.5 270 22:37 01.08.2019
4329 Clear 16 1015 68 10000 2.6 220 22:19 01.08.2019
4330 Clear 18 1015 64 10000 1.5 300 21:42 01.08.2019
4331 Clear 18 1015 64 10000 1.5 300 21:23 01.08.2019
4332 Clouds 18 1015 60 10000 3.1 290 20:47 01.08.2019
4333 Clouds 19 1015 61 10000 3.6 300 20:23 01.08.2019
4334 Clouds 17 1015 61 10000 3.6 300 19:59 01.08.2019
4335 Clouds 17 1015 61 10000 3.6 300 19:59 01.08.2019
4336 Clouds 18 1015 65 10000 1.5 320 19:38 01.08.2019
4337 Rain 22 1014 61 10000 4.1 280 19:19 01.08.2019
4338 Clouds 20 1014 65 10000 3.6 240 18:43 01.08.2019
4339 Clouds 22 1014 65 10000 3.6 240 18:24 01.08.2019
4340 Thunderstorm 22 1014 78 10000 6.7 260 17:50 01.08.2019
4341 Thunderstorm 23 1014 78 10000 6.7 260 17:31 01.08.2019
4342 Rain 24 1013 45 10000 3.1 300 16:45 01.08.2019
4343 Rain 24 1013 45 10000 3.1 300 16:23 01.08.2019
4344 Clouds 24 1014 48 10000 3.6 270 15:56 01.08.2019
4345 Clouds 23 1014 51 10000 5.1 250 15:38 01.08.2019
4346 Clouds 26 1014 61 10000 4.1 230 15:18 01.08.2019
4347 Clouds 26 1015 73 10000 4.6 230 14:42 01.08.2019
4348 Rain 25 1015 83 10000 4.6 310 14:19 01.08.2019
4349 Thunderstorm 23 1015 83 10000 4.6 310 13:57 01.08.2019
4350 Thunderstorm 25 1015 51 10000 3.6 360 13:39 01.08.2019
4351 Rain 25 1015 54 8000 5.1 20 13:20 01.08.2019
4352 Rain 25 1014 48 10000 2.6 320 12:43 01.08.2019
4353 Rain 22 1014 48 10000 2.6 320 12:25 01.08.2019
4354 Clouds 22 1015 54 10000 2.6 290 11:43 01.08.2019
4355 Clouds 22 1015 54 10000 3.1 280 11:24 01.08.2019
4356 Clouds 26 1015 54 10000 3.1 280 10:54 01.08.2019
4357 Clouds 28 1015 65 10000 3.6 300 10:36 01.08.2019
4358 Clouds 28 1015 65 10000 3.6 300 10:36 01.08.2019
4359 Clouds 25 1015 65 10000 3.1 280 10:18 01.08.2019
4360 Clouds 24 1015 73 10000 2.6 310 09:41 01.08.2019
4361 Clear 20 1015 69 10000 3.1 320 09:23 01.08.2019
4362 Clear 20 1015 69 10000 3.1 320 09:23 01.08.2019
4363 Clear 22 1015 78 8000 1.5 300 08:46 01.08.2019
4364 Clear 21 1015 83 8000 2.15 297.066 08:20 01.08.2019
4365 Clear 20 1015 88 7000 2.15 297.066 07:50 01.08.2019
4366 Clear 20 1015 88 7000 2.15 297.066 07:26 01.08.2019
4367 Clear 18 1015 93 6000 1 300 06:49 01.08.2019
4368 Clear 16 1015 93 6000 1 300 06:27 01.08.2019
4369 Clear 16 1014 93 8000 1.5 90 04:53 01.08.2019
4370 Clear 16 1014 88 10000 0.96 309.813 02:35 01.08.2019
4371 Clouds 16 1014 83 10000 1 0 00:49 01.08.2019
4372 Clouds 16 1014 83 10000 1 0 00:25 01.08.2019
4373 Clouds 17 1014 78 10000 1.5 100 23:43 31.07.2019
4374 Clouds 17 1014 78 10000 1.5 100 23:43 31.07.2019
4375 Clouds 17 1014 69 10000 2.6 280 23:21 31.07.2019
4376 Clouds 17 1014 69 10000 2.6 280 22:58 31.07.2019
4377 Clouds 18 1014 69 10000 1.5 300 22:40 31.07.2019
4378 Clouds 19 1014 69 10000 1 0 22:21 31.07.2019
4379 Clouds 19 1013 73 10000 0.5 0 21:39 31.07.2019
4380 Clouds 19 1013 73 10000 0.5 0 21:39 31.07.2019
4381 Clouds 19 1013 69 10000 1 0 21:20 31.07.2019
4382 Clouds 20 1013 65 10000 2.1 350 20:48 31.07.2019
4383 Clouds 20 1012 54 10000 1 310 20:22 31.07.2019
4384 Clouds 18 1012 51 10000 1 0 19:43 31.07.2019
4385 Clouds 21 1012 51 10000 1 0 19:24 31.07.2019
4386 Clouds 21 1012 51 10000 2.1 290 18:55 31.07.2019
4387 Clouds 20 1012 58 10000 2.6 280 18:37 31.07.2019
4388 Clouds 25 1012 54 10000 1 0 18:18 31.07.2019
4389 Rain 23 1012 54 10000 2.6 50 17:42 31.07.2019
4390 Rain 23 1012 61 8000 4.6 10 17:20 31.07.2019
4391 Thunderstorm 24 1012 65 8000 7.7 250 16:46 31.07.2019
4392 Clouds 25 1012 51 10000 3.6 90 16:20 31.07.2019
4393 Clouds 25 1012 54 10000 4.1 70 15:45 31.07.2019
4394 Clouds 25 1012 54 10000 4.1 70 15:26 31.07.2019
4395 Rain 25 1012 42 10000 2.6 0 14:55 31.07.2019
4396 Clouds 25 1012 42 10000 2.6 250 14:36 31.07.2019
4397 Clouds 25 1012 42 10000 3.1 290 14:18 31.07.2019
4398 Clouds 25 1013 48 10000 4.1 270 13:44 31.07.2019
4399 Clouds 30 1013 48 10000 4.1 270 13:25 31.07.2019
4400 Clouds 26 1013 45 10000 2.6 310 12:56 31.07.2019
4401 Clouds 29 1013 45 10000 2.6 310 12:37 31.07.2019
4402 Clouds 22 1013 48 10000 3.6 300 12:18 31.07.2019
4403 Clouds 25 1013 54 10000 3.6 290 11:38 31.07.2019
4404 Clouds 25 1014 54 10000 3.1 0 11:19 31.07.2019
4405 Clouds 24 1013 61 10000 3.1 300 10:42 31.07.2019
4406 Clouds 23 1014 64 10000 3.6 300 10:20 31.07.2019
4407 Clouds 23 1014 69 10000 4.1 300 09:44 31.07.2019
4408 Clouds 21 1014 69 10000 4.1 300 09:24 31.07.2019
4409 Clear 21 1013 77 8000 1 0 08:57 31.07.2019
4410 Clear 20 1013 77 8000 1 0 08:39 31.07.2019
4411 Clear 20 1013 82 8000 1 0 08:20 31.07.2019
4412 Mist 18 1013 82 5000 2.06 299.195 07:35 31.07.2019
4413 Mist 15 1013 93 5000 2.06 299.195 06:32 31.07.2019
4414 Clear 14 1012 93 7000 2.1 90 04:50 31.07.2019
4415 Clear 14 1012 88 9000 1.5 30 01:32 31.07.2019
4416 Clouds 15 1012 82 10000 2.1 300 23:58 30.07.2019
4417 Clouds 15 1012 82 10000 2.1 310 23:39 30.07.2019
4418 Clouds 15 1012 77 10000 2.1 340 23:18 30.07.2019
4419 Clouds 14 1012 73 10000 1.5 310 22:45 30.07.2019
4420 Clouds 14 1012 73 10000 1 0 22:25 30.07.2019
4421 Clouds 17 1011 73 10000 1.5 340 21:39 30.07.2019
4422 Clouds 18 1011 64 10000 2.1 300 21:20 30.07.2019
4423 Clouds 17 1011 64 10000 2.1 300 20:59 30.07.2019
4424 Clouds 20 1010 64 10000 2.1 290 20:41 30.07.2019
4425 Clouds 20 1010 60 10000 3.1 290 20:23 30.07.2019
4426 Clouds 15 1010 60 10000 3.1 290 19:56 30.07.2019
4427 Clouds 15 1010 57 10000 2.6 290 19:36 30.07.2019
4428 Clouds 19 1010 61 10000 3.1 290 18:48 30.07.2019
4429 Clouds 22 1010 61 10000 3.1 290 18:27 30.07.2019
4430 Clouds 22 1010 61 10000 3.6 280 17:59 30.07.2019
4431 Clouds 21 1010 61 10000 3.6 270 17:41 30.07.2019
4432 Clouds 22 1010 57 10000 2.6 280 17:19 30.07.2019
4433 Clouds 20 1010 57 10000 5.1 280 16:46 30.07.2019
4434 Clouds 21 1010 54 10000 2.6 350 16:20 30.07.2019
4435 Clouds 20 1010 57 10000 4.1 290 15:44 30.07.2019
4436 Clouds 22 1010 57 10000 4.1 290 15:23 30.07.2019
4437 Clouds 20 1010 61 10000 4.1 300 14:59 30.07.2019
4438 Rain 20 1010 64 10000 2.6 290 14:40 30.07.2019
4439 Rain 20 1010 73 10000 3.6 320 14:18 30.07.2019
4440 Rain 26 1010 69 10000 2.1 290 13:41 30.07.2019
4441 Clouds 27 1010 61 10000 3.1 70 13:23 30.07.2019
4442 Clouds 27 1010 61 10000 3.1 70 12:55 30.07.2019
4443 Clouds 26 1010 57 10000 2.1 0 12:37 30.07.2019
4444 Clouds 21 1010 60 10000 2.1 0 12:18 30.07.2019
4445 Clouds 21 1010 57 10000 2.1 340 11:38 30.07.2019
4446 Clouds 20 1010 73 10000 3.1 280 11:19 30.07.2019
4447 Clouds 20 1010 68 10000 2.6 270 10:42 30.07.2019
4448 Clouds 20 1010 73 10000 3.1 270 10:21 30.07.2019
4449 Clouds 19 1010 77 10000 3.1 280 09:48 30.07.2019
4450 Clouds 19 1010 77 10000 3.1 280 09:30 30.07.2019
4451 Clouds 17 1010 82 8000 3.6 270 08:44 30.07.2019
4452 Rain 18 1010 88 8000 3.1 280 08:22 30.07.2019
4453 Clouds 17 1009 88 10000 2.6 310 07:46 30.07.2019
4454 Clouds 17 1009 88 10000 2.6 310 07:25 30.07.2019
4455 Clouds 17 1009 88 10000 1.5 330 06:46 30.07.2019
4456 Clouds 17 1008 88 10000 2.1 320 05:52 30.07.2019
4457 Clouds 17 1008 88 10000 2.1 320 05:32 30.07.2019
4458 Clouds 16 1008 93 10000 1 110 01:38 30.07.2019
4459 Clouds 16 1008 93 10000 2.1 110 00:40 30.07.2019
4460 Clouds 16 1008 93 10000 1.5 110 00:20 30.07.2019
4461 Clouds 14 1008 93 10000 2.1 90 23:44 29.07.2019
4462 Clouds 14 1008 93 10000 2.1 90 23:25 29.07.2019
4463 Rain 15 1008 93 10000 2.6 80 22:57 29.07.2019
4464 Rain 15 1008 88 10000 1.5 70 22:38 29.07.2019
4465 Rain 15 1008 88 10000 1.5 70 22:38 29.07.2019
4466 Clouds 15 1008 82 10000 1.5 120 22:19 29.07.2019
4467 Rain 15 1008 77 10000 2.1 150 21:46 29.07.2019
4468 Rain 15 1008 77 10000 2.1 150 21:46 29.07.2019
4469 Rain 15 1008 77 10000 2.1 150 21:28 29.07.2019
4470 Clouds 17 1007 77 10000 0.5 0 20:58 29.07.2019
4471 Clouds 17 1007 73 10000 3.1 130 20:40 29.07.2019
4472 Clouds 18 1007 68 10000 2.1 350 20:21 29.07.2019
4473 Rain 16 1007 68 10000 3.6 360 19:50 29.07.2019
4474 Rain 17 1007 68 10000 3.6 360 19:24 29.07.2019
4475 Rain 18 1006 69 10000 2.6 340 18:59 29.07.2019
4476 Clouds 18 1006 64 10000 2.6 350 18:40 29.07.2019
4477 Clouds 21 1006 61 10000 3.6 350 18:20 29.07.2019
4478 Clouds 22 1005 50 10000 4.6 290 17:49 29.07.2019
4479 Clouds 22 1005 50 10000 4.6 290 17:31 29.07.2019
4480 Clouds 23 1005 44 10000 3.6 290 16:57 29.07.2019
4481 Clouds 22 1005 54 10000 1.5 190 16:37 29.07.2019
4482 Clouds 22 1005 50 10000 2.6 110 16:19 29.07.2019
4483 -273 0 0 0 0 0 15:47 29.07.2019
4484 Clouds 25 1006 57 10000 2.6 150 15:28 29.07.2019
4485 Clouds 22 1006 64 10000 2.1 90 14:43 29.07.2019
4486 Clouds 22 1006 83 10000 1.5 0 14:21 29.07.2019
4487 Rain 23 1006 60 10000 3.1 310 13:48 29.07.2019
4488 Rain 22 1006 60 10000 3.1 310 13:24 29.07.2019
4489 Rain 22 1006 54 10000 1.5 0 12:59 29.07.2019
4490 Rain 23 1005 53 10000 2.6 40 12:40 29.07.2019
4491 Clouds 26 1006 57 10000 3.1 0 12:21 29.07.2019
4492 Clouds 25 1006 57 10000 3.6 50 11:42 29.07.2019
4493 Clouds 25 1006 57 10000 2.6 90 11:19 29.07.2019
4494 Clouds 24 1006 60 10000 3.6 80 10:44 29.07.2019
4495 Clouds 23 1006 64 10000 3.6 120 10:22 29.07.2019
4496 Clouds 22 1006 68 10000 4.6 100 09:44 29.07.2019
4497 Clouds 19 1006 73 10000 4.6 100 09:23 29.07.2019
4498 Clouds 19 1006 72 10000 4.1 90 08:49 29.07.2019
4499 Clouds 19 1006 72 10000 4.1 90 08:27 29.07.2019
4500 Clouds 19 1006 77 10000 3.1 120 07:50 29.07.2019
4501 Clouds 18 1006 77 10000 3.1 120 07:30 29.07.2019
4502 Clouds 18 1006 77 10000 3.1 120 07:30 29.07.2019
4503 Clouds 18 1006 88 10000 1 0 06:40 29.07.2019
4504 Clouds 14 1006 82 10000 1.5 180 05:37 29.07.2019
4505 Clouds 14 1006 82 10000 3.1 300 03:57 29.07.2019
4506 Clouds 17 1006 53 10000 5.7 110 01:52 29.07.2019
4507 Clouds 17 1006 53 10000 5.7 110 01:33 29.07.2019
4508 Clouds 17 1005 49 10000 6.2 100 00:58 29.07.2019
4509 Clear 17 1005 47 10000 5.1 110 00:29 29.07.2019
4510 Clear 18 1005 44 10000 6.7 120 23:43 28.07.2019
4511 Clear 18 1005 44 10000 6.7 120 23:24 28.07.2019
4512 Clear 18 1005 50 10000 5.7 130 22:44 28.07.2019
4513 Clear 18 1005 50 10000 5.7 130 22:26 28.07.2019
4514 Clear 21 1005 44 10000 5.1 100 21:52 28.07.2019
4515 Clear 20 1005 47 10000 5.1 100 21:20 28.07.2019
4516 Clear 21 1005 47 10000 6.2 110 20:57 28.07.2019
4517 Clear 21 1005 47 10000 6.2 110 20:39 28.07.2019
4518 Clear 21 1005 44 10000 7.7 120 20:21 28.07.2019
4519 Clouds 19 1005 47 10000 8.2 120 19:40 28.07.2019
4520 Clouds 22 1005 45 10000 8.7 120 19:20 28.07.2019
4521 Clouds 22 1005 45 10000 8.7 120 19:20 28.07.2019
4522 Clouds 22 1005 42 10000 9.3 120 18:46 28.07.2019
4523 Clouds 26 1005 42 10000 9.3 120 18:25 28.07.2019
4524 Clouds 26 1005 45 10000 9.3 140 17:56 28.07.2019
4525 Clouds 26 1006 45 10000 9.8 120 17:37 28.07.2019
4526 Clouds 29 1006 42 10000 9.3 130 17:19 28.07.2019
4527 Clouds 29 1006 42 10000 9.3 130 17:19 28.07.2019
4528 Clouds 30 1006 42 10000 7.7 130 16:41 28.07.2019
4529 Clouds 30 1006 42 10000 7.2 120 16:22 28.07.2019
4530 Clouds 30 1007 40 10000 7.7 120 15:44 28.07.2019
4531 Clouds 30 1007 40 10000 7.7 120 15:25 28.07.2019
4532 Clouds 30 1007 38 10000 8.2 110 14:39 28.07.2019
4533 Clouds 30 1007 38 10000 6.7 110 14:20 28.07.2019
4534 Clouds 27 1007 38 10000 6.7 110 13:56 28.07.2019
4535 Clouds 26 1008 42 10000 6.2 100 13:37 28.07.2019
4536 Clouds 27 1008 40 10000 6.2 100 13:19 28.07.2019
4537 Clear 29 1009 40 10000 4.6 110 12:42 28.07.2019
4538 Clear 26 1009 42 10000 5.7 100 12:23 28.07.2019
4539 Clear 26 1009 44 10000 6.2 90 11:49 28.07.2019
4540 Clear 26 1009 44 10000 6.2 90 11:28 28.07.2019
4541 Clear 24 1009 47 10000 5.7 90 10:43 28.07.2019
4542 Clear 24 1009 47 10000 5.7 90 10:23 28.07.2019
4543 Clear 24 1010 50 10000 5.7 90 10:00 28.07.2019
4544 Clear 23 1010 53 10000 5.1 100 09:39 28.07.2019
4545 Clear 22 1010 56 10000 4.1 100 09:20 28.07.2019
4546 Clear 21 1010 60 10000 5.1 110 08:41 28.07.2019
4547 Clear 21 1010 64 10000 3.1 120 08:21 28.07.2019
4548 Clear 19 1010 72 10000 3.6 110 07:39 28.07.2019
4549 Clear 18 1010 77 10000 3.6 100 06:56 28.07.2019
4550 Clear 18 1010 77 10000 3.6 90 06:28 28.07.2019
4551 Clear 16 1010 93 10000 2.56 117.839 05:19 28.07.2019
4552 Clear 17 1010 93 10000 3.27 104.819 02:25 28.07.2019
4553 Clear 17 1010 93 10000 2.1 280 01:31 28.07.2019
4554 Clear 17 1010 93 10000 3.09 97.242 00:52 28.07.2019
4555 Clear 17 1010 93 10000 2.48 104.462 00:25 28.07.2019
4556 Clear 17 1010 82 10000 1 0 23:48 27.07.2019
4557 Clear 17 1010 82 10000 1 0 23:27 27.07.2019
4558 Clear 17 1010 88 10000 0.5 0 22:43 27.07.2019
4559 Clear 16 1010 88 10000 0.5 0 22:23 27.07.2019
4560 Clouds 17 1009 88 10000 2.6 30 21:45 27.07.2019
4561 Clouds 20 1010 73 10000 3.1 250 21:23 27.07.2019
4562 Clouds 20 1010 73 10000 3.1 250 20:55 27.07.2019
4563 Rain 20 1009 73 10000 2.6 100 20:32 27.07.2019
4564 Thunderstorm 18 1009 83 8000 6.7 40 19:59 27.07.2019
4565 Thunderstorm 21 1009 64 7000 5.1 270 19:39 27.07.2019
4566 Thunderstorm 22 1008 39 8000 5.1 250 19:19 27.07.2019
4567 Rain 21 1008 42 10000 2.1 160 18:46 27.07.2019
4568 Rain 21 1008 42 10000 2.1 160 18:28 27.07.2019
4569 Clouds 27 1008 33 10000 2.1 140 17:50 27.07.2019
4570 Clouds 27 1008 33 10000 2.1 140 17:31 27.07.2019
4571 Clouds 27 1008 33 10000 2.6 160 16:54 27.07.2019
4572 Clouds 26 1008 31 10000 1 0 16:34 27.07.2019
4573 -273 0 0 0 0 0 15:56 27.07.2019
4574 Clouds 27 1008 26 10000 1.5 0 15:28 27.07.2019
4575 Clouds 26 1009 31 10000 3.1 0 14:53 27.07.2019
4576 Clouds 26 1009 31 10000 2.1 0 14:34 27.07.2019
4577 Clouds 28 1009 35 10000 2.1 0 13:59 27.07.2019
4578 Clouds 28 1010 35 10000 2.6 0 13:41 27.07.2019
4579 Clouds 26 1010 37 10000 1 0 13:21 27.07.2019
4580 Clouds 28 1010 39 10000 2.1 0 12:49 27.07.2019
4581 Clouds 27 1010 39 10000 2.1 0 12:26 27.07.2019
4582 Clouds 27 1011 42 10000 1.5 0 11:46 27.07.2019
4583 Clouds 26 1011 42 10000 1.5 0 11:25 27.07.2019
4584 Clear 26 1011 42 10000 2.1 0 10:57 27.07.2019
4585 Clear 25 1011 47 10000 2.1 0 10:39 27.07.2019
4586 Clear 24 1011 50 10000 2.1 130 10:18 27.07.2019
4587 Clear 23 1011 53 10000 1.5 0 09:40 27.07.2019
4588 Clear 20 1011 56 10000 2.1 100 09:21 27.07.2019
4589 Clear 19 1011 60 10000 3.1 80 08:46 27.07.2019
4590 Clear 18 1011 60 10000 3.1 80 08:26 27.07.2019
4591 Clouds 19 1011 68 10000 1.5 120 07:45 27.07.2019
4592 Clouds 19 1011 68 10000 2.1 110 07:23 27.07.2019
4593 Clouds 18 1011 68 10000 2.1 110 06:54 27.07.2019
4594 Clouds 16 1011 68 10000 1.5 150 06:28 27.07.2019
4595 Clouds 15 1011 77 10000 2.1 70 05:42 27.07.2019
4596 Clouds 16 1011 68 10000 2.6 160 04:52 27.07.2019
4597 Clouds 15 1011 77 10000 1 0 03:55 27.07.2019
4598 Clouds 15 1011 72 10000 1.5 180 02:43 27.07.2019
4599 Clear 15 1011 72 10000 3.1 150 02:20 27.07.2019
4600 Clear 15 1011 68 10000 2.6 140 01:41 27.07.2019
4601 Clear 15 1012 68 10000 2.6 150 00:51 27.07.2019
4602 Clear 16 1012 68 10000 2.6 150 00:31 27.07.2019
4603 Clear 16 1012 64 10000 3.1 120 23:49 26.07.2019
4604 Clear 16 1012 64 10000 3.1 120 23:26 26.07.2019
4605 Clear 17 1012 60 10000 2.6 120 22:44 26.07.2019
4606 Clear 17 1012 60 10000 2.6 120 22:26 26.07.2019
4607 Clear 17 1012 53 10000 2.1 120 21:52 26.07.2019
4608 Clear 19 1011 44 10000 2.1 170 21:21 26.07.2019
4609 Clear 19 1011 44 10000 2.1 170 20:58 26.07.2019
4610 Clouds 19 1011 44 10000 2.6 120 20:39 26.07.2019
4611 Clouds 20 1011 37 10000 2.1 180 20:21 26.07.2019
4612 Clouds 19 1011 30 10000 1.5 140 19:41 26.07.2019
4613 Clouds 21 1011 29 10000 1.5 110 19:22 26.07.2019
4614 Clouds 20 1011 29 10000 1.5 340 18:44 26.07.2019
4615 Clouds 26 1011 27 10000 1.5 0 18:21 26.07.2019
4616 Clouds 25 1011 27 10000 1.5 0 17:57 26.07.2019
4617 Clouds 25 1012 27 10000 2.6 260 17:38 26.07.2019
4618 Clouds 26 1012 27 10000 2.1 0 17:18 26.07.2019
4619 Clouds 25 1012 27 10000 2.1 0 16:55 26.07.2019
4620 Clouds 25 1012 27 10000 2.1 0 16:36 26.07.2019
4621 Clouds 25 1013 28 10000 1.5 0 16:18 26.07.2019
4622 Clouds 25 1013 28 10000 1.5 0 16:18 26.07.2019
4623 Clouds 26 1013 27 10000 3.6 300 15:44 26.07.2019
4624 Clouds 26 1013 29 10000 2.1 0 15:21 26.07.2019
4625 Clouds 26 1014 30 10000 3.6 240 14:46 26.07.2019
4626 Clouds 26 1014 28 10000 3.6 290 14:25 26.07.2019
4627 Clouds 25 1014 32 10000 2.1 0 13:48 26.07.2019
4628 Clouds 25 1014 32 10000 2.1 0 13:29 26.07.2019
4629 Clouds 25 1015 30 10000 2.1 0 12:55 26.07.2019
4630 Clouds 27 1015 39 10000 2.1 0 12:36 26.07.2019
4631 Clouds 25 1015 39 10000 1.5 0 12:18 26.07.2019
4632 Clouds 29 1015 47 10000 1.5 0 11:38 26.07.2019
4633 Clouds 23 1016 47 10000 1.5 250 11:18 26.07.2019
4634 Clouds 27 1016 57 10000 1.5 0 10:46 26.07.2019
4635 Clouds 26 1016 57 10000 1.5 0 10:28 26.07.2019
4636 Clouds 22 1017 60 10000 2.08 252.349 09:50 26.07.2019
4637 Clouds 22 1017 60 10000 2.08 252.349 09:31 26.07.2019
4638 Clear 20 1017 68 10000 1 0 08:42 26.07.2019
4639 Clear 19 1017 68 10000 0.5 0 08:21 26.07.2019
4640 Clear 18 1017 77 10000 2.1 350 07:52 26.07.2019
4641 Clear 17 1017 77 10000 2.1 350 07:26 26.07.2019
4642 Clear 15 1017 87 10000 0.98 195.24 06:31 26.07.2019
4643 Clear 13 1017 93 10000 0.03 304.824 04:31 26.07.2019
4644 Clear 13 1017 93 10000 0.5 0 03:55 26.07.2019
4645 Clear 15 1018 77 10000 2.6 160 01:50 26.07.2019
4646 Clear 16 1018 77 10000 2.6 160 01:26 26.07.2019
4647 Clear 16 1018 68 10000 2.1 130 00:32 26.07.2019
4648 Clear 17 1019 77 10000 2.1 110 23:48 25.07.2019
4649 Clear 17 1019 64 10000 1.5 120 23:23 25.07.2019
4650 Clear 17 1018 64 10000 1 0 22:42 25.07.2019
4651 Clear 17 1018 64 10000 1 0 22:23 25.07.2019
4652 Clouds 20 1018 60 10000 2.1 190 21:57 25.07.2019
4653 Clouds 20 1018 53 10000 0.5 0 21:38 25.07.2019
4654 Clear 21 1018 53 10000 2.1 150 21:20 25.07.2019
4655 Clouds 21 1018 50 10000 2.1 80 20:41 25.07.2019
4656 Clouds 21 1018 47 10000 2.1 90 20:21 25.07.2019
4657 Clouds 20 1018 42 10000 2.1 60 19:41 25.07.2019
4658 Clouds 20 1018 39 10000 2.6 280 19:23 25.07.2019
4659 Clouds 21 1018 39 10000 1 0 18:43 25.07.2019
4660 Clouds 24 1018 39 10000 2.6 70 18:25 25.07.2019
4661 Clouds 23 1018 42 10000 3.6 60 17:51 25.07.2019
4662 Clouds 23 1018 42 10000 3.6 60 17:33 25.07.2019
4663 Clouds 23 1018 39 10000 3.6 30 16:57 25.07.2019
4664 Clouds 24 1018 39 10000 3.6 20 16:39 25.07.2019
4665 Clouds 24 1018 37 10000 2.1 360 16:20 25.07.2019
4666 Clouds 23 1018 44 10000 3.6 40 15:50 25.07.2019
4667 Clouds 23 1018 44 10000 3.6 40 15:50 25.07.2019
4668 Clouds 23 1018 39 10000 3.1 10 15:21 25.07.2019
4669 Clouds 23 1019 42 10000 3.1 20 14:43 25.07.2019
4670 Clouds 23 1019 42 10000 3.1 20 14:23 25.07.2019
4671 Clouds 24 1019 42 10000 2.6 0 13:59 25.07.2019
4672 Clouds 23 1019 47 10000 2.6 40 13:37 25.07.2019
4673 Clouds 24 1019 42 10000 3.1 60 13:19 25.07.2019
4674 -273 0 0 0 0 0 12:34 25.07.2019
4675 Clouds 26 1019 47 10000 2.1 0 11:56 25.07.2019
4676 Clouds 23 1019 50 10000 1.5 0 11:38 25.07.2019
4677 Clouds 22 1020 50 10000 1.5 0 11:19 25.07.2019
4678 Clouds 25 1020 56 10000 2.1 260 10:42 25.07.2019
4679 Clouds 24 1020 56 10000 2.1 260 10:23 25.07.2019
4680 Clouds 22 1020 64 10000 1.5 310 09:44 25.07.2019
4681 Clouds 19 1020 64 10000 1.5 310 09:26 25.07.2019
4682 Clouds 18 1020 72 10000 1.5 110 08:47 25.07.2019
4683 Clouds 17 1020 77 10000 1.5 70 08:20 25.07.2019
4684 Clouds 16 1020 82 10000 1.5 90 07:37 25.07.2019
4685 Clouds 15 1020 82 10000 1.5 120 06:45 25.07.2019
4686 Clouds 14 1019 82 10000 2.1 170 05:53 25.07.2019
4687 Clouds 14 1019 82 10000 2.1 170 05:31 25.07.2019
4688 Clouds 14 1019 77 10000 1 90 04:39 25.07.2019
4689 Clear 14 1019 72 10000 2.1 180 02:24 25.07.2019
4690 Clear 14 1019 77 10000 1.5 120 01:21 25.07.2019
4691 Clear 14 1019 77 10000 1.5 140 00:23 25.07.2019
4692 Clear 14 1019 82 10000 2.6 90 23:53 24.07.2019
4693 Clear 14 1019 82 10000 2.6 90 23:32 24.07.2019
4694 Clear 15 1019 68 10000 1.5 120 22:58 24.07.2019
4695 Clear 15 1019 68 10000 2.6 200 22:40 24.07.2019
4696 Clear 15 1019 64 10000 1.5 200 22:21 24.07.2019
4697 Clear 16 1018 60 10000 2.1 150 21:43 24.07.2019
4698 Clouds 16 1018 60 10000 2.6 90 21:22 24.07.2019
4699 Clouds 17 1018 60 10000 2.6 90 20:58 24.07.2019
4700 Clouds 18 1018 56 10000 2.6 110 20:38 24.07.2019
4701 Clouds 18 1018 53 10000 3.6 110 20:20 24.07.2019
4702 Clouds 16 1018 53 10000 3.6 110 19:54 24.07.2019
4703 Clouds 17 1017 53 10000 3.6 80 19:36 24.07.2019
4704 Clouds 20 1017 47 10000 3.1 40 19:18 24.07.2019
4705 Clouds 18 1017 47 10000 3.6 50 18:40 24.07.2019
4706 Clouds 22 1017 44 10000 4.1 50 18:22 24.07.2019
4707 Clouds 21 1017 47 10000 5.1 30 17:42 24.07.2019
4708 Clouds 21 1017 47 10000 4.1 50 17:20 24.07.2019
4709 Clouds 21 1017 44 10000 2.1 0 16:41 24.07.2019
4710 Clouds 22 1017 47 10000 3.1 70 16:22 24.07.2019
4711 Clouds 22 1017 47 10000 1.5 0 15:40 24.07.2019
4712 Clouds 20 1017 47 10000 3.6 40 15:21 24.07.2019
4713 Clouds 21 1017 47 10000 3.6 40 14:56 24.07.2019
4714 Clouds 21 1017 47 10000 3.1 70 14:56 24.07.2019
4715 Clouds 21 1017 47 10000 3.1 70 14:38 24.07.2019
4716 Clouds 21 1017 47 10000 3.6 90 14:18 24.07.2019
4717 Clouds 25 1017 53 10000 2.6 0 13:37 24.07.2019
4718 Clouds 25 1017 53 10000 2.6 130 13:18 24.07.2019
4719 Clouds 24 1017 56 10000 1.5 0 12:49 24.07.2019
4720 Clouds 19 1017 56 10000 1.5 0 12:26 24.07.2019
4721 Clouds 18 1017 64 10000 3.6 250 11:38 24.07.2019
4722 Clouds 19 1017 64 10000 1.5 310 11:19 24.07.2019
4723 Clouds 19 1017 64 10000 2.1 300 10:43 24.07.2019
4724 Clouds 18 1017 64 10000 2.1 300 10:24 24.07.2019
4725 Clouds 18 1017 77 10000 2.6 290 09:45 24.07.2019
4726 Clouds 18 1017 77 10000 2.6 290 09:24 24.07.2019
4727 Rain 18 1017 82 10000 2.6 310 08:56 24.07.2019
4728 Clouds 18 1016 77 10000 2.6 280 08:30 24.07.2019
4729 Clouds 18 1016 68 10000 2.6 300 07:51 24.07.2019
4730 Clouds 18 1016 68 10000 2.6 300 07:24 24.07.2019
4731 Clouds 18 1016 68 10000 1 0 06:29 24.07.2019
4732 Clouds 16 1016 68 10000 2.6 310 05:33 24.07.2019
4733 Clouds 18 1016 56 10000 3.1 300 01:59 24.07.2019
4734 Clouds 18 1016 56 10000 2.6 290 01:29 24.07.2019
4735 Clouds 18 1017 56 10000 2.1 280 00:57 24.07.2019
4736 Clouds 18 1017 49 10000 3.1 280 00:22 24.07.2019
4737 Clouds 19 1017 47 10000 3.1 280 23:41 23.07.2019
4738 Clouds 19 1017 44 10000 2.6 280 23:23 23.07.2019
4739 Clouds 14 1017 44 10000 2.1 290 22:39 23.07.2019
4740 Clouds 18 1017 41 10000 2.1 330 22:19 23.07.2019
4741 Clouds 18 1017 41 10000 2.1 330 21:58 23.07.2019
4742 Clouds 18 1016 44 10000 1.5 320 21:39 23.07.2019
4743 Clouds 20 1016 44 10000 1.5 340 21:21 23.07.2019
4744 Clouds 20 1016 44 10000 2.1 10 20:44 23.07.2019
4745 Clouds 21 1016 41 10000 3.1 350 20:21 23.07.2019
4746 Clouds 16 1016 41 10000 3.6 350 19:41 23.07.2019
4747 Clouds 16 1016 39 10000 3.6 350 19:19 23.07.2019
4748 Clouds 16 1015 36 10000 4.1 350 18:47 23.07.2019
4749 Clouds 24 1016 36 10000 3.1 330 18:23 23.07.2019
4750 Clouds 24 1016 32 10000 4.1 340 17:44 23.07.2019
4751 Clouds 24 1016 37 10000 4.6 330 17:25 23.07.2019
4752 Clouds 24 1016 37 10000 4.1 330 16:51 23.07.2019
4753 Clouds 24 1016 37 10000 4.1 330 16:28 23.07.2019
4754 Clouds 24 1016 32 10000 3.6 330 15:59 23.07.2019
4755 Clouds 24 1016 30 10000 3.6 340 15:40 23.07.2019
4756 Clouds 24 1016 34 10000 4.1 320 15:21 23.07.2019
4757 Clouds 24 1017 36 10000 5.1 310 14:38 23.07.2019
4758 Clouds 24 1017 37 10000 4.6 300 14:19 23.07.2019
4759 Clouds 24 1017 37 10000 4.6 300 13:56 23.07.2019
4760 Clouds 24 1017 37 10000 4.6 300 13:56 23.07.2019
4761 Clouds 26 1017 37 10000 4.1 280 13:38 23.07.2019
4762 Clouds 24 1018 36 10000 5.1 280 13:20 23.07.2019
4763 Clouds 25 1018 36 10000 5.1 300 12:44 23.07.2019
4764 Clouds 21 1018 39 10000 3.1 240 12:25 23.07.2019
4765 Clouds 21 1018 39 10000 5.7 280 11:45 23.07.2019
4766 Clouds 20 1018 39 10000 5.7 280 11:26 23.07.2019
4767 Clouds 24 1019 47 10000 5.1 280 10:52 23.07.2019
4768 Clouds 23 1019 47 10000 5.1 280 10:26 23.07.2019
4769 Clouds 22 1019 56 10000 4.6 300 09:44 23.07.2019
4770 Clouds 19 1019 60 10000 4.1 290 09:24 23.07.2019
4771 Clouds 20 1019 60 10000 4.1 290 08:57 23.07.2019
4772 Clear 20 1019 64 10000 4.6 290 08:38 23.07.2019
4773 Clear 19 1019 68 10000 4.1 280 08:19 23.07.2019
4774 Clouds 19 1020 72 10000 1 0 07:50 23.07.2019
4775 Clouds 19 1020 72 10000 1 0 07:32 23.07.2019
4776 Clouds 17 1020 88 8000 1.5 340 06:38 23.07.2019
4777 Clouds 13 1019 88 10000 1.5 360 04:51 23.07.2019
4778 Clouds 14 1020 88 10000 1.5 110 01:55 23.07.2019
4779 Clouds 16 1020 68 10000 2.1 100 01:20 23.07.2019
4780 Clouds 16 1021 69 10000 1 0 00:27 23.07.2019
4781 Clouds 16 1021 68 10000 1.5 300 23:40 22.07.2019
4782 Clear 16 1021 68 10000 3.6 280 23:21 22.07.2019
4783 Clear 15 1020 64 10000 4.1 270 22:46 22.07.2019
4784 Clear 16 1021 64 10000 3.6 280 22:27 22.07.2019
4785 Clear 18 1021 64 10000 3.6 280 21:58 22.07.2019
4786 Clear 18 1021 60 10000 4.1 280 21:40 22.07.2019
4787 Clear 19 1020 60 10000 5.1 280 21:20 22.07.2019
4788 Clear 19 1020 60 10000 5.1 280 20:44 22.07.2019
4789 Clear 19 1020 57 10000 5.1 280 20:23 22.07.2019
4790 Clear 17 1020 53 10000 4.1 280 19:43 22.07.2019
4791 Clear 19 1020 53 10000 4.1 280 19:24 22.07.2019
4792 Rain 19 1020 47 10000 1 0 18:55 22.07.2019
4793 Rain 19 1020 47 10000 1 0 18:37 22.07.2019
4794 Thunderstorm 24 1020 34 10000 4.1 20 18:19 22.07.2019
4795 Thunderstorm 25 1020 42 10000 4.1 360 17:39 22.07.2019
4796 Rain 26 1019 45 10000 3.6 290 17:20 22.07.2019
4797 Rain 26 1019 45 10000 3.6 290 17:20 22.07.2019
4798 Clouds 26 1020 45 10000 5.7 300 16:41 22.07.2019
4799 Clouds 24 1020 37 10000 2.1 280 16:21 22.07.2019
4800 Clouds 26 1020 37 10000 2.1 280 15:55 22.07.2019
4801 Clouds 24 1020 35 10000 2.1 50 15:36 22.07.2019
4802 Clouds 25 1020 37 10000 4.6 30 15:18 22.07.2019
4803 Clouds 25 1020 35 10000 3.1 0 14:42 22.07.2019
4804 Rain 25 1020 40 10000 4.1 40 14:19 22.07.2019
4805 Clouds 26 1021 38 10000 3.1 80 13:45 22.07.2019
4806 Clouds 27 1021 40 10000 2.1 0 13:22 22.07.2019
4807 Clouds 27 1021 37 10000 2.1 0 12:44 22.07.2019
4808 Clouds 23 1021 39 10000 2.1 0 12:23 22.07.2019
4809 Clouds 25 1021 42 10000 2.1 280 11:44 22.07.2019
4810 Clear 26 1022 47 10000 1 0 11:20 22.07.2019
4811 Clear 27 1022 53 10000 1.5 0 10:43 22.07.2019
4812 Clear 24 1022 57 10000 1 0 10:25 22.07.2019
4813 Clear 25 1022 60 10000 1 0 09:43 22.07.2019
4814 Clear 22 1022 60 10000 1 0 09:24 22.07.2019
4815 Clear 20 1022 68 10000 1.5 280 08:44 22.07.2019
4816 Clear 19 1022 77 10000 1.5 70 08:25 22.07.2019
4817 Clear 18 1022 77 10000 1.5 90 07:54 22.07.2019
4818 Clear 18 1022 77 10000 1.5 90 07:32 22.07.2019
4819 Clear 16 1022 87 10000 0.5 0 06:44 22.07.2019
4820 Clear 14 1022 68 10000 0.66 338.359 03:55 22.07.2019
4821 Clear 14 1021 77 10000 2.1 50 01:53 22.07.2019
4822 Clouds 15 1022 72 10000 2.1 180 00:54 22.07.2019
4823 Clear 15 1022 77 10000 1.5 90 00:24 22.07.2019
4824 Clear 15 1022 77 10000 1.5 90 23:54 21.07.2019
4825 Clear 16 1022 64 10000 1 50 23:27 21.07.2019
4826 Clear 17 1021 56 10000 2.1 190 22:41 21.07.2019
4827 Clear 16 1021 64 10000 1.5 140 22:22 21.07.2019
4828 Clear 17 1021 64 10000 1.5 140 21:56 21.07.2019
4829 Clear 16 1021 53 10000 1.5 180 21:37 21.07.2019
4830 Clear 18 1020 53 10000 2.6 150 21:18 21.07.2019
4831 Clear 18 1020 53 10000 2.6 150 21:18 21.07.2019
4832 Clear 17 1020 50 10000 2.1 80 20:43 21.07.2019
4833 Clear 18 1020 42 10000 3.6 60 20:23 21.07.2019
4834 Clear 18 1019 39 10000 3.6 60 19:53 21.07.2019
4835 Clear 18 1019 39 10000 3.6 60 19:32 21.07.2019
4836 Clear 19 1019 37 10000 3.1 60 18:59 21.07.2019
4837 Clear 20 1019 33 10000 3.1 60 18:41 21.07.2019
4838 Clear 25 1019 35 10000 1.5 70 18:22 21.07.2019
4839 Clouds 25 1020 35 10000 3.1 100 17:41 21.07.2019
4840 Clouds 25 1020 35 10000 4.1 80 17:19 21.07.2019
4841 Clouds 25 1020 33 10000 2.6 40 16:43 21.07.2019
4842 Clouds 25 1020 33 10000 2.6 40 16:25 21.07.2019
4843 Clouds 25 1020 33 10000 2.1 0 15:47 21.07.2019
4844 Clouds 25 1020 33 10000 2.1 0 15:24 21.07.2019
4845 Clouds 25 1020 28 10000 1.5 0 14:58 21.07.2019
4846 Clouds 27 1021 33 10000 2.1 0 14:39 21.07.2019
4847 Clouds 25 1021 28 10000 2.1 0 14:18 21.07.2019
4848 Clouds 29 1021 28 10000 0.5 0 13:42 21.07.2019
4849 Clouds 29 1021 28 10000 0.5 0 13:24 21.07.2019
4850 Clear 29 1021 37 10000 1.5 0 12:42 21.07.2019
4851 Clear 25 1021 42 10000 1.5 0 12:24 21.07.2019
4852 Clear 25 1021 44 10000 1.5 0 11:46 21.07.2019
4853 Clear 25 1021 44 10000 1.5 0 11:28 21.07.2019
4854 Clear 26 1022 50 10000 1 0 10:47 21.07.2019
4855 Clear 25 1022 50 10000 1 0 10:26 21.07.2019
4856 Clear 25 1022 50 10000 1 0 10:26 21.07.2019
4857 Clear 24 1022 56 10000 1 0 09:56 21.07.2019
4858 Clear 23 1022 60 10000 1 0 09:36 21.07.2019
4859 Clear 23 1022 60 10000 1 0 09:36 21.07.2019
4860 Clear 19 1022 72 10000 1 0 08:52 21.07.2019
4861 Clear 19 1022 72 10000 1 0 08:34 21.07.2019
4862 Clear 18 1022 72 10000 0.96 158.409 07:58 21.07.2019
4863 Clear 16 1022 77 10000 0.96 158.409 07:32 21.07.2019
4864 Clear 15 1022 93 10000 0.96 158.409 06:38 21.07.2019
4865 Clear 12 1022 82 10000 2.6 120 04:21 21.07.2019
4866 Clear 13 1021 82 10000 2.1 130 01:57 21.07.2019
4867 Clear 13 1021 77 10000 2.6 140 00:48 21.07.2019
4868 Clear 13 1021 82 10000 1 140 00:21 21.07.2019
4869 Clear 14 1021 77 10000 0.5 0 23:46 20.07.2019
4870 Clear 14 1021 77 10000 0.5 0 23:27 20.07.2019
4871 Clear 14 1021 77 10000 2.1 130 22:55 20.07.2019
4872 Clear 14 1021 77 10000 2.1 120 22:37 20.07.2019
4873 Clear 15 1021 68 10000 2.6 160 22:18 20.07.2019
4874 Clear 15 1020 64 10000 2.6 120 21:42 20.07.2019
4875 Clear 16 1020 64 10000 2.6 120 21:24 20.07.2019
4876 Clear 17 1020 50 10000 2.1 150 20:43 20.07.2019
4877 Clear 18 1020 44 10000 1.5 150 20:23 20.07.2019
4878 Clear 16 1020 44 10000 2.1 150 19:49 20.07.2019
4879 Clear 18 1020 44 10000 2.1 150 19:27 20.07.2019
4880 Clear 17 1019 39 10000 3.6 110 18:46 20.07.2019
4881 Clear 23 1019 39 10000 3.6 110 18:26 20.07.2019
4882 Clouds 24 1020 42 10000 2.6 80 17:58 20.07.2019
4883 Clouds 23 1020 42 10000 3.6 90 17:37 20.07.2019
4884 Clouds 23 1020 42 10000 3.6 90 17:37 20.07.2019
4885 Clouds 23 1020 44 10000 4.1 100 17:19 20.07.2019
4886 Clouds 23 1020 44 10000 5.1 90 16:39 20.07.2019
4887 Clouds 26 1020 47 10000 5.1 110 16:21 20.07.2019
4888 Clouds 23 1020 47 10000 5.7 110 15:41 20.07.2019
4889 Clouds 24 1020 42 10000 6.2 100 15:21 20.07.2019
4890 Clouds 24 1020 39 10000 3.1 0 14:49 20.07.2019
4891 Clouds 23 1020 39 10000 3.1 0 14:29 20.07.2019
4892 Clouds 23 1020 37 10000 3.6 90 13:57 20.07.2019
4893 Clouds 24 1020 39 10000 2.1 90 13:37 20.07.2019
4894 Clouds 24 1020 39 10000 2.6 0 13:19 20.07.2019
4895 Clouds 24 1021 47 10000 1.5 0 12:48 20.07.2019
4896 Clouds 24 1021 50 10000 1.5 0 12:19 20.07.2019
4897 Clear 23 1021 53 10000 1.5 110 11:43 20.07.2019
4898 Clear 23 1021 56 10000 1.5 0 11:20 20.07.2019
4899 Clear 22 1021 64 10000 1.5 320 10:42 20.07.2019
4900 Clear 23 1021 64 10000 1 0 10:22 20.07.2019
4901 Clear 22 1021 68 10000 0.5 0 09:51 20.07.2019
4902 Clear 19 1021 68 10000 0.5 0 09:25 20.07.2019
4903 Clear 17 1021 77 10000 1 0 08:51 20.07.2019
4904 Clear 16 1021 87 10000 1 0 08:23 20.07.2019
4905 Clear 15 1021 87 10000 1 0 07:39 20.07.2019
4906 Clear 14 1021 93 10000 1.37 148.425 06:46 20.07.2019
4907 Clear 11 1021 93 10000 0.99 105.969 05:25 20.07.2019
4908 Clear 11 1020 93 10000 1 0 04:31 20.07.2019
4909 Clear 12 1020 87 10000 1 0 01:55 20.07.2019
4910 Clear 12 1020 87 10000 2.1 170 00:53 20.07.2019
4911 Clear 12 1020 87 10000 2.1 170 00:33 20.07.2019
4912 Clear 12 1020 87 10000 2.1 120 23:59 19.07.2019
4913 Clear 13 1020 82 10000 1.5 90 23:39 19.07.2019
4914 Clear 13 1019 77 10000 2.1 50 23:20 19.07.2019
4915 Clear 13 1019 68 10000 1 0 22:41 19.07.2019
4916 Clear 14 1019 68 10000 4.1 250 22:22 19.07.2019
4917 Clear 14 1020 72 10000 5.1 260 21:44 19.07.2019
4918 Clear 14 1020 72 10000 5.1 260 21:26 19.07.2019
4919 Clouds 14 1019 68 10000 3.1 310 20:44 19.07.2019
4920 Clouds 15 1019 72 10000 2.6 330 20:26 19.07.2019
4921 Clouds 17 1018 53 10000 1.5 0 19:45 19.07.2019
4922 Rain 17 1018 60 10000 1 0 19:20 19.07.2019
4923 Rain 17 1018 60 10000 1 0 19:20 19.07.2019
4924 Rain 16 1018 60 10000 2.6 330 18:42 19.07.2019
4925 Clouds 20 1018 52 10000 5.7 330 18:20 19.07.2019
4926 Thunderstorm 21 1018 49 10000 6.2 350 17:50 19.07.2019
4927 Thunderstorm 21 1018 49 10000 6.2 350 17:27 19.07.2019
4928 Clouds 21 1017 47 10000 6.7 120 16:48 19.07.2019
4929 Clouds 21 1017 47 10000 6.7 120 16:48 19.07.2019
4930 Clouds 22 1017 47 10000 5.1 90 16:26 19.07.2019
4931 Clouds 22 1017 47 10000 8.2 100 15:50 19.07.2019
4932 Clouds 22 1017 47 10000 8.2 100 15:30 19.07.2019
4933 Clouds 23 1017 42 10000 3.1 140 14:56 19.07.2019
4934 Clouds 23 1017 42 10000 3.1 140 14:38 19.07.2019
4935 Clouds 24 1017 39 10000 2.1 160 14:20 19.07.2019
4936 Clouds 23 1017 37 10000 2.6 120 13:43 19.07.2019
4937 Clouds 23 1017 37 10000 2.6 120 13:43 19.07.2019
4938 Clouds 23 1017 37 10000 2.6 120 13:43 19.07.2019
4939 Clouds 23 1017 37 10000 2.6 120 13:43 19.07.2019
4940 Clouds 26 1017 42 10000 1.5 0 13:24 19.07.2019
4941 Clouds 26 1017 42 10000 1.5 0 12:54 19.07.2019
4942 Clouds 22 1017 44 10000 0.5 0 12:30 19.07.2019
4943 Clouds 22 1018 44 10000 2.1 0 11:58 19.07.2019
4944 Clouds 21 1018 53 10000 2.1 160 11:39 19.07.2019
4945 Clear 25 1018 53 10000 1.5 0 11:18 19.07.2019
4946 Clear 22 1018 56 10000 2.1 100 10:40 19.07.2019
4947 Clear 23 1018 56 10000 1.5 0 10:21 19.07.2019
4948 Clear 23 1018 56 10000 1.5 0 10:21 19.07.2019
4949 Clear 22 1018 60 10000 1 0 09:44 19.07.2019
4950 Clear 19 1018 64 10000 0.5 0 09:22 19.07.2019
4951 Clear 19 1018 64 10000 0.5 0 08:57 19.07.2019
4952 Clear 18 1018 72 10000 0.5 0 08:39 19.07.2019
4953 Clear 16 1018 82 10000 1.5 140 07:43 19.07.2019
4954 Clear 15 1018 82 10000 1.5 140 07:25 19.07.2019
4955 Clear 12 1017 87 10000 1.05 101.833 05:55 19.07.2019
4956 Clear 13 1016 77 10000 2.1 100 02:23 19.07.2019
4957 Clear 13 1016 77 10000 0.95 75.804 00:59 19.07.2019
4958 Clear 14 1016 72 10000 3.1 140 00:26 19.07.2019
4959 Clear 14 1016 77 10000 2.1 70 23:43 18.07.2019
4960 Clear 15 1015 63 10000 2.1 150 23:23 18.07.2019
4961 Clear 16 1015 63 10000 2.1 150 22:59 18.07.2019
4962 Clear 16 1015 60 10000 2.6 170 22:39 18.07.2019
4963 Clear 16 1015 60 10000 2.6 170 22:39 18.07.2019
4964 Clear 18 1015 60 10000 2.1 180 22:18 18.07.2019
4965 Clouds 18 1015 52 10000 2.6 170 21:40 18.07.2019
4966 Clouds 19 1014 53 10000 2.1 170 21:20 18.07.2019
4967 Clouds 19 1014 53 10000 2.6 150 20:49 18.07.2019
4968 Clouds 19 1014 53 10000 2.6 150 20:27 18.07.2019
4969 Clouds 18 1013 44 10000 2.6 40 19:52 18.07.2019
4970 Clouds 18 1013 44 10000 2.6 40 19:30 18.07.2019
4971 Clouds 19 1013 44 10000 3.1 360 18:57 18.07.2019
4972 Clouds 22 1013 44 10000 4.1 70 18:24 18.07.2019
4973 Clouds 22 1013 39 10000 2.6 30 17:58 18.07.2019
4974 Clouds 22 1013 36 10000 2.1 40 17:39 18.07.2019
4975 Clouds 22 1013 36 10000 1.5 0 17:19 18.07.2019
4976 Clouds 22 1013 34 10000 2.1 0 16:53 18.07.2019
4977 Clouds 23 1013 32 10000 1.5 0 16:29 18.07.2019
4978 Clouds 23 1013 32 10000 1.5 0 15:58 18.07.2019
4979 Clouds 23 1013 36 10000 2.1 0 15:36 18.07.2019
4980 Clouds 23 1013 32 10000 1 0 14:57 18.07.2019
4981 Clouds 22 1013 36 10000 3.1 310 14:38 18.07.2019
4982 Clouds 22 1013 36 10000 2.6 0 14:20 18.07.2019
4983 Clouds 22 1013 36 10000 2.6 0 13:43 18.07.2019
4984 Clouds 23 1013 43 0 0.89 315 13:22 18.07.2019
4985 Clouds 26 1014 41 10000 2.1 0 12:48 18.07.2019
4986 Clear 19 1014 47 10000 3.1 0 12:21 18.07.2019
4987 Clear 19 1014 47 10000 3.1 0 12:21 18.07.2019
4988 Clear 21 1014 46 10000 2.6 0 11:52 18.07.2019
4989 Clear 21 1014 46 10000 2.6 0 11:33 18.07.2019
4990 Clear 23 1014 56 10000 3.1 310 10:52 18.07.2019
4991 Clear 24 1014 56 10000 3.1 310 10:52 18.07.2019
4992 Clear 23 1014 56 10000 3.1 310 10:30 18.07.2019
4993 Clear 21 1014 63 10000 1 0 09:45 18.07.2019
4994 Clear 17 1014 68 10000 1 0 09:23 18.07.2019
4995 Clear 17 1014 63 10000 1 0 08:49 18.07.2019
4996 Clear 16 1014 82 10000 1.5 90 08:20 18.07.2019
4997 Clear 15 1014 82 10000 1.5 90 07:43 18.07.2019
4998 Clear 14 1014 77 10000 1 0 07:24 18.07.2019
4999 Clear 13 1014 82 10000 1 300 06:37 18.07.2019
5000 Clear 9 1014 87 10000 0.5 350 05:33 18.07.2019
5001 Clear 10 1013 77 10000 1.34 334.39 02:55 18.07.2019
5002 Clear 10 1013 72 10000 1.44 332.26 01:50 18.07.2019
5003 Clear 11 1013 72 10000 1.5 240 00:35 18.07.2019
5004 Clouds 12 1013 59 10000 2.1 290 23:49 17.07.2019
5005 Clouds 12 1013 52 10000 2.1 310 23:19 17.07.2019
5006 Clouds 12 1013 52 10000 2.1 310 22:55 17.07.2019
5007 Clouds 13 1013 52 10000 1.5 310 22:36 17.07.2019
5008 Clouds 13 1013 46 10000 1.5 290 22:18 17.07.2019
5009 Clouds 13 1012 49 10000 2.1 320 21:41 17.07.2019
5010 Clouds 14 1012 46 10000 1 0 21:21 17.07.2019
5011 Clouds 14 1012 46 10000 1 0 20:58 17.07.2019
5012 Clouds 14 1012 43 10000 1.5 360 20:39 17.07.2019
5013 Clouds 18 1011 43 10000 2.6 10 20:20 17.07.2019
5014 Clouds 13 1011 43 10000 2.6 10 19:43 17.07.2019
5015 Clouds 14 1011 38 10000 3.1 20 19:22 17.07.2019
5016 Clouds 14 1011 33 10000 3.6 360 18:56 17.07.2019
5017 Clouds 14 1011 33 10000 3.6 360 18:38 17.07.2019
5018 Clouds 22 1011 34 10000 3.1 360 18:18 17.07.2019
5019 Clouds 20 1011 36 10000 1 0 17:43 17.07.2019
5020 Clouds 21 1011 36 10000 1 0 17:23 17.07.2019
5021 Clouds 20 1011 38 10000 2.6 0 16:42 17.07.2019
5022 Clouds 20 1011 38 10000 2.6 0 16:22 17.07.2019
5023 Clouds 21 1011 44 10000 1.5 0 15:51 17.07.2019
5024 Clouds 20 1012 47 10000 3.1 20 15:32 17.07.2019
5025 Clouds 20 1012 41 10000 2.1 360 14:57 17.07.2019
5026 Clouds 20 1012 47 10000 1.5 0 14:39 17.07.2019
5027 Clouds 20 1012 47 10000 1.5 0 14:21 17.07.2019
5028 Clouds 20 1012 47 10000 1.5 0 14:21 17.07.2019
5029 Clouds 21 1012 44 10000 1.5 10 13:51 17.07.2019
5030 Clouds 20 1012 46 10000 2.6 300 13:31 17.07.2019
5031 Clouds 23 1012 46 10000 1.5 0 13:00 17.07.2019
5032 Clouds 24 1012 49 10000 2.1 0 12:38 17.07.2019
5033 Clouds 19 1012 49 10000 2.1 0 12:19 17.07.2019
5034 Clouds 19 1013 49 10000 2.6 0 11:41 17.07.2019
5035 Clouds 18 1013 49 10000 2.6 0 11:19 17.07.2019
5036 Clouds 23 1013 56 10000 2.1 0 10:48 17.07.2019
5037 Clouds 22 1013 60 10000 2.6 280 10:24 17.07.2019
5038 Clouds 21 1013 60 10000 2.1 310 09:45 17.07.2019
5039 Clouds 16 1013 63 10000 1 0 09:27 17.07.2019
5040 Clouds 16 1013 72 10000 0.5 0 08:45 17.07.2019
5041 Clouds 15 1013 77 10000 1 0 08:24 17.07.2019
5042 Clouds 14 1013 82 10000 1 0 07:58 17.07.2019
5043 Clouds 13 1013 82 10000 0.5 0 07:38 17.07.2019
5044 Clouds 13 1013 82 10000 0.5 0 07:20 17.07.2019
5045 Clouds 11 1013 93 10000 1.5 320 06:45 17.07.2019
5046 Clouds 11 1013 93 10000 1.5 320 06:22 17.07.2019
5047 Clouds 10 1013 93 8000 1.4 357.004 05:38 17.07.2019
5048 Clear 8 1013 87 10000 1.4 357.004 04:57 17.07.2019
5049 Clear 10 1013 93 10000 0.5 0 03:52 17.07.2019
5050 Clear 10 1013 93 10000 2.1 290 02:43 17.07.2019
5051 Clear 11 1013 87 10000 1.5 260 01:42 17.07.2019
5052 Clear 10 1013 87 10000 1.5 260 01:22 17.07.2019
5053 Clear 10 1013 87 10000 1 0 00:39 17.07.2019
5054 Clear 10 1013 87 10000 1 0 00:20 17.07.2019
5055 Clear 11 1013 87 10000 1 0 23:45 16.07.2019
5056 Clear 13 1013 82 10000 1.43 18.739 23:24 16.07.2019
5057 Clear 13 1013 82 10000 1.43 18.739 23:24 16.07.2019
5058 Clear 13 1012 82 10000 1 0 22:44 16.07.2019
5059 Clear 12 1012 82 10000 1 0 22:26 16.07.2019
5060 Clear 12 1012 72 10000 2.1 180 21:59 16.07.2019
5061 Clear 12 1012 72 10000 2.1 180 21:59 16.07.2019
5062 Clouds 14 1012 72 10000 2.1 40 21:40 16.07.2019
5063 Clouds 14 1012 72 10000 2.1 40 21:19 16.07.2019
5064 Clouds 14 1012 63 10000 1.5 360 20:41 16.07.2019
5065 Clouds 14 1012 63 10000 1.5 360 20:41 16.07.2019
5066 Clouds 14 1012 63 10000 1.5 360 20:23 16.07.2019
5067 Clouds 15 1012 64 10000 2.6 60 19:55 16.07.2019
5068 Clouds 15 1012 60 10000 2.1 130 19:33 16.07.2019
5069 Clouds 15 1012 60 10000 3.6 150 18:59 16.07.2019
5070 Clouds 16 1011 60 10000 4.6 140 18:41 16.07.2019
5071 Clouds 17 1011 60 10000 4.6 140 18:21 16.07.2019
5072 Clouds 17 1011 64 10000 5.1 90 17:49 16.07.2019
5073 Clouds 17 1011 60 10000 5.1 90 17:28 16.07.2019
5074 Clouds 17 1011 60 10000 4.1 40 16:51 16.07.2019
5075 Clouds 17 1011 56 10000 3.6 10 16:27 16.07.2019
5076 Clouds 17 1011 53 10000 3.6 10 15:57 16.07.2019
5077 Clouds 18 1011 49 10000 4.6 20 15:39 16.07.2019
5078 Clouds 18 1011 49 10000 4.6 20 15:19 16.07.2019
5079 Clouds 18 1011 49 10000 5.1 10 14:55 16.07.2019
5080 Clouds 19 1011 46 10000 3.1 340 14:37 16.07.2019
5081 Clouds 19 1011 46 10000 3.1 340 14:18 16.07.2019
5082 Clouds 20 1011 46 10000 3.1 10 13:43 16.07.2019
5083 Clouds 19 1011 46 10000 3.1 10 13:18 16.07.2019
5084 Clouds 19 1012 53 10000 2.6 110 12:44 16.07.2019
5085 Clouds 18 1012 53 10000 2.6 110 12:20 16.07.2019
5086 Clouds 18 1012 53 10000 2.6 100 11:55 16.07.2019
5087 Clouds 18 1012 56 10000 2.1 110 11:36 16.07.2019
5088 Clouds 17 1012 56 10000 2.1 110 11:18 16.07.2019
5089 Clouds 17 1012 56 10000 2.1 110 11:18 16.07.2019
5090 Clouds 22 1012 64 10000 1.5 270 10:44 16.07.2019
5091 Clouds 21 1012 64 10000 1.5 270 10:20 16.07.2019
5092 Clouds 19 1012 77 10000 1.5 290 09:44 16.07.2019
5093 Clouds 15 1012 77 10000 1.5 290 09:21 16.07.2019
5094 Clouds 14 1012 77 10000 1.5 310 08:49 16.07.2019
5095 Clouds 15 1012 82 10000 1.1 317.908 08:28 16.07.2019
5096 Clouds 14 1013 87 10000 0.5 0 07:58 16.07.2019
5097 Clouds 13 1013 93 10000 1 0 07:39 16.07.2019
5098 Clouds 12 1013 87 10000 0.5 0 06:59 16.07.2019
5099 Clouds 11 1012 93 10000 0.5 0 06:38 16.07.2019
5100 Clouds 9 1012 93 10000 1.5 310 05:52 16.07.2019
5101 Clouds 9 1012 93 10000 0.5 300 05:30 16.07.2019
5102 Clouds 9 1012 93 10000 1.5 320 04:45 16.07.2019
5103 Clear 9 1012 93 10000 1.5 320 03:44 16.07.2019
5104 Clear 9 1012 93 10000 0.5 0 02:46 16.07.2019
5105 Clear 9 1012 87 10000 0.5 0 02:28 16.07.2019
5106 Clouds 10 1013 87 10000 1.5 240 01:36 16.07.2019
5107 Clouds 12 1013 82 10000 1 0 00:27 16.07.2019
5108 Clouds 13 1013 77 10000 2.1 310 23:59 15.07.2019
5109 Clear 13 1013 77 10000 2.1 280 23:39 15.07.2019
5110 Clear 13 1013 77 10000 2.1 280 23:39 15.07.2019
5111 Clear 11 1013 77 10000 2.1 280 23:21 15.07.2019
5112 Clouds 12 1013 72 10000 3.1 280 22:46 15.07.2019
5113 Clear 12 1013 63 10000 2.1 280 22:21 15.07.2019
5114 Clouds 15 1012 68 10000 2.6 210 21:57 15.07.2019
5115 Clouds 13 1012 68 10000 0.5 0 21:39 15.07.2019
5116 Clouds 15 1012 68 10000 0.5 0 21:19 15.07.2019
5117 Clouds 16 1012 63 10000 2.6 20 20:44 15.07.2019
5118 Clouds 16 1011 68 10000 2.6 20 20:24 15.07.2019
5119 Clouds 11 1011 60 10000 3.6 290 19:58 15.07.2019
5120 Clouds 12 1011 56 10000 2.1 340 19:38 15.07.2019
5121 Clouds 15 1011 56 10000 2.1 340 19:18 15.07.2019
5122 Clouds 12 1010 53 10000 3.1 310 18:45 15.07.2019
5123 Clouds 19 1010 53 10000 3.1 310 18:21 15.07.2019
5124 Clouds 19 1010 53 10000 4.6 310 17:57 15.07.2019
5125 Clouds 19 1010 49 10000 4.6 310 17:38 15.07.2019
5126 Clouds 18 1010 49 10000 4.6 310 17:20 15.07.2019
5127 Clouds 18 1010 46 10000 3.1 340 16:57 15.07.2019
5128 Rain 18 1010 53 10000 3.1 330 16:36 15.07.2019
5129 Rain 18 1010 53 10000 3.1 330 16:18 15.07.2019
5130 Rain 18 1010 56 10000 3.1 340 15:39 15.07.2019
5131 Rain 18 1010 56 10000 3.1 340 15:21 15.07.2019
5132 Clouds 18 1010 56 10000 5.1 330 14:57 15.07.2019
5133 Clouds 19 1010 49 10000 4.1 0 14:37 15.07.2019
5134 Clouds 19 1010 49 10000 4.1 0 14:19 15.07.2019
5135 Clouds 19 1010 53 10000 3.1 260 13:45 15.07.2019
5136 Clouds 20 1011 52 10000 4.1 240 13:18 15.07.2019
5137 Clouds 19 1011 49 10000 3.1 280 12:43 15.07.2019
5138 Clouds 22 1011 49 10000 3.1 280 12:24 15.07.2019
5139 Clouds 18 1011 60 10000 3.6 310 11:44 15.07.2019
5140 Clouds 17 1011 60 10000 3.6 310 11:26 15.07.2019
5141 Clouds 18 1011 63 10000 2.6 290 10:54 15.07.2019
5142 Clouds 18 1011 63 10000 2.1 300 10:36 15.07.2019
5143 Clouds 21 1011 63 10000 2.1 300 10:18 15.07.2019
5144 Clouds 19 1011 77 10000 2.1 0 09:41 15.07.2019
5145 Clouds 14 1011 77 10000 2.1 0 09:19 15.07.2019
5146 Clouds 14 1011 87 10000 1.5 360 08:43 15.07.2019
5147 Clouds 15 1011 87 10000 1.5 360 08:24 15.07.2019
5148 Clouds 14 1011 87 8000 1 0 07:43 15.07.2019
5149 Clouds 13 1011 87 8000 1 0 07:21 15.07.2019
5150 Rain 12 1011 93 5000 2.6 330 06:39 15.07.2019
5151 Rain 10 1011 100 5000 2.1 320 05:51 15.07.2019
5152 Rain 10 1011 100 5000 2.1 320 05:51 15.07.2019
5153 Mist 9 1011 93 5000 1.5 310 05:32 15.07.2019
5154 Clouds 10 1011 93 8000 1.5 350 04:43 15.07.2019
5155 Clouds 10 1010 93 10000 2.1 340 03:58 15.07.2019
5156 Clouds 10 1010 93 10000 2.1 340 03:58 15.07.2019
5157 Clouds 10 1011 87 10000 2.6 280 02:47 15.07.2019
5158 Clouds 9 1011 93 10000 1 0 01:53 15.07.2019
5159 Clouds 10 1011 87 10000 1 0 01:28 15.07.2019
5160 Clouds 9 1011 87 10000 2.6 290 00:53 15.07.2019
5161 Clouds 11 1011 93 10000 3.1 280 00:23 15.07.2019
5162 Clouds 11 1011 93 10000 3.1 270 23:57 14.07.2019
5163 Clouds 10 1011 93 10000 3.1 280 23:37 14.07.2019
5164 Clouds 10 1011 93 10000 3.1 280 23:18 14.07.2019
5165 Clouds 10 1011 93 10000 2.6 300 22:55 14.07.2019
5166 Clouds 10 1011 87 10000 2.1 300 22:36 14.07.2019
5167 Clouds 10 1011 87 10000 2.1 300 22:18 14.07.2019
5168 Clouds 9 1011 87 10000 2.6 230 21:42 14.07.2019
5169 Clouds 12 1011 87 10000 2.6 230 21:18 14.07.2019
5170 Rain 12 1010 87 10000 2.6 270 20:57 14.07.2019
5171 Rain 12 1010 93 7000 2.6 320 20:37 14.07.2019
5172 Rain 12 1010 93 7000 2.6 320 20:18 14.07.2019
5173 Rain 11 1010 77 10000 1.5 330 19:43 14.07.2019
5174 Rain 14 1010 77 10000 1.5 330 19:24 14.07.2019
5175 Rain 15 1009 87 10000 2.6 360 18:57 14.07.2019
5176 Clouds 16 1009 72 8000 4.6 310 18:38 14.07.2019
5177 Clouds 16 1009 68 10000 2.6 250 18:19 14.07.2019
5178 Clouds 16 1009 68 10000 2.6 250 17:47 14.07.2019
5179 Clouds 15 1009 77 10000 3.1 230 17:21 14.07.2019
5180 Clouds 15 1009 82 10000 4.6 250 16:46 14.07.2019
5181 Clouds 15 1009 82 10000 4.6 250 16:24 14.07.2019
5182 Rain 15 1009 82 8000 5.7 270 15:54 14.07.2019
5183 Rain 18 1009 77 8000 2.6 310 15:29 14.07.2019
5184 Clouds 19 1009 68 10000 2.1 240 14:50 14.07.2019
5185 Clouds 18 1009 77 10000 2.6 280 14:22 14.07.2019
5186 Clouds 17 1009 87 10000 2.1 230 13:49 14.07.2019
5187 Rain 17 1009 87 8000 1.5 270 13:27 14.07.2019
5188 Clouds 17 1009 93 8000 2.1 40 12:59 14.07.2019
5189 Rain 17 1009 87 7000 1.5 350 12:41 14.07.2019
5190 Rain 13 1009 87 7000 1.5 350 12:21 14.07.2019
5191 Rain 13 1009 93 5000 1 0 11:52 14.07.2019
5192 Clouds 14 1009 77 10000 2.6 350 11:24 14.07.2019
5193 Clouds 15 1009 77 10000 3.6 290 10:50 14.07.2019
5194 Clouds 14 1009 77 10000 3.6 290 10:25 14.07.2019
5195 Clouds 14 1009 82 10000 4.6 280 09:55 14.07.2019
5196 Clouds 14 1009 82 10000 4.1 290 09:37 14.07.2019
5197 Clouds 14 1009 82 10000 4.1 290 09:37 14.07.2019
5198 Clouds 14 1009 82 10000 4.1 290 09:18 14.07.2019
5199 Clouds 13 1009 87 10000 3.1 270 08:41 14.07.2019
5200 Rain 13 1009 87 6000 3.6 270 07:56 14.07.2019
5201 Rain 13 1009 87 8000 3.6 270 07:34 14.07.2019
5202 Clouds 13 1009 87 10000 3.6 270 06:23 14.07.2019
5203 Clouds 13 1009 87 10000 2.6 290 05:43 14.07.2019
5204 Rain 13 1009 93 10000 1.5 30 03:45 14.07.2019
5205 Clouds 13 1010 93 10000 0.5 0 03:27 14.07.2019
5206 Clouds 14 1010 93 10000 1.5 210 02:38 14.07.2019
5207 Clouds 13 1010 93 10000 1.5 210 02:20 14.07.2019
5208 Rain 14 1010 87 10000 1 0 01:30 14.07.2019
5209 Rain 13 1011 87 8000 3.6 310 00:55 14.07.2019
5210 Rain 13 1011 93 8000 2.6 340 00:36 14.07.2019
5211 Rain 13 1011 93 8000 2.6 340 00:18 14.07.2019
5212 Rain 13 1010 82 10000 2.6 190 23:41 13.07.2019
5213 Rain 13 1010 82 10000 2.6 190 23:22 13.07.2019
5214 Clouds 13 1010 77 10000 1.03 206.118 22:43 13.07.2019
5215 Clouds 12 1010 77 10000 1.03 206.118 22:22 13.07.2019
5216 Clouds 10 1010 77 10000 3.1 130 21:49 13.07.2019
5217 Clouds 13 1010 68 10000 3.1 120 21:22 13.07.2019
5218 Clouds 13 1009 68 10000 3.6 110 20:53 13.07.2019
5219 Clouds 13 1010 72 10000 3.1 110 20:34 13.07.2019
5220 Clouds 12 1010 68 10000 4.1 120 19:53 13.07.2019
5221 Clouds 12 1010 64 10000 3.6 130 19:31 13.07.2019
5222 Clouds 15 1010 60 10000 3.6 90 18:56 13.07.2019
5223 Clouds 14 1010 60 10000 5.1 90 18:38 13.07.2019
5224 Clouds 18 1010 60 10000 5.1 90 18:18 13.07.2019
5225 Clouds 18 1010 56 10000 3.1 140 17:37 13.07.2019
5226 Clouds 19 1010 56 10000 3.1 140 17:19 13.07.2019
5227 Clouds 19 1010 53 10000 3.1 150 16:43 13.07.2019
5228 Clouds 20 1010 53 10000 3.1 150 16:24 13.07.2019
5229 Thunderstorm 20 1010 64 10000 4.1 160 15:46 13.07.2019
5230 Rain 21 1011 41 10000 5.7 220 15:24 13.07.2019
5231 Rain 21 1011 38 10000 1.5 40 14:47 13.07.2019
5232 Clouds 21 1011 38 10000 1.5 0 14:28 13.07.2019
5233 Clouds 20 1011 41 10000 1.5 0 13:58 13.07.2019
5234 Clouds 22 1011 38 10000 2.6 160 13:40 13.07.2019
5235 Clouds 22 1011 38 10000 2.6 160 13:19 13.07.2019
5236 Clouds 24 1012 38 10000 1.5 0 12:40 13.07.2019
5237 Clouds 20 1012 38 10000 1.5 0 12:22 13.07.2019
5238 Clouds 24 1012 38 10000 3.1 310 11:57 13.07.2019
5239 Clouds 24 1012 38 10000 2.1 0 11:20 13.07.2019
5240 Clouds 23 1012 43 10000 2.1 30 10:55 13.07.2019
5241 Clouds 23 1013 46 10000 1.5 0 10:37 13.07.2019
5242 Clouds 23 1013 46 10000 1.5 0 10:18 13.07.2019
5243 Clouds 21 1013 55 10000 1.5 290 09:41 13.07.2019
5244 Clouds 18 1013 55 10000 1.5 290 09:20 13.07.2019
5245 Clouds 17 1014 63 10000 1 0 08:45 13.07.2019
5246 Clouds 17 1014 63 10000 1 0 08:26 13.07.2019
5247 Clear 14 1013 72 10000 2.6 110 07:30 13.07.2019
5248 Clear 13 1013 82 10000 2.6 90 06:50 13.07.2019
5249 Clear 12 1013 87 10000 2.1 90 06:22 13.07.2019
5250 Clear 12 1013 87 10000 1.5 110 05:33 13.07.2019
5251 Clear 10 1013 87 10000 1.5 110 04:24 13.07.2019
5252 Clear 12 1013 82 10000 1.5 130 03:57 13.07.2019
5253 Clear 11 1014 82 10000 1.5 130 03:39 13.07.2019
5254 Clear 12 1014 72 10000 0.5 0 02:18 13.07.2019
5255 Clear 10 1014 72 10000 0.45 332.755 01:41 13.07.2019
5256 Clear 10 1014 72 10000 0.22 8.746 01:19 13.07.2019
5257 Clear 10 1014 72 10000 0.22 8.746 00:54 13.07.2019
5258 Clear 11 1014 67 10000 1.5 320 00:20 13.07.2019
5259 Clear 12 1014 67 10000 2.1 280 23:48 12.07.2019
5260 Clear 11 1014 63 10000 1 0 23:29 12.07.2019
5261 Clear 10 1013 63 10000 2.1 350 22:46 12.07.2019
5262 Clear 10 1013 55 10000 1.5 310 22:24 12.07.2019
5263 Clear 13 1013 52 10000 1.5 300 21:43 12.07.2019
5264 Clear 16 1013 52 10000 1.5 300 21:22 12.07.2019
5265 Clear 14 1013 45 10000 3.1 300 20:57 12.07.2019
5266 Clear 14 1013 49 10000 2.6 290 20:38 12.07.2019
5267 Clear 13 1013 49 10000 2.6 290 20:20 12.07.2019
5268 Clear 12 1013 46 10000 3.1 310 19:42 12.07.2019
5269 Clear 12 1013 46 10000 3.1 310 19:23 12.07.2019
5270 Clear 12 1013 38 10000 1.5 310 18:46 12.07.2019
5271 Clear 19 1013 38 10000 1.5 310 18:22 12.07.2019
5272 Clear 16 1013 35 10000 2.6 330 17:53 12.07.2019
5273 Clear 16 1013 35 10000 3.1 310 17:29 12.07.2019
5274 Clouds 16 1013 35 10000 3.6 300 16:51 12.07.2019
5275 Clouds 19 1013 33 10000 4.1 300 16:23 12.07.2019
5276 Clouds 19 1013 31 10000 4.1 250 15:54 12.07.2019
5277 Clouds 19 1013 33 10000 4.6 290 15:36 12.07.2019
5278 Clouds 19 1013 33 10000 4.6 290 15:18 12.07.2019
5279 Clouds 19 1013 35 10000 4.6 290 14:43 12.07.2019
5280 Clouds 22 1013 35 10000 4.6 290 14:20 12.07.2019
5281 Clouds 20 1014 37 10000 3.1 310 13:43 12.07.2019
5282 Clouds 19 1014 37 10000 3.1 310 13:20 12.07.2019
5283 Clouds 22 1014 40 10000 2.6 0 12:41 12.07.2019
5284 Clouds 15 1014 40 10000 2.6 0 12:21 12.07.2019
5285 Clouds 18 1014 37 10000 2.1 200 11:45 12.07.2019
5286 Clouds 18 1014 37 10000 2.1 200 11:24 12.07.2019
5287 Clouds 19 1014 40 10000 2.1 0 10:55 12.07.2019
5288 Clouds 18 1015 49 10000 3.6 300 10:37 12.07.2019
5289 Clouds 18 1015 49 10000 3.6 300 10:18 12.07.2019
5290 Clouds 20 1015 52 10000 2.6 290 09:46 12.07.2019
5291 Clouds 13 1015 55 10000 2.6 300 09:23 12.07.2019
5292 Clear 15 1015 63 10000 1 0 08:42 12.07.2019
5293 Clear 14 1015 63 10000 1 0 08:21 12.07.2019
5294 Clear 13 1015 67 10000 1 0 07:47 12.07.2019
5295 Clear 12 1015 71 10000 1 0 07:28 12.07.2019
5296 Clear 10 1015 81 10000 1 0 06:29 12.07.2019
5297 Clear 9 1014 87 10000 0.5 0 05:50 12.07.2019
5298 Clear 8 1014 76 10000 1 0 03:46 12.07.2019
5299 Clouds 12 1014 67 10000 1.5 50 01:48 12.07.2019
5300 Clouds 12 1014 67 10000 1.5 50 01:28 12.07.2019
5301 Clouds 10 1014 59 10000 2.6 300 00:34 12.07.2019
5302 Clouds 12 1014 59 10000 4.1 280 23:54 11.07.2019
5303 Clouds 12 1014 52 10000 4.6 270 23:36 11.07.2019
5304 Clouds 12 1014 52 10000 4.6 270 23:18 11.07.2019
5305 Clouds 10 1014 55 10000 3.6 280 22:41 11.07.2019
5306 Clouds 11 1014 55 10000 3.6 280 22:22 11.07.2019
5307 Clouds 10 1013 52 10000 1.13 331.957 21:42 11.07.2019
5308 Clouds 15 1013 52 10000 2.11 297.721 21:19 11.07.2019
5309 Clouds 15 1013 45 10000 2.1 220 20:56 11.07.2019
5310 Clouds 14 1013 49 10000 0.5 30 20:37 11.07.2019
5311 Clouds 14 1013 49 10000 0.5 30 20:37 11.07.2019
5312 Clouds 15 1013 49 10000 0.5 30 20:18 11.07.2019
5313 Clouds 15 1013 49 10000 0.5 30 20:18 11.07.2019
5314 Clouds 10 1012 45 10000 2.1 20 19:45 11.07.2019
5315 Clouds 11 1012 43 10000 2.6 30 19:25 11.07.2019
5316 Clouds 11 1012 43 10000 3.1 30 18:54 11.07.2019
5317 Clouds 12 1012 46 10000 3.6 30 18:33 11.07.2019
5318 Clouds 18 1012 43 10000 3.1 310 17:59 11.07.2019
5319 Clouds 18 1012 43 10000 3.6 290 17:41 11.07.2019
5320 Clouds 17 1012 43 10000 3.6 290 17:22 11.07.2019
5321 Clouds 18 1012 38 10000 1 0 16:49 11.07.2019
5322 Clouds 18 1012 38 10000 1 0 16:23 11.07.2019
5323 Clouds 17 1012 40 10000 3.1 280 15:49 11.07.2019
5324 Clouds 18 1012 40 10000 3.6 330 15:30 11.07.2019
5325 Clouds 17 1012 40 10000 2.6 340 14:59 11.07.2019
5326 Clouds 18 1012 43 10000 2.1 0 14:40 11.07.2019
5327 Clouds 17 1012 43 10000 2.1 0 14:20 11.07.2019
5328 Clouds 20 1013 43 10000 2.6 0 13:46 11.07.2019
5329 Clouds 18 1013 46 10000 2.1 0 13:26 11.07.2019
5330 Clouds 18 1013 46 10000 2.1 0 13:26 11.07.2019
5331 Clouds 20 1013 48 10000 3.1 260 12:42 11.07.2019
5332 Clouds 12 1013 48 10000 3.1 260 12:23 11.07.2019
5333 Clouds 20 1013 48 10000 2.6 0 11:52 11.07.2019
5334 Clouds 16 1013 48 10000 2.1 0 11:30 11.07.2019
5335 Clouds 19 1014 52 10000 3.1 310 10:55 11.07.2019
5336 Clouds 18 1014 59 10000 3.6 290 10:21 11.07.2019
5337 Clouds 17 1014 63 10000 4.1 280 09:58 11.07.2019
5338 Clouds 17 1014 63 10000 3.6 280 09:39 11.07.2019
5339 Clouds 12 1014 63 10000 3.6 280 09:21 11.07.2019
5340 Clouds 13 1014 72 10000 3.6 270 08:49 11.07.2019
5341 Clouds 12 1014 82 10000 4.6 280 08:22 11.07.2019
5342 Clouds 12 1014 76 10000 4.6 280 07:46 11.07.2019
5343 Clouds 11 1014 76 10000 4.6 280 07:28 11.07.2019
5344 Clouds 10 1013 87 10000 4.6 280 06:21 11.07.2019
5345 Clouds 9 1013 87 8000 5.1 270 05:43 11.07.2019
5346 Clouds 7 1013 87 8000 5.1 270 05:24 11.07.2019
5347 Clouds 6 1013 81 10000 4.1 280 03:59 11.07.2019
5348 Clouds 9 1013 87 10000 3.6 270 02:34 11.07.2019
5349 Clouds 10 1013 82 10000 4.1 270 00:48 11.07.2019
5350 Clouds 10 1012 82 10000 3.1 270 23:52 10.07.2019
5351 Clouds 11 1013 87 10000 2.6 280 23:31 10.07.2019
5352 Clouds 11 1013 82 10000 4.1 300 22:58 10.07.2019
5353 Clouds 11 1013 82 10000 3.6 310 22:27 10.07.2019
5354 Clouds 12 1013 77 10000 2.6 240 21:59 10.07.2019
5355 Clouds 12 1013 82 10000 3.6 220 21:39 10.07.2019
5356 Clouds 11 1013 82 10000 3.6 220 21:21 10.07.2019
5357 Clouds 12 1013 87 10000 4.6 260 20:48 10.07.2019
5358 Clouds 12 1013 87 10000 4.6 270 20:27 10.07.2019
5359 Clouds 11 1013 87 10000 4.6 280 19:59 10.07.2019
5360 Clouds 12 1013 87 10000 5.7 300 19:40 10.07.2019
5361 Clouds 12 1013 87 10000 5.7 300 19:21 10.07.2019
5362 Clouds 13 1012 82 10000 3.6 300 18:46 10.07.2019
5363 Clouds 14 1012 82 10000 3.6 300 18:24 10.07.2019
5364 Clouds 14 1012 82 10000 3.1 300 17:50 10.07.2019
5365 Clouds 14 1012 82 10000 2.6 260 17:30 10.07.2019
5366 Rain 16 1012 77 10000 2.6 220 16:58 10.07.2019
5367 Rain 14 1013 82 10000 2.1 330 16:22 10.07.2019
5368 Rain 14 1012 82 6000 2.6 340 15:47 10.07.2019
5369 Rain 18 1012 72 6000 3.1 360 15:26 10.07.2019
5370 Rain 19 1011 64 10000 4.1 10 14:59 10.07.2019
5371 Clouds 21 1011 56 10000 3.1 350 14:37 10.07.2019
5372 Clouds 13 1011 56 10000 3.1 350 14:19 10.07.2019
5373 Clouds 14 1011 52 10000 3.1 10 13:38 10.07.2019
5374 Clouds 16 1011 52 10000 3.1 10 13:18 10.07.2019
5375 Clouds 13 1013 60 10000 2.6 290 12:41 10.07.2019
5376 Clouds 21 1013 60 10000 2.6 290 12:21 10.07.2019
5377 Clouds 22 1013 64 10000 2.1 330 11:50 10.07.2019
5378 Clouds 20 1013 72 10000 2.1 300 11:22 10.07.2019
5379 Clouds 19 1013 72 10000 2.6 290 10:58 10.07.2019
5380 Clouds 18 1013 72 10000 2.6 310 10:24 10.07.2019
5381 Clouds 18 1013 72 10000 1.5 340 09:57 10.07.2019
5382 Clouds 18 1013 72 10000 2.6 320 09:38 10.07.2019
5383 Clouds 16 1013 72 10000 2.6 320 09:19 10.07.2019
5384 Clouds 17 1013 77 10000 3.1 320 08:49 10.07.2019
5385 Clouds 16 1013 82 10000 4.6 300 08:24 10.07.2019
5386 Clouds 16 1013 88 10000 3.6 290 07:51 10.07.2019
5387 Clouds 16 1013 88 10000 3.6 280 07:23 10.07.2019
5388 Clouds 16 1012 93 10000 3.6 280 06:40 10.07.2019
5389 Clouds 15 1012 93 10000 2.6 300 05:42 10.07.2019
5390 Clouds 14 1012 93 10000 1.5 320 04:33 10.07.2019
5391 Clouds 16 1013 93 10000 1.5 290 02:20 10.07.2019
5392 Rain 15 1015 93 8000 1.5 350 00:44 10.07.2019
5393 Rain 17 1014 93 10000 2.1 150 23:42 09.07.2019
5394 Rain 17 1014 93 10000 2.1 150 23:24 09.07.2019
5395 Rain 12 1015 88 10000 2.1 270 22:57 09.07.2019
5396 Rain 14 1015 93 10000 2.1 290 22:38 09.07.2019
5397 Rain 14 1015 93 10000 2.1 290 22:20 09.07.2019
5398 Rain 13 1015 82 6000 3.6 310 21:46 09.07.2019
5399 Rain 18 1014 73 8000 1.5 310 21:26 09.07.2019
5400 Clouds 18 1014 64 10000 0.5 0 20:45 09.07.2019
5401 Clouds 19 1013 64 10000 2.1 350 20:26 09.07.2019
5402 Clouds 15 1012 60 10000 1.5 10 19:56 09.07.2019
5403 Clouds 16 1012 60 10000 3.6 20 19:36 09.07.2019
5404 Clouds 18 1012 60 10000 3.6 20 19:18 09.07.2019
5405 Clouds 17 1012 42 10000 4.6 300 18:38 09.07.2019
5406 Clouds 22 1012 42 10000 4.6 300 18:19 09.07.2019
5407 Clouds 23 1012 39 10000 5.7 300 17:43 09.07.2019
5408 Clouds 27 1012 39 10000 5.7 300 17:21 09.07.2019
5409 Clouds 20 1012 42 10000 6.7 310 16:55 09.07.2019
5410 Clouds 21 1013 45 10000 7.7 300 16:36 09.07.2019
5411 Clouds 21 1013 45 10000 7.7 300 16:18 09.07.2019
5412 Clouds 21 1013 42 10000 4.6 300 15:41 09.07.2019
5413 Clouds 26 1013 42 10000 4.6 300 15:22 09.07.2019
5414 Rain 24 1013 65 10000 1.5 0 14:43 09.07.2019
5415 Rain 25 1013 65 10000 1.5 0 14:22 09.07.2019
5416 Rain 25 1013 50 10000 3.1 340 13:47 09.07.2019
5417 Clouds 26 1013 47 10000 1.5 240 13:28 09.07.2019
5418 Clouds 24 1014 50 10000 2.1 280 12:59 09.07.2019
5419 Clouds 24 1014 50 10000 2.1 280 12:38 09.07.2019
5420 Clouds 24 1014 50 10000 2.1 280 12:18 09.07.2019
5421 Clear 24 1014 50 10000 1.5 0 11:41 09.07.2019
5422 Clear 24 1014 50 10000 1.5 0 11:22 09.07.2019
5423 Clouds 23 1014 53 10000 1.5 0 10:58 09.07.2019
5424 Clear 23 1015 56 10000 1.5 0 10:35 09.07.2019
5425 Clear 22 1015 60 10000 1 0 09:56 09.07.2019
5426 Clouds 22 1015 64 10000 1.5 120 09:37 09.07.2019
5427 Clouds 21 1015 64 10000 1.5 120 09:19 09.07.2019
5428 Clouds 20 1015 68 10000 1.5 90 08:41 09.07.2019
5429 Clear 13 1019 93 10000 2.6 100 04:19 05.07.2019
5430 Clear 14 1019 88 10000 2.1 100 03:39 05.07.2019
5431 Clear 14 1019 88 10000 2.1 100 03:20 05.07.2019
5432 Clear 14 1019 82 10000 1.5 120 02:52 05.07.2019
5433 Clear 15 1019 77 10000 3.6 100 01:56 05.07.2019
5434 Clouds 15 1019 77 10000 5.1 90 01:28 05.07.2019
5435 Clouds 16 1018 68 10000 2.6 50 00:51 05.07.2019
5436 Clouds 16 1019 69 10000 2.1 130 00:29 05.07.2019
5437 Thunderstorm 17 1019 60 10000 3.1 290 23:39 04.07.2019
5438 Thunderstorm 16 1019 60 10000 3.1 290 23:18 04.07.2019
5439 Clouds 17 1019 73 10000 0.91 26.677 22:41 04.07.2019
5440 Clouds 17 1019 73 10000 0.91 26.677 22:20 04.07.2019
5441 Clouds 16 1019 64 10000 0.91 26.677 21:44 04.07.2019
5442 Clouds 20 1019 64 10000 1.44 59.741 21:26 04.07.2019
5443 Clouds 21 1018 60 10000 2.1 300 20:59 04.07.2019
5444 Clouds 21 1018 57 10000 1.5 330 20:37 04.07.2019
5445 Clouds 21 1018 57 10000 2.6 30 20:19 04.07.2019
5446 Clouds 18 1018 51 10000 3.1 40 19:41 04.07.2019
5447 Clouds 18 1018 51 10000 3.1 40 19:21 04.07.2019
5448 Clouds 19 1018 51 10000 4.6 40 18:55 04.07.2019
5449 Clouds 19 1018 51 10000 4.6 30 18:36 04.07.2019
5450 Clouds 28 1018 51 10000 4.6 30 18:18 04.07.2019
5451 Clouds 23 1017 48 10000 3.6 20 17:41 04.07.2019
5452 Clouds 24 1017 48 10000 3.6 20 17:18 04.07.2019
5453 Clouds 22 1018 45 10000 4.1 20 15:45 04.07.2019
5454 Clouds 25 1018 45 10000 3.6 40 15:25 04.07.2019
5455 Clouds 26 1018 38 10000 2.6 20 14:59 04.07.2019
5456 Clouds 25 1018 42 10000 1.5 0 14:39 04.07.2019
5457 Clouds 25 1018 42 10000 1.5 0 14:20 04.07.2019
5458 Clouds 25 1018 45 10000 2.6 0 13:57 04.07.2019
5459 Clouds 27 1019 39 10000 1.5 0 13:38 04.07.2019
5460 Clouds 29 1019 39 10000 1.5 0 13:19 04.07.2019
5461 Clouds 29 1019 39 10000 1.5 0 13:19 04.07.2019
5462 Clouds 26 1019 45 10000 2.1 240 12:39 04.07.2019
5463 Clouds 26 1019 45 10000 2.1 240 12:19 04.07.2019
5464 Clouds 25 1019 50 10000 1.5 0 11:46 04.07.2019
5465 Clouds 25 1019 50 10000 1.5 0 11:20 04.07.2019
5466 Clear 25 1019 54 10000 1 0 10:56 04.07.2019
5467 Clear 25 1019 54 10000 1 0 10:56 04.07.2019
5468 Clear 25 1019 54 10000 1 0 10:56 04.07.2019
5469 Clear 24 1019 57 10000 2.1 290 10:38 04.07.2019
5470 Clear 23 1019 60 10000 1.5 0 10:18 04.07.2019
5471 Clear 24 1019 57 10000 2.1 290 10:18 04.07.2019
5472 Clear 22 1019 68 10000 1.5 210 09:38 04.07.2019
5473 Clear 21 1019 68 10000 1.5 210 09:19 04.07.2019
5474 Clear 21 1020 68 10000 1 0 08:52 04.07.2019
5475 Clear 20 1020 72 10000 1.5 100 08:18 04.07.2019
5476 Clear 19 1020 77 10000 1 0 07:40 04.07.2019
5477 Clear 17 1020 77 10000 1 0 07:19 04.07.2019
5478 Clear 16 1019 93 10000 0.7 306.952 06:32 04.07.2019
5479 Clear 15 1019 82 10000 2.1 190 05:43 04.07.2019
5480 Clear 14 1018 93 10000 2.1 50 04:28 04.07.2019
5481 Clear 15 1019 82 10000 2.1 270 02:23 04.07.2019
5482 Clear 16 1018 82 10000 2.6 290 01:27 04.07.2019
5483 Clear 16 1019 77 10000 2.1 270 00:51 04.07.2019
5484 Clear 16 1019 72 10000 2.6 250 23:52 03.07.2019
5485 Clear 16 1018 77 10000 0.92 45.177 23:21 03.07.2019
5486 Clear 16 1018 72 10000 2.6 110 22:56 03.07.2019
5487 Clear 17 1018 72 10000 3.6 140 22:38 03.07.2019
5488 Clear 18 1018 72 10000 3.6 140 22:20 03.07.2019
5489 Clear 18 1018 72 10000 3.6 140 22:20 03.07.2019
5490 Clear 19 1017 72 10000 3.6 120 21:54 03.07.2019
5491 Clouds 19 1017 60 10000 3.1 120 21:36 03.07.2019
5492 Clouds 19 1018 60 10000 4.1 140 20:49 03.07.2019
5493 Clouds 19 1018 60 10000 5.1 170 20:31 03.07.2019
5494 Clouds 18 1017 60 10000 4.1 160 19:59 03.07.2019
5495 Clouds 17 1017 68 10000 4.1 210 19:40 03.07.2019
5496 Clouds 18 1017 68 10000 4.1 210 19:20 03.07.2019
5497 Thunderstorm 17 1017 64 10000 6.7 180 18:44 03.07.2019
5498 Thunderstorm 18 1017 64 10000 6.7 180 18:22 03.07.2019
5499 Thunderstorm 19 1017 60 10000 6.7 190 17:49 03.07.2019
5500 Thunderstorm 25 1016 49 6000 15.9 190 17:19 03.07.2019
5501 Thunderstorm 23 1014 26 10000 4.6 50 16:57 03.07.2019
5502 Thunderstorm 21 1015 45 10000 7.2 10 16:39 03.07.2019
5503 Thunderstorm 24 1015 45 10000 7.2 10 16:18 03.07.2019
5504 Clouds 24 1015 33 10000 1.5 0 15:42 03.07.2019
5505 Clouds 29 1015 33 10000 1.5 0 15:24 03.07.2019
5506 Clouds 28 1015 31 10000 1 0 14:43 03.07.2019
5507 Clouds 28 1015 31 10000 1 0 14:22 03.07.2019
5508 Clouds 30 1015 33 10000 1 0 13:46 03.07.2019
5509 Clear 30 1015 33 10000 1.5 0 13:27 03.07.2019
5510 Clear 29 1016 38 10000 1.5 0 12:51 03.07.2019
5511 Clear 32 1016 40 10000 1 0 12:19 03.07.2019
5512 Clear 31 1016 51 10000 1.5 230 11:43 03.07.2019
5513 Clear 30 1016 51 10000 1.5 230 11:24 03.07.2019
5514 Clear 29 1016 48 10000 2.1 280 10:58 03.07.2019
5515 Clear 29 1016 54 10000 1.5 0 10:37 03.07.2019
5516 Clear 28 1016 54 10000 1.5 0 10:19 03.07.2019
5517 Clear 25 1016 60 10000 2.1 200 09:40 03.07.2019
5518 Clear 24 1016 60 10000 2.1 200 09:20 03.07.2019
5519 Clear 23 1017 73 10000 2.6 250 08:52 03.07.2019
5520 Clear 21 1017 73 10000 2.1 330 08:31 03.07.2019
5521 Clear 20 1016 72 10000 0.71 253.332 07:45 03.07.2019
5522 Clear 19 1016 72 10000 0.71 253.332 07:27 03.07.2019
5523 Clear 17 1016 72 10000 0.19 319.851 06:27 03.07.2019
5524 Clear 16 1016 87 10000 1 0 05:34 03.07.2019
5525 Clear 15 1016 82 10000 2.6 90 04:42 03.07.2019
5526 Clear 17 1016 77 10000 1.5 130 03:24 03.07.2019
5527 Clear 16 1016 82 10000 0.48 66.833 01:59 03.07.2019
5528 Clear 17 1016 77 10000 2.1 140 01:21 03.07.2019
5529 Clear 17 1016 73 10000 2.6 150 00:46 03.07.2019
5530 Clear 17 1016 77 10000 1 0 00:18 03.07.2019
5531 Clear 18 1016 73 10000 2.1 110 23:38 02.07.2019
5532 Clear 18 1016 68 10000 2.6 150 23:20 02.07.2019
5533 Clear 19 1016 68 10000 2.6 150 22:56 02.07.2019
5534 Clear 19 1015 69 10000 3.6 160 22:38 02.07.2019
5535 Clear 19 1015 69 10000 3.6 160 22:19 02.07.2019
5536 Clear 20 1015 64 10000 3.1 110 21:43 02.07.2019
5537 Clear 20 1015 64 10000 3.1 110 21:23 02.07.2019
5538 Clear 21 1015 65 10000 3.1 90 20:58 02.07.2019
5539 Clear 23 1014 61 10000 2.1 140 20:39 02.07.2019
5540 Clear 25 1014 45 10000 2.6 150 20:20 02.07.2019
5541 Clear 25 1014 43 10000 3.1 140 19:42 02.07.2019
5542 Clear 26 1014 35 10000 3.6 150 19:23 02.07.2019
5543 Clear 25 1014 33 10000 4.1 150 18:50 02.07.2019
5544 Clear 29 1014 31 10000 3.6 140 18:19 02.07.2019
5545 Clear 29 1014 27 10000 3.6 130 17:44 02.07.2019
5546 Clear 32 1014 27 10000 3.6 130 17:24 02.07.2019
5547 Clear 28 1014 26 10000 3.1 110 16:54 02.07.2019
5548 Clear 29 1015 27 10000 3.6 120 16:35 02.07.2019
5549 Clear 28 1015 33 10000 3.6 130 15:48 02.07.2019
5550 Clear 28 1015 33 10000 3.6 120 15:27 02.07.2019
5551 Clear 32 1015 27 10000 3.6 120 14:59 02.07.2019
5552 Clear 33 1015 24 10000 3.6 120 14:40 02.07.2019
5553 Clear 33 1015 24 10000 3.6 120 14:20 02.07.2019
5554 Clear 31 1016 40 10000 2.6 100 13:42 02.07.2019
5555 Clear 31 1016 35 10000 3.1 100 13:19 02.07.2019
5556 Clear 31 1016 35 10000 3.1 100 13:19 02.07.2019
5557 Clear 31 1016 35 10000 3.1 100 13:19 02.07.2019
5558 Clear 31 1016 42 10000 2.6 110 12:44 02.07.2019
5559 Clear 31 1016 42 10000 2.6 110 12:22 02.07.2019
5560 Clear 29 1017 51 10000 1.5 0 11:44 02.07.2019
5561 Clear 29 1017 51 10000 1.5 0 11:44 02.07.2019
5562 Clear 29 1017 51 10000 1.5 0 11:23 02.07.2019
5563 Clear 28 1017 50 10000 2.1 110 10:54 02.07.2019
5564 Clear 27 1017 53 10000 2.1 120 10:27 02.07.2019
5565 Clear 24 1017 57 10000 2.1 0 09:51 02.07.2019
5566 Clear 23 1017 60 10000 1.5 0 09:22 02.07.2019
5567 Clear 22 1017 68 10000 0.5 0 08:56 02.07.2019
5568 Clear 21 1018 68 10000 1.5 20 08:36 02.07.2019
5569 Clear 20 1018 77 10000 1.5 100 07:58 02.07.2019
5570 Clear 18 1018 82 10000 1 0 07:21 02.07.2019
5571 Clear 18 1018 82 10000 1 0 06:55 02.07.2019
5572 Clear 16 1018 87 10000 2.1 110 06:36 02.07.2019
5573 Clear 13 1018 93 10000 1.5 110 05:26 02.07.2019
5574 Clear 15 1019 82 10000 0.5 0 02:37 02.07.2019
5575 Clear 17 1019 77 10000 1 90 00:26 02.07.2019
5576 Clear 18 1020 68 10000 2.1 140 23:30 01.07.2019
5577 Clear 18 1020 72 10000 2.1 130 22:54 01.07.2019
5578 Clear 18 1020 68 10000 3.1 120 22:28 01.07.2019
5579 Clear 18 1019 68 10000 2.1 140 21:56 01.07.2019
5580 Clear 17 1019 73 10000 2.1 130 21:37 01.07.2019
5581 Clear 20 1019 73 10000 2.1 130 21:19 01.07.2019
5582 Clear 21 1018 57 10000 1.5 130 20:45 01.07.2019
5583 Clear 19 1018 57 10000 1.5 130 20:20 01.07.2019
5584 Clear 20 1018 37 10000 1.5 110 19:44 01.07.2019
5585 Clear 22 1018 37 10000 1.5 110 19:25 01.07.2019
5586 Clear 20 1018 37 10000 2.1 150 18:56 01.07.2019
5587 Clear 21 1018 37 10000 2.6 130 18:37 01.07.2019
5588 Clear 21 1018 37 10000 2.6 130 18:37 01.07.2019
5589 Clear 27 1018 37 10000 2.6 130 18:19 01.07.2019
5590 Clear 24 1019 33 10000 2.1 180 17:42 01.07.2019
5591 Clear 30 1019 33 10000 2.1 180 17:23 01.07.2019
5592 Clear 30 1019 31 10000 1.5 0 16:48 01.07.2019
5593 Clear 26 1019 31 10000 1.5 0 16:26 01.07.2019
5594 Clear 26 1020 33 10000 3.1 140 15:55 01.07.2019
5595 Clear 26 1020 35 10000 1 0 15:37 01.07.2019
5596 Clear 30 1020 33 10000 2.1 0 15:18 01.07.2019
5597 Clear 30 1020 28 10000 2.6 0 14:42 01.07.2019
5598 Clear 30 1021 28 10000 1.5 0 14:20 01.07.2019
5599 Clear 30 1021 32 10000 1.5 0 13:42 01.07.2019
5600 Clear 29 1021 42 10000 0.5 0 13:22 01.07.2019
5601 Clear 28 1022 36 10000 1.5 170 12:49 01.07.2019
5602 Clear 26 1022 36 10000 1.5 170 12:30 01.07.2019
5603 Clear 26 1022 41 10000 1 0 11:59 01.07.2019
5604 Clear 25 1022 44 10000 1.5 0 11:39 01.07.2019
5605 Clear 24 1022 53 10000 1 0 11:19 01.07.2019
5606 Clear 24 1022 56 10000 1 0 10:47 01.07.2019
5607 Clear 23 1022 56 10000 1 0 10:23 01.07.2019
5608 Clear 21 1023 60 10000 1.5 0 09:45 01.07.2019
5609 Clear 21 1023 60 10000 1.5 0 09:45 01.07.2019
5610 Clear 21 1023 68 10000 1 0 09:27 01.07.2019
5611 Clear 20 1023 68 10000 1 0 08:59 01.07.2019
5612 Clear 19 1023 77 10000 0.5 0 08:37 01.07.2019
5613 Clear 17 1023 82 10000 1.5 110 07:39 01.07.2019
5614 Clear 15 1023 82 10000 1.5 360 06:52 01.07.2019
5615 Clear 13 1023 93 10000 0.38 23.081 05:34 01.07.2019
5616 Clear 14 1023 77 10000 2.1 140 01:27 01.07.2019
5617 Clear 14 1023 82 10000 1.5 80 00:44 01.07.2019
5618 Clear 15 1023 77 10000 1 0 00:22 01.07.2019
5619 Clear 15 1023 77 10000 1.5 70 23:39 30.06.2019
5620 Clear 16 1023 63 10000 2.1 170 23:18 30.06.2019
5621 Clear 15 1023 63 10000 3.6 200 22:39 30.06.2019
5622 Clear 16 1023 64 10000 2.1 190 22:19 30.06.2019
5623 Clear 15 1023 60 10000 1 0 21:41 30.06.2019
5624 Clear 15 1023 60 10000 1 0 21:41 30.06.2019
5625 Clear 17 1022 56 10000 0.99 25.321 21:19 30.06.2019
5626 Clear 17 1023 53 10000 1.5 90 20:54 30.06.2019
5627 Clear 17 1023 53 10000 1.5 90 20:36 30.06.2019
5628 Clear 17 1022 49 10000 2.1 100 20:18 30.06.2019
5629 Clear 18 1022 47 10000 3.1 70 19:42 30.06.2019
5630 Clear 20 1022 41 10000 3.1 80 19:24 30.06.2019
5631 Clear 21 1022 41 10000 3.1 70 18:26 30.06.2019
5632 Clear 21 1022 39 10000 3.1 80 17:56 30.06.2019
5633 Clouds 21 1022 39 10000 4.1 110 17:37 30.06.2019
5634 Clear 21 1022 39 10000 3.1 140 17:18 30.06.2019
5635 Clear 21 1022 39 10000 3.1 80 16:44 30.06.2019
5636 Clear 21 1022 39 10000 3.1 80 16:25 30.06.2019
5637 Clear 25 1023 39 10000 2.6 0 15:37 30.06.2019
5638 Clouds 25 1023 41 10000 3.1 0 15:18 30.06.2019
5639 Clouds 25 1023 41 10000 2.6 70 14:50 30.06.2019
5640 Clouds 24 1023 41 10000 2.6 70 14:29 30.06.2019
5641 Clouds 25 1023 38 10000 3.6 110 13:47 30.06.2019
5642 Clouds 24 1023 41 10000 2.1 0 13:28 30.06.2019
5643 Clouds 24 1023 43 10000 2.1 340 12:52 30.06.2019
5644 Clouds 25 1023 43 10000 2.1 340 12:28 30.06.2019
5645 Clouds 25 1023 44 10000 1 0 11:57 30.06.2019
5646 Clear 24 1023 46 10000 2.1 290 11:38 30.06.2019
5647 Clear 23 1023 49 10000 3.1 250 11:18 30.06.2019
5648 Clear 23 1023 52 10000 2.6 300 10:44 30.06.2019
5649 Clear 22 1023 60 10000 2.6 290 10:19 30.06.2019
5650 Clear 22 1023 60 10000 2.6 290 09:57 30.06.2019
5651 Clear 21 1023 60 10000 2.1 280 09:36 30.06.2019
5652 Clear 19 1023 68 10000 2.1 330 09:18 30.06.2019
5653 Clear 19 1023 68 10000 1 0 08:38 30.06.2019
5654 Clear 16 1023 72 10000 2.1 290 08:19 30.06.2019
5655 Clear 16 1023 77 10000 1.35 296.964 07:38 30.06.2019
5656 Clear 13 1022 87 10000 1.35 296.964 07:19 30.06.2019
5657 Clear 12 1022 87 10000 1 0 06:18 30.06.2019
5658 Clear 11 1021 82 10000 1 0 03:25 30.06.2019
5659 Clear 12 1021 82 10000 0.5 0 01:31 30.06.2019
5660 Clear 12 1021 82 10000 1.5 300 00:38 30.06.2019
5661 Clear 12 1021 82 10000 1.5 300 00:38 30.06.2019
5662 Clear 13 1021 77 10000 0.72 308.472 23:57 29.06.2019
5663 Clouds 14 1021 72 10000 0.5 0 23:25 29.06.2019
5664 Clouds 14 1021 72 10000 0.5 0 23:25 29.06.2019
5665 Clouds 14 1021 72 10000 0.5 0 22:59 29.06.2019
5666 Clouds 14 1021 72 10000 0.72 308.472 22:40 29.06.2019
5667 Clouds 14 1021 68 10000 0.72 308.472 22:21 29.06.2019
5668 Clouds 14 1020 56 10000 1.01 309.357 21:51 29.06.2019
5669 Clouds 16 1020 60 10000 1.01 340.327 21:23 29.06.2019
5670 Clouds 16 1020 60 10000 1.01 340.327 20:45 29.06.2019
5671 Clouds 16 1020 60 10000 1.01 340.327 20:27 29.06.2019
5672 Clouds 16 1019 53 10000 2.6 50 19:48 29.06.2019
5673 Clouds 18 1019 53 10000 2.6 50 19:25 29.06.2019
5674 Clouds 17 1019 49 10000 3.6 60 18:54 29.06.2019
5675 Clouds 19 1019 49 10000 3.6 60 18:27 29.06.2019
5676 Clouds 19 1019 53 10000 3.6 30 17:55 29.06.2019
5677 Clouds 19 1018 50 10000 5.1 40 17:36 29.06.2019
5678 Clouds 20 1018 44 10000 4.6 30 17:18 29.06.2019
5679 Clouds 20 1018 38 10000 4.6 320 16:42 29.06.2019
5680 Clouds 20 1018 47 10000 5.1 60 15:54 29.06.2019
5681 Clouds 20 1018 47 10000 5.1 60 15:31 29.06.2019
5682 Clouds 23 1019 53 10000 1.5 0 14:45 29.06.2019
5683 Clouds 23 1019 53 10000 1.5 0 14:26 29.06.2019
5684 Clouds 23 1019 53 10000 3.1 0 13:50 29.06.2019
5685 Clouds 23 1019 53 10000 3.1 0 13:27 29.06.2019
5686 Clouds 23 1019 56 10000 3.6 50 12:57 29.06.2019
5687 Clouds 23 1019 60 10000 4.6 70 12:37 29.06.2019
5688 Clouds 22 1019 53 10000 2.1 0 12:18 29.06.2019
5689 Clouds 23 1019 56 10000 1 0 11:40 29.06.2019
5690 Clouds 22 1019 56 10000 2.6 260 11:21 29.06.2019
5691 Clouds 22 1019 56 10000 3.1 280 10:41 29.06.2019
5692 Clouds 21 1019 60 10000 4.1 300 10:20 29.06.2019
5693 Clouds 21 1019 56 10000 4.1 290 09:48 29.06.2019
5694 Clouds 17 1019 59 10000 3.1 300 08:54 29.06.2019
5695 Clouds 16 1019 63 10000 3.6 290 08:25 29.06.2019
5696 Clouds 15 1019 72 10000 3.1 300 07:44 29.06.2019
5697 Clouds 14 1018 71 10000 1 0 06:47 29.06.2019
5698 Clouds 11 1018 67 10000 3.6 280 06:24 29.06.2019
5699 Clear 11 1018 72 10000 3.6 280 02:52 29.06.2019
5700 Clear 11 1018 67 10000 3.6 280 01:32 29.06.2019
5701 Clouds 12 1018 68 10000 4.1 280 00:31 29.06.2019
5702 Clouds 13 1017 68 10000 4.1 270 23:37 28.06.2019
5703 Clouds 13 1017 68 10000 4.1 270 23:37 28.06.2019
5704 Clouds 13 1017 68 10000 4.1 270 23:37 28.06.2019
5705 Clouds 13 1017 68 10000 3.6 280 23:19 28.06.2019
5706 Clouds 14 1017 72 10000 2.6 300 22:45 28.06.2019
5707 Clouds 16 1017 68 10000 3.6 280 21:58 28.06.2019
5708 Clouds 18 1016 60 10000 3.6 360 21:27 28.06.2019
5709 Clouds 18 1016 60 10000 3.6 360 21:26 28.06.2019
5710 Clouds 18 1015 68 10000 3.1 360 20:49 28.06.2019
5711 Clouds 18 1015 68 10000 3.1 360 20:30 28.06.2019
5712 Clouds 16 1015 78 10000 1.5 0 19:57 28.06.2019
5713 Clouds 17 1015 64 10000 2.1 220 19:37 28.06.2019
5714 Clouds 19 1014 69 10000 1.94 319.819 19:18 28.06.2019
5715 Thunderstorm 19 1014 77 10000 3.6 290 18:40 28.06.2019
5716 Thunderstorm 20 1014 64 7000 3.6 290 18:20 28.06.2019
5717 Clouds 20 1014 78 10000 3.6 290 17:34 28.06.2019
5718 Rain 19 1014 73 10000 4.6 280 16:55 28.06.2019
5719 Clouds 21 1014 78 10000 2.1 310 16:29 28.06.2019
5720 Rain 19 1014 78 10000 4.6 240 15:49 28.06.2019
5721 Rain 21 1014 78 10000 4.6 240 15:29 28.06.2019
5722 Rain 22 1014 83 10000 5.7 230 14:59 28.06.2019
5723 Rain 20 1014 88 8000 4.6 260 14:39 28.06.2019
5724 Rain 22 1014 88 8000 4.1 280 14:20 28.06.2019
5725 Rain 19 1014 64 6000 3.1 250 13:45 28.06.2019
5726 Thunderstorm 22 1014 78 10000 2.6 190 13:22 28.06.2019
5727 Thunderstorm 21 1014 82 3200 10.3 340 12:50 28.06.2019
5728 Rain 23 1013 51 10000 4.6 270 12:25 28.06.2019
5729 Clouds 20 1014 57 10000 4.1 290 11:28 28.06.2019
5730 Clouds 24 1014 61 10000 4.1 290 10:47 28.06.2019
5731 Clouds 22 1014 64 10000 3.1 310 10:23 28.06.2019
5732 Clouds 22 1014 64 10000 1.5 310 09:50 28.06.2019
5733 Clouds 21 1014 64 10000 1.5 310 09:31 28.06.2019
5734 Clouds 22 1015 77 10000 1 0 08:50 28.06.2019
5735 Clouds 20 1015 77 10000 1 0 08:27 28.06.2019
5736 Clouds 20 1014 82 10000 1.5 220 07:58 28.06.2019
5737 Clouds 19 1014 88 8000 2.6 190 07:40 28.06.2019
5738 Rain 18 1014 93 8000 1 0 06:33 28.06.2019
5739 Clouds 14 1015 88 10000 0.5 0 02:26 28.06.2019
5740 Clear 16 1017 77 10000 1.5 270 00:45 28.06.2019
5741 Clouds 15 1017 77 10000 2.1 340 23:57 27.06.2019
5742 Clouds 15 1017 77 10000 2.1 340 23:57 27.06.2019
5743 Clear 16 1016 73 10000 1 0 23:39 27.06.2019
5744 Clouds 16 1016 69 10000 0.5 0 23:20 27.06.2019
5745 Clouds 15 1016 69 10000 1.5 0 22:41 27.06.2019
5746 Clouds 16 1016 64 10000 1.5 240 22:23 27.06.2019
5747 Clouds 16 1016 69 10000 1.1 317.317 21:49 27.06.2019
5748 Clouds 16 1016 69 10000 1.1 317.317 21:31 27.06.2019
5749 Clear 19 1015 61 10000 1.5 30 20:58 27.06.2019
5750 Clear 18 1015 61 10000 1 10 20:40 27.06.2019
5751 Clouds 17 1015 57 10000 0.5 0 20:21 27.06.2019
5752 Clouds 18 1015 51 10000 2.1 350 19:46 27.06.2019
5753 Clouds 19 1015 42 10000 1.5 330 19:25 27.06.2019
5754 Clear 20 1015 40 10000 4.1 300 18:44 27.06.2019
5755 Clear 25 1015 40 10000 4.1 300 18:25 27.06.2019
5756 Clear 26 1016 37 10000 2.1 0 17:46 27.06.2019
5757 Clear 25 1016 35 10000 1.5 0 17:23 27.06.2019
5758 Clear 25 1017 40 10000 2.6 0 16:41 27.06.2019
5759 Clear 25 1017 40 10000 2.1 360 16:20 27.06.2019
5760 Clear 25 1017 40 10000 2.1 360 15:59 27.06.2019
5761 Clear 25 1018 40 10000 1.5 0 15:40 27.06.2019
5762 Clear 28 1018 37 10000 2.1 350 14:59 27.06.2019
5763 Clear 28 1018 37 10000 2.1 330 14:40 27.06.2019
5764 Clear 28 1019 37 10000 1.5 0 14:22 27.06.2019
5765 Clouds 28 1019 35 10000 2.1 0 13:44 27.06.2019
5766 Clouds 29 1019 35 10000 2.1 0 13:26 27.06.2019
5767 Clouds 29 1020 37 10000 2.6 60 12:49 27.06.2019
5768 Clouds 29 1020 37 10000 2.6 60 12:31 27.06.2019
5769 Clouds 27 1020 47 10000 1.5 0 11:49 27.06.2019
5770 Clouds 27 1020 47 10000 1.5 0 11:25 27.06.2019
5771 Clear 26 1021 53 10000 1 0 10:59 27.06.2019
5772 Clear 26 1021 61 10000 1.5 300 10:41 27.06.2019
5773 Clear 25 1022 73 10000 1.5 290 10:20 27.06.2019
5774 Clear 24 1022 77 10000 1.5 20 09:49 27.06.2019
5775 Clouds 23 1022 82 8000 1.5 310 09:21 27.06.2019
5776 Clouds 22 1022 88 6000 0.38 306.302 08:50 27.06.2019
5777 Clouds 19 1022 88 6000 0.38 306.302 08:28 27.06.2019
5778 Fog 18 1022 93 2000 0.5 0 07:48 27.06.2019
5779 Mist 17 1022 100 2500 2.1 230 07:24 27.06.2019
5780 Fog 16 1023 93 200 1.5 170 06:37 27.06.2019
5781 Clear 15 1023 100 8000 1.19 16.468 03:52 27.06.2019
5782 Clear 15 1023 93 10000 1.5 290 02:43 27.06.2019
5783 Clear 16 1023 88 10000 1 0 01:45 27.06.2019
5784 Clouds 17 1023 88 8000 0.5 0 00:53 27.06.2019
5785 Clouds 16 1023 88 8000 0.5 0 00:27 27.06.2019
5786 Clouds 17 1024 88 10000 0.5 50 23:51 26.06.2019
5787 Clouds 17 1024 83 10000 1.47 16.396 23:23 26.06.2019
5788 Clouds 17 1024 83 10000 1.47 16.396 22:59 26.06.2019
5789 Clouds 17 1024 78 10000 1.5 110 22:40 26.06.2019
5790 Clouds 16 1024 78 10000 3.1 110 22:19 26.06.2019
5791 Clouds 17 1024 73 10000 3.6 110 21:43 26.06.2019
5792 Clouds 18 1023 73 10000 4.1 100 21:21 26.06.2019
5793 Clouds 18 1023 73 10000 4.1 100 20:57 26.06.2019
5794 Clouds 19 1023 69 10000 5.1 50 20:38 26.06.2019
5795 Clouds 19 1023 61 10000 3.6 40 20:20 26.06.2019
5796 Clouds 18 1023 61 10000 4.1 30 19:43 26.06.2019
5797 Clouds 20 1024 57 10000 4.6 50 19:25 26.06.2019
5798 Clouds 20 1023 57 10000 4.1 40 18:46 26.06.2019
5799 Clouds 25 1023 57 10000 4.1 20 18:23 26.06.2019
5800 Clouds 24 1023 57 10000 4.1 20 17:58 26.06.2019
5801 Clouds 20 1023 57 10000 5.7 40 17:38 26.06.2019
5802 Clouds 26 1023 57 10000 5.1 30 17:19 26.06.2019
5803 Clouds 26 1024 57 10000 5.7 40 16:46 26.06.2019
5804 Clouds 26 1024 51 10000 5.1 30 16:22 26.06.2019
5805 Clouds 22 1024 54 10000 5.7 20 15:40 26.06.2019
5806 Clouds 26 1024 54 10000 5.7 40 15:22 26.06.2019
5807 Clouds 25 1024 57 10000 5.1 40 14:38 26.06.2019
5808 Clouds 25 1025 61 10000 5.7 40 14:19 26.06.2019
5809 Clouds 26 1025 57 10000 3.1 40 13:43 26.06.2019
5810 Clouds 24 1025 61 10000 2.1 0 13:20 26.06.2019
5811 Clouds 24 1025 64 10000 3.6 20 12:42 26.06.2019
5812 Clouds 22 1026 64 10000 3.6 360 12:22 26.06.2019
5813 Clouds 24 1026 64 10000 3.1 20 11:47 26.06.2019
5814 Clouds 20 1025 69 10000 4.1 40 11:20 26.06.2019
5815 Clouds 23 1025 69 10000 3.1 30 10:45 26.06.2019
5816 Clouds 20 1025 73 10000 3.1 10 10:25 26.06.2019
5817 Clouds 20 1025 69 10000 2.1 20 09:44 26.06.2019
5818 Clouds 18 1025 73 10000 1.5 0 09:19 26.06.2019
5819 Clouds 19 1025 73 10000 1.5 100 08:44 26.06.2019
5820 Clouds 18 1025 73 10000 0.5 0 08:20 26.06.2019
5821 Clouds 18 1025 82 10000 1.5 280 07:46 26.06.2019
5822 Clouds 17 1024 82 10000 2.6 270 06:40 26.06.2019
5823 Clouds 17 1024 88 10000 2.6 280 06:21 26.06.2019
5824 Clouds 16 1024 88 10000 2.6 340 01:24 26.06.2019
5825 Clouds 17 1025 88 10000 2.1 270 00:24 26.06.2019
5826 Clouds 17 1024 88 10000 2.6 270 23:45 25.06.2019
5827 Clouds 17 1024 88 10000 2.6 270 23:27 25.06.2019
5828 Clouds 17 1024 88 10000 2.1 220 22:56 25.06.2019
5829 Clouds 17 1025 82 10000 2.1 10 22:37 25.06.2019
5830 Rain 17 1024 82 10000 3.1 360 22:19 25.06.2019
5831 Rain 17 1024 77 10000 2.6 320 21:41 25.06.2019
5832 Clouds 18 1023 77 10000 3.1 310 21:21 25.06.2019
5833 Clouds 18 1023 88 10000 2.6 290 20:44 25.06.2019
5834 Clouds 18 1023 88 10000 2.6 290 20:44 25.06.2019
5835 Rain 18 1023 88 10000 1.5 310 20:21 25.06.2019
5836 Rain 17 1023 77 10000 4.1 250 19:45 25.06.2019
5837 Rain 17 1023 77 10000 4.1 250 19:45 25.06.2019
5838 Rain 19 1023 77 10000 3.1 60 19:23 25.06.2019
5839 Clouds 19 1023 60 10000 6.7 30 18:45 25.06.2019
5840 Clouds 19 1023 60 10000 6.7 30 18:45 25.06.2019
5841 Clouds 21 1023 60 10000 6.7 30 18:26 25.06.2019
5842 -273 0 0 0 0 0 17:59 25.06.2019
5843 -273 0 0 0 0 0 17:58 25.06.2019
5844 Clouds 21 1022 57 10000 4.6 40 17:29 25.06.2019
5845 -273 0 0 0 0 0 17:29 25.06.2019
5846 -273 0 0 0 0 0 17:29 25.06.2019
5847 Clouds 21 1022 57 10000 5.1 60 16:57 25.06.2019
5848 Clouds 21 1022 61 10000 5.7 80 16:38 25.06.2019
5849 Clouds 22 1022 54 10000 7.2 90 16:19 25.06.2019
5850 Clouds 22 1022 51 10000 4.6 50 15:41 25.06.2019
5851 Clouds 23 1022 57 10000 6.2 40 15:21 25.06.2019
5852 Clouds 22 1022 57 10000 5.7 40 14:54 25.06.2019
5853 Clouds 25 1022 57 10000 5.7 40 14:35 25.06.2019
5854 Clouds 24 1022 57 10000 6.2 30 13:47 25.06.2019
5855 Clouds 24 1022 57 10000 6.2 30 13:28 25.06.2019
5856 Clouds 22 1022 57 10000 3.1 10 12:44 25.06.2019
5857 Clouds 22 1022 57 10000 3.1 10 12:44 25.06.2019
5858 Clouds 22 1022 57 10000 3.1 10 12:25 25.06.2019
5859 Clouds 25 1022 69 10000 2.1 0 11:55 25.06.2019
5860 Clouds 24 1022 69 10000 2.1 0 11:37 25.06.2019
5861 Clouds 25 1022 69 10000 2.1 120 11:18 25.06.2019
5862 Clouds 24 1022 69 10000 2.1 120 10:42 25.06.2019
5863 Clouds 23 1022 64 10000 0.5 0 10:22 25.06.2019
5864 Clouds 23 1022 64 10000 0.5 0 09:55 25.06.2019
5865 Clouds 22 1022 68 10000 1 0 09:37 25.06.2019
5866 Clouds 19 1022 82 10000 1 0 09:18 25.06.2019
5867 Clouds 19 1022 88 8000 1 0 08:37 25.06.2019
5868 Clouds 18 1022 82 8000 1.25 13.925 08:19 25.06.2019
5869 Clouds 17 1022 88 7000 1.25 13.925 07:39 25.06.2019
5870 Clouds 16 1021 93 8000 1.25 13.925 06:52 25.06.2019
5871 Clouds 14 1022 93 8000 0.5 0 06:28 25.06.2019
5872 Clouds 13 1021 93 10000 2.1 110 02:45 25.06.2019
5873 Clear 13 1022 93 10000 1.5 150 01:38 25.06.2019
5874 Clouds 14 1021 93 10000 2.1 90 00:35 25.06.2019
5875 Clear 13 1021 93 10000 3.6 120 23:53 24.06.2019
5876 Clear 13 1021 93 10000 3.6 120 23:34 24.06.2019
5877 Clear 13 1020 88 10000 1.5 110 22:59 24.06.2019
5878 Clouds 13 1020 88 10000 3.1 100 22:39 24.06.2019
5879 Clouds 14 1021 88 10000 4.1 120 22:18 24.06.2019
5880 Clouds 15 1020 93 10000 3.6 130 21:39 24.06.2019
5881 Rain 15 1020 93 10000 4.1 60 21:19 24.06.2019
5882 Rain 14 1020 93 10000 4.1 60 20:55 24.06.2019
5883 Rain 15 1020 88 10000 3.1 80 20:37 24.06.2019
5884 Clouds 15 1019 93 10000 2.6 80 20:18 24.06.2019
5885 Clouds 15 1020 88 10000 3.1 120 19:41 24.06.2019
5886 Rain 18 1020 100 7000 6.7 110 19:21 24.06.2019
5887 Rain 18 1019 93 7000 1 0 18:43 24.06.2019
5888 Rain 18 1018 88 8000 1.5 320 18:24 24.06.2019
5889 Rain 19 1019 88 8000 2.6 180 17:42 24.06.2019
5890 Thunderstorm 20 1019 82 4000 6.2 160 17:24 24.06.2019
5891 Rain 19 1018 82 8000 2.6 210 16:45 24.06.2019
5892 Thunderstorm 19 1018 82 10000 2.14 57.969 16:20 24.06.2019
5893 Thunderstorm 20 1019 82 8000 1.5 340 15:46 24.06.2019
5894 Thunderstorm 21 1018 88 6000 2.1 20 15:25 24.06.2019
5895 Thunderstorm 23 1018 72 5000 4.1 290 14:39 24.06.2019
5896 Rain 21 1017 83 10000 3.6 120 14:21 24.06.2019
5897 Thunderstorm 21 1017 69 10000 2.1 80 13:35 24.06.2019
5898 Thunderstorm 21 1017 69 10000 2.6 60 12:59 24.06.2019
5899 Clouds 24 1017 69 10000 3.6 100 12:41 24.06.2019
5900 Clouds 24 1017 65 10000 4.1 80 12:20 24.06.2019
5901 Clouds 24 1017 64 10000 3.6 80 11:45 24.06.2019
5902 Clouds 23 1017 73 10000 2.1 90 11:27 24.06.2019
5903 Clouds 23 1017 69 10000 1 0 10:53 24.06.2019
5904 Clouds 23 1017 69 10000 1 0 10:34 24.06.2019
5905 Clouds 22 1017 83 10000 1 0 09:56 24.06.2019
5906 Clouds 20 1017 83 10000 1 0 09:38 24.06.2019
5907 Clouds 19 1017 88 10000 1 0 09:18 24.06.2019
5908 Clouds 18 1017 88 8000 2.43 303.232 08:36 24.06.2019
5909 Clouds 18 1017 93 8000 2.86 321.472 07:50 24.06.2019
5910 Clouds 17 1017 93 7000 2.86 321.472 07:27 24.06.2019
5911 Clouds 16 1016 100 7000 0.5 70 06:57 24.06.2019
5912 Clouds 15 1016 93 8000 1 0 06:23 24.06.2019
5913 Rain 15 1016 93 10000 1 360 05:32 24.06.2019
5914 Clouds 15 1016 93 10000 1 0 04:35 24.06.2019
5915 Thunderstorm 14 1016 93 10000 1 0 03:44 24.06.2019
5916 Thunderstorm 14 1016 88 10000 2.6 70 02:35 24.06.2019
5917 Thunderstorm 16 1016 88 8000 3.6 290 01:54 24.06.2019
5918 Thunderstorm 16 1016 88 8000 3.6 290 01:28 24.06.2019
5919 Thunderstorm 17 1015 68 10000 2.1 260 00:46 24.06.2019
5920 Thunderstorm 17 1015 73 10000 3.1 130 00:20 24.06.2019
5921 Clouds 17 1015 73 10000 4.6 110 23:47 23.06.2019
5922 Clouds 17 1015 73 10000 4.6 110 23:28 23.06.2019
5923 Clouds 17 1015 68 10000 0.66 26.217 22:56 23.06.2019
5924 Clouds 18 1014 68 10000 2.1 110 22:38 23.06.2019
5925 Thunderstorm 18 1014 77 10000 2.6 100 22:19 23.06.2019
5926 Thunderstorm 19 1014 69 10000 4.1 120 21:40 23.06.2019
5927 Clouds 19 1014 69 10000 4.6 110 21:21 23.06.2019
5928 Clouds 19 1014 64 10000 4.1 90 20:49 23.06.2019
5929 Clouds 19 1014 64 10000 4.1 90 20:29 23.06.2019
5930 Thunderstorm 19 1014 57 10000 5.7 80 19:46 23.06.2019
5931 Thunderstorm 21 1014 54 10000 5.1 90 19:23 23.06.2019
5932 Thunderstorm 19 1014 54 10000 6.2 110 18:55 23.06.2019
5933 Thunderstorm 25 1014 54 10000 6.2 110 18:27 23.06.2019
5934 Clouds 25 1014 54 10000 5.7 100 17:59 23.06.2019
5935 Clouds 25 1014 54 10000 5.1 140 17:38 23.06.2019
5936 Clouds 26 1014 51 10000 5.1 110 17:19 23.06.2019
5937 Clouds 25 1014 45 10000 6.7 110 16:43 23.06.2019
5938 Clouds 27 1015 45 10000 6.7 120 16:23 23.06.2019
5939 Clouds 26 1015 42 10000 6.2 120 15:41 23.06.2019
5940 Clouds 26 1015 42 10000 4.1 90 15:22 23.06.2019
5941 Clouds 28 1016 48 10000 3.1 100 14:42 23.06.2019
5942 Clouds 28 1016 42 10000 3.6 80 14:24 23.06.2019
5943 Clouds 29 1016 42 10000 3.6 80 13:59 23.06.2019
5944 Clouds 30 1016 40 10000 3.6 120 13:41 23.06.2019
5945 Clouds 30 1016 45 10000 4.1 130 13:19 23.06.2019
5946 Clear 29 1016 45 10000 3.6 100 12:47 23.06.2019
5947 Clear 29 1016 51 10000 3.1 130 12:24 23.06.2019
5948 Clear 26 1016 51 10000 3.1 130 11:58 23.06.2019
5949 Clear 28 1016 61 10000 1.5 150 11:40 23.06.2019
5950 Clear 25 1017 61 10000 2.6 120 11:21 23.06.2019
5951 Clear 26 1017 60 10000 2.6 120 10:46 23.06.2019
5952 Clear 24 1017 57 10000 1.5 0 10:20 23.06.2019
5953 Clear 24 1017 57 10000 1.5 0 10:20 23.06.2019
5954 Clear 22 1017 64 10000 1 0 09:44 23.06.2019
5955 Clear 22 1017 64 10000 1 0 09:21 23.06.2019
5956 Clear 21 1018 68 10000 1.98 151.443 08:45 23.06.2019
5957 Clear 20 1018 72 10000 1.5 70 08:27 23.06.2019
5958 Clear 20 1018 72 10000 1.5 70 08:27 23.06.2019
5959 Clear 19 1018 72 10000 1.5 30 07:55 23.06.2019
5960 Clear 18 1018 82 10000 1 0 07:24 23.06.2019
5961 Clear 17 1018 88 8000 2.1 160 06:54 23.06.2019
5962 Clear 15 1018 93 8000 1.63 116.973 05:55 23.06.2019
5963 Clear 14 1018 100 8000 2.1 90 04:38 23.06.2019
5964 Clear 15 1018 88 10000 1 0 02:19 23.06.2019
5965 Clear 16 1017 82 10000 2.1 160 01:37 23.06.2019
5966 Clear 16 1018 88 10000 2.1 160 00:37 23.06.2019
5967 Clear 17 1018 82 10000 2.1 130 23:57 22.06.2019
5968 Clear 17 1018 82 10000 2.1 140 23:38 22.06.2019
5969 Clear 17 1018 82 10000 1.5 120 23:19 22.06.2019
5970 Clear 17 1018 72 10000 2.1 150 22:44 22.06.2019
5971 Clear 18 1018 82 10000 2.6 100 22:19 22.06.2019
5972 Clear 18 1018 64 10000 0.5 0 21:38 22.06.2019
5973 Clear 19 1018 73 10000 1.5 150 21:19 22.06.2019
5974 Clear 20 1018 68 10000 2.1 130 20:50 22.06.2019
5975 Clear 20 1018 68 10000 2.1 130 20:25 22.06.2019
5976 Clear 19 1017 60 10000 2.1 130 19:47 22.06.2019
5977 Clear 21 1017 57 10000 2.6 110 19:23 22.06.2019
5978 Clear 22 1017 50 10000 3.1 120 18:50 22.06.2019
5979 Clear 20 1017 50 10000 3.1 120 18:32 22.06.2019
5980 Clear 23 1017 54 10000 4.6 120 17:57 22.06.2019
5981 Clouds 24 1017 53 10000 4.1 100 17:35 22.06.2019
5982 Clouds 24 1018 54 10000 5.1 140 16:51 22.06.2019
5983 Clouds 23 1018 47 10000 4.1 40 16:25 22.06.2019
5984 Clouds 23 1018 47 10000 4.1 40 15:58 22.06.2019
5985 Clouds 24 1018 39 10000 4.1 10 15:39 22.06.2019
5986 Thunderstorm 23 1018 57 10000 6.2 350 15:21 22.06.2019
5987 Thunderstorm 23 1018 32 10000 4.1 260 14:37 22.06.2019
5988 Clouds 23 1018 39 10000 2.1 0 14:18 22.06.2019
5989 Clouds 22 1018 42 10000 2.1 0 13:41 22.06.2019
5990 Clouds 23 1018 42 10000 1.5 0 13:21 22.06.2019
5991 Clouds 24 1019 47 10000 2.6 0 12:50 22.06.2019
5992 Clouds 24 1019 47 10000 2.6 0 12:32 22.06.2019
5993 Clouds 27 1019 54 10000 1 0 11:58 22.06.2019
5994 Clouds 27 1019 54 10000 1 0 11:33 22.06.2019
5995 Clouds 22 1019 60 10000 2.1 300 10:49 22.06.2019
5996 Clear 22 1019 64 10000 1.35 250.548 10:21 22.06.2019
5997 Clear 21 1019 68 10000 0.5 0 09:46 22.06.2019
5998 Clear 21 1019 77 8000 0.5 0 09:22 22.06.2019
5999 Clear 20 1019 82 8000 1 0 08:42 22.06.2019
6000 Clouds 19 1019 93 6000 1.5 350 08:20 22.06.2019
6001 Mist 17 1019 93 5000 1 0 07:30 22.06.2019
6002 Fog 16 1019 100 6000 1 330 06:47 22.06.2019
6003 Clear 13 1018 100 6000 1 280 04:53 22.06.2019
6004 Clear 13 1018 93 10000 0.42 325.86 02:32 22.06.2019
6005 Clear 14 1018 88 10000 1.5 290 00:59 22.06.2019
6006 Clear 14 1018 88 10000 1 0 00:35 22.06.2019
6007 Clear 14 1018 88 10000 2.1 270 23:59 21.06.2019
6008 Clear 15 1018 88 10000 0.5 0 23:37 21.06.2019
6009 Clear 15 1018 82 10000 1.5 290 23:19 21.06.2019
6010 Clear 14 1018 82 10000 2.6 200 22:41 21.06.2019
6011 Clear 16 1017 77 10000 1 0 22:22 21.06.2019
6012 Clouds 15 1017 82 10000 1 0 21:40 21.06.2019
6013 Clouds 16 1017 73 10000 0.96 359.761 21:22 21.06.2019
6014 Clouds 17 1017 64 10000 1 0 20:49 21.06.2019
6015 Clouds 19 1017 60 10000 2.6 290 20:27 21.06.2019
6016 Clouds 17 1017 57 10000 1 0 19:54 21.06.2019
6017 Clouds 20 1016 50 10000 2.1 290 19:23 21.06.2019
6018 Clouds 20 1016 47 10000 1.5 270 18:43 21.06.2019
6019 Clouds 21 1016 53 10000 2.1 290 18:25 21.06.2019
6020 Clouds 20 1016 60 10000 2.6 290 17:36 21.06.2019
6021 Rain 20 1016 64 10000 6.2 270 16:59 21.06.2019
6022 Rain 20 1016 57 10000 4.1 280 16:38 21.06.2019
6023 Rain 20 1016 47 10000 2.6 340 16:19 21.06.2019
6024 Rain 23 1016 44 10000 2.1 0 15:39 21.06.2019
6025 Rain 23 1016 51 10000 3.6 30 15:18 21.06.2019
6026 Clouds 24 1016 51 10000 2.6 30 14:40 21.06.2019
6027 Clouds 22 1016 50 10000 2.1 360 14:21 21.06.2019
6028 Clouds 23 1016 61 10000 2.6 360 13:40 21.06.2019
6029 Clouds 24 1017 57 10000 3.1 30 13:22 21.06.2019
6030 Clouds 24 1017 54 10000 1.5 0 12:51 21.06.2019
6031 Rain 24 1017 61 10000 1 0 12:23 21.06.2019
6032 Rain 26 1017 61 10000 1 0 11:56 21.06.2019
6033 Clouds 25 1017 64 10000 1.5 0 11:37 21.06.2019
6034 Clouds 24 1017 68 10000 1.5 300 11:19 21.06.2019
6035 Clouds 24 1017 68 10000 1.5 300 11:19 21.06.2019
6036 Clouds 24 1017 68 10000 1.5 300 11:19 21.06.2019
6037 Clouds 21 1017 73 10000 1.5 310 10:44 21.06.2019
6038 Clouds 21 1017 72 10000 1.5 290 10:21 21.06.2019
6039 Clouds 19 1017 77 10000 1 0 09:43 21.06.2019
6040 Clouds 19 1017 77 10000 1 0 09:23 21.06.2019
6041 Clouds 18 1017 77 10000 1 0 08:56 21.06.2019
6042 Clouds 18 1017 77 10000 1 0 08:56 21.06.2019
6043 Clouds 18 1017 82 10000 1 0 08:37 21.06.2019
6044 Clouds 18 1017 88 10000 1.5 70 08:19 21.06.2019
6045 Clouds 16 1017 87 8000 2.1 80 07:44 21.06.2019
6046 Clouds 16 1017 93 8000 1.5 80 07:19 21.06.2019
6047 Clouds 13 1017 93 7000 2.1 90 06:28 21.06.2019
6048 Clear 12 1016 93 8000 0.31 18.199 05:48 21.06.2019
6049 Clear 11 1016 100 10000 1.5 130 04:48 21.06.2019
6050 Clear 11 1016 93 10000 1.5 110 03:47 21.06.2019
6051 Clear 11 1016 93 10000 1 0 03:24 21.06.2019
6052 Clear 11 1016 87 10000 2.1 140 02:26 21.06.2019
6053 Clear 12 1016 93 10000 1.5 130 01:30 21.06.2019
6054 Clear 12 1016 93 8000 3.6 90 00:35 21.06.2019
6055 Clear 13 1016 93 10000 2.1 180 23:56 20.06.2019
6056 Clear 12 1016 93 10000 2.6 150 23:37 20.06.2019
6057 Clear 13 1016 88 10000 0.89 53.4 23:19 20.06.2019
6058 Clear 13 1016 88 10000 1.5 40 22:41 20.06.2019
6059 Clear 12 1015 88 10000 0.5 0 22:23 20.06.2019
6060 Clear 13 1015 88 10000 1.5 340 21:55 20.06.2019
6061 Clear 15 1015 88 10000 1.5 340 21:37 20.06.2019
6062 Clear 15 1014 88 10000 1.5 40 21:18 20.06.2019
6063 Clear 15 1014 88 10000 1.5 40 21:18 20.06.2019
6064 Clear 16 1015 82 10000 1 0 20:41 20.06.2019
6065 Clear 16 1015 77 10000 3.6 130 20:22 20.06.2019
6066 Clouds 16 1015 77 10000 3.1 130 19:43 20.06.2019
6067 Clouds 17 1014 77 10000 3.6 130 19:19 20.06.2019
6068 Clouds 17 1014 77 10000 3.6 130 18:56 20.06.2019
6069 Clouds 17 1015 77 10000 2.6 100 18:38 20.06.2019
6070 Clouds 18 1015 82 10000 1.5 150 18:20 20.06.2019
6071 Rain 18 1015 82 10000 2.1 340 17:45 20.06.2019
6072 Rain 17 1014 77 10000 4.1 180 17:22 20.06.2019
6073 Rain 16 1015 88 10000 6.2 190 16:42 20.06.2019
6074 Rain 16 1015 82 7000 6.2 140 16:19 20.06.2019
6075 Rain 18 1015 60 8000 5.7 80 15:44 20.06.2019
6076 Rain 23 1013 50 10000 9.3 330 15:24 20.06.2019
6077 Rain 24 1013 50 10000 9.3 330 14:57 20.06.2019
6078 Rain 24 1013 50 10000 9.3 330 14:57 20.06.2019
6079 Rain 25 1013 42 10000 4.6 360 14:38 20.06.2019
6080 Clouds 26 1014 39 10000 2.6 80 14:19 20.06.2019
6081 Clouds 23 1014 44 10000 2.6 0 13:39 20.06.2019
6082 Clouds 24 1014 47 10000 3.1 60 13:18 20.06.2019
6083 Clouds 27 1014 50 10000 2.6 130 12:42 20.06.2019
6084 Clouds 19 1014 57 10000 2.6 120 12:21 20.06.2019
6085 Clouds 22 1015 57 10000 1 0 11:41 20.06.2019
6086 Clouds 21 1015 64 10000 1.5 0 11:23 20.06.2019
6087 Clouds 25 1015 68 8000 1 0 10:45 20.06.2019
6088 Clouds 21 1015 73 8000 1.5 270 10:24 20.06.2019
6089 Clouds 20 1015 73 8000 1.5 270 09:55 20.06.2019
6090 Clouds 20 1015 77 8000 1.5 0 09:37 20.06.2019
6091 Clear 19 1015 82 8000 1 0 09:19 20.06.2019
6092 Clouds 18 1015 88 8000 1 0 08:44 20.06.2019
6093 Mist 17 1015 100 10000 1 0 08:23 20.06.2019
6094 Fog 16 1015 100 550 1 0 07:47 20.06.2019
6095 Fog 15 1015 93 250 1.31 146.529 07:25 20.06.2019
6096 Fog 15 1015 93 250 1.31 146.529 07:25 20.06.2019
6097 Mist 13 1015 93 2800 1.5 320 06:20 20.06.2019
6098 Clouds 12 1015 93 8000 1.5 140 03:41 20.06.2019
6099 Clouds 12 1015 87 10000 1.5 130 02:26 20.06.2019
6100 Clear 13 1015 100 10000 1.34 76.14 00:33 20.06.2019
6101 Clear 13 1015 93 10000 1.64 42.881 23:48 19.06.2019
6102 Clear 13 1015 93 10000 1.64 42.881 23:29 19.06.2019
6103 Clear 13 1015 88 10000 1.64 42.881 22:49 19.06.2019
6104 Clear 14 1015 82 10000 1 0 22:24 19.06.2019
6105 Clear 15 1015 82 10000 1 0 21:58 19.06.2019
6106 Clear 15 1015 77 10000 2.1 190 21:58 19.06.2019
6107 Clear 16 1015 77 10000 2.1 190 21:38 19.06.2019
6108 Clouds 15 1015 77 10000 1.5 230 21:19 19.06.2019
6109 Clouds 16 1015 77 10000 1.87 58.557 20:41 19.06.2019
6110 Clouds 16 1015 77 10000 1 270 20:21 19.06.2019
6111 Clouds 17 1015 73 10000 1.5 330 19:46 19.06.2019
6112 Clouds 17 1015 73 10000 1.5 330 19:26 19.06.2019
6113 Clouds 17 1015 68 10000 1.5 330 18:56 19.06.2019
6114 Clouds 19 1014 68 10000 1.5 230 18:24 19.06.2019
6115 Clouds 19 1014 73 10000 3.1 210 17:47 19.06.2019
6116 Clouds 21 1015 77 10000 3.1 210 17:25 19.06.2019
6117 Clouds 21 1015 77 10000 3.1 210 16:56 19.06.2019
6118 Clouds 21 1015 73 10000 3.1 290 16:36 19.06.2019
6119 Rain 21 1016 73 10000 3.1 290 16:18 19.06.2019
6120 Rain 22 1015 73 10000 3.1 350 15:42 19.06.2019
6121 Thunderstorm 21 1015 72 0 8.2 60 15:22 19.06.2019
6122 Thunderstorm 21 1015 72 0 8.2 60 15:22 19.06.2019
6123 Thunderstorm 24 1015 47 10000 6.2 40 14:43 19.06.2019
6124 Thunderstorm 24 1015 47 10000 6.2 40 14:43 19.06.2019
6125 Thunderstorm 25 1014 47 10000 6.7 110 14:24 19.06.2019
6126 Thunderstorm 26 1015 51 10000 7.2 90 13:44 19.06.2019
6127 Thunderstorm 26 1015 51 10000 7.2 90 13:25 19.06.2019
6128 Thunderstorm 26 1015 53 10000 7.7 90 12:57 19.06.2019
6129 Clouds 27 1015 45 10000 3.1 0 12:39 19.06.2019
6130 Clouds 19 1015 50 10000 3.1 100 12:18 19.06.2019
6131 Clouds 23 1015 50 10000 3.1 130 11:40 19.06.2019
6132 Clouds 21 1016 57 10000 1.5 110 11:20 19.06.2019
6133 Clouds 22 1016 57 10000 1 0 10:47 19.06.2019
6134 Clouds 22 1016 57 10000 1 0 10:28 19.06.2019
6135 Clear 21 1016 64 10000 1.5 300 09:56 19.06.2019
6136 Clear 20 1016 64 10000 1.5 300 09:36 19.06.2019
6137 Clear 21 1016 72 10000 1.5 270 09:18 19.06.2019
6138 Clear 22 1016 72 10000 0.31 65.525 08:43 19.06.2019
6139 Clear 19 1016 72 10000 1.5 40 08:24 19.06.2019
6140 Clear 18 1016 77 10000 1.5 50 07:43 19.06.2019
6141 Clear 17 1016 77 10000 2.1 70 07:22 19.06.2019
6142 Clouds 16 1016 82 10000 2.1 150 06:36 19.06.2019
6143 Clouds 14 1016 82 10000 1 0 06:18 19.06.2019
6144 Clear 13 1016 87 10000 1.5 130 05:24 19.06.2019
6145 Clouds 12 1016 82 10000 5.1 100 03:53 19.06.2019
6146 Clouds 13 1016 82 10000 4.1 110 02:35 19.06.2019
6147 Clouds 13 1017 93 10000 1.5 80 01:37 19.06.2019
6148 Clear 14 1017 88 10000 1 0 00:53 19.06.2019
6149 Clear 13 1017 88 10000 1 0 00:35 19.06.2019
6150 Clear 14 1017 88 10000 1.5 46.463 23:58 18.06.2019
6151 Clear 15 1017 88 10000 1 50 23:31 18.06.2019
6152 Clear 14 1017 88 10000 1 0 22:56 18.06.2019
6153 Clear 14 1017 77 10000 2.1 190 22:37 18.06.2019
6154 Clear 14 1017 77 10000 2.6 180 22:19 18.06.2019
6155 Clouds 15 1017 69 10000 2.1 180 21:44 18.06.2019
6156 Clouds 16 1016 73 10000 2.1 70 21:21 18.06.2019
6157 Clouds 16 1016 69 10000 2.6 50 20:58 18.06.2019
6158 Clouds 14 1016 69 10000 2.6 50 20:38 18.06.2019
6159 Clouds 15 1016 64 10000 3.6 60 20:18 18.06.2019
6160 Clouds 15 1016 64 10000 4.1 60 19:39 18.06.2019
6161 Clouds 16 1015 61 10000 3.6 40 19:20 18.06.2019
6162 Clouds 16 1015 57 10000 3.1 60 18:48 18.06.2019
6163 Clouds 21 1015 57 10000 4.1 60 18:25 18.06.2019
6164 Rain 22 1015 47 10000 5.7 100 17:46 18.06.2019
6165 Rain 23 1015 54 8000 6.2 120 17:21 18.06.2019
6166 Rain 22 1015 54 8000 6.2 120 16:57 18.06.2019
6167 Clouds 22 1015 54 10000 4.1 120 16:38 18.06.2019
6168 Clouds 22 1016 54 10000 2.1 140 16:20 18.06.2019
6169 Clouds 21 1016 65 10000 2.1 220 15:38 18.06.2019
6170 Clouds 24 1017 73 10000 3.6 190 15:19 18.06.2019
6171 Rain 21 1017 78 10000 4.6 120 14:45 18.06.2019
6172 Clouds 22 1017 78 10000 6.2 120 14:23 18.06.2019
6173 Thunderstorm 21 1017 77 7000 6.7 40 13:58 18.06.2019
6174 Thunderstorm 21 1017 77 7000 6.7 40 13:38 18.06.2019
6175 Thunderstorm 22 1017 50 10000 4.1 0 13:20 18.06.2019
6176 Clouds 22 1017 42 10000 2.1 30 12:43 18.06.2019
6177 Clouds 25 1017 54 10000 3.1 80 12:25 18.06.2019
6178 Clouds 24 1017 54 10000 2.1 90 11:45 18.06.2019
6179 Clouds 26 1018 53 10000 2.1 130 11:23 18.06.2019
6180 Clouds 26 1018 53 10000 2.1 130 11:23 18.06.2019
6181 Clouds 23 1018 53 10000 2.1 130 10:57 18.06.2019
6182 Clouds 25 1018 57 10000 1.5 280 10:37 18.06.2019
6183 Clear 22 1018 60 10000 1 0 10:18 18.06.2019
6184 Clear 21 1018 64 10000 1.5 0 09:48 18.06.2019
6185 Clear 20 1018 73 10000 1 0 09:24 18.06.2019
6186 Clear 20 1018 72 10000 1 0 08:43 18.06.2019
6187 Clouds 19 1018 82 10000 1.5 320 08:21 18.06.2019
6188 Clouds 17 1018 88 10000 1 0 07:41 18.06.2019
6189 Clouds 17 1018 93 10000 1.5 300 07:21 18.06.2019
6190 Clouds 16 1018 87 10000 2.6 330 06:43 18.06.2019
6191 Clouds 14 1017 93 9000 1.5 310 05:20 18.06.2019
6192 Clear 14 1017 87 10000 2.6 110 02:53 18.06.2019
6193 Clear 14 1017 93 10000 3.1 90 01:55 18.06.2019
6194 Clear 14 1017 88 10000 2.1 60 01:24 18.06.2019
6195 Clear 14 1017 88 10000 1.18 45 00:55 18.06.2019
6196 Clear 14 1017 82 10000 2.1 270 00:27 18.06.2019
6197 Clear 14 1017 82 10000 2.1 250 23:41 17.06.2019
6198 Clouds 14 1017 88 10000 3.6 250 23:20 17.06.2019
6199 Clouds 15 1017 88 10000 3.6 260 22:56 17.06.2019
6200 Clouds 15 1017 88 10000 3.6 260 22:37 17.06.2019
6201 Clouds 15 1018 82 10000 3.1 300 22:18 17.06.2019
6202 Rain 17 1017 77 10000 3.6 270 21:42 17.06.2019
6203 Rain 17 1017 72 10000 2.6 260 21:21 17.06.2019
6204 Rain 16 1016 72 10000 2.6 200 20:37 17.06.2019
6205 Rain 18 1016 60 10000 6.7 260 20:19 17.06.2019
6206 Rain 18 1016 60 10000 6.7 260 19:42 17.06.2019
6207 Rain 19 1016 60 10000 5.7 270 19:23 17.06.2019
6208 Rain 19 1016 60 10000 5.7 270 18:57 17.06.2019
6209 Rain 19 1016 60 10000 5.7 270 18:37 17.06.2019
6210 Clouds 21 1016 60 10000 6.2 300 18:18 17.06.2019
6211 Clouds 21 1016 60 10000 6.2 300 18:18 17.06.2019
6212 Clouds 22 1015 44 10000 4.6 340 17:44 17.06.2019
6213 Clouds 23 1015 44 10000 4.6 340 17:26 17.06.2019
6214 Clouds 22 1015 47 10000 3.1 40 16:47 17.06.2019
6215 Clouds 24 1015 47 10000 3.1 40 16:29 17.06.2019
6216 Clouds 22 1015 50 10000 4.1 30 15:57 17.06.2019
6217 Clouds 22 1015 61 10000 4.1 50 15:38 17.06.2019
6218 Clouds 25 1015 61 10000 4.1 50 15:19 17.06.2019
6219 Clouds 26 1015 65 10000 4.1 60 14:51 17.06.2019
6220 Thunderstorm 22 1016 50 10000 5.7 60 14:31 17.06.2019
6221 Thunderstorm 28 1015 45 10000 4.1 150 13:50 17.06.2019
6222 Thunderstorm 23 1015 47 10000 5.7 120 13:24 17.06.2019
6223 Clouds 28 1016 45 10000 3.1 110 12:52 17.06.2019
6224 Clouds 28 1016 45 10000 3.1 110 12:31 17.06.2019
6225 Clouds 28 1016 51 10000 3.1 120 11:49 17.06.2019
6226 Clouds 26 1016 51 10000 3.1 120 11:26 17.06.2019
6227 Clouds 26 1016 57 10000 2.6 0 10:59 17.06.2019
6228 Clouds 26 1016 54 10000 2.6 280 10:40 17.06.2019
6229 Clouds 26 1016 54 10000 2.6 280 10:22 17.06.2019
6230 Clouds 25 1016 57 10000 2.1 280 09:55 17.06.2019
6231 Clouds 24 1017 64 10000 1.5 300 09:30 17.06.2019
6232 Clouds 20 1016 77 10000 1.5 290 08:42 17.06.2019
6233 Clouds 19 1016 77 10000 1.5 290 08:23 17.06.2019
6234 Clear 19 1016 82 10000 1 39.459 07:46 17.06.2019
6235 Clear 18 1016 82 10000 1 39.459 07:28 17.06.2019
6236 Clear 16 1016 88 10000 1 39.459 06:44 17.06.2019
6237 Clear 13 1016 87 10000 1 0 05:49 17.06.2019
6238 Clear 13 1015 87 10000 0.5 0 04:42 17.06.2019
6239 Clear 13 1015 87 10000 1 150 03:49 17.06.2019
6240 Clear 14 1015 88 10000 2.1 90 02:59 17.06.2019
6241 Clear 14 1015 82 10000 1.5 140 02:41 17.06.2019
6242 Clear 15 1016 82 10000 1.02 32.303 01:55 17.06.2019
6243 Clear 14 1015 88 10000 1 150 01:33 17.06.2019
6244 Clear 15 1015 82 10000 2.1 110 00:44 17.06.2019
6245 Clear 15 1015 82 10000 2.1 110 00:44 17.06.2019
6246 Clear 15 1015 82 10000 2.1 110 00:22 17.06.2019
6247 Clear 15 1015 82 10000 2.1 140 23:43 16.06.2019
6248 Clear 15 1015 82 10000 2.1 140 23:23 16.06.2019
6249 Clear 16 1015 72 10000 1.5 120 22:57 16.06.2019
6250 Clear 17 1015 68 10000 2.1 0 22:39 16.06.2019
6251 Clear 18 1015 68 10000 2.1 0 22:18 16.06.2019
6252 Clear 17 1015 68 10000 1.8 41.15 21:41 16.06.2019
6253 Clear 18 1015 68 10000 1.56 70.777 21:23 16.06.2019
6254 Clear 19 1015 60 10000 1.5 130 20:59 16.06.2019
6255 Clouds 19 1014 60 10000 1.95 67.281 20:37 16.06.2019
6256 Clouds 16 1014 60 10000 1.95 67.281 20:18 16.06.2019
6257 Clouds 16 1014 60 10000 1.95 67.281 20:18 16.06.2019
6258 Clouds 16 1014 50 10000 3.6 90 19:42 16.06.2019
6259 Clouds 16 1014 50 10000 3.6 90 19:22 16.06.2019
6260 Clouds 17 1014 44 10000 5.1 100 18:59 16.06.2019
6261 Clouds 19 1013 36 10000 4.6 120 18:40 16.06.2019
6262 Clouds 27 1013 36 10000 4.6 120 18:20 16.06.2019
6263 Clouds 27 1013 37 10000 6.2 110 17:48 16.06.2019
6264 Clouds 27 1013 39 10000 7.2 110 17:22 16.06.2019
6265 Clouds 27 1013 42 10000 7.2 110 16:57 16.06.2019
6266 Clouds 28 1014 48 10000 8.2 120 16:39 16.06.2019
6267 Clouds 28 1014 48 10000 8.2 120 16:21 16.06.2019
6268 Clouds 28 1014 45 10000 7.7 110 15:42 16.06.2019
6269 Clouds 28 1014 45 10000 7.7 110 15:24 16.06.2019
6270 Rain 29 1014 35 10000 2.1 0 14:45 16.06.2019
6271 Rain 28 1014 35 10000 2.1 0 14:23 16.06.2019
6272 Clouds 29 1015 39 10000 2.6 120 13:52 16.06.2019
6273 Clouds 28 1015 39 10000 3.6 120 13:28 16.06.2019
6274 Thunderstorm 28 1015 47 10000 1 0 12:58 16.06.2019
6275 Rain 29 1015 39 10000 3.1 60 12:39 16.06.2019
6276 Rain 28 1015 39 10000 3.1 60 12:19 16.06.2019
6277 Clouds 28 1015 42 10000 2.6 0 11:46 16.06.2019
6278 Clouds 27 1015 51 10000 2.1 0 11:20 16.06.2019
6279 Clouds 27 1016 50 10000 1 0 10:46 16.06.2019
6280 Clouds 27 1016 54 10000 1 0 10:22 16.06.2019
6281 Clouds 25 1016 60 10000 1 0 09:56 16.06.2019
6282 Clear 24 1016 64 10000 1.5 130 09:36 16.06.2019
6283 Clear 24 1016 64 10000 1.5 130 09:18 16.06.2019
6284 Clear 21 1016 73 10000 1.5 0 08:40 16.06.2019
6285 Clear 19 1016 73 10000 1.5 0 08:19 16.06.2019
6286 Clear 19 1016 77 10000 1.48 148.491 07:44 16.06.2019
6287 Clear 16 1016 82 10000 1.48 148.491 06:59 16.06.2019
6288 Clear 16 1016 88 10000 1 330 06:37 16.06.2019
6289 Clear 14 1016 87 10000 1.5 340 05:50 16.06.2019
6290 Clear 14 1015 93 10000 1 99.002 04:54 16.06.2019
6291 Clear 14 1015 87 10000 1.5 130 03:57 16.06.2019
6292 Clear 14 1016 87 10000 1.5 110 03:32 16.06.2019
6293 Clear 14 1016 87 10000 3.1 120 02:31 16.06.2019
6294 Clear 14 1016 88 10000 2.1 120 01:44 16.06.2019
6295 Clear 14 1016 88 10000 2.1 120 01:26 16.06.2019
6296 Clear 15 1017 82 10000 2.1 100 00:40 16.06.2019
6297 Clear 15 1017 82 10000 2.1 100 00:21 16.06.2019
6298 Clear 15 1017 68 10000 2.1 100 23:44 15.06.2019
6299 Clear 15 1017 68 10000 2.1 100 23:25 15.06.2019
6300 Clear 15 1016 68 10000 3.1 180 22:50 15.06.2019
6301 Clear 16 1016 64 10000 2.6 190 22:27 15.06.2019
6302 Clear 16 1016 64 10000 2.6 200 21:50 15.06.2019
6303 Clear 16 1016 56 10000 1.5 160 21:29 15.06.2019
6304 Clear 18 1016 60 10000 2.06 49.773 20:59 15.06.2019
6305 Clear 19 1016 50 10000 2.1 150 20:41 15.06.2019
6306 Clear 19 1016 50 10000 2.1 150 20:21 15.06.2019
6307 Clouds 16 1016 50 10000 2.6 110 19:42 15.06.2019
6308 Clouds 18 1016 50 10000 2.6 110 19:23 15.06.2019
6309 Clouds 19 1016 42 10000 4.6 130 18:40 15.06.2019
6310 Clouds 23 1016 42 10000 4.6 130 18:21 15.06.2019
6311 Clouds 23 1016 34 10000 6.7 120 17:43 15.06.2019
6312 Clouds 23 1016 34 10000 6.7 120 17:43 15.06.2019
6313 Clouds 23 1016 34 10000 6.7 120 17:23 15.06.2019
6314 Clouds 24 1016 42 10000 2.6 120 16:48 15.06.2019
6315 Clouds 24 1016 42 10000 2.6 120 16:20 15.06.2019
6316 Clouds 25 1016 40 10000 4.1 120 15:44 15.06.2019
6317 Clouds 25 1016 40 10000 4.1 120 15:23 15.06.2019
6318 Clouds 24 1016 35 10000 3.6 90 14:43 15.06.2019
6319 Clouds 29 1016 35 10000 3.6 90 14:19 15.06.2019
6320 Clouds 28 1017 39 10000 3.6 50 13:58 15.06.2019
6321 Clouds 28 1017 37 10000 5.1 60 13:39 15.06.2019
6322 Clouds 28 1017 35 10000 5.1 80 13:18 15.06.2019
6323 Clouds 29 1018 37 10000 5.1 70 12:47 15.06.2019
6324 Clouds 29 1018 37 10000 5.1 70 12:25 15.06.2019
6325 Clouds 28 1018 42 10000 4.1 100 11:51 15.06.2019
6326 Clouds 27 1018 47 10000 3.1 90 11:32 15.06.2019
6327 Clouds 28 1018 51 10000 2.1 150 10:47 15.06.2019
6328 Clear 27 1018 54 10000 2.1 120 10:26 15.06.2019
6329 Clear 26 1018 54 10000 1.5 280 09:56 15.06.2019
6330 Clear 25 1018 57 10000 1.5 300 09:38 15.06.2019
6331 Clear 21 1018 57 10000 1.5 300 09:18 15.06.2019
6332 Clouds 21 1019 73 10000 0.5 0 08:41 15.06.2019
6333 Clouds 20 1019 73 10000 0.5 0 08:18 15.06.2019
6334 Clouds 20 1019 73 10000 0.5 0 08:18 15.06.2019
6335 Clear 18 1019 82 8000 1 0 07:26 15.06.2019
6336 Clear 17 1019 88 7000 1.5 90 06:48 15.06.2019
6337 Mist 14 1019 93 5000 2.1 90 06:29 15.06.2019
6338 Clear 13 1019 87 7000 1.5 110 05:39 15.06.2019
6339 Clear 14 1019 88 10000 1.5 160 04:56 15.06.2019
6340 Clear 14 1019 93 10000 2.1 120 04:26 15.06.2019
6341 Clear 14 1019 93 10000 0.5 0 03:23 15.06.2019
6342 Clear 14 1019 93 10000 1.5 90 02:34 15.06.2019
6343 Clear 15 1019 82 10000 0.5 0 01:57 15.06.2019
6344 Clear 15 1019 82 10000 0.5 0 01:57 15.06.2019
6345 Clear 15 1019 77 10000 0.5 0 01:24 15.06.2019
6346 Clear 16 1019 77 10000 2.1 310 00:42 15.06.2019
6347 Clear 16 1019 77 10000 2.1 310 00:23 15.06.2019
6348 Clear 16 1020 73 10000 2.6 240 23:49 14.06.2019
6349 Clear 16 1020 68 10000 2.1 0 23:20 14.06.2019
6350 Clear 18 1020 69 10000 2.1 160 22:41 14.06.2019
6351 Clear 18 1020 69 10000 2.1 160 22:21 14.06.2019
6352 Clear 18 1019 64 10000 2.1 60 21:48 14.06.2019
6353 Clear 19 1019 64 10000 2.1 60 21:28 14.06.2019
6354 Clear 19 1019 57 10000 2.6 60 20:55 14.06.2019
6355 Clear 19 1018 57 10000 3.1 60 20:36 14.06.2019
6356 Clear 19 1018 57 10000 3.1 60 20:36 14.06.2019
6357 Clear 20 1018 57 10000 3.1 60 20:18 14.06.2019
6358 Clouds 17 1018 47 10000 3.6 50 19:39 14.06.2019
6359 Clouds 17 1018 47 10000 3.6 50 19:19 14.06.2019
6360 Clouds 18 1018 45 10000 5.1 50 18:45 14.06.2019
6361 Clouds 24 1018 45 10000 5.1 50 18:27 14.06.2019
6362 Clouds 23 1018 39 10000 3.6 50 17:58 14.06.2019
6363 Clouds 24 1018 37 10000 4.6 50 17:40 14.06.2019
6364 Clouds 29 1018 37 10000 4.6 50 17:21 14.06.2019
6365 Clouds 29 1018 40 10000 4.6 40 16:48 14.06.2019
6366 Clouds 29 1018 42 10000 4.1 40 16:23 14.06.2019
6367 Clouds 29 1018 42 10000 3.6 40 15:59 14.06.2019
6368 Clouds 29 1018 40 10000 4.6 50 15:39 14.06.2019
6369 Clouds 30 1018 40 10000 3.6 70 15:19 14.06.2019
6370 Clouds 30 1018 40 10000 3.6 70 15:19 14.06.2019
6371 Clouds 30 1018 40 10000 4.6 90 14:43 14.06.2019
6372 Clouds 30 1018 40 10000 4.6 90 14:25 14.06.2019
6373 Clouds 30 1019 40 10000 2.6 0 13:46 14.06.2019
6374 Clouds 30 1019 40 10000 2.6 0 13:27 14.06.2019
6375 Clear 30 1019 40 10000 3.6 130 12:55 14.06.2019
6376 Clear 30 1019 35 10000 2.1 60 12:36 14.06.2019
6377 Clear 30 1019 35 10000 2.1 60 12:36 14.06.2019
6378 Clear 30 1019 35 10000 2.1 60 12:18 14.06.2019
6379 Clear 29 1019 45 10000 1.5 0 11:42 14.06.2019
6380 Clear 29 1019 45 10000 1.5 0 11:23 14.06.2019
6381 Clear 28 1019 47 10000 0.5 0 10:47 14.06.2019
6382 Clear 27 1019 54 10000 0.5 0 10:20 14.06.2019
6383 Clear 27 1019 54 10000 0.5 0 10:20 14.06.2019
6384 Clear 25 1019 60 10000 0.5 0 09:52 14.06.2019
6385 Clear 25 1019 60 10000 1 0 09:33 14.06.2019
6386 Clear 23 1019 68 10000 1 0 08:48 14.06.2019
6387 Clear 19 1019 73 10000 1.25 65.768 08:20 14.06.2019
6388 Clear 19 1019 68 10000 0.5 0 07:53 14.06.2019
6389 Clear 18 1019 72 10000 1.25 65.768 07:22 14.06.2019
6390 Clear 17 1019 77 10000 1.25 65.768 06:52 14.06.2019
6391 Clear 17 1019 77 10000 1.25 65.768 06:52 14.06.2019
6392 Clear 15 1019 88 10000 0.23 41.067 06:18 14.06.2019
6393 Clear 14 1019 87 10000 0.23 41.067 05:33 14.06.2019
6394 Clear 14 1018 93 10000 1.5 80 04:51 14.06.2019
6395 Clear 15 1018 82 10000 1 0 03:59 14.06.2019
6396 Clear 15 1018 82 10000 1 0 03:26 14.06.2019
6397 Clear 15 1018 82 10000 2.1 210 02:58 14.06.2019
6398 Clear 15 1018 82 10000 1 120 02:28 14.06.2019
6399 Clear 15 1018 82 10000 1 120 02:28 14.06.2019
6400 Clear 15 1018 82 10000 2.1 170 01:26 14.06.2019
6401 Clear 16 1018 72 10000 2.1 130 00:36 14.06.2019
6402 Clear 16 1018 72 10000 2.1 130 00:18 14.06.2019
6403 Clear 16 1018 77 10000 1.5 140 23:47 13.06.2019
6404 Clear 16 1018 77 10000 0.8 60.565 23:22 13.06.2019
6405 Clear 17 1018 60 10000 2.1 200 22:40 13.06.2019
6406 Clear 17 1018 60 10000 2.1 200 22:22 13.06.2019
6407 Clear 18 1017 60 10000 2.6 130 21:41 13.06.2019
6408 Clear 19 1017 60 10000 2.6 130 21:20 13.06.2019
6409 Clear 19 1017 57 10000 2.6 140 20:59 13.06.2019
6410 Clear 20 1017 50 10000 1.5 60 20:40 13.06.2019
6411 Clear 20 1017 50 10000 1.5 60 20:19 13.06.2019
6412 Clear 19 1016 39 10000 1 0 19:43 13.06.2019
6413 Clear 22 1016 39 10000 1 0 19:23 13.06.2019
6414 Clear 19 1016 30 10000 1.5 0 18:58 13.06.2019
6415 Clear 19 1016 29 10000 2.1 160 18:40 13.06.2019
6416 Clear 29 1016 29 10000 2.1 160 18:21 13.06.2019
6417 Clear 29 1016 29 10000 2.6 140 17:44 13.06.2019
6418 Clear 30 1016 29 10000 2.6 140 17:21 13.06.2019
6419 Clear 29 1016 27 10000 2.1 0 16:55 13.06.2019
6420 Clear 30 1017 27 10000 2.1 30 16:23 13.06.2019
6421 Clear 30 1017 27 10000 1.5 0 15:59 13.06.2019
6422 Clear 30 1017 27 10000 1.5 280 15:40 13.06.2019
6423 Clear 30 1017 27 10000 1.5 280 15:19 13.06.2019
6424 Clear 29 1017 30 10000 4.6 130 14:48 13.06.2019
6425 Clear 29 1017 30 10000 3.1 80 14:29 13.06.2019
6426 Clear 29 1018 32 10000 2.6 100 13:47 13.06.2019
6427 Clear 29 1018 35 10000 2.6 0 13:22 13.06.2019
6428 Clear 29 1018 32 10000 1.5 0 12:58 13.06.2019
6429 Clear 29 1018 34 10000 1 0 12:38 13.06.2019
6430 Clear 29 1018 34 10000 1 0 12:20 13.06.2019
6431 Clear 27 1019 50 10000 1.5 230 11:43 13.06.2019
6432 Clear 27 1019 50 10000 1.5 230 11:25 13.06.2019
6433 Clear 27 1019 50 10000 1.5 230 11:25 13.06.2019
6434 Clear 26 1019 60 10000 1 0 10:47 13.06.2019
6435 Clear 25 1019 60 10000 1 0 10:28 13.06.2019
6436 Clear 23 1019 64 10000 1.5 0 09:52 13.06.2019
6437 -273 0 0 0 0 0 09:28 13.06.2019
6438 Clear 21 1019 72 10000 1.5 130 08:55 13.06.2019
6439 Clear 21 1019 72 10000 1.5 130 08:55 13.06.2019
6440 Clear 21 1019 72 10000 1.5 130 08:55 13.06.2019
6441 Clear 20 1019 72 10000 1 0 08:37 13.06.2019
6442 Clear 18 1019 77 10000 1.57 165.477 08:19 13.06.2019
6443 Clear 16 1019 82 10000 1 0 07:37 13.06.2019
6444 Clear 15 1019 82 10000 1 0 07:18 13.06.2019
6445 Clear 14 1018 87 8000 2.1 90 06:38 13.06.2019
6446 Clear 14 1018 87 8000 2.1 90 06:20 13.06.2019
6447 Clear 14 1018 93 7000 2.1 110 05:39 13.06.2019
6448 Clear 14 1018 93 7000 2.1 110 05:18 13.06.2019
6449 Clear 14 1018 93 10000 0.96 184.225 03:45 13.06.2019
6450 Clear 16 1018 82 10000 2.6 200 01:55 13.06.2019
6451 Clear 16 1018 88 10000 1.5 300 00:32 13.06.2019
6452 Clear 15 1018 72 10000 0.55 92.526 23:37 12.06.2019
6453 Clear 15 1018 72 10000 0.55 92.526 23:19 12.06.2019
6454 Clear 15 1017 72 10000 2.1 0 22:41 12.06.2019
6455 Clear 16 1017 72 10000 2.1 0 22:21 12.06.2019
6456 Clear 16 1017 64 10000 2.1 200 21:43 12.06.2019
6457 Clear 16 1017 64 10000 2.1 200 21:25 12.06.2019
6458 Clear 17 1017 60 10000 2.1 190 20:49 12.06.2019
6459 Clear 20 1017 56 10000 2.1 0 20:30 12.06.2019
6460 Clear 19 1017 50 10000 1.5 170 19:57 12.06.2019
6461 Clear 19 1016 47 10000 2.1 170 19:39 12.06.2019
6462 Clear 21 1016 47 10000 2.1 170 19:20 12.06.2019
6463 Clouds 18 1016 50 10000 3.6 160 18:47 12.06.2019
6464 Clouds 22 1016 50 10000 3.6 160 18:27 12.06.2019
6465 Clouds 22 1016 47 10000 4.6 150 17:47 12.06.2019
6466 Clouds 22 1016 50 10000 4.1 110 17:23 12.06.2019
6467 Clouds 22 1016 47 10000 5.7 130 16:44 12.06.2019
6468 Clouds 22 1016 47 10000 5.7 130 16:25 12.06.2019
6469 Clouds 21 1016 53 10000 4.6 120 15:59 12.06.2019
6470 Rain 20 1016 60 10000 6.2 140 15:36 12.06.2019
6471 Thunderstorm 22 1016 53 10000 6.2 110 14:59 12.06.2019
6472 Thunderstorm 22 1016 47 10000 2.1 0 14:35 12.06.2019
6473 Thunderstorm 22 1015 47 10000 3.1 90 13:59 12.06.2019
6474 Clouds 22 1016 50 10000 2.1 0 13:41 12.06.2019
6475 Clouds 22 1016 50 10000 2.1 0 13:19 12.06.2019
6476 Clouds 22 1016 61 10000 3.1 70 12:44 12.06.2019
6477 Clouds 22 1016 61 10000 3.1 70 12:22 12.06.2019
6478 Clouds 23 1016 50 10000 3.1 90 11:59 12.06.2019
6479 Clouds 23 1016 57 10000 1.5 0 11:39 12.06.2019
6480 Clouds 23 1016 57 10000 1.5 0 11:21 12.06.2019
6481 Clouds 22 1016 64 10000 1 0 10:44 12.06.2019
6482 Clouds 21 1016 64 10000 1 0 10:20 12.06.2019
6483 Clear 20 1016 73 10000 1 0 09:43 12.06.2019
6484 Clear 18 1016 73 10000 1 0 09:22 12.06.2019
6485 Clear 18 1015 77 10000 1 0 08:38 12.06.2019
6486 Clear 17 1015 77 10000 1 0 08:19 12.06.2019
6487 Clouds 17 1015 82 8000 1 0 07:25 12.06.2019
6488 Clear 15 1015 93 8000 1.5 40 06:40 12.06.2019
6489 Clear 12 1015 93 8000 0.5 0 05:25 12.06.2019
6490 Clear 13 1015 93 10000 1 320 03:41 12.06.2019
6491 Clear 13 1015 93 10000 1 0 00:47 12.06.2019
6492 Clear 13 1015 87 10000 1.5 200 00:20 12.06.2019
6493 Clear 13 1015 87 10000 1 0 23:43 11.06.2019
6494 Clear 13 1015 87 10000 1 0 23:24 11.06.2019
6495 Clear 13 1015 88 10000 1 340.281 22:43 11.06.2019
6496 Clear 13 1015 88 10000 1 340.281 22:18 11.06.2019
6497 Clear 14 1015 82 10000 1 0 21:56 11.06.2019
6498 Clouds 14 1015 82 10000 1 340.281 21:37 11.06.2019
6499 Clouds 13 1015 82 10000 1.46 10.238 21:19 11.06.2019
6500 Clouds 14 1015 77 10000 2.1 230 20:46 11.06.2019
6501 Clouds 17 1015 77 10000 1.5 160 20:22 11.06.2019
6502 Clouds 15 1015 72 10000 1.5 60 19:52 11.06.2019
6503 Clouds 15 1014 68 10000 3.6 40 19:29 11.06.2019
6504 Rain 17 1014 73 10000 4.1 40 18:53 11.06.2019
6505 Rain 22 1014 64 10000 3.6 20 18:20 11.06.2019
6506 Rain 19 1014 60 10000 4.6 30 17:42 11.06.2019
6507 Clouds 23 1014 60 10000 4.6 30 17:22 11.06.2019
6508 Clouds 24 1013 57 10000 3.1 40 16:46 11.06.2019
6509 Clouds 19 1013 57 10000 3.1 40 16:24 11.06.2019
6510 Clouds 19 1014 57 10000 2.6 10 15:59 11.06.2019
6511 Clouds 19 1014 60 10000 4.1 40 15:41 11.06.2019
6512 Clouds 19 1014 60 10000 4.1 40 15:19 11.06.2019
6513 Clouds 20 1014 64 10000 1 0 14:41 11.06.2019
6514 Clouds 21 1014 64 10000 1 0 14:20 11.06.2019
6515 Clouds 23 1014 56 10000 1.5 170 13:50 11.06.2019
6516 Clouds 23 1014 64 10000 1.5 340 13:23 11.06.2019
6517 Clouds 22 1015 68 10000 1.5 360 12:43 11.06.2019
6518 Clouds 22 1015 68 10000 1.5 360 12:43 11.06.2019
6519 Clouds 19 1015 68 10000 1.5 360 12:22 11.06.2019
6520 Clouds 19 1015 68 10000 1.5 20 11:57 11.06.2019
6521 Clouds 19 1015 68 10000 1 0 11:34 11.06.2019
6522 Clouds 18 1014 72 10000 2.1 0 10:58 11.06.2019
6523 Clouds 18 1014 77 10000 1.5 310 10:40 11.06.2019
6524 Clouds 18 1014 77 10000 1.5 310 10:21 11.06.2019
6525 Clouds 15 1014 93 10000 2.1 10 09:45 11.06.2019
6526 Clouds 17 1014 93 10000 2.1 10 09:23 11.06.2019
6527 Clouds 17 1014 93 10000 2.1 10 09:23 11.06.2019
6528 Clouds 17 1014 82 8000 1 0 08:42 11.06.2019
6529 Clouds 15 1014 82 8000 1 0 08:23 11.06.2019
6530 Clouds 15 1014 87 8000 1.91 40.98 07:36 11.06.2019
6531 Clouds 14 1014 87 8000 1 0 06:54 11.06.2019
6532 Clouds 14 1014 93 6000 1.5 160 06:23 11.06.2019
6533 Clouds 10 1014 93 10000 1.82 13.018 04:49 11.06.2019
6534 Clouds 11 1015 87 10000 2.1 290 02:44 11.06.2019
6535 Clouds 14 1015 93 10000 2.6 250 01:23 11.06.2019
6536 Rain 13 1016 88 10000 2.1 320 00:44 11.06.2019
6537 Rain 15 1016 82 10000 2.1 140 23:47 10.06.2019
6538 Rain 13 1017 82 10000 3.6 150 23:21 10.06.2019
6539 Rain 14 1017 60 10000 1 0 22:47 10.06.2019
6540 Clouds 14 1017 82 10000 2.08 9.788 22:29 10.06.2019
6541 Clouds 14 1016 77 10000 2.1 300 21:59 10.06.2019
6542 Clouds 13 1016 82 10000 2.1 310 21:39 10.06.2019
6543 Clouds 16 1016 82 10000 2.1 310 21:21 10.06.2019
6544 Clouds 16 1016 77 10000 2.1 270 20:44 10.06.2019
6545 Clouds 16 1016 77 10000 2.1 270 20:44 10.06.2019
6546 Clouds 17 1016 77 10000 2.1 270 20:23 10.06.2019
6547 Clouds 14 1016 77 10000 1.5 320 19:51 10.06.2019
6548 Clouds 18 1016 77 10000 2.6 340 19:26 10.06.2019
6549 Clouds 18 1015 73 10000 3.6 290 18:59 10.06.2019
6550 Clouds 19 1015 64 10000 2.1 310 18:40 10.06.2019
6551 Clouds 19 1015 64 10000 2.1 310 18:20 10.06.2019
6552 Clouds 19 1016 73 10000 1.5 10 17:44 10.06.2019
6553 Clouds 21 1016 73 10000 1.5 10 17:24 10.06.2019
6554 Clouds 21 1016 68 10000 1.5 50 16:56 10.06.2019
6555 Rain 21 1016 68 10000 4.6 50 16:37 10.06.2019
6556 Rain 21 1016 68 10000 4.6 50 16:18 10.06.2019
6557 Rain 22 1016 60 10000 4.1 50 15:41 10.06.2019
6558 Rain 22 1016 60 10000 4.1 50 15:23 10.06.2019
6559 Rain 21 1017 68 10000 3.1 80 14:46 10.06.2019
6560 Rain 23 1017 68 10000 3.6 140 14:28 10.06.2019
6561 Rain 23 1018 77 10000 4.6 120 13:47 10.06.2019
6562 Rain 23 1018 77 10000 4.6 120 13:28 10.06.2019
6563 Rain 23 1018 77 10000 4.6 130 12:55 10.06.2019
6564 Thunderstorm 23 1018 73 10000 4.6 60 12:32 10.06.2019
6565 Clouds 24 1018 50 10000 5.7 50 11:59 10.06.2019
6566 Clouds 24 1018 53 10000 5.7 60 11:39 10.06.2019
6567 Clouds 24 1018 53 10000 5.7 60 11:19 10.06.2019
6568 Clouds 23 1019 50 10000 4.6 40 10:41 10.06.2019
6569 Clouds 23 1019 50 10000 4.6 40 10:19 10.06.2019
6570 Clouds 22 1019 50 10000 5.1 30 09:52 10.06.2019
6571 Clouds 22 1019 56 10000 2.6 320 09:29 10.06.2019
6572 Clouds 21 1019 60 10000 2.1 0 08:50 10.06.2019
6573 Clouds 18 1019 68 10000 3.1 290 08:27 10.06.2019
6574 Clear 17 1020 82 10000 2.6 310 07:46 10.06.2019
6575 Clouds 14 1020 93 10000 1 0 04:44 10.06.2019
6576 Clear 14 1020 93 10000 1 0 03:46 10.06.2019
6577 Clear 15 1021 77 10000 1.01 27.072 01:56 10.06.2019
6578 Clear 15 1021 77 10000 1 0 01:22 10.06.2019
6579 Clear 15 1021 82 10000 1.5 160 00:47 10.06.2019
6580 Clear 15 1021 82 10000 1.26 45.483 23:49 09.06.2019
6581 Clouds 16 1021 77 10000 2.1 180 23:25 09.06.2019
6582 Clouds 16 1021 68 10000 1.5 160 22:48 09.06.2019
6583 Clouds 16 1021 73 10000 1.5 180 22:27 09.06.2019
6584 Clouds 15 1021 77 10000 1.26 45.483 21:59 09.06.2019
6585 Clouds 15 1020 73 10000 0.5 0 21:37 09.06.2019
6586 Clouds 18 1020 73 10000 0.5 0 21:19 09.06.2019
6587 Clouds 20 1020 60 10000 2.6 100 20:42 09.06.2019
6588 Clouds 19 1020 60 10000 2.6 100 20:22 09.06.2019
6589 Clouds 18 1019 57 10000 3.1 50 19:45 09.06.2019
6590 Clouds 21 1019 57 10000 3.1 50 19:19 09.06.2019
6591 Clouds 20 1020 53 10000 5.1 70 18:45 09.06.2019
6592 Clouds 21 1020 53 10000 5.1 70 18:26 09.06.2019
6593 Clouds 22 1020 53 10000 6.7 80 17:57 09.06.2019
6594 Clouds 22 1020 47 10000 6.2 50 17:38 09.06.2019
6595 Clouds 22 1020 44 10000 8.2 50 16:59 09.06.2019
6596 Clouds 23 1020 48 10000 5.1 60 16:40 09.06.2019
6597 Clouds 23 1020 48 10000 5.1 60 16:20 09.06.2019
6598 Clouds 23 1020 48 10000 5.1 60 16:20 09.06.2019
6599 Clouds 24 1020 48 10000 2.6 30 15:50 09.06.2019
6600 Clouds 23 1020 45 10000 2.6 60 15:29 09.06.2019
6601 Clouds 22 1020 47 10000 4.1 30 14:56 09.06.2019
6602 Clouds 23 1020 47 10000 3.1 0 14:38 09.06.2019
6603 Clouds 20 1020 47 10000 3.1 0 14:19 09.06.2019
6604 Clouds 24 1021 45 10000 4.1 20 13:48 09.06.2019
6605 Clouds 22 1021 47 10000 2.6 50 12:57 09.06.2019
6606 Clouds 22 1022 54 10000 3.1 320 12:35 09.06.2019
6607 Clouds 22 1022 54 10000 3.1 290 11:58 09.06.2019
6608 Clouds 21 1022 57 10000 3.6 280 11:36 09.06.2019
6609 Clouds 21 1022 57 10000 3.6 280 11:18 09.06.2019
6610 Clouds 20 1022 60 10000 3.1 300 10:43 09.06.2019
6611 Clouds 20 1022 60 10000 3.1 300 10:43 09.06.2019
6612 Clouds 20 1022 60 10000 3.1 300 10:20 09.06.2019
6613 Clouds 20 1022 64 10000 4.1 290 09:39 09.06.2019
6614 Clouds 19 1022 64 10000 4.1 290 09:20 09.06.2019
6615 Clouds 19 1022 68 10000 3.6 290 08:45 09.06.2019
6616 Clouds 19 1022 73 10000 4.6 280 07:57 09.06.2019
6617 Clouds 16 1021 82 10000 1 0 06:48 09.06.2019
6618 Clouds 16 1021 88 10000 2.1 100 06:29 09.06.2019
6619 Clear 16 1021 82 10000 2.6 310 03:21 09.06.2019
6620 Clear 17 1021 68 10000 4.1 290 01:37 09.06.2019
6621 Clear 17 1021 68 10000 4.1 290 01:37 09.06.2019
6622 Clear 17 1021 68 10000 4.1 290 01:19 09.06.2019
6623 Clear 18 1021 68 10000 2.6 290 00:31 09.06.2019
6624 Clouds 18 1021 64 10000 2.6 280 23:41 08.06.2019
6625 Clouds 18 1021 64 10000 2.6 280 23:23 08.06.2019
6626 Clouds 19 1021 56 10000 3.1 280 22:55 08.06.2019
6627 Clear 19 1021 56 10000 2.6 290 22:36 08.06.2019
6628 Clear 19 1021 56 10000 2.6 290 22:18 08.06.2019
6629 Clear 21 1020 53 10000 3.1 330 21:41 08.06.2019
6630 Clear 23 1020 53 10000 3.1 330 21:23 08.06.2019
6631 Clear 24 1019 47 10000 4.1 280 20:45 08.06.2019
6632 Clear 22 1019 47 10000 4.1 280 20:25 08.06.2019
6633 Clear 21 1019 44 10000 4.1 290 19:56 08.06.2019
6634 Clear 21 1019 45 10000 5.1 290 19:37 08.06.2019
6635 Clear 22 1019 45 10000 5.1 290 19:19 08.06.2019
6636 Clouds 23 1019 39 10000 6.2 300 18:41 08.06.2019
6637 Clouds 26 1019 39 10000 6.2 300 18:22 08.06.2019
6638 Clouds 25 1019 37 10000 5.7 300 17:44 08.06.2019
6639 Clouds 26 1019 37 10000 5.7 300 17:22 08.06.2019
6640 Clouds 26 1019 37 10000 5.7 290 16:48 08.06.2019
6641 Clouds 26 1019 37 10000 5.7 300 16:29 08.06.2019
6642 Clouds 26 1019 40 10000 5.7 300 15:51 08.06.2019
6643 Clouds 26 1020 37 10000 5.7 290 15:33 08.06.2019
6644 Clouds 26 1020 37 10000 5.7 290 15:33 08.06.2019
6645 Clouds 26 1020 37 10000 5.7 290 15:33 08.06.2019
6646 Clouds 25 1020 35 10000 5.1 300 14:48 08.06.2019
6647 Clouds 25 1020 35 10000 5.1 300 14:48 08.06.2019
6648 Clouds 26 1020 35 10000 5.7 300 14:29 08.06.2019
6649 Clouds 27 1020 37 10000 5.1 300 13:45 08.06.2019
6650 Clouds 27 1020 42 10000 3.6 280 12:53 08.06.2019
6651 Clouds 27 1020 45 10000 3.1 0 12:33 08.06.2019
6652 Clear 26 1021 54 10000 2.1 0 11:44 08.06.2019
6653 Clear 26 1021 54 10000 2.1 0 11:44 08.06.2019
6654 Clear 25 1021 54 10000 2.1 0 11:26 08.06.2019
6655 Clear 24 1021 60 10000 1.5 0 10:47 08.06.2019
6656 Clear 24 1021 60 10000 1.5 0 10:24 08.06.2019
6657 Clear 22 1021 64 10000 0.5 0 09:54 08.06.2019
6658 Clear 21 1021 68 10000 1 0 09:29 08.06.2019
6659 Clear 19 1021 77 10000 1 0 08:40 08.06.2019
6660 Clear 19 1021 77 10000 1 0 08:19 08.06.2019
6661 Clear 16 1021 87 10000 1.41 236.626 06:51 08.06.2019
6662 Clear 15 1021 93 8000 1.41 236.626 06:32 08.06.2019
6663 Clear 13 1021 93 10000 2.1 160 03:35 08.06.2019
6664 Clear 14 1021 72 10000 2.1 160 01:59 08.06.2019
6665 Clear 14 1021 77 10000 2.1 170 00:29 08.06.2019
6666 Clear 15 1021 72 10000 1.5 180 23:52 07.06.2019
6667 Clear 15 1021 77 10000 2.1 140 23:21 07.06.2019
6668 Clear 16 1020 72 10000 1 0 22:50 07.06.2019
6669 Clear 15 1020 77 10000 2.1 160 22:31 07.06.2019
6670 Clear 15 1020 60 10000 1 0 21:54 07.06.2019
6671 Clear 14 1020 60 10000 0.97 289.61 21:31 07.06.2019
6672 Clear 17 1019 64 10000 1 0 20:57 07.06.2019
6673 Clear 18 1019 53 10000 2.1 120 20:38 07.06.2019
6674 Clear 18 1019 53 10000 2.1 120 20:38 07.06.2019
6675 Clear 16 1019 53 10000 2.6 110 19:52 07.06.2019
6676 Clouds 18 1019 50 10000 3.1 90 19:27 07.06.2019
6677 Clouds 16 1019 47 10000 3.6 120 18:59 07.06.2019
6678 Clouds 19 1019 44 10000 4.6 100 18:37 07.06.2019
6679 Clouds 23 1019 44 10000 4.6 100 18:18 07.06.2019
6680 Clouds 25 1018 30 10000 5.1 90 17:39 07.06.2019
6681 Clouds 25 1018 30 10000 5.1 90 17:19 07.06.2019
6682 Clouds 25 1018 30 10000 5.1 90 17:19 07.06.2019
6683 Clouds 24 1018 30 10000 1 0 16:40 07.06.2019
6684 Clouds 23 1018 30 10000 1 0 16:40 07.06.2019
6685 Clouds 24 1019 32 10000 2.1 0 15:54 07.06.2019
6686 Clouds 23 1019 34 10000 2.6 0 15:23 07.06.2019
6687 Clouds 27 1019 34 10000 1.5 0 14:49 07.06.2019
6688 Clouds 23 1019 37 10000 2.1 0 14:27 07.06.2019
6689 Thunderstorm 25 1020 37 10000 2.1 220 13:52 07.06.2019
6690 Clouds 25 1020 39 10000 2.6 230 13:26 07.06.2019
6691 Clouds 25 1020 42 10000 1.5 0 12:51 07.06.2019
66